<?xml version='1.0' encoding='UTF-8'?><gpx version="1.1" creator="JPX - https://github.com/jenetics/jpx" xmlns="http://www.topografix.com/GPX/1/1"><trk><trkseg><trkpt lat="45.5201917" lon="8.78459"><ele>163.0</ele><time>2026-04-26T06:59:33.511Z</time></trkpt><trkpt lat="45.5201033" lon="8.7846583"><ele>163.0</ele><time>2026-04-26T06:59:35.512Z</time></trkpt><trkpt lat="45.5200267" lon="8.78472"><ele>163.0</ele><time>2026-04-26T06:59:37.511Z</time></trkpt><trkpt lat="45.5199483" lon="8.7847783"><ele>163.0</ele><time>2026-04-26T06:59:39.512Z</time></trkpt><trkpt lat="45.5198533" lon="8.78483"><ele>163.0</ele><time>2026-04-26T06:59:41.511Z</time></trkpt><trkpt lat="45.5197783" lon="8.78488"><ele>163.0</ele><time>2026-04-26T06:59:43.511Z</time></trkpt><trkpt lat="45.5196967" lon="8.7849183"><ele>163.0</ele><time>2026-04-26T06:59:45.511Z</time></trkpt><trkpt lat="45.5196183" lon="8.7849417"><ele>163.0</ele><time>2026-04-26T06:59:47.512Z</time></trkpt><trkpt lat="45.5195433" lon="8.784895"><ele>163.0</ele><time>2026-04-26T06:59:49.511Z</time></trkpt><trkpt lat="45.5195017" lon="8.7847867"><ele>163.0</ele><time>2026-04-26T06:59:51.511Z</time></trkpt><trkpt lat="45.5194583" lon="8.78469"><ele>163.0</ele><time>2026-04-26T06:59:53.511Z</time></trkpt><trkpt lat="45.51942" lon="8.7845667"><ele>162.83333333333334</ele><time>2026-04-26T06:59:55.511Z</time></trkpt><trkpt lat="45.519385" lon="8.7844517"><ele>162.66666666666669</ele><time>2026-04-26T06:59:57.512Z</time></trkpt><trkpt lat="45.5193617" lon="8.7843417"><ele>162.5</ele><time>2026-04-26T06:59:59.512Z</time></trkpt><trkpt lat="45.5193267" lon="8.78423"><ele>162.33333333333334</ele><time>2026-04-26T07:00:01.512Z</time></trkpt><trkpt lat="45.5192917" lon="8.7841183"><ele>162.16666666666666</ele><time>2026-04-26T07:00:03.512Z</time></trkpt><trkpt lat="45.5192467" lon="8.7840167"><ele>162.0</ele><time>2026-04-26T07:00:05.512Z</time></trkpt><trkpt lat="45.5192033" lon="8.7839067"><ele>162.39999999999998</ele><time>2026-04-26T07:00:07.512Z</time></trkpt><trkpt lat="45.519165" lon="8.7837883"><ele>162.79999999999998</ele><time>2026-04-26T07:00:09.512Z</time></trkpt><trkpt lat="45.5191233" lon="8.7836683"><ele>163.2</ele><time>2026-04-26T07:00:11.511Z</time></trkpt><trkpt lat="45.5190833" lon="8.78355"><ele>163.6</ele><time>2026-04-26T07:00:13.511Z</time></trkpt><trkpt lat="45.519045" lon="8.7834367"><ele>164.0</ele><time>2026-04-26T07:00:15.511Z</time></trkpt><trkpt lat="45.51901" lon="8.7833233"><ele>164.2</ele><time>2026-04-26T07:00:17.512Z</time></trkpt><trkpt lat="45.5189783" lon="8.783205"><ele>164.39999999999998</ele><time>2026-04-26T07:00:19.511Z</time></trkpt><trkpt lat="45.5189467" lon="8.7830933"><ele>164.6</ele><time>2026-04-26T07:00:21.512Z</time></trkpt><trkpt lat="45.51891" lon="8.7829717"><ele>164.8</ele><time>2026-04-26T07:00:23.511Z</time></trkpt><trkpt lat="45.5188683" lon="8.7828467"><ele>165.0</ele><time>2026-04-26T07:00:25.511Z</time></trkpt><trkpt lat="45.5188317" lon="8.7827317"><ele>165.2</ele><time>2026-04-26T07:00:27.511Z</time></trkpt><trkpt lat="45.5187983" lon="8.7826183"><ele>165.4</ele><time>2026-04-26T07:00:29.511Z</time></trkpt><trkpt lat="45.518765" lon="8.7824967"><ele>165.60000000000002</ele><time>2026-04-26T07:00:31.512Z</time></trkpt><trkpt lat="45.51873" lon="8.78238"><ele>165.8</ele><time>2026-04-26T07:00:33.511Z</time></trkpt><trkpt lat="45.51869" lon="8.7822583"><ele>166.0</ele><time>2026-04-26T07:00:35.511Z</time></trkpt><trkpt lat="45.518645" lon="8.7821433"><ele>166.0</ele><time>2026-04-26T07:00:37.512Z</time></trkpt><trkpt lat="45.51861" lon="8.7820367"><ele>166.0</ele><time>2026-04-26T07:00:39.512Z</time></trkpt><trkpt lat="45.5185733" lon="8.781925"><ele>166.0</ele><time>2026-04-26T07:00:41.511Z</time></trkpt><trkpt lat="45.5185367" lon="8.7818183"><ele>166.0</ele><time>2026-04-26T07:00:43.511Z</time></trkpt><trkpt lat="45.518505" lon="8.7817033"><ele>166.0</ele><time>2026-04-26T07:00:45.512Z</time></trkpt><trkpt lat="45.5184683" lon="8.7815833"><ele>166.0</ele><time>2026-04-26T07:00:47.512Z</time></trkpt><trkpt lat="45.51844" lon="8.781465"><ele>166.0</ele><time>2026-04-26T07:00:49.512Z</time></trkpt><trkpt lat="45.5184017" lon="8.781355"><ele>166.0</ele><time>2026-04-26T07:00:51.511Z</time></trkpt><trkpt lat="45.5183583" lon="8.7812517"><ele>166.0</ele><time>2026-04-26T07:00:53.511Z</time></trkpt><trkpt lat="45.5183233" lon="8.7811367"><ele>166.0</ele><time>2026-04-26T07:00:55.512Z</time></trkpt><trkpt lat="45.5182867" lon="8.78103"><ele>166.0</ele><time>2026-04-26T07:00:57.511Z</time></trkpt><trkpt lat="45.518255" lon="8.7809283"><ele>166.0</ele><time>2026-04-26T07:00:59.511Z</time></trkpt><trkpt lat="45.5182267" lon="8.78084"><ele>165.83333333333334</ele><time>2026-04-26T07:01:01.512Z</time></trkpt><trkpt lat="45.5181833" lon="8.7807617"><ele>165.66666666666669</ele><time>2026-04-26T07:01:03.512Z</time></trkpt><trkpt lat="45.5181117" lon="8.7807267"><ele>165.5</ele><time>2026-04-26T07:01:05.512Z</time></trkpt><trkpt lat="45.5180233" lon="8.7807083"><ele>165.33333333333334</ele><time>2026-04-26T07:01:07.512Z</time></trkpt><trkpt lat="45.5179367" lon="8.7806967"><ele>165.16666666666666</ele><time>2026-04-26T07:01:09.511Z</time></trkpt><trkpt lat="45.5178533" lon="8.7806733"><ele>165.0</ele><time>2026-04-26T07:01:11.512Z</time></trkpt><trkpt lat="45.5177767" lon="8.780625"><ele>164.6</ele><time>2026-04-26T07:01:13.512Z</time></trkpt><trkpt lat="45.5176967" lon="8.7806067"><ele>164.2</ele><time>2026-04-26T07:01:15.512Z</time></trkpt><trkpt lat="45.51761" lon="8.7805867"><ele>163.8</ele><time>2026-04-26T07:01:17.511Z</time></trkpt><trkpt lat="45.5175183" lon="8.78055"><ele>163.4</ele><time>2026-04-26T07:01:19.512Z</time></trkpt><trkpt lat="45.517425" lon="8.780525"><ele>163.0</ele><time>2026-04-26T07:01:21.512Z</time></trkpt><trkpt lat="45.51733" lon="8.7804967"><ele>163.0</ele><time>2026-04-26T07:01:23.512Z</time></trkpt><trkpt lat="45.5172417" lon="8.780475"><ele>163.0</ele><time>2026-04-26T07:01:25.512Z</time></trkpt><trkpt lat="45.51715" lon="8.780455"><ele>163.0</ele><time>2026-04-26T07:01:27.511Z</time></trkpt><trkpt lat="45.5170633" lon="8.78044"><ele>163.0</ele><time>2026-04-26T07:01:29.512Z</time></trkpt><trkpt lat="45.5169733" lon="8.780425"><ele>163.0</ele><time>2026-04-26T07:01:31.511Z</time></trkpt><trkpt lat="45.5168917" lon="8.780425"><ele>163.0</ele><time>2026-04-26T07:01:33.512Z</time></trkpt><trkpt lat="45.5168033" lon="8.7804233"><ele>162.60000000000002</ele><time>2026-04-26T07:01:35.512Z</time></trkpt><trkpt lat="45.5167033" lon="8.7804367"><ele>162.20000000000002</ele><time>2026-04-26T07:01:37.511Z</time></trkpt><trkpt lat="45.5166083" lon="8.780445"><ele>161.8</ele><time>2026-04-26T07:01:39.511Z</time></trkpt><trkpt lat="45.516515" lon="8.7804533"><ele>161.4</ele><time>2026-04-26T07:01:41.512Z</time></trkpt><trkpt lat="45.5164233" lon="8.7804683"><ele>161.0</ele><time>2026-04-26T07:01:43.512Z</time></trkpt><trkpt lat="45.5163283" lon="8.7804783"><ele>161.20000000000002</ele><time>2026-04-26T07:01:45.511Z</time></trkpt><trkpt lat="45.516235" lon="8.7804967"><ele>161.4</ele><time>2026-04-26T07:01:47.511Z</time></trkpt><trkpt lat="45.5161433" lon="8.78052"><ele>161.6</ele><time>2026-04-26T07:01:49.511Z</time></trkpt><trkpt lat="45.5160517" lon="8.78054"><ele>161.8</ele><time>2026-04-26T07:01:51.511Z</time></trkpt><trkpt lat="45.5159617" lon="8.7805533"><ele>162.0</ele><time>2026-04-26T07:01:53.511Z</time></trkpt><trkpt lat="45.51587" lon="8.7805633"><ele>162.0</ele><time>2026-04-26T07:01:55.51Z</time></trkpt><trkpt lat="45.5157767" lon="8.7805817"><ele>162.0</ele><time>2026-04-26T07:01:57.511Z</time></trkpt><trkpt lat="45.5156833" lon="8.7805917"><ele>162.0</ele><time>2026-04-26T07:01:59.51Z</time></trkpt><trkpt lat="45.5155917" lon="8.780605"><ele>162.0</ele><time>2026-04-26T07:02:01.51Z</time></trkpt><trkpt lat="45.5154983" lon="8.7806183"><ele>162.0</ele><time>2026-04-26T07:02:03.511Z</time></trkpt><trkpt lat="45.515405" lon="8.780645"><ele>161.8</ele><time>2026-04-26T07:02:05.51Z</time></trkpt><trkpt lat="45.51531" lon="8.780665"><ele>161.6</ele><time>2026-04-26T07:02:07.511Z</time></trkpt><trkpt lat="45.5152167" lon="8.7806833"><ele>161.4</ele><time>2026-04-26T07:02:09.511Z</time></trkpt><trkpt lat="45.51512" lon="8.7807017"><ele>161.20000000000002</ele><time>2026-04-26T07:02:11.51Z</time></trkpt><trkpt lat="45.515025" lon="8.7807217"><ele>161.0</ele><time>2026-04-26T07:02:13.511Z</time></trkpt><trkpt lat="45.514935" lon="8.7807483"><ele>161.0</ele><time>2026-04-26T07:02:15.51Z</time></trkpt><trkpt lat="45.51484" lon="8.7807783"><ele>161.0</ele><time>2026-04-26T07:02:17.511Z</time></trkpt><trkpt lat="45.5147467" lon="8.780805"><ele>161.0</ele><time>2026-04-26T07:02:19.51Z</time></trkpt><trkpt lat="45.514655" lon="8.78083"><ele>161.0</ele><time>2026-04-26T07:02:21.511Z</time></trkpt><trkpt lat="45.5145567" lon="8.7808633"><ele>161.0</ele><time>2026-04-26T07:02:23.51Z</time></trkpt><trkpt lat="45.5144583" lon="8.780905"><ele>160.8</ele><time>2026-04-26T07:02:25.51Z</time></trkpt><trkpt lat="45.51436" lon="8.7809517"><ele>160.60000000000002</ele><time>2026-04-26T07:02:27.511Z</time></trkpt><trkpt lat="45.51427" lon="8.7810017"><ele>160.4</ele><time>2026-04-26T07:02:29.51Z</time></trkpt><trkpt lat="45.5141783" lon="8.78105"><ele>160.2</ele><time>2026-04-26T07:02:31.51Z</time></trkpt><trkpt lat="45.5140833" lon="8.7811033"><ele>160.0</ele><time>2026-04-26T07:02:33.511Z</time></trkpt><trkpt lat="45.5139967" lon="8.7811517"><ele>160.0</ele><time>2026-04-26T07:02:35.51Z</time></trkpt><trkpt lat="45.5139033" lon="8.7812117"><ele>160.0</ele><time>2026-04-26T07:02:37.51Z</time></trkpt><trkpt lat="45.5138133" lon="8.78127"><ele>160.0</ele><time>2026-04-26T07:02:39.51Z</time></trkpt><trkpt lat="45.5137217" lon="8.7813233"><ele>160.0</ele><time>2026-04-26T07:02:41.511Z</time></trkpt><trkpt lat="45.5136333" lon="8.7813767"><ele>160.0</ele><time>2026-04-26T07:02:43.51Z</time></trkpt><trkpt lat="45.5135467" lon="8.7814333"><ele>160.2</ele><time>2026-04-26T07:02:45.51Z</time></trkpt><trkpt lat="45.5134633" lon="8.7814883"><ele>160.4</ele><time>2026-04-26T07:02:47.51Z</time></trkpt><trkpt lat="45.5133767" lon="8.781545"><ele>160.60000000000002</ele><time>2026-04-26T07:02:49.51Z</time></trkpt><trkpt lat="45.513285" lon="8.7816017"><ele>160.8</ele><time>2026-04-26T07:02:51.51Z</time></trkpt><trkpt lat="45.5131917" lon="8.78166"><ele>161.0</ele><time>2026-04-26T07:02:53.511Z</time></trkpt><trkpt lat="45.5131017" lon="8.7817167"><ele>161.0</ele><time>2026-04-26T07:02:55.51Z</time></trkpt><trkpt lat="45.5130167" lon="8.78178"><ele>161.0</ele><time>2026-04-26T07:02:57.511Z</time></trkpt><trkpt lat="45.5129283" lon="8.7818367"><ele>161.0</ele><time>2026-04-26T07:02:59.511Z</time></trkpt><trkpt lat="45.5128383" lon="8.7818933"><ele>161.0</ele><time>2026-04-26T07:03:01.51Z</time></trkpt><trkpt lat="45.5127483" lon="8.78195"><ele>161.0</ele><time>2026-04-26T07:03:03.51Z</time></trkpt><trkpt lat="45.5126567" lon="8.781995"><ele>160.8</ele><time>2026-04-26T07:03:05.51Z</time></trkpt><trkpt lat="45.512565" lon="8.7820533"><ele>160.60000000000002</ele><time>2026-04-26T07:03:07.51Z</time></trkpt><trkpt lat="45.5124817" lon="8.78211"><ele>160.4</ele><time>2026-04-26T07:03:09.51Z</time></trkpt><trkpt lat="45.5123933" lon="8.78218"><ele>160.2</ele><time>2026-04-26T07:03:11.511Z</time></trkpt><trkpt lat="45.512305" lon="8.7822367"><ele>160.0</ele><time>2026-04-26T07:03:13.511Z</time></trkpt><trkpt lat="45.5122183" lon="8.7822817"><ele>160.0</ele><time>2026-04-26T07:03:15.511Z</time></trkpt><trkpt lat="45.5121317" lon="8.78233"><ele>160.0</ele><time>2026-04-26T07:03:17.511Z</time></trkpt><trkpt lat="45.5120417" lon="8.7823817"><ele>160.0</ele><time>2026-04-26T07:03:19.511Z</time></trkpt><trkpt lat="45.5119517" lon="8.7824283"><ele>160.0</ele><time>2026-04-26T07:03:21.511Z</time></trkpt><trkpt lat="45.5118667" lon="8.78247"><ele>160.0</ele><time>2026-04-26T07:03:23.51Z</time></trkpt><trkpt lat="45.5117983" lon="8.7825067"><ele>160.0</ele><time>2026-04-26T07:03:25.51Z</time></trkpt><trkpt lat="45.51172" lon="8.7824483"><ele>160.0</ele><time>2026-04-26T07:03:28.51Z</time></trkpt><trkpt lat="45.5116933" lon="8.78234"><ele>160.0</ele><time>2026-04-26T07:03:30.51Z</time></trkpt><trkpt lat="45.5116417" lon="8.78221"><ele>160.0</ele><time>2026-04-26T07:03:32.511Z</time></trkpt><trkpt lat="45.5115933" lon="8.7820917"><ele>160.0</ele><time>2026-04-26T07:03:34.51Z</time></trkpt><trkpt lat="45.5115483" lon="8.78197"><ele>160.0</ele><time>2026-04-26T07:03:36.511Z</time></trkpt><trkpt lat="45.511505" lon="8.781855"><ele>160.2</ele><time>2026-04-26T07:03:38.51Z</time></trkpt><trkpt lat="45.5114633" lon="8.78173"><ele>160.4</ele><time>2026-04-26T07:03:40.511Z</time></trkpt><trkpt lat="45.5114083" lon="8.7816183"><ele>160.60000000000002</ele><time>2026-04-26T07:03:42.51Z</time></trkpt><trkpt lat="45.5113633" lon="8.7815083"><ele>160.8</ele><time>2026-04-26T07:03:44.51Z</time></trkpt><trkpt lat="45.5113167" lon="8.7813983"><ele>161.0</ele><time>2026-04-26T07:03:46.51Z</time></trkpt><trkpt lat="45.5112733" lon="8.781265"><ele>161.0</ele><time>2026-04-26T07:03:48.511Z</time></trkpt><trkpt lat="45.5112417" lon="8.7811367"><ele>161.0</ele><time>2026-04-26T07:03:50.51Z</time></trkpt><trkpt lat="45.51122" lon="8.7810117"><ele>161.0</ele><time>2026-04-26T07:03:52.511Z</time></trkpt><trkpt lat="45.5111983" lon="8.7808833"><ele>161.0</ele><time>2026-04-26T07:03:54.51Z</time></trkpt><trkpt lat="45.5111733" lon="8.780755"><ele>161.0</ele><time>2026-04-26T07:03:56.51Z</time></trkpt><trkpt lat="45.51116" lon="8.7806167"><ele>159.60000000000002</ele><time>2026-04-26T07:03:58.51Z</time></trkpt><trkpt lat="45.5111133" lon="8.7805083"><ele>158.20000000000002</ele><time>2026-04-26T07:04:00.51Z</time></trkpt><trkpt lat="45.5110417" lon="8.78039"><ele>156.8</ele><time>2026-04-26T07:04:02.51Z</time></trkpt><trkpt lat="45.5109683" lon="8.7802633"><ele>155.4</ele><time>2026-04-26T07:04:04.511Z</time></trkpt><trkpt lat="45.5108867" lon="8.7801267"><ele>154.0</ele><time>2026-04-26T07:04:06.511Z</time></trkpt><trkpt lat="45.5108383" lon="8.7800533"><ele>153.5</ele><time>2026-04-26T07:04:07.51Z</time></trkpt><trkpt lat="45.5107817" lon="8.7799717"><ele>153.0</ele><time>2026-04-26T07:04:08.51Z</time></trkpt><trkpt lat="45.5107283" lon="8.7798967"><ele>152.5</ele><time>2026-04-26T07:04:09.51Z</time></trkpt><trkpt lat="45.5106717" lon="8.7798183"><ele>152.0</ele><time>2026-04-26T07:04:10.51Z</time></trkpt><trkpt lat="45.5106117" lon="8.7797333"><ele>151.5</ele><time>2026-04-26T07:04:11.51Z</time></trkpt><trkpt lat="45.5105567" lon="8.7796383"><ele>151.0</ele><time>2026-04-26T07:04:12.51Z</time></trkpt><trkpt lat="45.510495" lon="8.779535"><ele>151.0</ele><time>2026-04-26T07:04:13.511Z</time></trkpt><trkpt lat="45.5104333" lon="8.7794283"><ele>151.0</ele><time>2026-04-26T07:04:14.511Z</time></trkpt><trkpt lat="45.510365" lon="8.7793217"><ele>151.0</ele><time>2026-04-26T07:04:15.511Z</time></trkpt><trkpt lat="45.5102983" lon="8.7792067"><ele>151.0</ele><time>2026-04-26T07:04:16.511Z</time></trkpt><trkpt lat="45.51023" lon="8.7790917"><ele>151.0</ele><time>2026-04-26T07:04:17.511Z</time></trkpt><trkpt lat="45.5101567" lon="8.7789883"><ele>149.2</ele><time>2026-04-26T07:04:18.51Z</time></trkpt><trkpt lat="45.51008" lon="8.7788767"><ele>147.39999999999998</ele><time>2026-04-26T07:04:19.511Z</time></trkpt><trkpt lat="45.5100033" lon="8.7787533"><ele>145.6</ele><time>2026-04-26T07:04:20.51Z</time></trkpt><trkpt lat="45.5099333" lon="8.77865"><ele>143.79999999999998</ele><time>2026-04-26T07:04:21.51Z</time></trkpt><trkpt lat="45.5098417" lon="8.7785783"><ele>142.0</ele><time>2026-04-26T07:04:22.51Z</time></trkpt><trkpt lat="45.5097333" lon="8.7785333"><ele>142.75</ele><time>2026-04-26T07:04:23.511Z</time></trkpt><trkpt lat="45.5096233" lon="8.77849"><ele>143.5</ele><time>2026-04-26T07:04:24.511Z</time></trkpt><trkpt lat="45.50951" lon="8.7784467"><ele>144.25</ele><time>2026-04-26T07:04:25.511Z</time></trkpt><trkpt lat="45.5093967" lon="8.7784183"><ele>145.0</ele><time>2026-04-26T07:04:26.51Z</time></trkpt><trkpt lat="45.509275" lon="8.7783667"><ele>142.75</ele><time>2026-04-26T07:04:27.51Z</time></trkpt><trkpt lat="45.509155" lon="8.7783167"><ele>140.5</ele><time>2026-04-26T07:04:28.511Z</time></trkpt><trkpt lat="45.5090367" lon="8.77827"><ele>138.25</ele><time>2026-04-26T07:04:29.51Z</time></trkpt><trkpt lat="45.5089333" lon="8.7782183"><ele>136.0</ele><time>2026-04-26T07:04:30.51Z</time></trkpt><trkpt lat="45.5088283" lon="8.7781733"><ele>135.2</ele><time>2026-04-26T07:04:31.511Z</time></trkpt><trkpt lat="45.5087283" lon="8.7781183"><ele>134.39999999999998</ele><time>2026-04-26T07:04:32.51Z</time></trkpt><trkpt lat="45.5086233" lon="8.7780583"><ele>133.6</ele><time>2026-04-26T07:04:33.51Z</time></trkpt><trkpt lat="45.50853" lon="8.7779967"><ele>132.79999999999998</ele><time>2026-04-26T07:04:34.511Z</time></trkpt><trkpt lat="45.5084517" lon="8.7779167"><ele>132.0</ele><time>2026-04-26T07:04:35.511Z</time></trkpt><trkpt lat="45.5083667" lon="8.77784"><ele>132.0</ele><time>2026-04-26T07:04:36.51Z</time></trkpt><trkpt lat="45.5082833" lon="8.77778"><ele>132.0</ele><time>2026-04-26T07:04:37.511Z</time></trkpt><trkpt lat="45.5082033" lon="8.77772"><ele>132.0</ele><time>2026-04-26T07:04:38.51Z</time></trkpt><trkpt lat="45.50813" lon="8.7776517"><ele>132.0</ele><time>2026-04-26T07:04:39.51Z</time></trkpt><trkpt lat="45.50806" lon="8.7775883"><ele>132.0</ele><time>2026-04-26T07:04:40.511Z</time></trkpt><trkpt lat="45.5079983" lon="8.7775217"><ele>132.0</ele><time>2026-04-26T07:04:41.51Z</time></trkpt><trkpt lat="45.507935" lon="8.77746"><ele>132.0</ele><time>2026-04-26T07:04:42.511Z</time></trkpt><trkpt lat="45.5078683" lon="8.777405"><ele>132.0</ele><time>2026-04-26T07:04:43.511Z</time></trkpt><trkpt lat="45.5078083" lon="8.7773533"><ele>132.0</ele><time>2026-04-26T07:04:44.511Z</time></trkpt><trkpt lat="45.5077517" lon="8.7772933"><ele>132.0</ele><time>2026-04-26T07:04:45.51Z</time></trkpt><trkpt lat="45.5076917" lon="8.777235"><ele>132.0</ele><time>2026-04-26T07:04:46.51Z</time></trkpt><trkpt lat="45.5076383" lon="8.77718"><ele>132.0</ele><time>2026-04-26T07:04:47.51Z</time></trkpt><trkpt lat="45.507525" lon="8.777095"><ele>132.0</ele><time>2026-04-26T07:04:49.511Z</time></trkpt><trkpt lat="45.5074683" lon="8.7770517"><ele>132.0</ele><time>2026-04-26T07:04:50.51Z</time></trkpt><trkpt lat="45.50741" lon="8.7770033"><ele>132.0</ele><time>2026-04-26T07:04:51.51Z</time></trkpt><trkpt lat="45.50731" lon="8.7769"><ele>132.0</ele><time>2026-04-26T07:04:53.511Z</time></trkpt><trkpt lat="45.507205" lon="8.776805"><ele>132.0</ele><time>2026-04-26T07:04:55.51Z</time></trkpt><trkpt lat="45.5071117" lon="8.7767267"><ele>131.79999999999998</ele><time>2026-04-26T07:04:57.51Z</time></trkpt><trkpt lat="45.507015" lon="8.776645"><ele>131.6</ele><time>2026-04-26T07:04:59.51Z</time></trkpt><trkpt lat="45.506925" lon="8.7765667"><ele>131.39999999999998</ele><time>2026-04-26T07:05:01.511Z</time></trkpt><trkpt lat="45.506835" lon="8.776485"><ele>131.2</ele><time>2026-04-26T07:05:03.51Z</time></trkpt><trkpt lat="45.506755" lon="8.7764033"><ele>131.0</ele><time>2026-04-26T07:05:05.51Z</time></trkpt><trkpt lat="45.5066667" lon="8.7763383"><ele>131.0</ele><time>2026-04-26T07:05:07.511Z</time></trkpt><trkpt lat="45.50659" lon="8.7762683"><ele>131.0</ele><time>2026-04-26T07:05:09.51Z</time></trkpt><trkpt lat="45.5065067" lon="8.7762"><ele>131.0</ele><time>2026-04-26T07:05:11.51Z</time></trkpt><trkpt lat="45.5064483" lon="8.776095"><ele>131.0</ele><time>2026-04-26T07:05:13.511Z</time></trkpt><trkpt lat="45.5064367" lon="8.7759533"><ele>131.0</ele><time>2026-04-26T07:05:15.51Z</time></trkpt><trkpt lat="45.5064683" lon="8.7758117"><ele>131.2</ele><time>2026-04-26T07:05:17.511Z</time></trkpt><trkpt lat="45.5065017" lon="8.7756767"><ele>131.39999999999998</ele><time>2026-04-26T07:05:19.511Z</time></trkpt><trkpt lat="45.50653" lon="8.775535"><ele>131.6</ele><time>2026-04-26T07:05:21.51Z</time></trkpt><trkpt lat="45.5065583" lon="8.77541"><ele>131.79999999999998</ele><time>2026-04-26T07:05:23.51Z</time></trkpt><trkpt lat="45.5065483" lon="8.7752933"><ele>132.0</ele><time>2026-04-26T07:05:25.51Z</time></trkpt><trkpt lat="45.506535" lon="8.7751867"><ele>132.33333333333334</ele><time>2026-04-26T07:05:27.511Z</time></trkpt><trkpt lat="45.50649" lon="8.7750967"><ele>132.66666666666666</ele><time>2026-04-26T07:05:30.51Z</time></trkpt><trkpt lat="45.5064083" lon="8.775065"><ele>133.0</ele><time>2026-04-26T07:05:33.51Z</time></trkpt><trkpt lat="45.5063417" lon="8.7750233"><ele>133.33333333333331</ele><time>2026-04-26T07:05:36.511Z</time></trkpt><trkpt lat="45.5062783" lon="8.7749917"><ele>133.66666666666666</ele><time>2026-04-26T07:05:41.511Z</time></trkpt><trkpt lat="45.5062367" lon="8.7750833"><ele>134.0</ele><time>2026-04-26T07:05:51.511Z</time></trkpt><trkpt lat="45.5062017" lon="8.7751783"><ele>134.25</ele><time>2026-04-26T07:05:53.51Z</time></trkpt><trkpt lat="45.5061633" lon="8.7753117"><ele>134.5</ele><time>2026-04-26T07:05:55.51Z</time></trkpt><trkpt lat="45.50612" lon="8.7754583"><ele>134.75</ele><time>2026-04-26T07:05:57.51Z</time></trkpt><trkpt lat="45.506075" lon="8.775615"><ele>135.0</ele><time>2026-04-26T07:05:59.511Z</time></trkpt><trkpt lat="45.5060367" lon="8.7757783"><ele>135.0</ele><time>2026-04-26T07:06:01.51Z</time></trkpt><trkpt lat="45.5059917" lon="8.7759283"><ele>135.0</ele><time>2026-04-26T07:06:03.51Z</time></trkpt><trkpt lat="45.5059567" lon="8.7760883"><ele>135.0</ele><time>2026-04-26T07:06:05.51Z</time></trkpt><trkpt lat="45.5059167" lon="8.776215"><ele>135.0</ele><time>2026-04-26T07:06:07.511Z</time></trkpt><trkpt lat="45.505855" lon="8.7762367"><ele>135.0</ele><time>2026-04-26T07:06:09.511Z</time></trkpt><trkpt lat="45.5058067" lon="8.7761383"><ele>135.0</ele><time>2026-04-26T07:06:11.511Z</time></trkpt><trkpt lat="45.50576" lon="8.7760317"><ele>135.0</ele><time>2026-04-26T07:06:13.51Z</time></trkpt><trkpt lat="45.505715" lon="8.7759283"><ele>135.0</ele><time>2026-04-26T07:06:15.51Z</time></trkpt><trkpt lat="45.505665" lon="8.7758117"><ele>135.0</ele><time>2026-04-26T07:06:17.51Z</time></trkpt><trkpt lat="45.5056133" lon="8.7756983"><ele>135.0</ele><time>2026-04-26T07:06:19.511Z</time></trkpt><trkpt lat="45.5055633" lon="8.7755567"><ele>135.0</ele><time>2026-04-26T07:06:21.51Z</time></trkpt><trkpt lat="45.5055117" lon="8.7754233"><ele>135.0</ele><time>2026-04-26T07:06:23.51Z</time></trkpt><trkpt lat="45.50547" lon="8.775285"><ele>135.0</ele><time>2026-04-26T07:06:25.51Z</time></trkpt><trkpt lat="45.5054283" lon="8.7751567"><ele>135.0</ele><time>2026-04-26T07:06:27.51Z</time></trkpt><trkpt lat="45.50536" lon="8.77501"><ele>135.0</ele><time>2026-04-26T07:06:29.511Z</time></trkpt><trkpt lat="45.5052917" lon="8.7748767"><ele>135.2</ele><time>2026-04-26T07:06:31.511Z</time></trkpt><trkpt lat="45.5052433" lon="8.7747533"><ele>135.4</ele><time>2026-04-26T07:06:33.51Z</time></trkpt><trkpt lat="45.5051883" lon="8.7746333"><ele>135.6</ele><time>2026-04-26T07:06:35.51Z</time></trkpt><trkpt lat="45.5051317" lon="8.7745017"><ele>135.8</ele><time>2026-04-26T07:06:37.511Z</time></trkpt><trkpt lat="45.5050683" lon="8.77437"><ele>136.0</ele><time>2026-04-26T07:06:39.511Z</time></trkpt><trkpt lat="45.5050017" lon="8.774245"><ele>135.6</ele><time>2026-04-26T07:06:41.511Z</time></trkpt><trkpt lat="45.504945" lon="8.7741217"><ele>135.2</ele><time>2026-04-26T07:06:43.51Z</time></trkpt><trkpt lat="45.5049067" lon="8.7739867"><ele>134.8</ele><time>2026-04-26T07:06:45.51Z</time></trkpt><trkpt lat="45.5048583" lon="8.7738667"><ele>134.4</ele><time>2026-04-26T07:06:47.511Z</time></trkpt><trkpt lat="45.5048133" lon="8.7737167"><ele>134.0</ele><time>2026-04-26T07:06:49.511Z</time></trkpt><trkpt lat="45.5047667" lon="8.7735833"><ele>133.4</ele><time>2026-04-26T07:06:51.511Z</time></trkpt><trkpt lat="45.5047183" lon="8.7734633"><ele>132.8</ele><time>2026-04-26T07:06:53.511Z</time></trkpt><trkpt lat="45.5046833" lon="8.7733317"><ele>132.2</ele><time>2026-04-26T07:06:55.51Z</time></trkpt><trkpt lat="45.504655" lon="8.7731967"><ele>131.6</ele><time>2026-04-26T07:06:57.51Z</time></trkpt><trkpt lat="45.5046117" lon="8.77307"><ele>131.0</ele><time>2026-04-26T07:06:59.51Z</time></trkpt><trkpt lat="45.5045817" lon="8.7729267"><ele>130.6</ele><time>2026-04-26T07:07:01.511Z</time></trkpt><trkpt lat="45.50453" lon="8.7728017"><ele>130.2</ele><time>2026-04-26T07:07:03.511Z</time></trkpt><trkpt lat="45.5044967" lon="8.7726667"><ele>129.8</ele><time>2026-04-26T07:07:05.511Z</time></trkpt><trkpt lat="45.5044533" lon="8.7725483"><ele>129.4</ele><time>2026-04-26T07:07:07.51Z</time></trkpt><trkpt lat="45.5044083" lon="8.7724167"><ele>129.0</ele><time>2026-04-26T07:07:09.511Z</time></trkpt><trkpt lat="45.5043717" lon="8.77229"><ele>129.0</ele><time>2026-04-26T07:07:11.511Z</time></trkpt><trkpt lat="45.5043317" lon="8.7721533"><ele>129.0</ele><time>2026-04-26T07:07:13.51Z</time></trkpt><trkpt lat="45.5042933" lon="8.772035"><ele>129.0</ele><time>2026-04-26T07:07:15.51Z</time></trkpt><trkpt lat="45.5042467" lon="8.771915"><ele>129.0</ele><time>2026-04-26T07:07:17.511Z</time></trkpt><trkpt lat="45.5042067" lon="8.7718"><ele>129.0</ele><time>2026-04-26T07:07:19.51Z</time></trkpt><trkpt lat="45.5041567" lon="8.7716833"><ele>129.4</ele><time>2026-04-26T07:07:21.511Z</time></trkpt><trkpt lat="45.5041" lon="8.7715783"><ele>129.8</ele><time>2026-04-26T07:07:23.51Z</time></trkpt><trkpt lat="45.5040517" lon="8.771475"><ele>130.2</ele><time>2026-04-26T07:07:25.511Z</time></trkpt><trkpt lat="45.504" lon="8.771375"><ele>130.6</ele><time>2026-04-26T07:07:27.511Z</time></trkpt><trkpt lat="45.503945" lon="8.7712683"><ele>131.0</ele><time>2026-04-26T07:07:29.51Z</time></trkpt><trkpt lat="45.503885" lon="8.771155"><ele>131.0</ele><time>2026-04-26T07:07:31.511Z</time></trkpt><trkpt lat="45.503825" lon="8.771065"><ele>131.0</ele><time>2026-04-26T07:07:33.51Z</time></trkpt><trkpt lat="45.5037633" lon="8.7709467"><ele>131.0</ele><time>2026-04-26T07:07:35.511Z</time></trkpt><trkpt lat="45.5037" lon="8.7708417"><ele>131.0</ele><time>2026-04-26T07:07:37.51Z</time></trkpt><trkpt lat="45.503645" lon="8.7707267"><ele>131.0</ele><time>2026-04-26T07:07:39.511Z</time></trkpt><trkpt lat="45.503585" lon="8.7706283"><ele>130.8</ele><time>2026-04-26T07:07:41.51Z</time></trkpt><trkpt lat="45.5035333" lon="8.7705067"><ele>130.6</ele><time>2026-04-26T07:07:43.51Z</time></trkpt><trkpt lat="45.5034733" lon="8.770395"><ele>130.4</ele><time>2026-04-26T07:07:45.51Z</time></trkpt><trkpt lat="45.5034183" lon="8.7702883"><ele>130.2</ele><time>2026-04-26T07:07:47.51Z</time></trkpt><trkpt lat="45.503355" lon="8.7701867"><ele>130.0</ele><time>2026-04-26T07:07:49.511Z</time></trkpt><trkpt lat="45.5032917" lon="8.7700867"><ele>130.0</ele><time>2026-04-26T07:07:51.51Z</time></trkpt><trkpt lat="45.50325" lon="8.7699717"><ele>130.0</ele><time>2026-04-26T07:07:53.51Z</time></trkpt><trkpt lat="45.5031933" lon="8.76986"><ele>130.0</ele><time>2026-04-26T07:07:55.511Z</time></trkpt><trkpt lat="45.503135" lon="8.76975"><ele>130.0</ele><time>2026-04-26T07:07:57.51Z</time></trkpt><trkpt lat="45.5030883" lon="8.7696533"><ele>130.0</ele><time>2026-04-26T07:07:59.511Z</time></trkpt><trkpt lat="45.5030417" lon="8.769555"><ele>130.0</ele><time>2026-04-26T07:08:01.51Z</time></trkpt><trkpt lat="45.5029983" lon="8.7694583"><ele>130.0</ele><time>2026-04-26T07:08:03.511Z</time></trkpt><trkpt lat="45.5029417" lon="8.76938"><ele>130.0</ele><time>2026-04-26T07:08:05.51Z</time></trkpt><trkpt lat="45.5028767" lon="8.7693467"><ele>130.0</ele><time>2026-04-26T07:08:07.51Z</time></trkpt><trkpt lat="45.5028033" lon="8.769415"><ele>130.0</ele><time>2026-04-26T07:08:09.511Z</time></trkpt><trkpt lat="45.5027433" lon="8.7694883"><ele>130.0</ele><time>2026-04-26T07:08:11.51Z</time></trkpt><trkpt lat="45.50268" lon="8.7695567"><ele>130.0</ele><time>2026-04-26T07:08:13.511Z</time></trkpt><trkpt lat="45.5025933" lon="8.769645"><ele>130.0</ele><time>2026-04-26T07:08:15.511Z</time></trkpt><trkpt lat="45.50252" lon="8.769725"><ele>130.0</ele><time>2026-04-26T07:08:17.511Z</time></trkpt><trkpt lat="45.502445" lon="8.7698"><ele>130.0</ele><time>2026-04-26T07:08:19.51Z</time></trkpt><trkpt lat="45.5023617" lon="8.769885"><ele>130.0</ele><time>2026-04-26T07:08:21.51Z</time></trkpt><trkpt lat="45.5022817" lon="8.7699683"><ele>130.0</ele><time>2026-04-26T07:08:23.51Z</time></trkpt><trkpt lat="45.502215" lon="8.7700617"><ele>130.0</ele><time>2026-04-26T07:08:25.511Z</time></trkpt><trkpt lat="45.502125" lon="8.7701333"><ele>130.0</ele><time>2026-04-26T07:08:27.51Z</time></trkpt><trkpt lat="45.5020367" lon="8.77021"><ele>130.0</ele><time>2026-04-26T07:08:29.51Z</time></trkpt><trkpt lat="45.50195" lon="8.7703"><ele>130.0</ele><time>2026-04-26T07:08:31.511Z</time></trkpt><trkpt lat="45.501845" lon="8.77037"><ele>130.2</ele><time>2026-04-26T07:08:33.51Z</time></trkpt><trkpt lat="45.501755" lon="8.7704233"><ele>130.4</ele><time>2026-04-26T07:08:35.51Z</time></trkpt><trkpt lat="45.5016533" lon="8.7704683"><ele>130.6</ele><time>2026-04-26T07:08:37.51Z</time></trkpt><trkpt lat="45.5015567" lon="8.7705083"><ele>130.8</ele><time>2026-04-26T07:08:39.511Z</time></trkpt><trkpt lat="45.5014533" lon="8.7705583"><ele>131.0</ele><time>2026-04-26T07:08:41.51Z</time></trkpt><trkpt lat="45.5013483" lon="8.7706183"><ele>131.0</ele><time>2026-04-26T07:08:43.51Z</time></trkpt><trkpt lat="45.5012467" lon="8.77069"><ele>131.0</ele><time>2026-04-26T07:08:45.511Z</time></trkpt><trkpt lat="45.501145" lon="8.7707483"><ele>131.0</ele><time>2026-04-26T07:08:47.51Z</time></trkpt><trkpt lat="45.501055" lon="8.7708033"><ele>131.0</ele><time>2026-04-26T07:08:49.511Z</time></trkpt><trkpt lat="45.5009667" lon="8.77087"><ele>131.0</ele><time>2026-04-26T07:08:51.511Z</time></trkpt><trkpt lat="45.5008767" lon="8.7709317"><ele>131.0</ele><time>2026-04-26T07:08:53.511Z</time></trkpt><trkpt lat="45.50078" lon="8.7710067"><ele>131.0</ele><time>2026-04-26T07:08:55.51Z</time></trkpt><trkpt lat="45.500665" lon="8.771065"><ele>131.0</ele><time>2026-04-26T07:08:57.51Z</time></trkpt><trkpt lat="45.50056" lon="8.7711217"><ele>131.0</ele><time>2026-04-26T07:08:59.51Z</time></trkpt><trkpt lat="45.5004633" lon="8.771165"><ele>131.0</ele><time>2026-04-26T07:09:01.51Z</time></trkpt><trkpt lat="45.5003717" lon="8.77119"><ele>131.0</ele><time>2026-04-26T07:09:03.511Z</time></trkpt><trkpt lat="45.5002717" lon="8.7712217"><ele>131.0</ele><time>2026-04-26T07:09:05.51Z</time></trkpt><trkpt lat="45.5001767" lon="8.771215"><ele>131.0</ele><time>2026-04-26T07:09:07.51Z</time></trkpt><trkpt lat="45.5000917" lon="8.771215"><ele>131.0</ele><time>2026-04-26T07:09:09.51Z</time></trkpt><trkpt lat="45.4999983" lon="8.771225"><ele>131.0</ele><time>2026-04-26T07:09:11.511Z</time></trkpt><trkpt lat="45.4998967" lon="8.7712333"><ele>131.0</ele><time>2026-04-26T07:09:13.51Z</time></trkpt><trkpt lat="45.4998" lon="8.77124"><ele>131.0</ele><time>2026-04-26T07:09:15.51Z</time></trkpt><trkpt lat="45.4997067" lon="8.771245"><ele>131.0</ele><time>2026-04-26T07:09:17.51Z</time></trkpt><trkpt lat="45.4996133" lon="8.7712483"><ele>131.0</ele><time>2026-04-26T07:09:19.511Z</time></trkpt><trkpt lat="45.4995117" lon="8.7712583"><ele>131.0</ele><time>2026-04-26T07:09:21.511Z</time></trkpt><trkpt lat="45.4994183" lon="8.77127"><ele>130.6</ele><time>2026-04-26T07:09:23.511Z</time></trkpt><trkpt lat="45.4993333" lon="8.7712867"><ele>130.2</ele><time>2026-04-26T07:09:25.511Z</time></trkpt><trkpt lat="45.4992317" lon="8.7713383"><ele>129.8</ele><time>2026-04-26T07:09:27.511Z</time></trkpt><trkpt lat="45.4991467" lon="8.7713633"><ele>129.4</ele><time>2026-04-26T07:09:29.51Z</time></trkpt><trkpt lat="45.4990483" lon="8.771405"><ele>129.0</ele><time>2026-04-26T07:09:31.51Z</time></trkpt><trkpt lat="45.4989633" lon="8.771435"><ele>129.0</ele><time>2026-04-26T07:09:33.51Z</time></trkpt><trkpt lat="45.49888" lon="8.7714517"><ele>129.0</ele><time>2026-04-26T07:09:35.51Z</time></trkpt><trkpt lat="45.4987883" lon="8.7714883"><ele>129.0</ele><time>2026-04-26T07:09:37.511Z</time></trkpt><trkpt lat="45.4987117" lon="8.771555"><ele>129.0</ele><time>2026-04-26T07:09:39.51Z</time></trkpt><trkpt lat="45.4986983" lon="8.7716833"><ele>129.0</ele><time>2026-04-26T07:09:42.51Z</time></trkpt><trkpt lat="45.4987383" lon="8.7717967"><ele>129.0</ele><time>2026-04-26T07:09:44.51Z</time></trkpt><trkpt lat="45.4987817" lon="8.7719033"><ele>129.0</ele><time>2026-04-26T07:09:46.51Z</time></trkpt><trkpt lat="45.4988283" lon="8.7720117"><ele>129.0</ele><time>2026-04-26T07:09:48.51Z</time></trkpt><trkpt lat="45.4988633" lon="8.7721383"><ele>129.0</ele><time>2026-04-26T07:09:50.51Z</time></trkpt><trkpt lat="45.49891" lon="8.772255"><ele>129.0</ele><time>2026-04-26T07:09:52.509Z</time></trkpt><trkpt lat="45.4989733" lon="8.772385"><ele>129.0</ele><time>2026-04-26T07:09:54.51Z</time></trkpt><trkpt lat="45.49901" lon="8.7724867"><ele>129.0</ele><time>2026-04-26T07:09:56.51Z</time></trkpt><trkpt lat="45.4990517" lon="8.772605"><ele>129.0</ele><time>2026-04-26T07:09:58.509Z</time></trkpt><trkpt lat="45.4991017" lon="8.7727267"><ele>129.0</ele><time>2026-04-26T07:10:00.51Z</time></trkpt><trkpt lat="45.4991433" lon="8.77284"><ele>129.0</ele><time>2026-04-26T07:10:02.51Z</time></trkpt><trkpt lat="45.4991883" lon="8.7729633"><ele>129.0</ele><time>2026-04-26T07:10:04.51Z</time></trkpt><trkpt lat="45.4992383" lon="8.77307"><ele>128.8</ele><time>2026-04-26T07:10:06.51Z</time></trkpt><trkpt lat="45.4992933" lon="8.7732"><ele>128.60000000000002</ele><time>2026-04-26T07:10:08.509Z</time></trkpt><trkpt lat="45.499345" lon="8.77333"><ele>128.4</ele><time>2026-04-26T07:10:10.509Z</time></trkpt><trkpt lat="45.4993933" lon="8.7734517"><ele>128.20000000000002</ele><time>2026-04-26T07:10:12.509Z</time></trkpt><trkpt lat="45.4994283" lon="8.7735817"><ele>128.0</ele><time>2026-04-26T07:10:14.509Z</time></trkpt><trkpt lat="45.499465" lon="8.77372"><ele>128.0</ele><time>2026-04-26T07:10:16.509Z</time></trkpt><trkpt lat="45.4994567" lon="8.7738433"><ele>128.0</ele><time>2026-04-26T07:10:18.509Z</time></trkpt><trkpt lat="45.4993867" lon="8.77397"><ele>128.0</ele><time>2026-04-26T07:10:20.51Z</time></trkpt><trkpt lat="45.49931" lon="8.7740467"><ele>128.0</ele><time>2026-04-26T07:10:22.509Z</time></trkpt><trkpt lat="45.499235" lon="8.7741333"><ele>128.0</ele><time>2026-04-26T07:10:24.51Z</time></trkpt><trkpt lat="45.4991583" lon="8.7742317"><ele>128.0</ele><time>2026-04-26T07:10:26.51Z</time></trkpt><trkpt lat="45.4990967" lon="8.7743283"><ele>128.0</ele><time>2026-04-26T07:10:28.51Z</time></trkpt><trkpt lat="45.49904" lon="8.7744567"><ele>128.0</ele><time>2026-04-26T07:10:30.51Z</time></trkpt><trkpt lat="45.4990117" lon="8.7745817"><ele>128.0</ele><time>2026-04-26T07:10:32.51Z</time></trkpt><trkpt lat="45.498995" lon="8.77471"><ele>128.0</ele><time>2026-04-26T07:10:34.509Z</time></trkpt><trkpt lat="45.4989583" lon="8.7748517"><ele>128.0</ele><time>2026-04-26T07:10:36.51Z</time></trkpt><trkpt lat="45.49893" lon="8.7749783"><ele>128.0</ele><time>2026-04-26T07:10:38.509Z</time></trkpt><trkpt lat="45.498945" lon="8.7751067"><ele>128.0</ele><time>2026-04-26T07:10:40.51Z</time></trkpt><trkpt lat="45.4989583" lon="8.7752633"><ele>128.0</ele><time>2026-04-26T07:10:42.509Z</time></trkpt><trkpt lat="45.4989917" lon="8.77541"><ele>128.0</ele><time>2026-04-26T07:10:44.51Z</time></trkpt><trkpt lat="45.49901" lon="8.77557"><ele>128.0</ele><time>2026-04-26T07:10:46.509Z</time></trkpt><trkpt lat="45.4990383" lon="8.77572"><ele>128.0</ele><time>2026-04-26T07:10:48.51Z</time></trkpt><trkpt lat="45.4990017" lon="8.77587"><ele>128.0</ele><time>2026-04-26T07:10:50.509Z</time></trkpt><trkpt lat="45.4989317" lon="8.7759583"><ele>128.0</ele><time>2026-04-26T07:10:52.509Z</time></trkpt><trkpt lat="45.49884" lon="8.7759767"><ele>128.0</ele><time>2026-04-26T07:10:54.509Z</time></trkpt><trkpt lat="45.4987417" lon="8.776005"><ele>128.0</ele><time>2026-04-26T07:10:56.509Z</time></trkpt><trkpt lat="45.4986483" lon="8.77603"><ele>128.0</ele><time>2026-04-26T07:10:58.51Z</time></trkpt><trkpt lat="45.4985483" lon="8.7760517"><ele>128.0</ele><time>2026-04-26T07:11:00.51Z</time></trkpt><trkpt lat="45.4984483" lon="8.7760833"><ele>128.0</ele><time>2026-04-26T07:11:02.509Z</time></trkpt><trkpt lat="45.4983533" lon="8.776125"><ele>128.0</ele><time>2026-04-26T07:11:04.509Z</time></trkpt><trkpt lat="45.4982533" lon="8.77616"><ele>128.0</ele><time>2026-04-26T07:11:06.51Z</time></trkpt><trkpt lat="45.4981483" lon="8.7762033"><ele>128.0</ele><time>2026-04-26T07:11:08.51Z</time></trkpt><trkpt lat="45.4980517" lon="8.776235"><ele>128.0</ele><time>2026-04-26T07:11:10.51Z</time></trkpt><trkpt lat="45.4979533" lon="8.77627"><ele>128.0</ele><time>2026-04-26T07:11:12.51Z</time></trkpt><trkpt lat="45.4978567" lon="8.7763017"><ele>128.0</ele><time>2026-04-26T07:11:14.51Z</time></trkpt><trkpt lat="45.4977667" lon="8.7763283"><ele>128.0</ele><time>2026-04-26T07:11:16.51Z</time></trkpt><trkpt lat="45.4976767" lon="8.7763667"><ele>128.0</ele><time>2026-04-26T07:11:18.509Z</time></trkpt><trkpt lat="45.4975867" lon="8.7763983"><ele>128.0</ele><time>2026-04-26T07:11:20.509Z</time></trkpt><trkpt lat="45.497485" lon="8.776435"><ele>128.0</ele><time>2026-04-26T07:11:22.51Z</time></trkpt><trkpt lat="45.4973867" lon="8.776475"><ele>128.0</ele><time>2026-04-26T07:11:24.509Z</time></trkpt><trkpt lat="45.49729" lon="8.7765167"><ele>128.0</ele><time>2026-04-26T07:11:26.51Z</time></trkpt><trkpt lat="45.4972" lon="8.776555"><ele>128.0</ele><time>2026-04-26T07:11:28.509Z</time></trkpt><trkpt lat="45.4971083" lon="8.7766183"><ele>128.0</ele><time>2026-04-26T07:11:30.51Z</time></trkpt><trkpt lat="45.497015" lon="8.77667"><ele>128.0</ele><time>2026-04-26T07:11:32.51Z</time></trkpt><trkpt lat="45.4969283" lon="8.7767433"><ele>128.0</ele><time>2026-04-26T07:11:34.51Z</time></trkpt><trkpt lat="45.496845" lon="8.776805"><ele>127.60000000000001</ele><time>2026-04-26T07:11:36.509Z</time></trkpt><trkpt lat="45.4967483" lon="8.77689"><ele>127.20000000000002</ele><time>2026-04-26T07:11:38.509Z</time></trkpt><trkpt lat="45.4966667" lon="8.776965"><ele>126.8</ele><time>2026-04-26T07:11:40.51Z</time></trkpt><trkpt lat="45.496575" lon="8.7770367"><ele>126.4</ele><time>2026-04-26T07:11:42.509Z</time></trkpt><trkpt lat="45.4964867" lon="8.7771133"><ele>126.0</ele><time>2026-04-26T07:11:44.51Z</time></trkpt><trkpt lat="45.4964167" lon="8.7771883"><ele>126.0</ele><time>2026-04-26T07:11:46.509Z</time></trkpt><trkpt lat="45.4963333" lon="8.7772717"><ele>126.0</ele><time>2026-04-26T07:11:48.509Z</time></trkpt><trkpt lat="45.49625" lon="8.7773483"><ele>126.0</ele><time>2026-04-26T07:11:50.509Z</time></trkpt><trkpt lat="45.49617" lon="8.7774283"><ele>126.0</ele><time>2026-04-26T07:11:52.51Z</time></trkpt><trkpt lat="45.4960883" lon="8.7775183"><ele>126.0</ele><time>2026-04-26T07:11:54.509Z</time></trkpt><trkpt lat="45.49601" lon="8.7776217"><ele>126.0</ele><time>2026-04-26T07:11:56.51Z</time></trkpt><trkpt lat="45.4959267" lon="8.7777367"><ele>126.0</ele><time>2026-04-26T07:11:58.51Z</time></trkpt><trkpt lat="45.4958667" lon="8.7778467"><ele>126.0</ele><time>2026-04-26T07:12:00.509Z</time></trkpt><trkpt lat="45.495805" lon="8.7779617"><ele>126.0</ele><time>2026-04-26T07:12:02.509Z</time></trkpt><trkpt lat="45.4957333" lon="8.778095"><ele>126.0</ele><time>2026-04-26T07:12:04.509Z</time></trkpt><trkpt lat="45.4956717" lon="8.7782033"><ele>126.0</ele><time>2026-04-26T07:12:06.51Z</time></trkpt><trkpt lat="45.4955883" lon="8.7783117"><ele>126.0</ele><time>2026-04-26T07:12:08.509Z</time></trkpt><trkpt lat="45.49553" lon="8.7784217"><ele>126.0</ele><time>2026-04-26T07:12:10.51Z</time></trkpt><trkpt lat="45.4954633" lon="8.77854"><ele>126.0</ele><time>2026-04-26T07:12:12.51Z</time></trkpt><trkpt lat="45.4953933" lon="8.778645"><ele>126.0</ele><time>2026-04-26T07:12:14.51Z</time></trkpt><trkpt lat="45.4953233" lon="8.7787733"><ele>126.4</ele><time>2026-04-26T07:12:16.509Z</time></trkpt><trkpt lat="45.4952767" lon="8.7788817"><ele>126.8</ele><time>2026-04-26T07:12:18.509Z</time></trkpt><trkpt lat="45.495235" lon="8.779025"><ele>127.20000000000002</ele><time>2026-04-26T07:12:20.509Z</time></trkpt><trkpt lat="45.4952267" lon="8.7791783"><ele>127.60000000000001</ele><time>2026-04-26T07:12:22.51Z</time></trkpt><trkpt lat="45.495185" lon="8.77933"><ele>128.0</ele><time>2026-04-26T07:12:24.51Z</time></trkpt><trkpt lat="45.4951183" lon="8.7794567"><ele>128.0</ele><time>2026-04-26T07:12:26.51Z</time></trkpt><trkpt lat="45.4950467" lon="8.779575"><ele>128.0</ele><time>2026-04-26T07:12:28.509Z</time></trkpt><trkpt lat="45.4949733" lon="8.779695"><ele>128.0</ele><time>2026-04-26T07:12:30.51Z</time></trkpt><trkpt lat="45.49492" lon="8.7798133"><ele>128.0</ele><time>2026-04-26T07:12:32.509Z</time></trkpt><trkpt lat="45.4948667" lon="8.7799467"><ele>128.0</ele><time>2026-04-26T07:12:34.509Z</time></trkpt><trkpt lat="45.4948517" lon="8.78009"><ele>127.60000000000001</ele><time>2026-04-26T07:12:36.509Z</time></trkpt><trkpt lat="45.494855" lon="8.7802583"><ele>127.20000000000002</ele><time>2026-04-26T07:12:38.51Z</time></trkpt><trkpt lat="45.4948783" lon="8.7804217"><ele>126.8</ele><time>2026-04-26T07:12:40.509Z</time></trkpt><trkpt lat="45.4948967" lon="8.78057"><ele>126.4</ele><time>2026-04-26T07:12:42.509Z</time></trkpt><trkpt lat="45.49492" lon="8.7807217"><ele>126.0</ele><time>2026-04-26T07:12:44.509Z</time></trkpt><trkpt lat="45.494935" lon="8.780875"><ele>126.4</ele><time>2026-04-26T07:12:46.509Z</time></trkpt><trkpt lat="45.4949517" lon="8.7810167"><ele>126.8</ele><time>2026-04-26T07:12:48.51Z</time></trkpt><trkpt lat="45.4949717" lon="8.7811567"><ele>127.20000000000002</ele><time>2026-04-26T07:12:50.51Z</time></trkpt><trkpt lat="45.4949833" lon="8.7813017"><ele>127.60000000000001</ele><time>2026-04-26T07:12:52.509Z</time></trkpt><trkpt lat="45.4949967" lon="8.781455"><ele>128.0</ele><time>2026-04-26T07:12:54.509Z</time></trkpt><trkpt lat="45.49501" lon="8.7816017"><ele>128.0</ele><time>2026-04-26T07:12:56.509Z</time></trkpt><trkpt lat="45.495025" lon="8.78174"><ele>128.0</ele><time>2026-04-26T07:12:58.509Z</time></trkpt><trkpt lat="45.495045" lon="8.7818783"><ele>128.0</ele><time>2026-04-26T07:13:00.51Z</time></trkpt><trkpt lat="45.495055" lon="8.782015"><ele>128.0</ele><time>2026-04-26T07:13:02.51Z</time></trkpt><trkpt lat="45.4950567" lon="8.7821483"><ele>128.0</ele><time>2026-04-26T07:13:04.51Z</time></trkpt><trkpt lat="45.4950783" lon="8.782305"><ele>127.80000000000001</ele><time>2026-04-26T07:13:06.509Z</time></trkpt><trkpt lat="45.4950917" lon="8.7824567"><ele>127.60000000000001</ele><time>2026-04-26T07:13:08.509Z</time></trkpt><trkpt lat="45.4951067" lon="8.7826083"><ele>127.39999999999999</ele><time>2026-04-26T07:13:10.509Z</time></trkpt><trkpt lat="45.4951217" lon="8.7827467"><ele>127.19999999999999</ele><time>2026-04-26T07:13:12.509Z</time></trkpt><trkpt lat="45.4951267" lon="8.782875"><ele>127.0</ele><time>2026-04-26T07:13:14.509Z</time></trkpt><trkpt lat="45.4951317" lon="8.783005"><ele>126.8</ele><time>2026-04-26T07:13:16.509Z</time></trkpt><trkpt lat="45.4951517" lon="8.7831417"><ele>126.6</ele><time>2026-04-26T07:13:18.509Z</time></trkpt><trkpt lat="45.49518" lon="8.7832867"><ele>126.39999999999999</ele><time>2026-04-26T07:13:20.51Z</time></trkpt><trkpt lat="45.4952167" lon="8.78344"><ele>126.19999999999999</ele><time>2026-04-26T07:13:22.51Z</time></trkpt><trkpt lat="45.4952533" lon="8.78361"><ele>126.0</ele><time>2026-04-26T07:13:24.509Z</time></trkpt><trkpt lat="45.49529" lon="8.7837767"><ele>126.0</ele><time>2026-04-26T07:13:26.51Z</time></trkpt><trkpt lat="45.4952933" lon="8.7839533"><ele>126.0</ele><time>2026-04-26T07:13:28.509Z</time></trkpt><trkpt lat="45.49527" lon="8.78412"><ele>126.0</ele><time>2026-04-26T07:13:30.509Z</time></trkpt><trkpt lat="45.4952517" lon="8.7842083"><ele>126.0</ele><time>2026-04-26T07:13:31.51Z</time></trkpt><trkpt lat="45.4952367" lon="8.7843717"><ele>126.0</ele><time>2026-04-26T07:13:33.51Z</time></trkpt><trkpt lat="45.4952267" lon="8.78454"><ele>126.25</ele><time>2026-04-26T07:13:35.509Z</time></trkpt><trkpt lat="45.4952217" lon="8.7847133"><ele>126.5</ele><time>2026-04-26T07:13:37.509Z</time></trkpt><trkpt lat="45.4952083" lon="8.7848567"><ele>126.75</ele><time>2026-04-26T07:13:39.51Z</time></trkpt><trkpt lat="45.4951617" lon="8.7849917"><ele>127.0</ele><time>2026-04-26T07:13:41.509Z</time></trkpt><trkpt lat="45.4950833" lon="8.7851367"><ele>126.8</ele><time>2026-04-26T07:13:43.51Z</time></trkpt><trkpt lat="45.49501" lon="8.7852683"><ele>126.6</ele><time>2026-04-26T07:13:45.51Z</time></trkpt><trkpt lat="45.4949367" lon="8.7853917"><ele>126.39999999999999</ele><time>2026-04-26T07:13:47.509Z</time></trkpt><trkpt lat="45.4948883" lon="8.7854583"><ele>126.19999999999999</ele><time>2026-04-26T07:13:48.51Z</time></trkpt><trkpt lat="45.4948033" lon="8.7855833"><ele>126.0</ele><time>2026-04-26T07:13:50.509Z</time></trkpt><trkpt lat="45.4947517" lon="8.7856517"><ele>126.0</ele><time>2026-04-26T07:13:51.51Z</time></trkpt><trkpt lat="45.494675" lon="8.7857867"><ele>126.0</ele><time>2026-04-26T07:13:53.51Z</time></trkpt><trkpt lat="45.4946283" lon="8.7858483"><ele>126.0</ele><time>2026-04-26T07:13:54.509Z</time></trkpt><trkpt lat="45.4945233" lon="8.7859383"><ele>126.0</ele><time>2026-04-26T07:13:56.509Z</time></trkpt><trkpt lat="45.4944717" lon="8.78599"><ele>126.0</ele><time>2026-04-26T07:13:57.509Z</time></trkpt><trkpt lat="45.4944117" lon="8.786025"><ele>126.0</ele><time>2026-04-26T07:13:58.509Z</time></trkpt><trkpt lat="45.4942983" lon="8.786095"><ele>125.83333333333333</ele><time>2026-04-26T07:14:00.51Z</time></trkpt><trkpt lat="45.4942383" lon="8.7861317"><ele>125.66666666666666</ele><time>2026-04-26T07:14:01.509Z</time></trkpt><trkpt lat="45.4941233" lon="8.7862117"><ele>125.5</ele><time>2026-04-26T07:14:03.51Z</time></trkpt><trkpt lat="45.4940117" lon="8.7862733"><ele>125.33333333333333</ele><time>2026-04-26T07:14:05.51Z</time></trkpt><trkpt lat="45.4939483" lon="8.7863117"><ele>125.16666666666666</ele><time>2026-04-26T07:14:06.509Z</time></trkpt><trkpt lat="45.4938883" lon="8.7863517"><ele>125.0</ele><time>2026-04-26T07:14:07.509Z</time></trkpt><trkpt lat="45.4938283" lon="8.78639"><ele>124.99999999999999</ele><time>2026-04-26T07:14:08.509Z</time></trkpt><trkpt lat="45.4937717" lon="8.7864317"><ele>125.0</ele><time>2026-04-26T07:14:09.509Z</time></trkpt><trkpt lat="45.4937033" lon="8.7864733"><ele>125.0</ele><time>2026-04-26T07:14:10.509Z</time></trkpt><trkpt lat="45.49364" lon="8.7865167"><ele>125.0</ele><time>2026-04-26T07:14:11.509Z</time></trkpt><trkpt lat="45.49354" lon="8.786605"><ele>124.99999999999999</ele><time>2026-04-26T07:14:13.509Z</time></trkpt><trkpt lat="45.4934767" lon="8.7866433"><ele>125.0</ele><time>2026-04-26T07:14:14.509Z</time></trkpt><trkpt lat="45.4934183" lon="8.7866783"><ele>125.14285714285714</ele><time>2026-04-26T07:14:15.509Z</time></trkpt><trkpt lat="45.4933483" lon="8.78671"><ele>125.28571428571429</ele><time>2026-04-26T07:14:16.509Z</time></trkpt><trkpt lat="45.4932833" lon="8.7867467"><ele>125.42857142857143</ele><time>2026-04-26T07:14:17.51Z</time></trkpt><trkpt lat="45.4932167" lon="8.7867867"><ele>125.57142857142857</ele><time>2026-04-26T07:14:18.51Z</time></trkpt><trkpt lat="45.4931483" lon="8.7868183"><ele>125.71428571428572</ele><time>2026-04-26T07:14:19.51Z</time></trkpt><trkpt lat="45.493085" lon="8.7868467"><ele>125.85714285714286</ele><time>2026-04-26T07:14:20.509Z</time></trkpt><trkpt lat="45.4930133" lon="8.7868717"><ele>126.0</ele><time>2026-04-26T07:14:21.51Z</time></trkpt><trkpt lat="45.492945" lon="8.7868917"><ele>126.0</ele><time>2026-04-26T07:14:22.509Z</time></trkpt><trkpt lat="45.4928733" lon="8.7869267"><ele>126.0</ele><time>2026-04-26T07:14:23.509Z</time></trkpt><trkpt lat="45.4928" lon="8.7869433"><ele>126.0</ele><time>2026-04-26T07:14:24.509Z</time></trkpt><trkpt lat="45.4927283" lon="8.7869633"><ele>126.0</ele><time>2026-04-26T07:14:25.51Z</time></trkpt><trkpt lat="45.4926667" lon="8.7869983"><ele>126.0</ele><time>2026-04-26T07:14:26.51Z</time></trkpt><trkpt lat="45.492605" lon="8.787025"><ele>126.0</ele><time>2026-04-26T07:14:27.509Z</time></trkpt><trkpt lat="45.4925433" lon="8.7870483"><ele>126.0</ele><time>2026-04-26T07:14:28.509Z</time></trkpt><trkpt lat="45.49248" lon="8.7870733"><ele>126.0</ele><time>2026-04-26T07:14:29.509Z</time></trkpt><trkpt lat="45.49236" lon="8.7871367"><ele>126.0</ele><time>2026-04-26T07:14:31.51Z</time></trkpt><trkpt lat="45.4923017" lon="8.7871833"><ele>126.0</ele><time>2026-04-26T07:14:32.51Z</time></trkpt><trkpt lat="45.4922467" lon="8.787325"><ele>126.0</ele><time>2026-04-26T07:14:34.509Z</time></trkpt><trkpt lat="45.49227" lon="8.7874883"><ele>126.0</ele><time>2026-04-26T07:14:36.51Z</time></trkpt><trkpt lat="45.4922867" lon="8.787575"><ele>126.0</ele><time>2026-04-26T07:14:37.51Z</time></trkpt><trkpt lat="45.4923033" lon="8.78773"><ele>126.0</ele><time>2026-04-26T07:14:39.51Z</time></trkpt><trkpt lat="45.4923333" lon="8.7878983"><ele>126.0</ele><time>2026-04-26T07:14:41.509Z</time></trkpt><trkpt lat="45.4923517" lon="8.7880533"><ele>126.0</ele><time>2026-04-26T07:14:43.51Z</time></trkpt><trkpt lat="45.49237" lon="8.7882017"><ele>126.0</ele><time>2026-04-26T07:14:45.509Z</time></trkpt><trkpt lat="45.4923883" lon="8.7883517"><ele>126.0</ele><time>2026-04-26T07:14:47.51Z</time></trkpt><trkpt lat="45.4923967" lon="8.78849"><ele>126.0</ele><time>2026-04-26T07:14:49.51Z</time></trkpt><trkpt lat="45.492415" lon="8.7886183"><ele>126.0</ele><time>2026-04-26T07:14:51.51Z</time></trkpt><trkpt lat="45.4924433" lon="8.788755"><ele>126.0</ele><time>2026-04-26T07:14:53.51Z</time></trkpt><trkpt lat="45.4924733" lon="8.7888883"><ele>126.0</ele><time>2026-04-26T07:14:55.509Z</time></trkpt><trkpt lat="45.4924933" lon="8.7890283"><ele>126.0</ele><time>2026-04-26T07:14:57.509Z</time></trkpt><trkpt lat="45.4925217" lon="8.789155"><ele>126.0</ele><time>2026-04-26T07:14:59.51Z</time></trkpt><trkpt lat="45.4925483" lon="8.789265"><ele>126.0</ele><time>2026-04-26T07:15:01.509Z</time></trkpt><trkpt lat="45.4925267" lon="8.789355"><ele>126.0</ele><time>2026-04-26T07:15:03.51Z</time></trkpt><trkpt lat="45.49244" lon="8.7893833"><ele>126.0</ele><time>2026-04-26T07:15:05.51Z</time></trkpt><trkpt lat="45.4923517" lon="8.7894"><ele>126.0</ele><time>2026-04-26T07:15:07.51Z</time></trkpt><trkpt lat="45.4922633" lon="8.789415"><ele>126.0</ele><time>2026-04-26T07:15:09.51Z</time></trkpt><trkpt lat="45.4921583" lon="8.78942"><ele>126.0</ele><time>2026-04-26T07:15:11.509Z</time></trkpt><trkpt lat="45.492065" lon="8.7894217"><ele>126.0</ele><time>2026-04-26T07:15:13.509Z</time></trkpt><trkpt lat="45.49197" lon="8.78944"><ele>126.0</ele><time>2026-04-26T07:15:15.51Z</time></trkpt><trkpt lat="45.4918883" lon="8.7894567"><ele>126.0</ele><time>2026-04-26T07:15:17.509Z</time></trkpt><trkpt lat="45.491815" lon="8.78948"><ele>126.0</ele><time>2026-04-26T07:15:19.509Z</time></trkpt><trkpt lat="45.4917133" lon="8.7894833"><ele>126.0</ele><time>2026-04-26T07:15:21.51Z</time></trkpt><trkpt lat="45.491625" lon="8.7894767"><ele>126.0</ele><time>2026-04-26T07:15:23.51Z</time></trkpt><trkpt lat="45.4915333" lon="8.7894733"><ele>126.0</ele><time>2026-04-26T07:15:25.51Z</time></trkpt><trkpt lat="45.49144" lon="8.7894217"><ele>126.0</ele><time>2026-04-26T07:15:27.51Z</time></trkpt><trkpt lat="45.49137" lon="8.789325"><ele>126.19999999999999</ele><time>2026-04-26T07:15:29.51Z</time></trkpt><trkpt lat="45.4912917" lon="8.7891383"><ele>126.39999999999999</ele><time>2026-04-26T07:15:32.51Z</time></trkpt><trkpt lat="45.4912583" lon="8.789015"><ele>126.6</ele><time>2026-04-26T07:15:34.509Z</time></trkpt><trkpt lat="45.4912183" lon="8.788895"><ele>126.8</ele><time>2026-04-26T07:15:36.509Z</time></trkpt><trkpt lat="45.49118" lon="8.7887817"><ele>127.0</ele><time>2026-04-26T07:15:38.51Z</time></trkpt><trkpt lat="45.4911517" lon="8.78866"><ele>126.6</ele><time>2026-04-26T07:15:40.509Z</time></trkpt><trkpt lat="45.4911167" lon="8.7885333"><ele>126.19999999999999</ele><time>2026-04-26T07:15:42.51Z</time></trkpt><trkpt lat="45.4910767" lon="8.7884083"><ele>125.8</ele><time>2026-04-26T07:15:44.509Z</time></trkpt><trkpt lat="45.4910433" lon="8.7882917"><ele>125.4</ele><time>2026-04-26T07:15:46.509Z</time></trkpt><trkpt lat="45.4910067" lon="8.7881667"><ele>125.0</ele><time>2026-04-26T07:15:48.509Z</time></trkpt><trkpt lat="45.490955" lon="8.7880267"><ele>125.0</ele><time>2026-04-26T07:15:50.51Z</time></trkpt><trkpt lat="45.4909217" lon="8.78791"><ele>125.0</ele><time>2026-04-26T07:15:52.51Z</time></trkpt><trkpt lat="45.49088" lon="8.7877783"><ele>125.0</ele><time>2026-04-26T07:15:54.509Z</time></trkpt><trkpt lat="45.4908317" lon="8.7876433"><ele>125.0</ele><time>2026-04-26T07:15:56.509Z</time></trkpt><trkpt lat="45.490775" lon="8.7875283"><ele>125.0</ele><time>2026-04-26T07:15:58.51Z</time></trkpt><trkpt lat="45.490705" lon="8.787435"><ele>124.8</ele><time>2026-04-26T07:16:00.51Z</time></trkpt><trkpt lat="45.4906283" lon="8.78734"><ele>124.6</ele><time>2026-04-26T07:16:02.51Z</time></trkpt><trkpt lat="45.49056" lon="8.7872533"><ele>124.4</ele><time>2026-04-26T07:16:04.51Z</time></trkpt><trkpt lat="45.490495" lon="8.787155"><ele>124.2</ele><time>2026-04-26T07:16:06.51Z</time></trkpt><trkpt lat="45.4904217" lon="8.7870667"><ele>124.0</ele><time>2026-04-26T07:16:08.509Z</time></trkpt><trkpt lat="45.49035" lon="8.7869633"><ele>124.0</ele><time>2026-04-26T07:16:10.509Z</time></trkpt><trkpt lat="45.4902783" lon="8.7868767"><ele>124.0</ele><time>2026-04-26T07:16:12.51Z</time></trkpt><trkpt lat="45.4902067" lon="8.7867817"><ele>124.0</ele><time>2026-04-26T07:16:14.51Z</time></trkpt><trkpt lat="45.4901283" lon="8.7867"><ele>124.0</ele><time>2026-04-26T07:16:16.509Z</time></trkpt><trkpt lat="45.4900417" lon="8.78668"><ele>124.0</ele><time>2026-04-26T07:16:18.51Z</time></trkpt><trkpt lat="45.4899367" lon="8.7866883"><ele>124.2</ele><time>2026-04-26T07:16:20.509Z</time></trkpt><trkpt lat="45.4898317" lon="8.7867133"><ele>124.4</ele><time>2026-04-26T07:16:22.509Z</time></trkpt><trkpt lat="45.4897283" lon="8.786735"><ele>124.6</ele><time>2026-04-26T07:16:24.509Z</time></trkpt><trkpt lat="45.4896217" lon="8.7867733"><ele>124.8</ele><time>2026-04-26T07:16:26.51Z</time></trkpt><trkpt lat="45.4895217" lon="8.7867983"><ele>125.0</ele><time>2026-04-26T07:16:28.51Z</time></trkpt><trkpt lat="45.48943" lon="8.78683"><ele>124.83333333333333</ele><time>2026-04-26T07:16:30.509Z</time></trkpt><trkpt lat="45.4893383" lon="8.78685"><ele>124.66666666666666</ele><time>2026-04-26T07:16:32.51Z</time></trkpt><trkpt lat="45.4892533" lon="8.7868833"><ele>124.5</ele><time>2026-04-26T07:16:34.509Z</time></trkpt><trkpt lat="45.489165" lon="8.7869117"><ele>124.33333333333334</ele><time>2026-04-26T07:16:36.509Z</time></trkpt><trkpt lat="45.4891017" lon="8.78695"><ele>124.16666666666667</ele><time>2026-04-26T07:16:38.509Z</time></trkpt><trkpt lat="45.4890383" lon="8.7868833"><ele>124.0</ele><time>2026-04-26T07:16:42.51Z</time></trkpt><trkpt lat="45.4890033" lon="8.7867933"><ele>123.4</ele><time>2026-04-26T07:16:44.51Z</time></trkpt><trkpt lat="45.4889467" lon="8.786725"><ele>122.80000000000001</ele><time>2026-04-26T07:16:46.509Z</time></trkpt><trkpt lat="45.4888517" lon="8.786705"><ele>122.19999999999999</ele><time>2026-04-26T07:16:48.51Z</time></trkpt><trkpt lat="45.4887533" lon="8.78673"><ele>121.6</ele><time>2026-04-26T07:16:50.509Z</time></trkpt><trkpt lat="45.488655" lon="8.7867317"><ele>121.0</ele><time>2026-04-26T07:16:52.51Z</time></trkpt><trkpt lat="45.4885533" lon="8.7866683"><ele>121.0</ele><time>2026-04-26T07:16:54.51Z</time></trkpt><trkpt lat="45.4884617" lon="8.7865617"><ele>121.0</ele><time>2026-04-26T07:16:56.509Z</time></trkpt><trkpt lat="45.4883733" lon="8.7864683"><ele>121.0</ele><time>2026-04-26T07:16:58.509Z</time></trkpt><trkpt lat="45.4882717" lon="8.786455"><ele>121.0</ele><time>2026-04-26T07:17:00.51Z</time></trkpt><trkpt lat="45.4881817" lon="8.7865333"><ele>121.0</ele><time>2026-04-26T07:17:02.51Z</time></trkpt><trkpt lat="45.488095" lon="8.78662"><ele>121.0</ele><time>2026-04-26T07:17:04.509Z</time></trkpt><trkpt lat="45.488005" lon="8.7867083"><ele>121.0</ele><time>2026-04-26T07:17:06.509Z</time></trkpt><trkpt lat="45.4879267" lon="8.7867983"><ele>121.0</ele><time>2026-04-26T07:17:08.51Z</time></trkpt><trkpt lat="45.4878267" lon="8.7868767"><ele>121.0</ele><time>2026-04-26T07:17:10.509Z</time></trkpt><trkpt lat="45.4877233" lon="8.78697"><ele>121.0</ele><time>2026-04-26T07:17:12.51Z</time></trkpt><trkpt lat="45.4876333" lon="8.78704"><ele>121.4</ele><time>2026-04-26T07:17:14.51Z</time></trkpt><trkpt lat="45.48755" lon="8.7870967"><ele>121.8</ele><time>2026-04-26T07:17:16.509Z</time></trkpt><trkpt lat="45.4874667" lon="8.7871783"><ele>122.20000000000002</ele><time>2026-04-26T07:17:18.509Z</time></trkpt><trkpt lat="45.48739" lon="8.787245"><ele>122.60000000000001</ele><time>2026-04-26T07:17:20.509Z</time></trkpt><trkpt lat="45.4872967" lon="8.787325"><ele>123.0</ele><time>2026-04-26T07:17:22.51Z</time></trkpt><trkpt lat="45.4872183" lon="8.7873833"><ele>123.0</ele><time>2026-04-26T07:17:24.509Z</time></trkpt><trkpt lat="45.4871433" lon="8.7874483"><ele>123.00000000000001</ele><time>2026-04-26T07:17:26.51Z</time></trkpt><trkpt lat="45.4870583" lon="8.787505"><ele>123.00000000000001</ele><time>2026-04-26T07:17:28.51Z</time></trkpt><trkpt lat="45.4869933" lon="8.78758"><ele>123.0</ele><time>2026-04-26T07:17:30.509Z</time></trkpt><trkpt lat="45.4869167" lon="8.7876683"><ele>123.0</ele><time>2026-04-26T07:17:32.509Z</time></trkpt><trkpt lat="45.486855" lon="8.7877817"><ele>122.80000000000001</ele><time>2026-04-26T07:17:34.51Z</time></trkpt><trkpt lat="45.4867917" lon="8.7878933"><ele>122.60000000000001</ele><time>2026-04-26T07:17:36.509Z</time></trkpt><trkpt lat="45.4867333" lon="8.788"><ele>122.39999999999999</ele><time>2026-04-26T07:17:38.51Z</time></trkpt><trkpt lat="45.48667" lon="8.7881133"><ele>122.19999999999999</ele><time>2026-04-26T07:17:40.509Z</time></trkpt><trkpt lat="45.4865983" lon="8.7881967"><ele>122.0</ele><time>2026-04-26T07:17:42.51Z</time></trkpt><trkpt lat="45.4865267" lon="8.7882667"><ele>122.0</ele><time>2026-04-26T07:17:44.509Z</time></trkpt><trkpt lat="45.4864567" lon="8.7883483"><ele>121.99999999999999</ele><time>2026-04-26T07:17:46.51Z</time></trkpt><trkpt lat="45.4864" lon="8.7884583"><ele>121.99999999999999</ele><time>2026-04-26T07:17:48.509Z</time></trkpt><trkpt lat="45.48634" lon="8.78857"><ele>122.0</ele><time>2026-04-26T07:17:50.51Z</time></trkpt><trkpt lat="45.4862883" lon="8.788695"><ele>122.0</ele><time>2026-04-26T07:17:52.508Z</time></trkpt><trkpt lat="45.4862417" lon="8.7888317"><ele>121.19999999999999</ele><time>2026-04-26T07:17:54.508Z</time></trkpt><trkpt lat="45.4861933" lon="8.7889317"><ele>120.39999999999999</ele><time>2026-04-26T07:17:56.508Z</time></trkpt><trkpt lat="45.4861267" lon="8.789055"><ele>119.60000000000001</ele><time>2026-04-26T07:17:58.508Z</time></trkpt><trkpt lat="45.4860633" lon="8.7891683"><ele>118.80000000000001</ele><time>2026-04-26T07:18:00.509Z</time></trkpt><trkpt lat="45.4859933" lon="8.7892683"><ele>118.0</ele><time>2026-04-26T07:18:02.509Z</time></trkpt><trkpt lat="45.485925" lon="8.7893133"><ele>118.16666666666667</ele><time>2026-04-26T07:18:04.508Z</time></trkpt><trkpt lat="45.4858583" lon="8.7893517"><ele>118.33333333333334</ele><time>2026-04-26T07:18:06.509Z</time></trkpt><trkpt lat="45.4858117" lon="8.7894133"><ele>118.5</ele><time>2026-04-26T07:18:08.508Z</time></trkpt><trkpt lat="45.485785" lon="8.7895317"><ele>118.66666666666666</ele><time>2026-04-26T07:18:10.509Z</time></trkpt><trkpt lat="45.48577" lon="8.7896583"><ele>118.83333333333333</ele><time>2026-04-26T07:18:12.509Z</time></trkpt><trkpt lat="45.4857867" lon="8.789775"><ele>119.0</ele><time>2026-04-26T07:18:15.509Z</time></trkpt><trkpt lat="45.4858167" lon="8.7898967"><ele>118.99999999999999</ele><time>2026-04-26T07:18:18.508Z</time></trkpt><trkpt lat="45.4857867" lon="8.78998"><ele>119.0</ele><time>2026-04-26T07:18:20.508Z</time></trkpt><trkpt lat="45.485745" lon="8.7900833"><ele>119.0</ele><time>2026-04-26T07:18:22.508Z</time></trkpt><trkpt lat="45.4856967" lon="8.790165"><ele>119.0</ele><time>2026-04-26T07:18:24.509Z</time></trkpt><trkpt lat="45.4856283" lon="8.7902817"><ele>118.99999999999999</ele><time>2026-04-26T07:18:26.509Z</time></trkpt><trkpt lat="45.4855517" lon="8.790385"><ele>119.0</ele><time>2026-04-26T07:18:28.509Z</time></trkpt><trkpt lat="45.4854883" lon="8.7904667"><ele>119.33333333333333</ele><time>2026-04-26T07:18:30.509Z</time></trkpt><trkpt lat="45.48542" lon="8.7905117"><ele>119.66666666666666</ele><time>2026-04-26T07:18:32.509Z</time></trkpt><trkpt lat="45.4853683" lon="8.79059"><ele>120.0</ele><time>2026-04-26T07:18:34.509Z</time></trkpt><trkpt lat="45.4853083" lon="8.79065"><ele>120.33333333333334</ele><time>2026-04-26T07:18:36.509Z</time></trkpt><trkpt lat="45.4852367" lon="8.79071"><ele>120.66666666666667</ele><time>2026-04-26T07:18:38.508Z</time></trkpt><trkpt lat="45.4851717" lon="8.7907717"><ele>121.0</ele><time>2026-04-26T07:18:40.508Z</time></trkpt><trkpt lat="45.4850883" lon="8.7908067"><ele>121.00000000000001</ele><time>2026-04-26T07:18:42.508Z</time></trkpt><trkpt lat="45.485005" lon="8.7908133"><ele>121.0</ele><time>2026-04-26T07:18:44.508Z</time></trkpt><trkpt lat="45.484915" lon="8.7908467"><ele>121.0</ele><time>2026-04-26T07:18:46.508Z</time></trkpt><trkpt lat="45.4848217" lon="8.7908783"><ele>121.0</ele><time>2026-04-26T07:18:48.508Z</time></trkpt><trkpt lat="45.4847383" lon="8.7908517"><ele>121.00000000000001</ele><time>2026-04-26T07:18:50.509Z</time></trkpt><trkpt lat="45.4846483" lon="8.7908417"><ele>121.0</ele><time>2026-04-26T07:18:53.508Z</time></trkpt><trkpt lat="45.48459" lon="8.7909083"><ele>120.50000000000001</ele><time>2026-04-26T07:18:55.508Z</time></trkpt><trkpt lat="45.4845183" lon="8.790955"><ele>120.0</ele><time>2026-04-26T07:18:57.508Z</time></trkpt><trkpt lat="45.484455" lon="8.7909583"><ele>119.5</ele><time>2026-04-26T07:18:59.508Z</time></trkpt><trkpt lat="45.4843817" lon="8.79095"><ele>119.0</ele><time>2026-04-26T07:19:01.509Z</time></trkpt><trkpt lat="45.48428" lon="8.7909883"><ele>118.50000000000001</ele><time>2026-04-26T07:19:03.508Z</time></trkpt><trkpt lat="45.48417" lon="8.7909917"><ele>118.0</ele><time>2026-04-26T07:19:05.509Z</time></trkpt><trkpt lat="45.4840933" lon="8.790965"><ele>118.00000000000001</ele><time>2026-04-26T07:19:07.508Z</time></trkpt><trkpt lat="45.4840067" lon="8.7909783"><ele>118.0</ele><time>2026-04-26T07:19:09.509Z</time></trkpt><trkpt lat="45.4839217" lon="8.79094"><ele>118.0</ele><time>2026-04-26T07:19:11.508Z</time></trkpt><trkpt lat="45.4838233" lon="8.79092"><ele>118.0</ele><time>2026-04-26T07:19:13.508Z</time></trkpt><trkpt lat="45.4837417" lon="8.7909333"><ele>118.00000000000001</ele><time>2026-04-26T07:19:15.509Z</time></trkpt><trkpt lat="45.4836833" lon="8.7908883"><ele>118.0</ele><time>2026-04-26T07:19:17.508Z</time></trkpt><trkpt lat="45.4836367" lon="8.7908267"><ele>118.33333333333334</ele><time>2026-04-26T07:19:19.508Z</time></trkpt><trkpt lat="45.48354" lon="8.7908083"><ele>118.66666666666667</ele><time>2026-04-26T07:19:22.509Z</time></trkpt><trkpt lat="45.4834633" lon="8.7907667"><ele>119.0</ele><time>2026-04-26T07:19:24.508Z</time></trkpt><trkpt lat="45.4833933" lon="8.7907683"><ele>119.33333333333334</ele><time>2026-04-26T07:19:26.508Z</time></trkpt><trkpt lat="45.4833233" lon="8.7908167"><ele>119.66666666666667</ele><time>2026-04-26T07:19:28.509Z</time></trkpt><trkpt lat="45.4832583" lon="8.7908333"><ele>120.0</ele><time>2026-04-26T07:19:30.508Z</time></trkpt><trkpt lat="45.4831883" lon="8.7908283"><ele>120.0</ele><time>2026-04-26T07:19:32.508Z</time></trkpt><trkpt lat="45.483115" lon="8.7908483"><ele>120.0</ele><time>2026-04-26T07:19:34.509Z</time></trkpt><trkpt lat="45.4830233" lon="8.7909017"><ele>120.0</ele><time>2026-04-26T07:19:36.508Z</time></trkpt><trkpt lat="45.4829433" lon="8.7909"><ele>120.0</ele><time>2026-04-26T07:19:38.508Z</time></trkpt><trkpt lat="45.482875" lon="8.7908667"><ele>120.0</ele><time>2026-04-26T07:19:40.508Z</time></trkpt><trkpt lat="45.4828" lon="8.79081"><ele>120.0</ele><time>2026-04-26T07:19:42.508Z</time></trkpt><trkpt lat="45.4827467" lon="8.7907233"><ele>120.16666666666667</ele><time>2026-04-26T07:19:44.509Z</time></trkpt><trkpt lat="45.482665" lon="8.7906883"><ele>120.33333333333334</ele><time>2026-04-26T07:19:47.509Z</time></trkpt><trkpt lat="45.4825933" lon="8.7907367"><ele>120.5</ele><time>2026-04-26T07:19:50.509Z</time></trkpt><trkpt lat="45.4824983" lon="8.790705"><ele>120.66666666666667</ele><time>2026-04-26T07:19:54.509Z</time></trkpt><trkpt lat="45.4824017" lon="8.7907367"><ele>120.83333333333334</ele><time>2026-04-26T07:19:56.509Z</time></trkpt><trkpt lat="45.48232" lon="8.79075"><ele>121.0</ele><time>2026-04-26T07:19:58.508Z</time></trkpt><trkpt lat="45.482235" lon="8.7907433"><ele>121.0</ele><time>2026-04-26T07:20:00.509Z</time></trkpt><trkpt lat="45.4821633" lon="8.7907183"><ele>120.99999999999999</ele><time>2026-04-26T07:20:02.509Z</time></trkpt><trkpt lat="45.4820967" lon="8.7907167"><ele>121.0</ele><time>2026-04-26T07:20:04.509Z</time></trkpt><trkpt lat="45.4820333" lon="8.7907483"><ele>121.0</ele><time>2026-04-26T07:20:06.508Z</time></trkpt><trkpt lat="45.4819867" lon="8.7908267"><ele>120.99999999999999</ele><time>2026-04-26T07:20:08.509Z</time></trkpt><trkpt lat="45.4819567" lon="8.79093"><ele>121.0</ele><time>2026-04-26T07:20:10.508Z</time></trkpt><trkpt lat="45.4819467" lon="8.7910383"><ele>121.0</ele><time>2026-04-26T07:20:12.509Z</time></trkpt><trkpt lat="45.4819817" lon="8.791145"><ele>121.00000000000001</ele><time>2026-04-26T07:20:14.509Z</time></trkpt><trkpt lat="45.48204" lon="8.7912333"><ele>121.0</ele><time>2026-04-26T07:20:16.508Z</time></trkpt><trkpt lat="45.4820983" lon="8.7913117"><ele>121.0</ele><time>2026-04-26T07:20:18.509Z</time></trkpt><trkpt lat="45.4821567" lon="8.7913917"><ele>121.0</ele><time>2026-04-26T07:20:20.508Z</time></trkpt><trkpt lat="45.482215" lon="8.7914867"><ele>121.00000000000001</ele><time>2026-04-26T07:20:22.508Z</time></trkpt><trkpt lat="45.482275" lon="8.7916"><ele>121.0</ele><time>2026-04-26T07:20:24.508Z</time></trkpt><trkpt lat="45.4823017" lon="8.7917367"><ele>121.0</ele><time>2026-04-26T07:20:26.508Z</time></trkpt><trkpt lat="45.48229" lon="8.7918717"><ele>121.0</ele><time>2026-04-26T07:20:28.509Z</time></trkpt><trkpt lat="45.4822617" lon="8.7920033"><ele>121.0</ele><time>2026-04-26T07:20:30.509Z</time></trkpt><trkpt lat="45.48222" lon="8.7921217"><ele>121.0</ele><time>2026-04-26T07:20:32.509Z</time></trkpt><trkpt lat="45.4821533" lon="8.7922433"><ele>121.0</ele><time>2026-04-26T07:20:34.508Z</time></trkpt><trkpt lat="45.48207" lon="8.79233"><ele>121.0</ele><time>2026-04-26T07:20:36.509Z</time></trkpt><trkpt lat="45.4819933" lon="8.7924233"><ele>121.0</ele><time>2026-04-26T07:20:38.508Z</time></trkpt><trkpt lat="45.4819317" lon="8.7925083"><ele>121.0</ele><time>2026-04-26T07:20:40.508Z</time></trkpt><trkpt lat="45.4818617" lon="8.79261"><ele>121.0</ele><time>2026-04-26T07:20:42.508Z</time></trkpt><trkpt lat="45.4817833" lon="8.79269"><ele>121.0</ele><time>2026-04-26T07:20:44.509Z</time></trkpt><trkpt lat="45.48172" lon="8.7927633"><ele>121.0</ele><time>2026-04-26T07:20:46.509Z</time></trkpt><trkpt lat="45.4816583" lon="8.7928417"><ele>121.0</ele><time>2026-04-26T07:20:48.508Z</time></trkpt><trkpt lat="45.4815967" lon="8.792935"><ele>121.0</ele><time>2026-04-26T07:20:50.509Z</time></trkpt><trkpt lat="45.4815767" lon="8.7930733"><ele>121.0</ele><time>2026-04-26T07:20:52.508Z</time></trkpt><trkpt lat="45.4815817" lon="8.7932067"><ele>121.0</ele><time>2026-04-26T07:20:54.509Z</time></trkpt><trkpt lat="45.4815933" lon="8.793365"><ele>121.0</ele><time>2026-04-26T07:20:56.508Z</time></trkpt><trkpt lat="45.4815917" lon="8.793485"><ele>121.0</ele><time>2026-04-26T07:20:58.508Z</time></trkpt><trkpt lat="45.481555" lon="8.7935767"><ele>121.0</ele><time>2026-04-26T07:21:00.509Z</time></trkpt><trkpt lat="45.481465" lon="8.7936333"><ele>121.0</ele><time>2026-04-26T07:21:02.508Z</time></trkpt><trkpt lat="45.4813783" lon="8.793675"><ele>121.0</ele><time>2026-04-26T07:21:04.508Z</time></trkpt><trkpt lat="45.4812833" lon="8.793735"><ele>121.19999999999999</ele><time>2026-04-26T07:21:06.508Z</time></trkpt><trkpt lat="45.48121" lon="8.7938017"><ele>121.39999999999999</ele><time>2026-04-26T07:21:08.508Z</time></trkpt><trkpt lat="45.4811217" lon="8.7938567"><ele>121.6</ele><time>2026-04-26T07:21:10.509Z</time></trkpt><trkpt lat="45.4810167" lon="8.79389"><ele>121.8</ele><time>2026-04-26T07:21:12.509Z</time></trkpt><trkpt lat="45.4809217" lon="8.793915"><ele>122.0</ele><time>2026-04-26T07:21:14.509Z</time></trkpt><trkpt lat="45.4808367" lon="8.7939333"><ele>121.99999999999999</ele><time>2026-04-26T07:21:16.508Z</time></trkpt><trkpt lat="45.4807333" lon="8.7939567"><ele>122.0</ele><time>2026-04-26T07:21:18.509Z</time></trkpt><trkpt lat="45.4806517" lon="8.793995"><ele>122.0</ele><time>2026-04-26T07:21:20.509Z</time></trkpt><trkpt lat="45.4806383" lon="8.7940867"><ele>122.0</ele><time>2026-04-26T07:21:22.509Z</time></trkpt><trkpt lat="45.4806433" lon="8.794205"><ele>121.99999999999999</ele><time>2026-04-26T07:21:24.509Z</time></trkpt><trkpt lat="45.48067" lon="8.7943233"><ele>122.0</ele><time>2026-04-26T07:21:26.508Z</time></trkpt><trkpt lat="45.4806967" lon="8.7944517"><ele>121.49999999999999</ele><time>2026-04-26T07:21:29.508Z</time></trkpt><trkpt lat="45.4807067" lon="8.794585"><ele>121.0</ele><time>2026-04-26T07:21:31.509Z</time></trkpt><trkpt lat="45.4807167" lon="8.7947033"><ele>120.5</ele><time>2026-04-26T07:21:33.509Z</time></trkpt><trkpt lat="45.4806533" lon="8.79474"><ele>120.0</ele><time>2026-04-26T07:21:35.508Z</time></trkpt><trkpt lat="45.4805733" lon="8.7947517"><ele>119.49999999999999</ele><time>2026-04-26T07:21:37.508Z</time></trkpt><trkpt lat="45.4804783" lon="8.7947867"><ele>119.0</ele><time>2026-04-26T07:21:39.508Z</time></trkpt><trkpt lat="45.4803967" lon="8.7948483"><ele>118.83333333333333</ele><time>2026-04-26T07:21:41.508Z</time></trkpt><trkpt lat="45.4803467" lon="8.7949517"><ele>118.66666666666666</ele><time>2026-04-26T07:21:43.508Z</time></trkpt><trkpt lat="45.4803033" lon="8.7950633"><ele>118.5</ele><time>2026-04-26T07:21:45.509Z</time></trkpt><trkpt lat="45.4802767" lon="8.795195"><ele>118.33333333333334</ele><time>2026-04-26T07:21:47.508Z</time></trkpt><trkpt lat="45.480275" lon="8.7953067"><ele>118.16666666666667</ele><time>2026-04-26T07:21:50.508Z</time></trkpt><trkpt lat="45.4802733" lon="8.79543"><ele>118.0</ele><time>2026-04-26T07:21:53.508Z</time></trkpt><trkpt lat="45.4802883" lon="8.7955217"><ele>118.33333333333334</ele><time>2026-04-26T07:21:55.508Z</time></trkpt><trkpt lat="45.4802383" lon="8.7956083"><ele>118.66666666666667</ele><time>2026-04-26T07:21:58.509Z</time></trkpt><trkpt lat="45.48015" lon="8.7956217"><ele>119.0</ele><time>2026-04-26T07:22:01.509Z</time></trkpt><trkpt lat="45.4800683" lon="8.79558"><ele>119.33333333333334</ele><time>2026-04-26T07:22:04.508Z</time></trkpt><trkpt lat="45.479985" lon="8.7955333"><ele>119.66666666666667</ele><time>2026-04-26T07:22:06.508Z</time></trkpt><trkpt lat="45.4799" lon="8.79551"><ele>120.0</ele><time>2026-04-26T07:22:08.509Z</time></trkpt><trkpt lat="45.4798233" lon="8.7955267"><ele>120.0</ele><time>2026-04-26T07:22:10.508Z</time></trkpt><trkpt lat="45.4797617" lon="8.7955933"><ele>120.0</ele><time>2026-04-26T07:22:12.508Z</time></trkpt><trkpt lat="45.4797067" lon="8.79565"><ele>120.0</ele><time>2026-04-26T07:22:14.509Z</time></trkpt><trkpt lat="45.47964" lon="8.79565"><ele>120.0</ele><time>2026-04-26T07:22:17.508Z</time></trkpt><trkpt lat="45.47959" lon="8.7955767"><ele>120.0</ele><time>2026-04-26T07:22:19.509Z</time></trkpt><trkpt lat="45.4795417" lon="8.7955117"><ele>120.0</ele><time>2026-04-26T07:22:21.509Z</time></trkpt><trkpt lat="45.4794733" lon="8.7954683"><ele>120.0</ele><time>2026-04-26T07:22:23.508Z</time></trkpt><trkpt lat="45.4793917" lon="8.7953983"><ele>120.16666666666667</ele><time>2026-04-26T07:22:25.509Z</time></trkpt><trkpt lat="45.479325" lon="8.79533"><ele>120.33333333333334</ele><time>2026-04-26T07:22:27.509Z</time></trkpt><trkpt lat="45.4792633" lon="8.795255"><ele>120.5</ele><time>2026-04-26T07:22:29.508Z</time></trkpt><trkpt lat="45.4792067" lon="8.795185"><ele>120.66666666666667</ele><time>2026-04-26T07:22:31.509Z</time></trkpt><trkpt lat="45.4791567" lon="8.7951283"><ele>120.83333333333334</ele><time>2026-04-26T07:22:34.509Z</time></trkpt><trkpt lat="45.47909" lon="8.7950733"><ele>121.0</ele><time>2026-04-26T07:22:37.508Z</time></trkpt><trkpt lat="45.4790267" lon="8.7950067"><ele>121.00000000000001</ele><time>2026-04-26T07:22:40.509Z</time></trkpt><trkpt lat="45.4789617" lon="8.7949833"><ele>121.0</ele><time>2026-04-26T07:22:44.508Z</time></trkpt><trkpt lat="45.4789017" lon="8.7949067"><ele>121.0</ele><time>2026-04-26T07:22:47.509Z</time></trkpt><trkpt lat="45.4788417" lon="8.794815"><ele>121.0</ele><time>2026-04-26T07:22:50.508Z</time></trkpt><trkpt lat="45.4787883" lon="8.794745"><ele>121.00000000000001</ele><time>2026-04-26T07:22:52.509Z</time></trkpt><trkpt lat="45.47871" lon="8.7946733"><ele>121.0</ele><time>2026-04-26T07:22:55.509Z</time></trkpt><trkpt lat="45.4786633" lon="8.7946117"><ele>121.16666666666667</ele><time>2026-04-26T07:22:57.509Z</time></trkpt><trkpt lat="45.4785933" lon="8.7945233"><ele>121.33333333333334</ele><time>2026-04-26T07:23:00.509Z</time></trkpt><trkpt lat="45.4785433" lon="8.79444"><ele>121.5</ele><time>2026-04-26T07:23:02.509Z</time></trkpt><trkpt lat="45.4784967" lon="8.7943567"><ele>121.66666666666666</ele><time>2026-04-26T07:23:04.508Z</time></trkpt><trkpt lat="45.47844" lon="8.7942533"><ele>121.83333333333333</ele><time>2026-04-26T07:23:07.509Z</time></trkpt><trkpt lat="45.4783933" lon="8.7941783"><ele>122.0</ele><time>2026-04-26T07:23:09.508Z</time></trkpt><trkpt lat="45.4783183" lon="8.7941083"><ele>121.49999999999999</ele><time>2026-04-26T07:23:12.508Z</time></trkpt><trkpt lat="45.4782283" lon="8.79407"><ele>121.0</ele><time>2026-04-26T07:23:15.508Z</time></trkpt><trkpt lat="45.4781833" lon="8.7939983"><ele>120.5</ele><time>2026-04-26T07:23:17.509Z</time></trkpt><trkpt lat="45.4781467" lon="8.7938717"><ele>120.0</ele><time>2026-04-26T07:23:20.508Z</time></trkpt><trkpt lat="45.4781033" lon="8.7937867"><ele>119.49999999999999</ele><time>2026-04-26T07:23:22.509Z</time></trkpt><trkpt lat="45.4780317" lon="8.7937067"><ele>119.0</ele><time>2026-04-26T07:23:25.509Z</time></trkpt><trkpt lat="45.4779817" lon="8.7936417"><ele>119.33333333333333</ele><time>2026-04-26T07:23:28.508Z</time></trkpt><trkpt lat="45.477915" lon="8.79357"><ele>119.66666666666666</ele><time>2026-04-26T07:23:31.508Z</time></trkpt><trkpt lat="45.477875" lon="8.793485"><ele>120.0</ele><time>2026-04-26T07:23:33.508Z</time></trkpt><trkpt lat="45.4778333" lon="8.79341"><ele>120.33333333333334</ele><time>2026-04-26T07:23:35.508Z</time></trkpt><trkpt lat="45.4777833" lon="8.7933433"><ele>120.66666666666667</ele><time>2026-04-26T07:23:37.509Z</time></trkpt><trkpt lat="45.477715" lon="8.7932967"><ele>121.0</ele><time>2026-04-26T07:23:39.509Z</time></trkpt><trkpt lat="45.4776367" lon="8.7932383"><ele>121.0</ele><time>2026-04-26T07:23:41.509Z</time></trkpt><trkpt lat="45.4775583" lon="8.793195"><ele>120.99999999999999</ele><time>2026-04-26T07:23:43.508Z</time></trkpt><trkpt lat="45.4775067" lon="8.7931433"><ele>121.0</ele><time>2026-04-26T07:23:45.509Z</time></trkpt><trkpt lat="45.477455" lon="8.7930683"><ele>121.0</ele><time>2026-04-26T07:23:48.508Z</time></trkpt><trkpt lat="45.477425" lon="8.7929683"><ele>120.99999999999999</ele><time>2026-04-26T07:23:51.508Z</time></trkpt><trkpt lat="45.477385" lon="8.7928767"><ele>121.0</ele><time>2026-04-26T07:23:54.508Z</time></trkpt><trkpt lat="45.477355" lon="8.7927917"><ele>121.0</ele><time>2026-04-26T07:23:57.508Z</time></trkpt><trkpt lat="45.4773" lon="8.792715"><ele>121.00000000000001</ele><time>2026-04-26T07:24:01.508Z</time></trkpt><trkpt lat="45.47724" lon="8.792685"><ele>121.0</ele><time>2026-04-26T07:24:03.508Z</time></trkpt><trkpt lat="45.4771667" lon="8.792645"><ele>121.0</ele><time>2026-04-26T07:24:05.509Z</time></trkpt><trkpt lat="45.4770983" lon="8.79259"><ele>121.0</ele><time>2026-04-26T07:24:07.508Z</time></trkpt><trkpt lat="45.4770367" lon="8.7925467"><ele>121.00000000000001</ele><time>2026-04-26T07:24:09.509Z</time></trkpt><trkpt lat="45.476955" lon="8.7924983"><ele>121.0</ele><time>2026-04-26T07:24:11.508Z</time></trkpt><trkpt lat="45.4768783" lon="8.7924567"><ele>120.66666666666667</ele><time>2026-04-26T07:24:13.508Z</time></trkpt><trkpt lat="45.4767933" lon="8.792435"><ele>120.33333333333334</ele><time>2026-04-26T07:24:15.508Z</time></trkpt><trkpt lat="45.4767083" lon="8.7924067"><ele>120.0</ele><time>2026-04-26T07:24:17.509Z</time></trkpt><trkpt lat="45.4766167" lon="8.7923783"><ele>119.66666666666666</ele><time>2026-04-26T07:24:19.508Z</time></trkpt><trkpt lat="45.4765283" lon="8.792385"><ele>119.33333333333333</ele><time>2026-04-26T07:24:21.508Z</time></trkpt><trkpt lat="45.476445" lon="8.792405"><ele>119.0</ele><time>2026-04-26T07:24:23.509Z</time></trkpt><trkpt lat="45.4763567" lon="8.7924367"><ele>118.6</ele><time>2026-04-26T07:24:25.509Z</time></trkpt><trkpt lat="45.4762583" lon="8.7924583"><ele>118.2</ele><time>2026-04-26T07:24:27.508Z</time></trkpt><trkpt lat="45.4761683" lon="8.79249"><ele>117.79999999999998</ele><time>2026-04-26T07:24:29.508Z</time></trkpt><trkpt lat="45.47606" lon="8.792535"><ele>117.39999999999999</ele><time>2026-04-26T07:24:31.509Z</time></trkpt><trkpt lat="45.475955" lon="8.7925617"><ele>117.0</ele><time>2026-04-26T07:24:33.508Z</time></trkpt><trkpt lat="45.4758467" lon="8.7925833"><ele>117.0</ele><time>2026-04-26T07:24:35.509Z</time></trkpt><trkpt lat="45.4757367" lon="8.7926"><ele>116.99999999999999</ele><time>2026-04-26T07:24:37.508Z</time></trkpt><trkpt lat="45.475635" lon="8.7926367"><ele>116.99999999999999</ele><time>2026-04-26T07:24:39.509Z</time></trkpt><trkpt lat="45.4755383" lon="8.7926683"><ele>117.0</ele><time>2026-04-26T07:24:41.508Z</time></trkpt><trkpt lat="45.4754467" lon="8.792685"><ele>117.0</ele><time>2026-04-26T07:24:43.508Z</time></trkpt><trkpt lat="45.475345" lon="8.7927083"><ele>117.6</ele><time>2026-04-26T07:24:45.508Z</time></trkpt><trkpt lat="45.4752483" lon="8.7927217"><ele>118.19999999999999</ele><time>2026-04-26T07:24:47.509Z</time></trkpt><trkpt lat="45.4751533" lon="8.7927317"><ele>118.8</ele><time>2026-04-26T07:24:49.508Z</time></trkpt><trkpt lat="45.475065" lon="8.792745"><ele>119.4</ele><time>2026-04-26T07:24:51.508Z</time></trkpt><trkpt lat="45.474975" lon="8.7927567"><ele>120.0</ele><time>2026-04-26T07:24:53.508Z</time></trkpt><trkpt lat="45.4748817" lon="8.792765"><ele>120.0</ele><time>2026-04-26T07:24:55.508Z</time></trkpt><trkpt lat="45.4747833" lon="8.7927617"><ele>120.0</ele><time>2026-04-26T07:24:57.508Z</time></trkpt><trkpt lat="45.4746783" lon="8.7927617"><ele>120.0</ele><time>2026-04-26T07:24:59.509Z</time></trkpt><trkpt lat="45.474575" lon="8.7927667"><ele>120.0</ele><time>2026-04-26T07:25:01.508Z</time></trkpt><trkpt lat="45.4744733" lon="8.792775"><ele>120.0</ele><time>2026-04-26T07:25:03.509Z</time></trkpt><trkpt lat="45.4743867" lon="8.7927667"><ele>120.0</ele><time>2026-04-26T07:25:05.508Z</time></trkpt><trkpt lat="45.47429" lon="8.79277"><ele>120.0</ele><time>2026-04-26T07:25:07.509Z</time></trkpt><trkpt lat="45.4741867" lon="8.792755"><ele>120.0</ele><time>2026-04-26T07:25:09.508Z</time></trkpt><trkpt lat="45.4740933" lon="8.792745"><ele>120.0</ele><time>2026-04-26T07:25:11.509Z</time></trkpt><trkpt lat="45.4739917" lon="8.79274"><ele>120.0</ele><time>2026-04-26T07:25:13.509Z</time></trkpt><trkpt lat="45.4738967" lon="8.7927267"><ele>120.0</ele><time>2026-04-26T07:25:15.508Z</time></trkpt><trkpt lat="45.4738083" lon="8.7927017"><ele>120.0</ele><time>2026-04-26T07:25:17.508Z</time></trkpt><trkpt lat="45.4736983" lon="8.7927017"><ele>120.0</ele><time>2026-04-26T07:25:19.508Z</time></trkpt><trkpt lat="45.4736" lon="8.7926983"><ele>120.0</ele><time>2026-04-26T07:25:21.509Z</time></trkpt><trkpt lat="45.4734933" lon="8.7926833"><ele>120.0</ele><time>2026-04-26T07:25:23.509Z</time></trkpt><trkpt lat="45.4733933" lon="8.792665"><ele>119.6</ele><time>2026-04-26T07:25:25.508Z</time></trkpt><trkpt lat="45.4732983" lon="8.7926533"><ele>119.2</ele><time>2026-04-26T07:25:27.508Z</time></trkpt><trkpt lat="45.473195" lon="8.792635"><ele>118.80000000000001</ele><time>2026-04-26T07:25:29.509Z</time></trkpt><trkpt lat="45.4730867" lon="8.7926117"><ele>118.4</ele><time>2026-04-26T07:25:31.509Z</time></trkpt><trkpt lat="45.472995" lon="8.7926033"><ele>118.0</ele><time>2026-04-26T07:25:33.508Z</time></trkpt><trkpt lat="45.472905" lon="8.79259"><ele>117.80000000000001</ele><time>2026-04-26T07:25:35.509Z</time></trkpt><trkpt lat="45.472805" lon="8.7925817"><ele>117.60000000000001</ele><time>2026-04-26T07:25:37.509Z</time></trkpt><trkpt lat="45.4727" lon="8.7925683"><ele>117.39999999999999</ele><time>2026-04-26T07:25:39.508Z</time></trkpt><trkpt lat="45.472595" lon="8.792545"><ele>117.19999999999999</ele><time>2026-04-26T07:25:41.508Z</time></trkpt><trkpt lat="45.4724933" lon="8.79252"><ele>117.0</ele><time>2026-04-26T07:25:43.508Z</time></trkpt><trkpt lat="45.4723917" lon="8.7925083"><ele>117.0</ele><time>2026-04-26T07:25:45.509Z</time></trkpt><trkpt lat="45.47229" lon="8.792495"><ele>116.99999999999999</ele><time>2026-04-26T07:25:47.509Z</time></trkpt><trkpt lat="45.4721883" lon="8.7924667"><ele>116.99999999999999</ele><time>2026-04-26T07:25:49.508Z</time></trkpt><trkpt lat="45.4720733" lon="8.79245"><ele>117.0</ele><time>2026-04-26T07:25:51.509Z</time></trkpt><trkpt lat="45.471965" lon="8.79244"><ele>117.0</ele><time>2026-04-26T07:25:53.508Z</time></trkpt><trkpt lat="45.4718667" lon="8.7924367"><ele>117.0</ele><time>2026-04-26T07:25:55.508Z</time></trkpt><trkpt lat="45.47176" lon="8.7924167"><ele>116.99999999999999</ele><time>2026-04-26T07:25:57.508Z</time></trkpt><trkpt lat="45.4716517" lon="8.7924033"><ele>116.99999999999999</ele><time>2026-04-26T07:25:59.508Z</time></trkpt><trkpt lat="45.471555" lon="8.7923717"><ele>117.0</ele><time>2026-04-26T07:26:01.508Z</time></trkpt><trkpt lat="45.4714517" lon="8.7923517"><ele>117.0</ele><time>2026-04-26T07:26:03.508Z</time></trkpt><trkpt lat="45.4713483" lon="8.792335"><ele>117.0</ele><time>2026-04-26T07:26:05.509Z</time></trkpt><trkpt lat="45.47124" lon="8.7923167"><ele>116.99999999999999</ele><time>2026-04-26T07:26:07.508Z</time></trkpt><trkpt lat="45.4711333" lon="8.79229"><ele>116.99999999999999</ele><time>2026-04-26T07:26:09.508Z</time></trkpt><trkpt lat="45.4710333" lon="8.7922767"><ele>117.0</ele><time>2026-04-26T07:26:11.508Z</time></trkpt><trkpt lat="45.4709317" lon="8.79227"><ele>117.0</ele><time>2026-04-26T07:26:13.508Z</time></trkpt><trkpt lat="45.4708317" lon="8.7922667"><ele>117.0</ele><time>2026-04-26T07:26:15.508Z</time></trkpt><trkpt lat="45.4707383" lon="8.792265"><ele>117.0</ele><time>2026-04-26T07:26:17.509Z</time></trkpt><trkpt lat="45.47066" lon="8.7922717"><ele>117.0</ele><time>2026-04-26T07:26:19.509Z</time></trkpt><trkpt lat="45.470585" lon="8.7922817"><ele>117.0</ele><time>2026-04-26T07:26:21.508Z</time></trkpt><trkpt lat="45.4705167" lon="8.7923"><ele>117.0</ele><time>2026-04-26T07:26:24.508Z</time></trkpt><trkpt lat="45.4704583" lon="8.7923383"><ele>117.0</ele><time>2026-04-26T07:27:04.507Z</time></trkpt><trkpt lat="45.4704733" lon="8.7924433"><ele>117.0</ele><time>2026-04-26T07:27:08.507Z</time></trkpt><trkpt lat="45.4704867" lon="8.7925617"><ele>117.00000000000001</ele><time>2026-04-26T07:27:12.507Z</time></trkpt><trkpt lat="45.47051" lon="8.79268"><ele>117.0</ele><time>2026-04-26T07:27:15.507Z</time></trkpt><trkpt lat="45.4705233" lon="8.792775"><ele>117.0</ele><time>2026-04-26T07:27:17.508Z</time></trkpt><trkpt lat="45.470535" lon="8.792875"><ele>117.00000000000001</ele><time>2026-04-26T07:27:19.507Z</time></trkpt><trkpt lat="45.47054" lon="8.7929717"><ele>117.0</ele><time>2026-04-26T07:27:21.507Z</time></trkpt><trkpt lat="45.4705433" lon="8.793065"><ele>117.0</ele><time>2026-04-26T07:27:23.507Z</time></trkpt><trkpt lat="45.4705433" lon="8.7931583"><ele>117.33333333333333</ele><time>2026-04-26T07:27:25.507Z</time></trkpt><trkpt lat="45.4705583" lon="8.793255"><ele>117.66666666666666</ele><time>2026-04-26T07:27:27.507Z</time></trkpt><trkpt lat="45.47058" lon="8.7933717"><ele>118.0</ele><time>2026-04-26T07:27:29.508Z</time></trkpt><trkpt lat="45.4705867" lon="8.7934783"><ele>118.33333333333333</ele><time>2026-04-26T07:27:31.508Z</time></trkpt><trkpt lat="45.47059" lon="8.7935833"><ele>118.66666666666666</ele><time>2026-04-26T07:27:33.508Z</time></trkpt><trkpt lat="45.470605" lon="8.7936867"><ele>119.0</ele><time>2026-04-26T07:27:35.508Z</time></trkpt><trkpt lat="45.4706167" lon="8.7937967"><ele>118.99999999999999</ele><time>2026-04-26T07:27:37.507Z</time></trkpt><trkpt lat="45.47063" lon="8.793905"><ele>119.0</ele><time>2026-04-26T07:27:39.508Z</time></trkpt><trkpt lat="45.47065" lon="8.7940783"><ele>119.0</ele><time>2026-04-26T07:27:42.507Z</time></trkpt><trkpt lat="45.4706567" lon="8.7941883"><ele>119.0</ele><time>2026-04-26T07:27:44.508Z</time></trkpt><trkpt lat="45.4706667" lon="8.794305"><ele>118.99999999999999</ele><time>2026-04-26T07:27:46.508Z</time></trkpt><trkpt lat="45.4706767" lon="8.79441"><ele>119.0</ele><time>2026-04-26T07:27:48.507Z</time></trkpt><trkpt lat="45.4706867" lon="8.7945333"><ele>118.99999999999999</ele><time>2026-04-26T07:27:50.507Z</time></trkpt><trkpt lat="45.4707017" lon="8.7946483"><ele>119.0</ele><time>2026-04-26T07:27:52.507Z</time></trkpt><trkpt lat="45.47072" lon="8.794765"><ele>119.0</ele><time>2026-04-26T07:27:54.508Z</time></trkpt><trkpt lat="45.47073" lon="8.7948867"><ele>119.0</ele><time>2026-04-26T07:27:56.507Z</time></trkpt><trkpt lat="45.47074" lon="8.795"><ele>118.99999999999999</ele><time>2026-04-26T07:27:58.508Z</time></trkpt><trkpt lat="45.4707533" lon="8.7951317"><ele>119.0</ele><time>2026-04-26T07:28:00.507Z</time></trkpt><trkpt lat="45.4707633" lon="8.7952433"><ele>118.99999999999999</ele><time>2026-04-26T07:28:02.507Z</time></trkpt><trkpt lat="45.4707917" lon="8.7953633"><ele>119.0</ele><time>2026-04-26T07:28:04.507Z</time></trkpt><trkpt lat="45.4708" lon="8.7954883"><ele>119.0</ele><time>2026-04-26T07:28:06.507Z</time></trkpt><trkpt lat="45.4708217" lon="8.7956233"><ele>119.0</ele><time>2026-04-26T07:28:08.508Z</time></trkpt><trkpt lat="45.4708233" lon="8.7957433"><ele>118.99999999999999</ele><time>2026-04-26T07:28:10.507Z</time></trkpt><trkpt lat="45.47083" lon="8.7958633"><ele>119.0</ele><time>2026-04-26T07:28:12.508Z</time></trkpt><trkpt lat="45.4708367" lon="8.795985"><ele>119.16666666666666</ele><time>2026-04-26T07:28:14.508Z</time></trkpt><trkpt lat="45.470855" lon="8.79611"><ele>119.33333333333333</ele><time>2026-04-26T07:28:16.507Z</time></trkpt><trkpt lat="45.47086" lon="8.796235"><ele>119.5</ele><time>2026-04-26T07:28:18.507Z</time></trkpt><trkpt lat="45.4708767" lon="8.796365"><ele>119.66666666666666</ele><time>2026-04-26T07:28:20.507Z</time></trkpt><trkpt lat="45.47089" lon="8.7964933"><ele>119.83333333333333</ele><time>2026-04-26T07:28:22.508Z</time></trkpt><trkpt lat="45.4709083" lon="8.7966167"><ele>120.0</ele><time>2026-04-26T07:28:24.508Z</time></trkpt><trkpt lat="45.4709267" lon="8.796745"><ele>120.0</ele><time>2026-04-26T07:28:26.507Z</time></trkpt><trkpt lat="45.4709367" lon="8.7968667"><ele>120.0</ele><time>2026-04-26T07:28:28.507Z</time></trkpt><trkpt lat="45.4709467" lon="8.79699"><ele>120.0</ele><time>2026-04-26T07:28:30.507Z</time></trkpt><trkpt lat="45.470965" lon="8.7971167"><ele>120.0</ele><time>2026-04-26T07:28:32.508Z</time></trkpt><trkpt lat="45.4709717" lon="8.7972317"><ele>120.0</ele><time>2026-04-26T07:28:34.507Z</time></trkpt><trkpt lat="45.4709833" lon="8.797355"><ele>120.0</ele><time>2026-04-26T07:28:36.507Z</time></trkpt><trkpt lat="45.4709983" lon="8.797485"><ele>120.0</ele><time>2026-04-26T07:28:38.508Z</time></trkpt><trkpt lat="45.4710033" lon="8.7976033"><ele>120.0</ele><time>2026-04-26T07:28:40.507Z</time></trkpt><trkpt lat="45.4710167" lon="8.7977233"><ele>120.0</ele><time>2026-04-26T07:28:42.508Z</time></trkpt><trkpt lat="45.471035" lon="8.797845"><ele>120.0</ele><time>2026-04-26T07:28:44.508Z</time></trkpt><trkpt lat="45.471045" lon="8.7979633"><ele>120.0</ele><time>2026-04-26T07:28:46.508Z</time></trkpt><trkpt lat="45.4710517" lon="8.7980783"><ele>120.0</ele><time>2026-04-26T07:28:48.507Z</time></trkpt><trkpt lat="45.4710633" lon="8.798195"><ele>120.0</ele><time>2026-04-26T07:28:50.508Z</time></trkpt><trkpt lat="45.4710767" lon="8.7983033"><ele>120.0</ele><time>2026-04-26T07:28:52.507Z</time></trkpt><trkpt lat="45.47108" lon="8.7984217"><ele>120.0</ele><time>2026-04-26T07:28:54.508Z</time></trkpt><trkpt lat="45.4710933" lon="8.7985467"><ele>120.0</ele><time>2026-04-26T07:28:56.508Z</time></trkpt><trkpt lat="45.471115" lon="8.7986783"><ele>120.0</ele><time>2026-04-26T07:28:58.507Z</time></trkpt><trkpt lat="45.471125" lon="8.7987967"><ele>120.0</ele><time>2026-04-26T07:29:00.507Z</time></trkpt><trkpt lat="45.4711367" lon="8.7988967"><ele>119.85714285714286</ele><time>2026-04-26T07:29:02.508Z</time></trkpt><trkpt lat="45.471145" lon="8.798995"><ele>119.71428571428571</ele><time>2026-04-26T07:29:04.507Z</time></trkpt><trkpt lat="45.471155" lon="8.7990967"><ele>119.57142857142857</ele><time>2026-04-26T07:29:07.508Z</time></trkpt><trkpt lat="45.4711688" lon="8.7991851"><ele>119.42857142857143</ele><time>2026-04-26T07:29:11.551Z</time></trkpt><trkpt lat="45.4711065" lon="8.7991437"><ele>119.28571428571428</ele><time>2026-04-26T07:29:21.507Z</time></trkpt><trkpt lat="45.4710288" lon="8.7991169"><ele>119.14285714285714</ele><time>2026-04-26T07:29:25.6Z</time></trkpt><trkpt lat="45.47095" lon="8.799115"><ele>119.0</ele><time>2026-04-26T07:29:40.507Z</time></trkpt><trkpt lat="45.4708767" lon="8.7990867"><ele>118.99999999999999</ele><time>2026-04-26T07:29:42.508Z</time></trkpt><trkpt lat="45.4708367" lon="8.799015"><ele>119.0</ele><time>2026-04-26T07:29:44.507Z</time></trkpt><trkpt lat="45.4708233" lon="8.79889"><ele>119.0</ele><time>2026-04-26T07:29:47.507Z</time></trkpt><trkpt lat="45.470795" lon="8.79877"><ele>119.0</ele><time>2026-04-26T07:29:50.508Z</time></trkpt><trkpt lat="45.4707917" lon="8.7986467"><ele>118.99999999999999</ele><time>2026-04-26T07:29:53.508Z</time></trkpt><trkpt lat="45.4707833" lon="8.7985483"><ele>119.0</ele><time>2026-04-26T07:29:55.508Z</time></trkpt><trkpt lat="45.4707833" lon="8.7984233"><ele>119.16666666666666</ele><time>2026-04-26T07:29:58.508Z</time></trkpt><trkpt lat="45.4707733" lon="8.7983167"><ele>119.33333333333333</ele><time>2026-04-26T07:30:00.507Z</time></trkpt><trkpt lat="45.4707483" lon="8.7981783"><ele>119.5</ele><time>2026-04-26T07:30:03.507Z</time></trkpt><trkpt lat="45.47074" lon="8.798075"><ele>119.66666666666666</ele><time>2026-04-26T07:30:05.507Z</time></trkpt><trkpt lat="45.47073" lon="8.7979683"><ele>119.83333333333333</ele><time>2026-04-26T07:30:07.507Z</time></trkpt><trkpt lat="45.4707283" lon="8.7978617"><ele>120.0</ele><time>2026-04-26T07:30:09.508Z</time></trkpt><trkpt lat="45.4707183" lon="8.7977517"><ele>120.0</ele><time>2026-04-26T07:30:11.508Z</time></trkpt><trkpt lat="45.4707067" lon="8.7976433"><ele>120.0</ele><time>2026-04-26T07:30:13.508Z</time></trkpt><trkpt lat="45.4706917" lon="8.7975233"><ele>120.0</ele><time>2026-04-26T07:30:15.507Z</time></trkpt><trkpt lat="45.4706833" lon="8.7974167"><ele>120.0</ele><time>2026-04-26T07:30:17.508Z</time></trkpt><trkpt lat="45.47067" lon="8.79731"><ele>120.0</ele><time>2026-04-26T07:30:19.508Z</time></trkpt><trkpt lat="45.4706467" lon="8.7972133"><ele>120.0</ele><time>2026-04-26T07:30:21.508Z</time></trkpt><trkpt lat="45.4706417" lon="8.7970967"><ele>120.0</ele><time>2026-04-26T07:30:23.508Z</time></trkpt><trkpt lat="45.47064" lon="8.7969883"><ele>120.0</ele><time>2026-04-26T07:30:25.508Z</time></trkpt><trkpt lat="45.47062" lon="8.79689"><ele>120.0</ele><time>2026-04-26T07:30:27.507Z</time></trkpt><trkpt lat="45.4706067" lon="8.7967933"><ele>120.0</ele><time>2026-04-26T07:30:29.507Z</time></trkpt><trkpt lat="45.470595" lon="8.7966933"><ele>120.0</ele><time>2026-04-26T07:30:31.507Z</time></trkpt><trkpt lat="45.4705867" lon="8.7965817"><ele>120.0</ele><time>2026-04-26T07:30:33.507Z</time></trkpt><trkpt lat="45.4705833" lon="8.7964767"><ele>120.0</ele><time>2026-04-26T07:30:35.508Z</time></trkpt><trkpt lat="45.4705667" lon="8.796375"><ele>120.0</ele><time>2026-04-26T07:30:37.508Z</time></trkpt><trkpt lat="45.470555" lon="8.7962583"><ele>120.0</ele><time>2026-04-26T07:30:39.508Z</time></trkpt><trkpt lat="45.47055" lon="8.7961367"><ele>120.0</ele><time>2026-04-26T07:30:41.508Z</time></trkpt><trkpt lat="45.47053" lon="8.7960217"><ele>120.0</ele><time>2026-04-26T07:30:43.507Z</time></trkpt><trkpt lat="45.4705167" lon="8.79591"><ele>120.0</ele><time>2026-04-26T07:30:45.508Z</time></trkpt><trkpt lat="45.470495" lon="8.795805"><ele>120.0</ele><time>2026-04-26T07:30:47.508Z</time></trkpt><trkpt lat="45.4704533" lon="8.7957117"><ele>120.0</ele><time>2026-04-26T07:30:49.507Z</time></trkpt><trkpt lat="45.4703867" lon="8.7956433"><ele>120.0</ele><time>2026-04-26T07:30:51.508Z</time></trkpt><trkpt lat="45.4703283" lon="8.7955583"><ele>120.0</ele><time>2026-04-26T07:30:53.507Z</time></trkpt><trkpt lat="45.4702767" lon="8.7954667"><ele>120.0</ele><time>2026-04-26T07:30:55.507Z</time></trkpt><trkpt lat="45.4702333" lon="8.79538"><ele>120.0</ele><time>2026-04-26T07:30:57.507Z</time></trkpt><trkpt lat="45.4701867" lon="8.795315"><ele>120.0</ele><time>2026-04-26T07:30:59.508Z</time></trkpt><trkpt lat="45.4700933" lon="8.7952967"><ele>120.0</ele><time>2026-04-26T07:31:01.508Z</time></trkpt><trkpt lat="45.46999" lon="8.79531"><ele>120.0</ele><time>2026-04-26T07:31:03.507Z</time></trkpt><trkpt lat="45.4698933" lon="8.7953183"><ele>120.0</ele><time>2026-04-26T07:31:05.507Z</time></trkpt><trkpt lat="45.4697983" lon="8.7953217"><ele>120.0</ele><time>2026-04-26T07:31:07.507Z</time></trkpt><trkpt lat="45.4697133" lon="8.7953167"><ele>120.0</ele><time>2026-04-26T07:31:09.507Z</time></trkpt><trkpt lat="45.4696067" lon="8.7953183"><ele>119.4</ele><time>2026-04-26T07:31:11.508Z</time></trkpt><trkpt lat="45.469495" lon="8.7953367"><ele>118.8</ele><time>2026-04-26T07:31:13.508Z</time></trkpt><trkpt lat="45.4693967" lon="8.7953467"><ele>118.19999999999999</ele><time>2026-04-26T07:31:15.508Z</time></trkpt><trkpt lat="45.4693017" lon="8.795335"><ele>117.6</ele><time>2026-04-26T07:31:17.508Z</time></trkpt><trkpt lat="45.4692083" lon="8.7953733"><ele>117.0</ele><time>2026-04-26T07:31:19.508Z</time></trkpt><trkpt lat="45.46915" lon="8.79545"><ele>117.0</ele><time>2026-04-26T07:31:21.507Z</time></trkpt><trkpt lat="45.46915" lon="8.7955833"><ele>117.0</ele><time>2026-04-26T07:31:24.508Z</time></trkpt><trkpt lat="45.4691567" lon="8.7956917"><ele>117.0</ele><time>2026-04-26T07:31:26.508Z</time></trkpt><trkpt lat="45.4691717" lon="8.7958217"><ele>117.0</ele><time>2026-04-26T07:31:28.508Z</time></trkpt><trkpt lat="45.46918" lon="8.7959483"><ele>117.0</ele><time>2026-04-26T07:31:30.507Z</time></trkpt><trkpt lat="45.4691733" lon="8.7960867"><ele>117.0</ele><time>2026-04-26T07:31:32.507Z</time></trkpt><trkpt lat="45.4691733" lon="8.7962233"><ele>116.83333333333333</ele><time>2026-04-26T07:31:34.507Z</time></trkpt><trkpt lat="45.4691617" lon="8.796345"><ele>116.66666666666666</ele><time>2026-04-26T07:31:36.507Z</time></trkpt><trkpt lat="45.469165" lon="8.7964717"><ele>116.5</ele><time>2026-04-26T07:31:38.508Z</time></trkpt><trkpt lat="45.4691733" lon="8.7966067"><ele>116.33333333333333</ele><time>2026-04-26T07:31:40.507Z</time></trkpt><trkpt lat="45.46918" lon="8.796735"><ele>116.16666666666666</ele><time>2026-04-26T07:31:42.507Z</time></trkpt><trkpt lat="45.4691833" lon="8.7968567"><ele>116.0</ele><time>2026-04-26T07:31:44.507Z</time></trkpt><trkpt lat="45.469185" lon="8.796985"><ele>116.4</ele><time>2026-04-26T07:31:46.508Z</time></trkpt><trkpt lat="45.4691633" lon="8.7971233"><ele>116.8</ele><time>2026-04-26T07:31:48.507Z</time></trkpt><trkpt lat="45.4691317" lon="8.7972617"><ele>117.20000000000002</ele><time>2026-04-26T07:31:50.508Z</time></trkpt><trkpt lat="45.469085" lon="8.79738"><ele>117.60000000000001</ele><time>2026-04-26T07:31:52.508Z</time></trkpt><trkpt lat="45.469065" lon="8.7975133"><ele>118.0</ele><time>2026-04-26T07:31:54.508Z</time></trkpt><trkpt lat="45.4690733" lon="8.797645"><ele>118.4</ele><time>2026-04-26T07:31:56.508Z</time></trkpt><trkpt lat="45.4690783" lon="8.797765"><ele>118.80000000000001</ele><time>2026-04-26T07:31:58.507Z</time></trkpt><trkpt lat="45.4690767" lon="8.797895"><ele>119.2</ele><time>2026-04-26T07:32:00.507Z</time></trkpt><trkpt lat="45.46906" lon="8.7980283"><ele>119.6</ele><time>2026-04-26T07:32:02.508Z</time></trkpt><trkpt lat="45.4690467" lon="8.79816"><ele>120.0</ele><time>2026-04-26T07:32:04.507Z</time></trkpt><trkpt lat="45.4690433" lon="8.7983017"><ele>120.0</ele><time>2026-04-26T07:32:06.507Z</time></trkpt><trkpt lat="45.46904" lon="8.798435"><ele>120.0</ele><time>2026-04-26T07:32:08.508Z</time></trkpt><trkpt lat="45.4690317" lon="8.798555"><ele>120.0</ele><time>2026-04-26T07:32:10.507Z</time></trkpt><trkpt lat="45.4690533" lon="8.7986983"><ele>120.0</ele><time>2026-04-26T07:32:12.508Z</time></trkpt><trkpt lat="45.469095" lon="8.798825"><ele>120.0</ele><time>2026-04-26T07:32:14.507Z</time></trkpt><trkpt lat="45.4691417" lon="8.7989367"><ele>120.33333333333333</ele><time>2026-04-26T07:32:16.507Z</time></trkpt><trkpt lat="45.4691667" lon="8.7990433"><ele>120.66666666666666</ele><time>2026-04-26T07:32:18.508Z</time></trkpt><trkpt lat="45.4691717" lon="8.7991817"><ele>121.0</ele><time>2026-04-26T07:32:20.507Z</time></trkpt><trkpt lat="45.4691667" lon="8.79931"><ele>121.33333333333333</ele><time>2026-04-26T07:32:22.508Z</time></trkpt><trkpt lat="45.4691783" lon="8.7994267"><ele>121.66666666666666</ele><time>2026-04-26T07:32:24.508Z</time></trkpt><trkpt lat="45.4691783" lon="8.7995583"><ele>122.0</ele><time>2026-04-26T07:32:26.507Z</time></trkpt><trkpt lat="45.4691817" lon="8.7996933"><ele>121.99999999999999</ele><time>2026-04-26T07:32:28.508Z</time></trkpt><trkpt lat="45.4691867" lon="8.7998133"><ele>122.0</ele><time>2026-04-26T07:32:30.507Z</time></trkpt><trkpt lat="45.469185" lon="8.799935"><ele>122.0</ele><time>2026-04-26T07:32:32.508Z</time></trkpt><trkpt lat="45.469185" lon="8.8000617"><ele>122.0</ele><time>2026-04-26T07:32:34.508Z</time></trkpt><trkpt lat="45.4691817" lon="8.800195"><ele>121.99999999999999</ele><time>2026-04-26T07:32:36.508Z</time></trkpt><trkpt lat="45.469185" lon="8.80032"><ele>122.0</ele><time>2026-04-26T07:32:38.507Z</time></trkpt><trkpt lat="45.4691867" lon="8.8004467"><ele>121.83333333333333</ele><time>2026-04-26T07:32:40.508Z</time></trkpt><trkpt lat="45.4691933" lon="8.800565"><ele>121.66666666666666</ele><time>2026-04-26T07:32:42.508Z</time></trkpt><trkpt lat="45.469205" lon="8.8006917"><ele>121.5</ele><time>2026-04-26T07:32:44.508Z</time></trkpt><trkpt lat="45.469215" lon="8.8008283"><ele>121.33333333333334</ele><time>2026-04-26T07:32:46.507Z</time></trkpt><trkpt lat="45.4692167" lon="8.8009567"><ele>121.16666666666667</ele><time>2026-04-26T07:32:48.508Z</time></trkpt><trkpt lat="45.46922" lon="8.8010817"><ele>121.0</ele><time>2026-04-26T07:32:50.508Z</time></trkpt><trkpt lat="45.4692333" lon="8.8011983"><ele>121.16666666666667</ele><time>2026-04-26T07:32:52.508Z</time></trkpt><trkpt lat="45.4692283" lon="8.801315"><ele>121.33333333333334</ele><time>2026-04-26T07:32:54.508Z</time></trkpt><trkpt lat="45.4692133" lon="8.8014433"><ele>121.5</ele><time>2026-04-26T07:32:56.507Z</time></trkpt><trkpt lat="45.469185" lon="8.8015617"><ele>121.66666666666666</ele><time>2026-04-26T07:32:58.507Z</time></trkpt><trkpt lat="45.4691267" lon="8.8016733"><ele>121.83333333333333</ele><time>2026-04-26T07:33:00.508Z</time></trkpt><trkpt lat="45.469075" lon="8.8017717"><ele>122.0</ele><time>2026-04-26T07:33:02.507Z</time></trkpt><trkpt lat="45.4690383" lon="8.80185"><ele>121.99999999999999</ele><time>2026-04-26T07:33:04.507Z</time></trkpt><trkpt lat="45.4689883" lon="8.8019433"><ele>122.0</ele><time>2026-04-26T07:33:06.507Z</time></trkpt><trkpt lat="45.4689183" lon="8.802015"><ele>122.0</ele><time>2026-04-26T07:33:08.508Z</time></trkpt><trkpt lat="45.4688333" lon="8.8020517"><ele>122.0</ele><time>2026-04-26T07:33:10.507Z</time></trkpt><trkpt lat="45.4687517" lon="8.802095"><ele>121.99999999999999</ele><time>2026-04-26T07:33:12.507Z</time></trkpt><trkpt lat="45.46867" lon="8.80214"><ele>122.0</ele><time>2026-04-26T07:33:14.508Z</time></trkpt><trkpt lat="45.4685933" lon="8.8021767"><ele>121.16666666666666</ele><time>2026-04-26T07:33:16.507Z</time></trkpt><trkpt lat="45.4685133" lon="8.8021983"><ele>120.33333333333333</ele><time>2026-04-26T07:33:18.507Z</time></trkpt><trkpt lat="45.468435" lon="8.8022217"><ele>119.5</ele><time>2026-04-26T07:33:20.507Z</time></trkpt><trkpt lat="45.46835" lon="8.8022667"><ele>118.66666666666666</ele><time>2026-04-26T07:33:22.507Z</time></trkpt><trkpt lat="45.4682733" lon="8.8023233"><ele>117.83333333333333</ele><time>2026-04-26T07:33:24.508Z</time></trkpt><trkpt lat="45.4682017" lon="8.8023683"><ele>117.0</ele><time>2026-04-26T07:33:26.507Z</time></trkpt><trkpt lat="45.468125" lon="8.8024"><ele>117.0</ele><time>2026-04-26T07:33:28.507Z</time></trkpt><trkpt lat="45.4680367" lon="8.8024133"><ele>117.0</ele><time>2026-04-26T07:33:30.507Z</time></trkpt><trkpt lat="45.467955" lon="8.8024"><ele>117.0</ele><time>2026-04-26T07:33:32.507Z</time></trkpt><trkpt lat="45.46788" lon="8.8023683"><ele>117.0</ele><time>2026-04-26T07:33:34.507Z</time></trkpt><trkpt lat="45.4678033" lon="8.80232"><ele>117.0</ele><time>2026-04-26T07:33:36.507Z</time></trkpt><trkpt lat="45.467715" lon="8.8022683"><ele>117.0</ele><time>2026-04-26T07:33:38.507Z</time></trkpt><trkpt lat="45.4676267" lon="8.80223"><ele>117.39999999999999</ele><time>2026-04-26T07:33:40.508Z</time></trkpt><trkpt lat="45.4675233" lon="8.8021817"><ele>117.79999999999998</ele><time>2026-04-26T07:33:42.507Z</time></trkpt><trkpt lat="45.4674433" lon="8.80213"><ele>118.2</ele><time>2026-04-26T07:33:44.508Z</time></trkpt><trkpt lat="45.4673683" lon="8.802095"><ele>118.6</ele><time>2026-04-26T07:33:46.507Z</time></trkpt><trkpt lat="45.46728" lon="8.8020617"><ele>119.0</ele><time>2026-04-26T07:33:48.508Z</time></trkpt><trkpt lat="45.4671883" lon="8.8020133"><ele>119.80000000000001</ele><time>2026-04-26T07:33:50.507Z</time></trkpt><trkpt lat="45.467075" lon="8.8019883"><ele>120.60000000000001</ele><time>2026-04-26T07:33:52.507Z</time></trkpt><trkpt lat="45.4669833" lon="8.8020283"><ele>121.4</ele><time>2026-04-26T07:33:54.508Z</time></trkpt><trkpt lat="45.4669083" lon="8.8020917"><ele>122.2</ele><time>2026-04-26T07:33:56.508Z</time></trkpt><trkpt lat="45.4668333" lon="8.802165"><ele>123.0</ele><time>2026-04-26T07:33:58.508Z</time></trkpt><trkpt lat="45.4667567" lon="8.8022317"><ele>123.0</ele><time>2026-04-26T07:34:00.507Z</time></trkpt><trkpt lat="45.4666867" lon="8.80229"><ele>123.0</ele><time>2026-04-26T07:34:02.507Z</time></trkpt><trkpt lat="45.4666019" lon="8.8023434"><ele>123.0</ele><time>2026-04-26T07:34:04.551Z</time></trkpt><trkpt lat="45.46652" lon="8.8023785"><ele>123.0</ele><time>2026-04-26T07:34:06.532Z</time></trkpt><trkpt lat="45.4664417" lon="8.8023941"><ele>123.0</ele><time>2026-04-26T07:34:08.531Z</time></trkpt><trkpt lat="45.4663667" lon="8.8024633"><ele>123.0</ele><time>2026-04-26T07:34:10.507Z</time></trkpt><trkpt lat="45.4662783" lon="8.8025183"><ele>123.0</ele><time>2026-04-26T07:34:12.508Z</time></trkpt><trkpt lat="45.4662033" lon="8.80256"><ele>123.0</ele><time>2026-04-26T07:34:14.507Z</time></trkpt><trkpt lat="45.4661233" lon="8.8026233"><ele>123.0</ele><time>2026-04-26T07:34:16.507Z</time></trkpt><trkpt lat="45.4660433" lon="8.802675"><ele>123.0</ele><time>2026-04-26T07:34:18.508Z</time></trkpt><trkpt lat="45.4659533" lon="8.8027033"><ele>123.0</ele><time>2026-04-26T07:34:20.508Z</time></trkpt><trkpt lat="45.4658583" lon="8.8027183"><ele>123.0</ele><time>2026-04-26T07:34:22.507Z</time></trkpt><trkpt lat="45.4657717" lon="8.8027367"><ele>122.83333333333333</ele><time>2026-04-26T07:34:24.508Z</time></trkpt><trkpt lat="45.4656829" lon="8.8027606"><ele>122.66666666666666</ele><time>2026-04-26T07:34:26.423Z</time></trkpt><trkpt lat="45.4656025" lon="8.802787"><ele>122.5</ele><time>2026-04-26T07:34:28.604Z</time></trkpt><trkpt lat="45.465528" lon="8.8027792"><ele>122.33333333333333</ele><time>2026-04-26T07:34:30.571Z</time></trkpt><trkpt lat="45.4654583" lon="8.8027433"><ele>122.16666666666666</ele><time>2026-04-26T07:34:32.508Z</time></trkpt><trkpt lat="45.465385" lon="8.80271"><ele>122.0</ele><time>2026-04-26T07:34:34.508Z</time></trkpt><trkpt lat="45.4653017" lon="8.8026483"><ele>121.99999999999999</ele><time>2026-04-26T07:34:36.507Z</time></trkpt><trkpt lat="45.4652167" lon="8.802605"><ele>122.0</ele><time>2026-04-26T07:34:38.508Z</time></trkpt><trkpt lat="45.4651333" lon="8.8025617"><ele>122.0</ele><time>2026-04-26T07:34:40.508Z</time></trkpt><trkpt lat="45.4650517" lon="8.8025217"><ele>122.0</ele><time>2026-04-26T07:34:42.507Z</time></trkpt><trkpt lat="45.46496" lon="8.8024967"><ele>121.99999999999999</ele><time>2026-04-26T07:34:44.508Z</time></trkpt><trkpt lat="45.4648733" lon="8.80247"><ele>122.0</ele><time>2026-04-26T07:34:46.508Z</time></trkpt><trkpt lat="45.46479" lon="8.8024383"><ele>122.0</ele><time>2026-04-26T07:34:48.507Z</time></trkpt><trkpt lat="45.4646967" lon="8.8024167"><ele>121.99999999999999</ele><time>2026-04-26T07:34:50.508Z</time></trkpt><trkpt lat="45.4646117" lon="8.802415"><ele>121.99999999999999</ele><time>2026-04-26T07:34:52.507Z</time></trkpt><trkpt lat="45.4645183" lon="8.8024033"><ele>122.0</ele><time>2026-04-26T07:34:54.507Z</time></trkpt><trkpt lat="45.4644283" lon="8.8023933"><ele>122.0</ele><time>2026-04-26T07:34:56.508Z</time></trkpt><trkpt lat="45.46434" lon="8.8023817"><ele>121.83333333333333</ele><time>2026-04-26T07:34:58.508Z</time></trkpt><trkpt lat="45.4642633" lon="8.8023983"><ele>121.66666666666666</ele><time>2026-04-26T07:35:00.507Z</time></trkpt><trkpt lat="45.46419" lon="8.8023933"><ele>121.5</ele><time>2026-04-26T07:35:02.508Z</time></trkpt><trkpt lat="45.4640967" lon="8.8023683"><ele>121.33333333333334</ele><time>2026-04-26T07:35:04.508Z</time></trkpt><trkpt lat="45.4640117" lon="8.8023417"><ele>121.16666666666667</ele><time>2026-04-26T07:35:06.507Z</time></trkpt><trkpt lat="45.4639333" lon="8.8022983"><ele>121.0</ele><time>2026-04-26T07:35:08.508Z</time></trkpt><trkpt lat="45.46386" lon="8.8022483"><ele>121.00000000000001</ele><time>2026-04-26T07:35:10.507Z</time></trkpt><trkpt lat="45.4637883" lon="8.802215"><ele>121.0</ele><time>2026-04-26T07:35:12.507Z</time></trkpt><trkpt lat="45.4637" lon="8.8022033"><ele>121.0</ele><time>2026-04-26T07:35:15.507Z</time></trkpt><trkpt lat="45.46363" lon="8.8022167"><ele>121.0</ele><time>2026-04-26T07:35:17.507Z</time></trkpt><trkpt lat="45.4635533" lon="8.8022233"><ele>121.00000000000001</ele><time>2026-04-26T07:35:19.507Z</time></trkpt><trkpt lat="45.463465" lon="8.8022417"><ele>121.0</ele><time>2026-04-26T07:35:21.507Z</time></trkpt><trkpt lat="45.4633767" lon="8.8022483"><ele>120.83333333333334</ele><time>2026-04-26T07:35:23.506Z</time></trkpt><trkpt lat="45.4632933" lon="8.8022417"><ele>120.66666666666667</ele><time>2026-04-26T07:35:25.506Z</time></trkpt><trkpt lat="45.463205" lon="8.80225"><ele>120.5</ele><time>2026-04-26T07:35:27.507Z</time></trkpt><trkpt lat="45.4631217" lon="8.80229"><ele>120.33333333333334</ele><time>2026-04-26T07:35:29.507Z</time></trkpt><trkpt lat="45.4630467" lon="8.8023583"><ele>120.16666666666667</ele><time>2026-04-26T07:35:31.506Z</time></trkpt><trkpt lat="45.4629883" lon="8.8024317"><ele>120.0</ele><time>2026-04-26T07:35:33.507Z</time></trkpt><trkpt lat="45.4629483" lon="8.8025017"><ele>120.33333333333333</ele><time>2026-04-26T07:35:35.507Z</time></trkpt><trkpt lat="45.46293" lon="8.8026067"><ele>120.66666666666666</ele><time>2026-04-26T07:35:37.507Z</time></trkpt><trkpt lat="45.4629483" lon="8.802735"><ele>121.0</ele><time>2026-04-26T07:35:39.506Z</time></trkpt><trkpt lat="45.4629883" lon="8.8028583"><ele>121.33333333333333</ele><time>2026-04-26T07:35:41.507Z</time></trkpt><trkpt lat="45.4630217" lon="8.8029767"><ele>121.66666666666666</ele><time>2026-04-26T07:35:43.507Z</time></trkpt><trkpt lat="45.46305" lon="8.8030917"><ele>122.0</ele><time>2026-04-26T07:35:45.507Z</time></trkpt><trkpt lat="45.463085" lon="8.8032233"><ele>121.99999999999999</ele><time>2026-04-26T07:35:47.507Z</time></trkpt><trkpt lat="45.4631267" lon="8.8033317"><ele>122.0</ele><time>2026-04-26T07:35:49.506Z</time></trkpt><trkpt lat="45.4631567" lon="8.803435"><ele>122.0</ele><time>2026-04-26T07:35:51.506Z</time></trkpt><trkpt lat="45.46317" lon="8.803565"><ele>122.0</ele><time>2026-04-26T07:35:53.506Z</time></trkpt><trkpt lat="45.46315" lon="8.8036933"><ele>121.99999999999999</ele><time>2026-04-26T07:35:55.507Z</time></trkpt><trkpt lat="45.4631233" lon="8.80382"><ele>122.0</ele><time>2026-04-26T07:35:57.507Z</time></trkpt><trkpt lat="45.4630883" lon="8.8039433"><ele>121.83333333333333</ele><time>2026-04-26T07:35:59.506Z</time></trkpt><trkpt lat="45.46305" lon="8.804065"><ele>121.66666666666666</ele><time>2026-04-26T07:36:01.506Z</time></trkpt><trkpt lat="45.463015" lon="8.80417"><ele>121.5</ele><time>2026-04-26T07:36:03.506Z</time></trkpt><trkpt lat="45.4629717" lon="8.804285"><ele>121.33333333333334</ele><time>2026-04-26T07:36:05.506Z</time></trkpt><trkpt lat="45.46293" lon="8.8044017"><ele>121.16666666666667</ele><time>2026-04-26T07:36:07.506Z</time></trkpt><trkpt lat="45.462895" lon="8.80452"><ele>121.0</ele><time>2026-04-26T07:36:09.507Z</time></trkpt><trkpt lat="45.4628317" lon="8.8046383"><ele>120.19999999999999</ele><time>2026-04-26T07:36:11.506Z</time></trkpt><trkpt lat="45.462775" lon="8.8047617"><ele>119.39999999999999</ele><time>2026-04-26T07:36:13.506Z</time></trkpt><trkpt lat="45.4627467" lon="8.804865"><ele>118.6</ele><time>2026-04-26T07:36:15.506Z</time></trkpt><trkpt lat="45.46271" lon="8.8049783"><ele>117.8</ele><time>2026-04-26T07:36:17.507Z</time></trkpt><trkpt lat="45.4626733" lon="8.80513"><ele>117.0</ele><time>2026-04-26T07:36:19.507Z</time></trkpt><trkpt lat="45.4626267" lon="8.8052833"><ele>116.6</ele><time>2026-04-26T07:36:21.506Z</time></trkpt><trkpt lat="45.462595" lon="8.8054317"><ele>116.19999999999999</ele><time>2026-04-26T07:36:23.507Z</time></trkpt><trkpt lat="45.4625683" lon="8.80556"><ele>115.8</ele><time>2026-04-26T07:36:25.507Z</time></trkpt><trkpt lat="45.46255" lon="8.8056917"><ele>115.4</ele><time>2026-04-26T07:36:27.507Z</time></trkpt><trkpt lat="45.4625167" lon="8.8058183"><ele>115.0</ele><time>2026-04-26T07:36:29.507Z</time></trkpt><trkpt lat="45.462465" lon="8.8059267"><ele>114.8</ele><time>2026-04-26T07:36:31.506Z</time></trkpt><trkpt lat="45.4624067" lon="8.8060533"><ele>114.6</ele><time>2026-04-26T07:36:33.506Z</time></trkpt><trkpt lat="45.46235" lon="8.806175"><ele>114.4</ele><time>2026-04-26T07:36:35.506Z</time></trkpt><trkpt lat="45.462285" lon="8.806275"><ele>114.2</ele><time>2026-04-26T07:36:37.506Z</time></trkpt><trkpt lat="45.4622133" lon="8.80635"><ele>114.0</ele><time>2026-04-26T07:36:39.506Z</time></trkpt><trkpt lat="45.4621417" lon="8.8063967"><ele>114.0</ele><time>2026-04-26T07:36:41.506Z</time></trkpt><trkpt lat="45.46205" lon="8.806435"><ele>114.0</ele><time>2026-04-26T07:36:43.507Z</time></trkpt><trkpt lat="45.461955" lon="8.8064583"><ele>114.0</ele><time>2026-04-26T07:36:45.506Z</time></trkpt><trkpt lat="45.4618717" lon="8.8064667"><ele>114.0</ele><time>2026-04-26T07:36:47.506Z</time></trkpt><trkpt lat="45.46178" lon="8.8064933"><ele>114.0</ele><time>2026-04-26T07:36:49.506Z</time></trkpt><trkpt lat="45.4616817" lon="8.8065133"><ele>114.0</ele><time>2026-04-26T07:36:51.506Z</time></trkpt><trkpt lat="45.4615917" lon="8.8065367"><ele>114.0</ele><time>2026-04-26T07:36:53.506Z</time></trkpt><trkpt lat="45.46151" lon="8.8065583"><ele>114.0</ele><time>2026-04-26T07:36:55.507Z</time></trkpt><trkpt lat="45.4614333" lon="8.8065817"><ele>114.0</ele><time>2026-04-26T07:36:57.506Z</time></trkpt><trkpt lat="45.46134" lon="8.80659"><ele>114.0</ele><time>2026-04-26T07:36:59.506Z</time></trkpt><trkpt lat="45.461245" lon="8.806615"><ele>114.0</ele><time>2026-04-26T07:37:01.506Z</time></trkpt><trkpt lat="45.4611483" lon="8.8066467"><ele>114.0</ele><time>2026-04-26T07:37:03.506Z</time></trkpt><trkpt lat="45.4610517" lon="8.806675"><ele>114.0</ele><time>2026-04-26T07:37:05.506Z</time></trkpt><trkpt lat="45.4609567" lon="8.80669"><ele>114.0</ele><time>2026-04-26T07:37:07.506Z</time></trkpt><trkpt lat="45.460855" lon="8.8067183"><ele>114.0</ele><time>2026-04-26T07:37:09.506Z</time></trkpt><trkpt lat="45.460755" lon="8.8067433"><ele>114.0</ele><time>2026-04-26T07:37:11.507Z</time></trkpt><trkpt lat="45.460665" lon="8.8067783"><ele>114.0</ele><time>2026-04-26T07:37:13.506Z</time></trkpt><trkpt lat="45.4605867" lon="8.8068083"><ele>114.0</ele><time>2026-04-26T07:37:15.507Z</time></trkpt><trkpt lat="45.4605081" lon="8.8068595"><ele>114.0</ele><time>2026-04-26T07:37:17.506Z</time></trkpt><trkpt lat="45.4604418" lon="8.8069248"><ele>114.0</ele><time>2026-04-26T07:37:19.506Z</time></trkpt><trkpt lat="45.4604012" lon="8.8070075"><ele>114.0</ele><time>2026-04-26T07:37:21.506Z</time></trkpt><trkpt lat="45.4603938" lon="8.8071263"><ele>114.0</ele><time>2026-04-26T07:37:23.507Z</time></trkpt><trkpt lat="45.4604087" lon="8.8072785"><ele>113.83333333333333</ele><time>2026-04-26T07:37:25.507Z</time></trkpt><trkpt lat="45.4604227" lon="8.807424"><ele>113.66666666666666</ele><time>2026-04-26T07:37:27.507Z</time></trkpt><trkpt lat="45.4604392" lon="8.8075435"><ele>113.5</ele><time>2026-04-26T07:37:29.507Z</time></trkpt><trkpt lat="45.4604569" lon="8.8076585"><ele>113.33333333333333</ele><time>2026-04-26T07:37:31.506Z</time></trkpt><trkpt lat="45.4604679" lon="8.8077673"><ele>113.16666666666666</ele><time>2026-04-26T07:37:33.506Z</time></trkpt><trkpt lat="45.4604844" lon="8.807878"><ele>113.0</ele><time>2026-04-26T07:37:35.506Z</time></trkpt><trkpt lat="45.4604703" lon="8.8079968"><ele>112.99999999999999</ele><time>2026-04-26T07:37:37.507Z</time></trkpt><trkpt lat="45.460426" lon="8.8081114"><ele>113.0</ele><time>2026-04-26T07:37:39.507Z</time></trkpt><trkpt lat="45.4603659" lon="8.8081909"><ele>113.0</ele><time>2026-04-26T07:37:41.507Z</time></trkpt><trkpt lat="45.4602817" lon="8.8082482"><ele>113.0</ele><time>2026-04-26T07:37:43.507Z</time></trkpt><trkpt lat="45.4601928" lon="8.8083007"><ele>112.99999999999999</ele><time>2026-04-26T07:37:45.506Z</time></trkpt><trkpt lat="45.4601177" lon="8.8083513"><ele>113.0</ele><time>2026-04-26T07:37:47.507Z</time></trkpt><trkpt lat="45.4600431" lon="8.8084165"><ele>113.0</ele><time>2026-04-26T07:37:49.506Z</time></trkpt><trkpt lat="45.4599667" lon="8.8084783"><ele>113.00000000000001</ele><time>2026-04-26T07:37:51.506Z</time></trkpt><trkpt lat="45.4598867" lon="8.8085317"><ele>113.00000000000001</ele><time>2026-04-26T07:37:53.506Z</time></trkpt><trkpt lat="45.4598033" lon="8.8085867"><ele>113.0</ele><time>2026-04-26T07:37:55.507Z</time></trkpt><trkpt lat="45.4597233" lon="8.8086533"><ele>113.0</ele><time>2026-04-26T07:37:57.506Z</time></trkpt><trkpt lat="45.4596533" lon="8.80874"><ele>112.83333333333333</ele><time>2026-04-26T07:37:59.506Z</time></trkpt><trkpt lat="45.4596" lon="8.80882"><ele>112.66666666666666</ele><time>2026-04-26T07:38:01.507Z</time></trkpt><trkpt lat="45.4595317" lon="8.8088533"><ele>112.5</ele><time>2026-04-26T07:38:03.507Z</time></trkpt><trkpt lat="45.4594517" lon="8.8088883"><ele>112.33333333333334</ele><time>2026-04-26T07:38:05.506Z</time></trkpt><trkpt lat="45.4593717" lon="8.808925"><ele>112.16666666666667</ele><time>2026-04-26T07:38:07.506Z</time></trkpt><trkpt lat="45.4592967" lon="8.8089833"><ele>112.0</ele><time>2026-04-26T07:38:09.506Z</time></trkpt><trkpt lat="45.459215" lon="8.809045"><ele>112.0</ele><time>2026-04-26T07:38:11.507Z</time></trkpt><trkpt lat="45.4591317" lon="8.8091033"><ele>111.99999999999999</ele><time>2026-04-26T07:38:13.506Z</time></trkpt><trkpt lat="45.4590467" lon="8.80916"><ele>111.99999999999999</ele><time>2026-04-26T07:38:15.506Z</time></trkpt><trkpt lat="45.4589633" lon="8.8092067"><ele>112.0</ele><time>2026-04-26T07:38:17.506Z</time></trkpt><trkpt lat="45.4588767" lon="8.8092717"><ele>112.0</ele><time>2026-04-26T07:38:19.506Z</time></trkpt><trkpt lat="45.458785" lon="8.80933"><ele>111.83333333333334</ele><time>2026-04-26T07:38:21.507Z</time></trkpt><trkpt lat="45.4587033" lon="8.809385"><ele>111.66666666666667</ele><time>2026-04-26T07:38:23.506Z</time></trkpt><trkpt lat="45.4586167" lon="8.80945"><ele>111.5</ele><time>2026-04-26T07:38:25.507Z</time></trkpt><trkpt lat="45.4585383" lon="8.8095067"><ele>111.33333333333334</ele><time>2026-04-26T07:38:27.506Z</time></trkpt><trkpt lat="45.458465" lon="8.80956"><ele>111.16666666666667</ele><time>2026-04-26T07:38:29.506Z</time></trkpt><trkpt lat="45.45839" lon="8.80963"><ele>111.0</ele><time>2026-04-26T07:38:31.507Z</time></trkpt><trkpt lat="45.4583" lon="8.809705"><ele>111.0</ele><time>2026-04-26T07:38:33.506Z</time></trkpt><trkpt lat="45.458215" lon="8.8097567"><ele>111.0</ele><time>2026-04-26T07:38:35.506Z</time></trkpt><trkpt lat="45.4581333" lon="8.80981"><ele>111.0</ele><time>2026-04-26T07:38:37.506Z</time></trkpt><trkpt lat="45.458045" lon="8.8098717"><ele>111.0</ele><time>2026-04-26T07:38:39.506Z</time></trkpt><trkpt lat="45.457965" lon="8.80993"><ele>111.0</ele><time>2026-04-26T07:38:41.506Z</time></trkpt><trkpt lat="45.4578717" lon="8.8099833"><ele>111.19999999999999</ele><time>2026-04-26T07:38:43.507Z</time></trkpt><trkpt lat="45.4577883" lon="8.81005"><ele>111.39999999999999</ele><time>2026-04-26T07:38:45.506Z</time></trkpt><trkpt lat="45.457715" lon="8.8101117"><ele>111.6</ele><time>2026-04-26T07:38:47.507Z</time></trkpt><trkpt lat="45.45764" lon="8.8101717"><ele>111.8</ele><time>2026-04-26T07:38:49.507Z</time></trkpt><trkpt lat="45.45756" lon="8.8102383"><ele>112.0</ele><time>2026-04-26T07:38:51.507Z</time></trkpt><trkpt lat="45.4574767" lon="8.8102967"><ele>112.0</ele><time>2026-04-26T07:38:53.507Z</time></trkpt><trkpt lat="45.4573933" lon="8.8103417"><ele>111.99999999999999</ele><time>2026-04-26T07:38:55.507Z</time></trkpt><trkpt lat="45.4573117" lon="8.8103917"><ele>111.99999999999999</ele><time>2026-04-26T07:38:57.506Z</time></trkpt><trkpt lat="45.45721" lon="8.8104183"><ele>112.0</ele><time>2026-04-26T07:38:59.506Z</time></trkpt><trkpt lat="45.4571167" lon="8.810445"><ele>112.0</ele><time>2026-04-26T07:39:01.507Z</time></trkpt><trkpt lat="45.4570283" lon="8.8104467"><ele>112.00000000000001</ele><time>2026-04-26T07:39:03.506Z</time></trkpt><trkpt lat="45.4569417" lon="8.810445"><ele>112.0</ele><time>2026-04-26T07:39:05.507Z</time></trkpt><trkpt lat="45.4568617" lon="8.8104"><ele>112.0</ele><time>2026-04-26T07:39:07.506Z</time></trkpt><trkpt lat="45.4567867" lon="8.81032"><ele>112.0</ele><time>2026-04-26T07:39:09.507Z</time></trkpt><trkpt lat="45.4567233" lon="8.8102283"><ele>112.00000000000001</ele><time>2026-04-26T07:39:11.507Z</time></trkpt><trkpt lat="45.4566567" lon="8.8101417"><ele>112.0</ele><time>2026-04-26T07:39:13.507Z</time></trkpt><trkpt lat="45.4565933" lon="8.8100417"><ele>111.8</ele><time>2026-04-26T07:39:15.506Z</time></trkpt><trkpt lat="45.456535" lon="8.80993"><ele>111.6</ele><time>2026-04-26T07:39:17.506Z</time></trkpt><trkpt lat="45.4564767" lon="8.80983"><ele>111.39999999999999</ele><time>2026-04-26T07:39:19.507Z</time></trkpt><trkpt lat="45.4564183" lon="8.8097267"><ele>111.19999999999999</ele><time>2026-04-26T07:39:21.506Z</time></trkpt><trkpt lat="45.456365" lon="8.809635"><ele>111.0</ele><time>2026-04-26T07:39:23.507Z</time></trkpt><trkpt lat="45.456305" lon="8.809545"><ele>111.0</ele><time>2026-04-26T07:39:25.507Z</time></trkpt><trkpt lat="45.456245" lon="8.80945"><ele>111.0</ele><time>2026-04-26T07:39:27.506Z</time></trkpt><trkpt lat="45.456195" lon="8.8093617"><ele>111.0</ele><time>2026-04-26T07:39:29.507Z</time></trkpt><trkpt lat="45.4561333" lon="8.8092633"><ele>111.0</ele><time>2026-04-26T07:39:31.507Z</time></trkpt><trkpt lat="45.4560667" lon="8.809155"><ele>111.0</ele><time>2026-04-26T07:39:33.507Z</time></trkpt><trkpt lat="45.4560067" lon="8.8090633"><ele>111.0</ele><time>2026-04-26T07:39:35.506Z</time></trkpt><trkpt lat="45.45594" lon="8.8089683"><ele>111.0</ele><time>2026-04-26T07:39:37.507Z</time></trkpt><trkpt lat="45.4558767" lon="8.8088717"><ele>111.0</ele><time>2026-04-26T07:39:39.506Z</time></trkpt><trkpt lat="45.45582" lon="8.8087717"><ele>111.0</ele><time>2026-04-26T07:39:41.507Z</time></trkpt><trkpt lat="45.455765" lon="8.808695"><ele>111.0</ele><time>2026-04-26T07:39:43.506Z</time></trkpt><trkpt lat="45.4557017" lon="8.8086017"><ele>111.0</ele><time>2026-04-26T07:39:45.507Z</time></trkpt><trkpt lat="45.45563" lon="8.80851"><ele>110.8</ele><time>2026-04-26T07:39:47.506Z</time></trkpt><trkpt lat="45.4555517" lon="8.8084233"><ele>110.6</ele><time>2026-04-26T07:39:49.506Z</time></trkpt><trkpt lat="45.455475" lon="8.8083483"><ele>110.4</ele><time>2026-04-26T07:39:51.506Z</time></trkpt><trkpt lat="45.4553917" lon="8.8082817"><ele>110.2</ele><time>2026-04-26T07:39:53.506Z</time></trkpt><trkpt lat="45.4553083" lon="8.8082283"><ele>110.0</ele><time>2026-04-26T07:39:55.506Z</time></trkpt><trkpt lat="45.45522" lon="8.8081933"><ele>109.8</ele><time>2026-04-26T07:39:57.506Z</time></trkpt><trkpt lat="45.4551367" lon="8.8081567"><ele>109.6</ele><time>2026-04-26T07:39:59.506Z</time></trkpt><trkpt lat="45.4550467" lon="8.8081233"><ele>109.4</ele><time>2026-04-26T07:40:01.507Z</time></trkpt><trkpt lat="45.4549617" lon="8.8080867"><ele>109.2</ele><time>2026-04-26T07:40:03.507Z</time></trkpt><trkpt lat="45.454875" lon="8.8080417"><ele>109.0</ele><time>2026-04-26T07:40:05.506Z</time></trkpt><trkpt lat="45.4547817" lon="8.8079983"><ele>109.00000000000001</ele><time>2026-04-26T07:40:07.507Z</time></trkpt><trkpt lat="45.4547033" lon="8.8079533"><ele>109.0</ele><time>2026-04-26T07:40:09.507Z</time></trkpt><trkpt lat="45.4546133" lon="8.8079183"><ele>109.0</ele><time>2026-04-26T07:40:11.506Z</time></trkpt><trkpt lat="45.45453" lon="8.8078917"><ele>109.0</ele><time>2026-04-26T07:40:13.506Z</time></trkpt><trkpt lat="45.454445" lon="8.8078617"><ele>109.00000000000001</ele><time>2026-04-26T07:40:15.506Z</time></trkpt><trkpt lat="45.4543567" lon="8.8078283"><ele>109.0</ele><time>2026-04-26T07:40:17.507Z</time></trkpt><trkpt lat="45.454275" lon="8.8078"><ele>109.6</ele><time>2026-04-26T07:40:19.506Z</time></trkpt><trkpt lat="45.4541917" lon="8.8077617"><ele>110.2</ele><time>2026-04-26T07:40:21.506Z</time></trkpt><trkpt lat="45.4540967" lon="8.8077117"><ele>110.79999999999998</ele><time>2026-04-26T07:40:23.506Z</time></trkpt><trkpt lat="45.454005" lon="8.8076833"><ele>111.39999999999999</ele><time>2026-04-26T07:40:25.506Z</time></trkpt><trkpt lat="45.4539133" lon="8.8076583"><ele>112.0</ele><time>2026-04-26T07:40:27.507Z</time></trkpt><trkpt lat="45.453815" lon="8.8076417"><ele>112.16666666666667</ele><time>2026-04-26T07:40:29.507Z</time></trkpt><trkpt lat="45.453725" lon="8.80762"><ele>112.33333333333334</ele><time>2026-04-26T07:40:31.506Z</time></trkpt><trkpt lat="45.453645" lon="8.8075967"><ele>112.5</ele><time>2026-04-26T07:40:33.507Z</time></trkpt><trkpt lat="45.4535567" lon="8.8075767"><ele>112.66666666666666</ele><time>2026-04-26T07:40:35.507Z</time></trkpt><trkpt lat="45.4534733" lon="8.80756"><ele>112.83333333333333</ele><time>2026-04-26T07:40:37.506Z</time></trkpt><trkpt lat="45.4533833" lon="8.8075467"><ele>113.0</ele><time>2026-04-26T07:40:39.507Z</time></trkpt><trkpt lat="45.45329" lon="8.8075283"><ele>113.0</ele><time>2026-04-26T07:40:41.507Z</time></trkpt><trkpt lat="45.4531883" lon="8.8075"><ele>113.00000000000001</ele><time>2026-04-26T07:40:43.506Z</time></trkpt><trkpt lat="45.4530917" lon="8.8074783"><ele>113.00000000000001</ele><time>2026-04-26T07:40:45.506Z</time></trkpt><trkpt lat="45.4529967" lon="8.8074683"><ele>113.0</ele><time>2026-04-26T07:40:47.507Z</time></trkpt><trkpt lat="45.452895" lon="8.8074533"><ele>113.0</ele><time>2026-04-26T07:40:49.507Z</time></trkpt><trkpt lat="45.4528033" lon="8.8074617"><ele>113.2</ele><time>2026-04-26T07:40:51.507Z</time></trkpt><trkpt lat="45.45271" lon="8.8075"><ele>113.4</ele><time>2026-04-26T07:40:53.507Z</time></trkpt><trkpt lat="45.4526183" lon="8.80753"><ele>113.60000000000001</ele><time>2026-04-26T07:40:55.506Z</time></trkpt><trkpt lat="45.452525" lon="8.80757"><ele>113.80000000000001</ele><time>2026-04-26T07:40:57.507Z</time></trkpt><trkpt lat="45.4524433" lon="8.8076167"><ele>114.0</ele><time>2026-04-26T07:40:59.507Z</time></trkpt><trkpt lat="45.4523467" lon="8.80767"><ele>114.0</ele><time>2026-04-26T07:41:01.507Z</time></trkpt><trkpt lat="45.4522467" lon="8.8077083"><ele>114.0</ele><time>2026-04-26T07:41:03.506Z</time></trkpt><trkpt lat="45.4521517" lon="8.8077517"><ele>114.0</ele><time>2026-04-26T07:41:05.506Z</time></trkpt><trkpt lat="45.4520417" lon="8.8077917"><ele>114.0</ele><time>2026-04-26T07:41:07.506Z</time></trkpt><trkpt lat="45.45195" lon="8.8078467"><ele>114.0</ele><time>2026-04-26T07:41:09.506Z</time></trkpt><trkpt lat="45.451855" lon="8.8078717"><ele>113.85714285714285</ele><time>2026-04-26T07:41:11.506Z</time></trkpt><trkpt lat="45.4517767" lon="8.8078933"><ele>113.7142857142857</ele><time>2026-04-26T07:41:13.507Z</time></trkpt><trkpt lat="45.4516933" lon="8.8079167"><ele>113.57142857142857</ele><time>2026-04-26T07:41:15.507Z</time></trkpt><trkpt lat="45.4516233" lon="8.807935"><ele>113.42857142857142</ele><time>2026-04-26T07:41:17.507Z</time></trkpt><trkpt lat="45.45156" lon="8.8079533"><ele>113.28571428571428</ele><time>2026-04-26T07:41:19.506Z</time></trkpt><trkpt lat="45.4514883" lon="8.80796"><ele>113.14285714285714</ele><time>2026-04-26T07:41:22.506Z</time></trkpt><trkpt lat="45.4514517" lon="8.8078833"><ele>113.0</ele><time>2026-04-26T07:41:24.506Z</time></trkpt><trkpt lat="45.4514183" lon="8.80777"><ele>113.16666666666666</ele><time>2026-04-26T07:41:26.507Z</time></trkpt><trkpt lat="45.451385" lon="8.807635"><ele>113.33333333333333</ele><time>2026-04-26T07:41:28.506Z</time></trkpt><trkpt lat="45.4513433" lon="8.807515"><ele>113.5</ele><time>2026-04-26T07:41:30.507Z</time></trkpt><trkpt lat="45.4513" lon="8.80741"><ele>113.66666666666666</ele><time>2026-04-26T07:41:32.507Z</time></trkpt><trkpt lat="45.45125" lon="8.807335"><ele>113.83333333333333</ele><time>2026-04-26T07:41:34.506Z</time></trkpt><trkpt lat="45.4512017" lon="8.8072467"><ele>114.0</ele><time>2026-04-26T07:41:36.507Z</time></trkpt><trkpt lat="45.4511583" lon="8.8071617"><ele>114.14285714285714</ele><time>2026-04-26T07:41:38.507Z</time></trkpt><trkpt lat="45.4511367" lon="8.8070583"><ele>114.28571428571428</ele><time>2026-04-26T07:41:40.506Z</time></trkpt><trkpt lat="45.4511133" lon="8.80697"><ele>114.42857142857142</ele><time>2026-04-26T07:41:42.506Z</time></trkpt><trkpt lat="45.451085" lon="8.80687"><ele>114.57142857142856</ele><time>2026-04-26T07:41:44.506Z</time></trkpt><trkpt lat="45.4510333" lon="8.8068083"><ele>114.71428571428571</ele><time>2026-04-26T07:41:46.507Z</time></trkpt><trkpt lat="45.4509567" lon="8.8068333"><ele>114.85714285714283</ele><time>2026-04-26T07:41:49.507Z</time></trkpt><trkpt lat="45.45088" lon="8.8068517"><ele>114.99999999999999</ele><time>2026-04-26T07:41:52.506Z</time></trkpt><trkpt lat="45.450805" lon="8.8068767"><ele>115.00000000000001</ele><time>2026-04-26T07:41:54.506Z</time></trkpt><trkpt lat="45.4507117" lon="8.8069283"><ele>115.0</ele><time>2026-04-26T07:41:56.507Z</time></trkpt><trkpt lat="45.4506367" lon="8.80697"><ele>115.0</ele><time>2026-04-26T07:41:58.506Z</time></trkpt><trkpt lat="45.4505533" lon="8.8070133"><ele>115.0</ele><time>2026-04-26T07:42:00.507Z</time></trkpt><trkpt lat="45.450475" lon="8.8070317"><ele>115.00000000000001</ele><time>2026-04-26T07:42:02.506Z</time></trkpt><trkpt lat="45.4504067" lon="8.8070717"><ele>115.0</ele><time>2026-04-26T07:42:04.506Z</time></trkpt><trkpt lat="45.45034" lon="8.8071083"><ele>114.7142857142857</ele><time>2026-04-26T07:42:06.507Z</time></trkpt><trkpt lat="45.4502767" lon="8.8071467"><ele>114.42857142857142</ele><time>2026-04-26T07:42:08.506Z</time></trkpt><trkpt lat="45.4502" lon="8.8071733"><ele>114.14285714285714</ele><time>2026-04-26T07:42:10.507Z</time></trkpt><trkpt lat="45.4501217" lon="8.8072033"><ele>113.85714285714285</ele><time>2026-04-26T07:42:12.506Z</time></trkpt><trkpt lat="45.4500483" lon="8.807245"><ele>113.57142857142856</ele><time>2026-04-26T07:42:14.506Z</time></trkpt><trkpt lat="45.4499883" lon="8.8072883"><ele>113.28571428571429</ele><time>2026-04-26T07:42:16.506Z</time></trkpt><trkpt lat="45.4499233" lon="8.807335"><ele>113.0</ele><time>2026-04-26T07:42:18.507Z</time></trkpt><trkpt lat="45.4498533" lon="8.80737"><ele>112.99999999999999</ele><time>2026-04-26T07:42:20.507Z</time></trkpt><trkpt lat="45.4497767" lon="8.8074017"><ele>113.0</ele><time>2026-04-26T07:42:22.506Z</time></trkpt><trkpt lat="45.4497" lon="8.8074383"><ele>113.0</ele><time>2026-04-26T07:42:24.506Z</time></trkpt><trkpt lat="45.4496633" lon="8.807565"><ele>113.0</ele><time>2026-04-26T07:42:27.507Z</time></trkpt><trkpt lat="45.44965" lon="8.8076767"><ele>112.99999999999999</ele><time>2026-04-26T07:42:30.507Z</time></trkpt><trkpt lat="45.4495967" lon="8.8077383"><ele>113.0</ele><time>2026-04-26T07:42:33.506Z</time></trkpt><trkpt lat="45.4495517" lon="8.807815"><ele>112.71428571428572</ele><time>2026-04-26T07:42:36.506Z</time></trkpt><trkpt lat="45.4495083" lon="8.8078817"><ele>112.42857142857142</ele><time>2026-04-26T07:42:38.507Z</time></trkpt><trkpt lat="45.4494567" lon="8.8079467"><ele>112.14285714285714</ele><time>2026-04-26T07:42:40.506Z</time></trkpt><trkpt lat="45.449405" lon="8.8080333"><ele>111.85714285714286</ele><time>2026-04-26T07:42:42.506Z</time></trkpt><trkpt lat="45.4493633" lon="8.80812"><ele>111.57142857142858</ele><time>2026-04-26T07:42:44.507Z</time></trkpt><trkpt lat="45.4493167" lon="8.8081933"><ele>111.28571428571428</ele><time>2026-04-26T07:42:46.506Z</time></trkpt><trkpt lat="45.449255" lon="8.80823"><ele>111.0</ele><time>2026-04-26T07:42:48.506Z</time></trkpt><trkpt lat="45.4492017" lon="8.808295"><ele>111.0</ele><time>2026-04-26T07:42:50.506Z</time></trkpt><trkpt lat="45.449145" lon="8.8083633"><ele>111.0</ele><time>2026-04-26T07:42:52.506Z</time></trkpt><trkpt lat="45.4490883" lon="8.808435"><ele>111.0</ele><time>2026-04-26T07:42:54.507Z</time></trkpt><trkpt lat="45.4490383" lon="8.80852"><ele>111.0</ele><time>2026-04-26T07:42:56.506Z</time></trkpt><trkpt lat="45.4489933" lon="8.8086067"><ele>111.0</ele><time>2026-04-26T07:42:58.506Z</time></trkpt><trkpt lat="45.4489367" lon="8.80867"><ele>111.0</ele><time>2026-04-26T07:43:00.506Z</time></trkpt><trkpt lat="45.4488683" lon="8.8087083"><ele>111.0</ele><time>2026-04-26T07:43:02.507Z</time></trkpt><trkpt lat="45.4487983" lon="8.8087633"><ele>111.0</ele><time>2026-04-26T07:43:04.506Z</time></trkpt><trkpt lat="45.4487717" lon="8.808895"><ele>111.0</ele><time>2026-04-26T07:43:07.506Z</time></trkpt><trkpt lat="45.4488033" lon="8.8090067"><ele>111.0</ele><time>2026-04-26T07:43:10.506Z</time></trkpt><trkpt lat="45.4488533" lon="8.8090983"><ele>111.0</ele><time>2026-04-26T07:43:13.506Z</time></trkpt><trkpt lat="45.448845" lon="8.8091883"><ele>111.0</ele><time>2026-04-26T07:43:16.506Z</time></trkpt><trkpt lat="45.4487667" lon="8.8092117"><ele>111.0</ele><time>2026-04-26T07:43:20.506Z</time></trkpt><trkpt lat="45.448695" lon="8.80927"><ele>111.57142857142857</ele><time>2026-04-26T07:43:23.506Z</time></trkpt><trkpt lat="45.4486633" lon="8.80936"><ele>112.14285714285714</ele><time>2026-04-26T07:43:26.507Z</time></trkpt><trkpt lat="45.4486117" lon="8.8094167"><ele>112.71428571428571</ele><time>2026-04-26T07:43:30.506Z</time></trkpt><trkpt lat="45.4485333" lon="8.8094617"><ele>113.28571428571428</ele><time>2026-04-26T07:43:33.506Z</time></trkpt><trkpt lat="45.4484583" lon="8.809485"><ele>113.85714285714286</ele><time>2026-04-26T07:43:36.507Z</time></trkpt><trkpt lat="45.448405" lon="8.80956"><ele>114.42857142857142</ele><time>2026-04-26T07:43:40.506Z</time></trkpt><trkpt lat="45.4483517" lon="8.8096217"><ele>114.99999999999999</ele><time>2026-04-26T07:43:42.506Z</time></trkpt><trkpt lat="45.4483033" lon="8.8096833"><ele>114.99999999999999</ele><time>2026-04-26T07:43:44.505Z</time></trkpt><trkpt lat="45.4482267" lon="8.809705"><ele>115.0</ele><time>2026-04-26T07:43:48.506Z</time></trkpt><trkpt lat="45.4481633" lon="8.8097267"><ele>114.99999999999999</ele><time>2026-04-26T07:43:52.505Z</time></trkpt><trkpt lat="45.4481183" lon="8.8097917"><ele>114.99999999999999</ele><time>2026-04-26T07:43:55.506Z</time></trkpt><trkpt lat="45.4480967" lon="8.8098983"><ele>115.0</ele><time>2026-04-26T07:43:58.506Z</time></trkpt><trkpt lat="45.4481483" lon="8.80996"><ele>114.99999999999999</ele><time>2026-04-26T07:44:01.505Z</time></trkpt><trkpt lat="45.4481433" lon="8.8100533"><ele>114.99999999999999</ele><time>2026-04-26T07:44:05.505Z</time></trkpt><trkpt lat="45.4480517" lon="8.8100667"><ele>115.00000000000001</ele><time>2026-04-26T07:44:08.506Z</time></trkpt><trkpt lat="45.4479917" lon="8.8101033"><ele>115.0</ele><time>2026-04-26T07:44:10.505Z</time></trkpt><trkpt lat="45.4479383" lon="8.8101917"><ele>115.0</ele><time>2026-04-26T07:44:13.505Z</time></trkpt><trkpt lat="45.4478783" lon="8.810235"><ele>115.0</ele><time>2026-04-26T07:44:16.506Z</time></trkpt><trkpt lat="45.4478117" lon="8.810305"><ele>115.00000000000001</ele><time>2026-04-26T07:44:20.506Z</time></trkpt><trkpt lat="45.447725" lon="8.8103583"><ele>115.0</ele><time>2026-04-26T07:44:23.505Z</time></trkpt><trkpt lat="45.4476583" lon="8.8103717"><ele>114.33333333333334</ele><time>2026-04-26T07:44:25.505Z</time></trkpt><trkpt lat="45.447585" lon="8.8104233"><ele>113.66666666666667</ele><time>2026-04-26T07:44:28.506Z</time></trkpt><trkpt lat="45.4475167" lon="8.8104683"><ele>113.0</ele><time>2026-04-26T07:44:31.505Z</time></trkpt><trkpt lat="45.4474617" lon="8.8105433"><ele>112.33333333333334</ele><time>2026-04-26T07:44:35.505Z</time></trkpt><trkpt lat="45.4474283" lon="8.8106317"><ele>111.66666666666667</ele><time>2026-04-26T07:44:38.505Z</time></trkpt><trkpt lat="45.4473783" lon="8.8107333"><ele>111.0</ele><time>2026-04-26T07:44:41.505Z</time></trkpt><trkpt lat="45.4473333" lon="8.8108367"><ele>111.0</ele><time>2026-04-26T07:44:44.505Z</time></trkpt><trkpt lat="45.447265" lon="8.81086"><ele>111.0</ele><time>2026-04-26T07:44:47.506Z</time></trkpt><trkpt lat="45.447195" lon="8.81083"><ele>111.0</ele><time>2026-04-26T07:44:49.505Z</time></trkpt><trkpt lat="45.4471017" lon="8.8107983"><ele>111.0</ele><time>2026-04-26T07:44:51.506Z</time></trkpt><trkpt lat="45.44702" lon="8.8108317"><ele>111.0</ele><time>2026-04-26T07:44:53.506Z</time></trkpt><trkpt lat="45.446955" lon="8.8108817"><ele>111.0</ele><time>2026-04-26T07:44:55.505Z</time></trkpt><trkpt lat="45.4468867" lon="8.8109317"><ele>110.66666666666667</ele><time>2026-04-26T07:44:57.506Z</time></trkpt><trkpt lat="45.44683" lon="8.8110067"><ele>110.33333333333334</ele><time>2026-04-26T07:44:59.505Z</time></trkpt><trkpt lat="45.4467733" lon="8.8110917"><ele>110.0</ele><time>2026-04-26T07:45:01.506Z</time></trkpt><trkpt lat="45.4467133" lon="8.811175"><ele>109.66666666666667</ele><time>2026-04-26T07:45:03.505Z</time></trkpt><trkpt lat="45.4466517" lon="8.811255"><ele>109.33333333333334</ele><time>2026-04-26T07:45:05.505Z</time></trkpt><trkpt lat="45.44658" lon="8.8113233"><ele>109.0</ele><time>2026-04-26T07:45:07.505Z</time></trkpt><trkpt lat="45.44652" lon="8.8113933"><ele>109.00000000000001</ele><time>2026-04-26T07:45:09.505Z</time></trkpt><trkpt lat="45.4464317" lon="8.8114417"><ele>109.0</ele><time>2026-04-26T07:45:12.505Z</time></trkpt><trkpt lat="45.4463883" lon="8.8115067"><ele>109.0</ele><time>2026-04-26T07:45:14.505Z</time></trkpt><trkpt lat="45.4463817" lon="8.8116183"><ele>109.0</ele><time>2026-04-26T07:45:16.506Z</time></trkpt><trkpt lat="45.44636" lon="8.81172"><ele>109.00000000000001</ele><time>2026-04-26T07:45:18.505Z</time></trkpt><trkpt lat="45.446315" lon="8.8118417"><ele>109.0</ele><time>2026-04-26T07:45:20.506Z</time></trkpt><trkpt lat="45.446275" lon="8.8119683"><ele>109.33333333333334</ele><time>2026-04-26T07:45:22.505Z</time></trkpt><trkpt lat="45.44622" lon="8.8120967"><ele>109.66666666666667</ele><time>2026-04-26T07:45:24.505Z</time></trkpt><trkpt lat="45.4461633" lon="8.8121867"><ele>110.0</ele><time>2026-04-26T07:45:26.505Z</time></trkpt><trkpt lat="45.4461033" lon="8.8122467"><ele>110.33333333333334</ele><time>2026-04-26T07:45:28.506Z</time></trkpt><trkpt lat="45.4460367" lon="8.8123217"><ele>110.66666666666667</ele><time>2026-04-26T07:45:30.505Z</time></trkpt><trkpt lat="45.4459767" lon="8.8124067"><ele>111.0</ele><time>2026-04-26T07:45:32.506Z</time></trkpt><trkpt lat="45.4459267" lon="8.8125067"><ele>111.0</ele><time>2026-04-26T07:45:34.505Z</time></trkpt><trkpt lat="45.44588" lon="8.8126417"><ele>111.0</ele><time>2026-04-26T07:45:36.506Z</time></trkpt><trkpt lat="45.4458417" lon="8.8127717"><ele>111.0</ele><time>2026-04-26T07:45:38.505Z</time></trkpt><trkpt lat="45.4457783" lon="8.8128917"><ele>111.0</ele><time>2026-04-26T07:45:40.506Z</time></trkpt><trkpt lat="45.44575" lon="8.813015"><ele>111.0</ele><time>2026-04-26T07:45:42.506Z</time></trkpt><trkpt lat="45.4457467" lon="8.8131267"><ele>111.6</ele><time>2026-04-26T07:45:44.506Z</time></trkpt><trkpt lat="45.4457433" lon="8.8132383"><ele>112.19999999999999</ele><time>2026-04-26T07:45:46.505Z</time></trkpt><trkpt lat="45.445685" lon="8.813355"><ele>112.80000000000001</ele><time>2026-04-26T07:45:48.506Z</time></trkpt><trkpt lat="45.4456083" lon="8.8134483"><ele>113.4</ele><time>2026-04-26T07:45:50.505Z</time></trkpt><trkpt lat="45.4455317" lon="8.8135633"><ele>114.0</ele><time>2026-04-26T07:45:52.506Z</time></trkpt><trkpt lat="45.445485" lon="8.813695"><ele>113.80000000000001</ele><time>2026-04-26T07:45:54.505Z</time></trkpt><trkpt lat="45.4454533" lon="8.8138267"><ele>113.60000000000001</ele><time>2026-04-26T07:45:56.505Z</time></trkpt><trkpt lat="45.44539" lon="8.8139267"><ele>113.4</ele><time>2026-04-26T07:45:58.505Z</time></trkpt><trkpt lat="45.44531" lon="8.814015"><ele>113.2</ele><time>2026-04-26T07:46:00.505Z</time></trkpt><trkpt lat="45.4452233" lon="8.8140867"><ele>113.0</ele><time>2026-04-26T07:46:02.506Z</time></trkpt><trkpt lat="45.44512" lon="8.8141317"><ele>113.0</ele><time>2026-04-26T07:46:04.506Z</time></trkpt><trkpt lat="45.4450183" lon="8.8141633"><ele>113.00000000000001</ele><time>2026-04-26T07:46:06.505Z</time></trkpt><trkpt lat="45.444925" lon="8.8142117"><ele>113.00000000000001</ele><time>2026-04-26T07:46:08.505Z</time></trkpt><trkpt lat="45.4448333" lon="8.8142733"><ele>113.0</ele><time>2026-04-26T07:46:10.505Z</time></trkpt><trkpt lat="45.44475" lon="8.8143617"><ele>113.0</ele><time>2026-04-26T07:46:12.506Z</time></trkpt><trkpt lat="45.44468" lon="8.8144767"><ele>113.4</ele><time>2026-04-26T07:46:14.506Z</time></trkpt><trkpt lat="45.4446217" lon="8.8145983"><ele>113.80000000000001</ele><time>2026-04-26T07:46:16.506Z</time></trkpt><trkpt lat="45.4445483" lon="8.8146983"><ele>114.2</ele><time>2026-04-26T07:46:18.505Z</time></trkpt><trkpt lat="45.4444617" lon="8.8147817"><ele>114.6</ele><time>2026-04-26T07:46:20.505Z</time></trkpt><trkpt lat="45.4443767" lon="8.8148467"><ele>115.0</ele><time>2026-04-26T07:46:22.506Z</time></trkpt><trkpt lat="45.444285" lon="8.81491"><ele>115.0</ele><time>2026-04-26T07:46:24.505Z</time></trkpt><trkpt lat="45.4441733" lon="8.8149683"><ele>115.0</ele><time>2026-04-26T07:46:26.506Z</time></trkpt><trkpt lat="45.4440683" lon="8.8149517"><ele>115.0</ele><time>2026-04-26T07:46:28.505Z</time></trkpt><trkpt lat="45.44396" lon="8.81489"><ele>115.0</ele><time>2026-04-26T07:46:30.505Z</time></trkpt><trkpt lat="45.44385" lon="8.8148317"><ele>114.83333333333334</ele><time>2026-04-26T07:46:32.505Z</time></trkpt><trkpt lat="45.443785" lon="8.8147917"><ele>114.66666666666667</ele><time>2026-04-26T07:46:33.505Z</time></trkpt><trkpt lat="45.4437217" lon="8.814765"><ele>114.5</ele><time>2026-04-26T07:46:34.505Z</time></trkpt><trkpt lat="45.44364" lon="8.8147817"><ele>114.33333333333334</ele><time>2026-04-26T07:46:36.506Z</time></trkpt><trkpt lat="45.4435917" lon="8.8148633"><ele>114.16666666666667</ele><time>2026-04-26T07:46:38.505Z</time></trkpt><trkpt lat="45.4435283" lon="8.8149483"><ele>114.0</ele><time>2026-04-26T07:46:40.505Z</time></trkpt><trkpt lat="45.4434433" lon="8.8150133"><ele>114.0</ele><time>2026-04-26T07:46:42.506Z</time></trkpt><trkpt lat="45.4433583" lon="8.8151117"><ele>114.0</ele><time>2026-04-26T07:46:44.506Z</time></trkpt><trkpt lat="45.4433083" lon="8.8152217"><ele>114.0</ele><time>2026-04-26T07:46:46.505Z</time></trkpt><trkpt lat="45.44327" lon="8.81535"><ele>114.0</ele><time>2026-04-26T07:46:48.505Z</time></trkpt><trkpt lat="45.44322" lon="8.815455"><ele>114.0</ele><time>2026-04-26T07:46:50.506Z</time></trkpt><trkpt lat="45.4431483" lon="8.81555"><ele>113.80000000000001</ele><time>2026-04-26T07:46:52.506Z</time></trkpt><trkpt lat="45.4430683" lon="8.815645"><ele>113.60000000000001</ele><time>2026-04-26T07:46:54.506Z</time></trkpt><trkpt lat="45.4429883" lon="8.8157467"><ele>113.4</ele><time>2026-04-26T07:46:56.506Z</time></trkpt><trkpt lat="45.442905" lon="8.8157917"><ele>113.2</ele><time>2026-04-26T07:46:58.505Z</time></trkpt><trkpt lat="45.4428167" lon="8.8158517"><ele>113.0</ele><time>2026-04-26T07:47:00.505Z</time></trkpt><trkpt lat="45.442725" lon="8.8159017"><ele>113.0</ele><time>2026-04-26T07:47:02.506Z</time></trkpt><trkpt lat="45.4426467" lon="8.8159717"><ele>113.00000000000001</ele><time>2026-04-26T07:47:04.505Z</time></trkpt><trkpt lat="45.442555" lon="8.81606"><ele>113.00000000000001</ele><time>2026-04-26T07:47:06.505Z</time></trkpt><trkpt lat="45.4424683" lon="8.81614"><ele>113.0</ele><time>2026-04-26T07:47:08.506Z</time></trkpt><trkpt lat="45.4423817" lon="8.81624"><ele>113.0</ele><time>2026-04-26T07:47:10.506Z</time></trkpt><trkpt lat="45.4422883" lon="8.816325"><ele>112.80000000000001</ele><time>2026-04-26T07:47:12.505Z</time></trkpt><trkpt lat="45.442185" lon="8.816365"><ele>112.60000000000001</ele><time>2026-04-26T07:47:14.505Z</time></trkpt><trkpt lat="45.442105" lon="8.8164167"><ele>112.39999999999999</ele><time>2026-04-26T07:47:16.506Z</time></trkpt><trkpt lat="45.44204" lon="8.8165383"><ele>112.19999999999999</ele><time>2026-04-26T07:47:18.505Z</time></trkpt><trkpt lat="45.4419667" lon="8.8166483"><ele>112.0</ele><time>2026-04-26T07:47:20.506Z</time></trkpt><trkpt lat="45.4418783" lon="8.8167417"><ele>112.39999999999999</ele><time>2026-04-26T07:47:22.505Z</time></trkpt><trkpt lat="45.441805" lon="8.8168333"><ele>112.79999999999998</ele><time>2026-04-26T07:47:24.506Z</time></trkpt><trkpt lat="45.441725" lon="8.81692"><ele>113.2</ele><time>2026-04-26T07:47:26.505Z</time></trkpt><trkpt lat="45.4416517" lon="8.8169917"><ele>113.6</ele><time>2026-04-26T07:47:28.505Z</time></trkpt><trkpt lat="45.4415817" lon="8.8170833"><ele>114.0</ele><time>2026-04-26T07:47:30.505Z</time></trkpt><trkpt lat="45.44151" lon="8.817175"><ele>114.0</ele><time>2026-04-26T07:47:32.505Z</time></trkpt><trkpt lat="45.4414333" lon="8.8172483"><ele>114.0</ele><time>2026-04-26T07:47:34.505Z</time></trkpt><trkpt lat="45.4413433" lon="8.8173033"><ele>114.0</ele><time>2026-04-26T07:47:36.506Z</time></trkpt><trkpt lat="45.4412517" lon="8.817365"><ele>114.0</ele><time>2026-04-26T07:47:38.506Z</time></trkpt><trkpt lat="45.4411567" lon="8.81741"><ele>114.0</ele><time>2026-04-26T07:47:40.505Z</time></trkpt><trkpt lat="45.4410617" lon="8.81748"><ele>114.0</ele><time>2026-04-26T07:47:42.506Z</time></trkpt><trkpt lat="45.4409867" lon="8.8175767"><ele>114.0</ele><time>2026-04-26T07:47:44.506Z</time></trkpt><trkpt lat="45.4409183" lon="8.817665"><ele>114.0</ele><time>2026-04-26T07:47:46.506Z</time></trkpt><trkpt lat="45.4408383" lon="8.8177383"><ele>114.0</ele><time>2026-04-26T07:47:48.505Z</time></trkpt><trkpt lat="45.4407433" lon="8.8177917"><ele>114.0</ele><time>2026-04-26T07:47:50.505Z</time></trkpt><trkpt lat="45.4406667" lon="8.81784"><ele>113.83333333333333</ele><time>2026-04-26T07:47:52.505Z</time></trkpt><trkpt lat="45.44058" lon="8.8178867"><ele>113.66666666666666</ele><time>2026-04-26T07:47:54.506Z</time></trkpt><trkpt lat="45.4404967" lon="8.817905"><ele>113.5</ele><time>2026-04-26T07:47:56.505Z</time></trkpt><trkpt lat="45.4404133" lon="8.8179417"><ele>113.33333333333333</ele><time>2026-04-26T07:47:58.505Z</time></trkpt><trkpt lat="45.4403133" lon="8.81799"><ele>113.16666666666666</ele><time>2026-04-26T07:48:00.505Z</time></trkpt><trkpt lat="45.4402383" lon="8.8180183"><ele>113.0</ele><time>2026-04-26T07:48:02.506Z</time></trkpt><trkpt lat="45.4401667" lon="8.818105"><ele>113.0</ele><time>2026-04-26T07:48:04.505Z</time></trkpt><trkpt lat="45.4400917" lon="8.81819"><ele>113.00000000000001</ele><time>2026-04-26T07:48:06.505Z</time></trkpt><trkpt lat="45.4399983" lon="8.8182633"><ele>113.00000000000001</ele><time>2026-04-26T07:48:08.506Z</time></trkpt><trkpt lat="45.439915" lon="8.8183667"><ele>113.0</ele><time>2026-04-26T07:48:10.505Z</time></trkpt><trkpt lat="45.4398533" lon="8.8184933"><ele>113.0</ele><time>2026-04-26T07:48:12.506Z</time></trkpt><trkpt lat="45.4398117" lon="8.81861"><ele>113.0</ele><time>2026-04-26T07:48:14.505Z</time></trkpt><trkpt lat="45.4397583" lon="8.81873"><ele>113.00000000000001</ele><time>2026-04-26T07:48:16.505Z</time></trkpt><trkpt lat="45.439695" lon="8.81882"><ele>113.00000000000001</ele><time>2026-04-26T07:48:18.505Z</time></trkpt><trkpt lat="45.4396133" lon="8.8189"><ele>113.0</ele><time>2026-04-26T07:48:20.506Z</time></trkpt><trkpt lat="45.439535" lon="8.8190217"><ele>113.0</ele><time>2026-04-26T07:48:22.506Z</time></trkpt><trkpt lat="45.439465" lon="8.819125"><ele>113.0</ele><time>2026-04-26T07:48:24.506Z</time></trkpt><trkpt lat="45.4393967" lon="8.8192117"><ele>113.00000000000001</ele><time>2026-04-26T07:48:26.506Z</time></trkpt><trkpt lat="45.439325" lon="8.8192933"><ele>113.00000000000001</ele><time>2026-04-26T07:48:28.506Z</time></trkpt><trkpt lat="45.4392367" lon="8.81939"><ele>113.0</ele><time>2026-04-26T07:48:30.506Z</time></trkpt><trkpt lat="45.4391583" lon="8.8194883"><ele>113.0</ele><time>2026-04-26T07:48:32.506Z</time></trkpt><trkpt lat="45.4391" lon="8.8195717"><ele>113.2</ele><time>2026-04-26T07:48:34.506Z</time></trkpt><trkpt lat="45.439015" lon="8.8196183"><ele>113.4</ele><time>2026-04-26T07:48:36.506Z</time></trkpt><trkpt lat="45.43891" lon="8.8196417"><ele>113.60000000000001</ele><time>2026-04-26T07:48:38.505Z</time></trkpt><trkpt lat="45.4388067" lon="8.8196183"><ele>113.80000000000001</ele><time>2026-04-26T07:48:40.506Z</time></trkpt><trkpt lat="45.4386983" lon="8.8195967"><ele>114.0</ele><time>2026-04-26T07:48:42.505Z</time></trkpt><trkpt lat="45.4386083" lon="8.8196167"><ele>114.0</ele><time>2026-04-26T07:48:44.506Z</time></trkpt><trkpt lat="45.4385133" lon="8.81967"><ele>114.0</ele><time>2026-04-26T07:48:46.506Z</time></trkpt><trkpt lat="45.43843" lon="8.8197567"><ele>114.0</ele><time>2026-04-26T07:48:48.505Z</time></trkpt><trkpt lat="45.438335" lon="8.8198333"><ele>114.0</ele><time>2026-04-26T07:48:50.506Z</time></trkpt><trkpt lat="45.4382267" lon="8.8198817"><ele>114.0</ele><time>2026-04-26T07:48:52.505Z</time></trkpt><trkpt lat="45.43811" lon="8.8199233"><ele>114.0</ele><time>2026-04-26T07:48:54.506Z</time></trkpt><trkpt lat="45.437995" lon="8.8199467"><ele>114.0</ele><time>2026-04-26T07:48:56.506Z</time></trkpt><trkpt lat="45.4378883" lon="8.8199467"><ele>114.0</ele><time>2026-04-26T07:48:58.505Z</time></trkpt><trkpt lat="45.4377833" lon="8.819935"><ele>114.0</ele><time>2026-04-26T07:49:00.506Z</time></trkpt><trkpt lat="45.4376867" lon="8.81995"><ele>114.0</ele><time>2026-04-26T07:49:02.506Z</time></trkpt><trkpt lat="45.437605" lon="8.81996"><ele>114.0</ele><time>2026-04-26T07:49:04.505Z</time></trkpt><trkpt lat="45.4375217" lon="8.8199833"><ele>114.0</ele><time>2026-04-26T07:49:06.506Z</time></trkpt><trkpt lat="45.4374333" lon="8.8200267"><ele>114.0</ele><time>2026-04-26T07:49:08.506Z</time></trkpt><trkpt lat="45.4373433" lon="8.8201117"><ele>114.0</ele><time>2026-04-26T07:49:10.506Z</time></trkpt><trkpt lat="45.4372583" lon="8.82021"><ele>114.0</ele><time>2026-04-26T07:49:12.505Z</time></trkpt><trkpt lat="45.437185" lon="8.8202983"><ele>114.0</ele><time>2026-04-26T07:49:14.505Z</time></trkpt><trkpt lat="45.437115" lon="8.8204017"><ele>114.0</ele><time>2026-04-26T07:49:16.505Z</time></trkpt><trkpt lat="45.437065" lon="8.8205483"><ele>114.0</ele><time>2026-04-26T07:49:18.505Z</time></trkpt><trkpt lat="45.43701" lon="8.8206767"><ele>114.0</ele><time>2026-04-26T07:49:20.505Z</time></trkpt><trkpt lat="45.436935" lon="8.8207883"><ele>114.0</ele><time>2026-04-26T07:49:22.506Z</time></trkpt><trkpt lat="45.4368517" lon="8.8208833"><ele>114.0</ele><time>2026-04-26T07:49:24.506Z</time></trkpt><trkpt lat="45.4367667" lon="8.8209617"><ele>114.0</ele><time>2026-04-26T07:49:26.505Z</time></trkpt><trkpt lat="45.4366733" lon="8.8210317"><ele>114.0</ele><time>2026-04-26T07:49:28.505Z</time></trkpt><trkpt lat="45.4365667" lon="8.8210817"><ele>114.0</ele><time>2026-04-26T07:49:30.505Z</time></trkpt><trkpt lat="45.4365017" lon="8.8211583"><ele>114.0</ele><time>2026-04-26T07:49:32.505Z</time></trkpt><trkpt lat="45.4364383" lon="8.8212483"><ele>114.16666666666667</ele><time>2026-04-26T07:49:34.506Z</time></trkpt><trkpt lat="45.436405" lon="8.8213617"><ele>114.33333333333334</ele><time>2026-04-26T07:49:36.505Z</time></trkpt><trkpt lat="45.4363767" lon="8.8214833"><ele>114.5</ele><time>2026-04-26T07:49:38.505Z</time></trkpt><trkpt lat="45.4363533" lon="8.82161"><ele>114.66666666666667</ele><time>2026-04-26T07:49:40.506Z</time></trkpt><trkpt lat="45.4363383" lon="8.821735"><ele>114.83333333333334</ele><time>2026-04-26T07:49:42.505Z</time></trkpt><trkpt lat="45.4363033" lon="8.8218367"><ele>115.0</ele><time>2026-04-26T07:49:44.505Z</time></trkpt><trkpt lat="45.4362367" lon="8.8219333"><ele>114.6</ele><time>2026-04-26T07:49:46.505Z</time></trkpt><trkpt lat="45.4361517" lon="8.8220267"><ele>114.2</ele><time>2026-04-26T07:49:48.505Z</time></trkpt><trkpt lat="45.4360633" lon="8.8221117"><ele>113.80000000000001</ele><time>2026-04-26T07:49:50.505Z</time></trkpt><trkpt lat="45.4359783" lon="8.8221967"><ele>113.4</ele><time>2026-04-26T07:49:52.506Z</time></trkpt><trkpt lat="45.4359017" lon="8.8222883"><ele>113.0</ele><time>2026-04-26T07:49:54.505Z</time></trkpt><trkpt lat="45.4358117" lon="8.822345"><ele>113.0</ele><time>2026-04-26T07:49:56.505Z</time></trkpt><trkpt lat="45.4357333" lon="8.8223983"><ele>113.00000000000001</ele><time>2026-04-26T07:49:58.506Z</time></trkpt><trkpt lat="45.4356667" lon="8.8225033"><ele>113.00000000000001</ele><time>2026-04-26T07:50:00.506Z</time></trkpt><trkpt lat="45.435575" lon="8.822585"><ele>113.0</ele><time>2026-04-26T07:50:02.505Z</time></trkpt><trkpt lat="45.4354867" lon="8.8226633"><ele>113.0</ele><time>2026-04-26T07:50:04.506Z</time></trkpt><trkpt lat="45.4354317" lon="8.82273"><ele>112.99999999999999</ele><time>2026-04-26T07:50:06.506Z</time></trkpt><trkpt lat="45.435385" lon="8.822805"><ele>113.0</ele><time>2026-04-26T07:50:08.506Z</time></trkpt><trkpt lat="45.4353283" lon="8.8229167"><ele>113.0</ele><time>2026-04-26T07:50:10.506Z</time></trkpt><trkpt lat="45.4352583" lon="8.8230017"><ele>113.0</ele><time>2026-04-26T07:50:12.506Z</time></trkpt><trkpt lat="45.4351833" lon="8.82308"><ele>112.99999999999999</ele><time>2026-04-26T07:50:14.506Z</time></trkpt><trkpt lat="45.4351017" lon="8.8231433"><ele>113.0</ele><time>2026-04-26T07:50:16.506Z</time></trkpt><trkpt lat="45.4350117" lon="8.823215"><ele>112.99999999999999</ele><time>2026-04-26T07:50:18.506Z</time></trkpt><trkpt lat="45.434935" lon="8.823255"><ele>113.0</ele><time>2026-04-26T07:50:20.506Z</time></trkpt><trkpt lat="45.4348617" lon="8.8232283"><ele>113.0</ele><time>2026-04-26T07:50:22.505Z</time></trkpt><trkpt lat="45.4348017" lon="8.8231467"><ele>113.0</ele><time>2026-04-26T07:50:24.505Z</time></trkpt><trkpt lat="45.4347383" lon="8.8230517"><ele>112.99999999999999</ele><time>2026-04-26T07:50:26.505Z</time></trkpt><trkpt lat="45.4346517" lon="8.8229867"><ele>113.0</ele><time>2026-04-26T07:50:28.505Z</time></trkpt><trkpt lat="45.434555" lon="8.822945"><ele>112.4</ele><time>2026-04-26T07:50:30.505Z</time></trkpt><trkpt lat="45.4344667" lon="8.8229283"><ele>111.80000000000001</ele><time>2026-04-26T07:50:32.505Z</time></trkpt><trkpt lat="45.4343683" lon="8.8229833"><ele>111.2</ele><time>2026-04-26T07:50:34.506Z</time></trkpt><trkpt lat="45.4342783" lon="8.8230767"><ele>110.6</ele><time>2026-04-26T07:50:36.505Z</time></trkpt><trkpt lat="45.4342" lon="8.8231567"><ele>110.0</ele><time>2026-04-26T07:50:38.506Z</time></trkpt><trkpt lat="45.4341133" lon="8.823215"><ele>110.0</ele><time>2026-04-26T07:50:40.506Z</time></trkpt><trkpt lat="45.434025" lon="8.82327"><ele>110.0</ele><time>2026-04-26T07:50:42.505Z</time></trkpt><trkpt lat="45.4339283" lon="8.8233367"><ele>110.0</ele><time>2026-04-26T07:50:44.505Z</time></trkpt><trkpt lat="45.4338433" lon="8.8234083"><ele>110.0</ele><time>2026-04-26T07:50:46.505Z</time></trkpt><trkpt lat="45.4337717" lon="8.82348"><ele>110.0</ele><time>2026-04-26T07:50:48.506Z</time></trkpt><trkpt lat="45.43372" lon="8.8235833"><ele>110.16666666666666</ele><time>2026-04-26T07:50:51.505Z</time></trkpt><trkpt lat="45.4337583" lon="8.82368"><ele>110.33333333333333</ele><time>2026-04-26T07:50:54.506Z</time></trkpt><trkpt lat="45.4338183" lon="8.8237633"><ele>110.5</ele><time>2026-04-26T07:50:57.506Z</time></trkpt><trkpt lat="45.4338717" lon="8.8238433"><ele>110.66666666666666</ele><time>2026-04-26T07:51:00.506Z</time></trkpt><trkpt lat="45.4339283" lon="8.8239417"><ele>110.83333333333333</ele><time>2026-04-26T07:51:03.506Z</time></trkpt><trkpt lat="45.433965" lon="8.824035"><ele>111.0</ele><time>2026-04-26T07:51:05.506Z</time></trkpt><trkpt lat="45.434015" lon="8.8241233"><ele>111.4</ele><time>2026-04-26T07:51:07.505Z</time></trkpt><trkpt lat="45.43406" lon="8.824235"><ele>111.8</ele><time>2026-04-26T07:51:09.506Z</time></trkpt><trkpt lat="45.434115" lon="8.8243367"><ele>112.20000000000002</ele><time>2026-04-26T07:51:11.505Z</time></trkpt><trkpt lat="45.4341533" lon="8.82446"><ele>112.60000000000001</ele><time>2026-04-26T07:51:13.505Z</time></trkpt><trkpt lat="45.43417" lon="8.8246083"><ele>113.0</ele><time>2026-04-26T07:51:15.505Z</time></trkpt><trkpt lat="45.4341717" lon="8.8247517"><ele>113.16666666666666</ele><time>2026-04-26T07:51:17.505Z</time></trkpt><trkpt lat="45.43415" lon="8.8248617"><ele>113.33333333333333</ele><time>2026-04-26T07:51:19.506Z</time></trkpt><trkpt lat="45.434085" lon="8.8249183"><ele>113.5</ele><time>2026-04-26T07:51:21.505Z</time></trkpt><trkpt lat="45.4340117" lon="8.824935"><ele>113.66666666666666</ele><time>2026-04-26T07:51:23.506Z</time></trkpt><trkpt lat="45.4339267" lon="8.8249717"><ele>113.83333333333333</ele><time>2026-04-26T07:51:25.505Z</time></trkpt><trkpt lat="45.4338383" lon="8.8250117"><ele>114.0</ele><time>2026-04-26T07:51:27.505Z</time></trkpt><trkpt lat="45.4337567" lon="8.8250717"><ele>114.2</ele><time>2026-04-26T07:51:29.506Z</time></trkpt><trkpt lat="45.43368" lon="8.8251617"><ele>114.4</ele><time>2026-04-26T07:51:31.505Z</time></trkpt><trkpt lat="45.43362" lon="8.825275"><ele>114.6</ele><time>2026-04-26T07:51:33.505Z</time></trkpt><trkpt lat="45.4336317" lon="8.825395"><ele>114.8</ele><time>2026-04-26T07:51:36.506Z</time></trkpt><trkpt lat="45.4336717" lon="8.8255"><ele>115.0</ele><time>2026-04-26T07:51:39.506Z</time></trkpt><trkpt lat="45.4337067" lon="8.8256083"><ele>115.00000000000001</ele><time>2026-04-26T07:51:41.506Z</time></trkpt><trkpt lat="45.4337533" lon="8.82573"><ele>115.0</ele><time>2026-04-26T07:51:43.505Z</time></trkpt><trkpt lat="45.4337733" lon="8.8258567"><ele>115.0</ele><time>2026-04-26T07:51:45.506Z</time></trkpt><trkpt lat="45.43376" lon="8.826"><ele>115.0</ele><time>2026-04-26T07:51:47.506Z</time></trkpt><trkpt lat="45.4337317" lon="8.8261017"><ele>115.00000000000001</ele><time>2026-04-26T07:51:49.505Z</time></trkpt><trkpt lat="45.4337167" lon="8.8262033"><ele>115.0</ele><time>2026-04-26T07:51:51.505Z</time></trkpt><trkpt lat="45.43369" lon="8.8263283"><ele>114.4</ele><time>2026-04-26T07:51:54.506Z</time></trkpt><trkpt lat="45.4336733" lon="8.8264567"><ele>113.8</ele><time>2026-04-26T07:51:56.506Z</time></trkpt><trkpt lat="45.43365" lon="8.826585"><ele>113.19999999999999</ele><time>2026-04-26T07:51:58.505Z</time></trkpt><trkpt lat="45.433615" lon="8.8267233"><ele>112.6</ele><time>2026-04-26T07:52:00.506Z</time></trkpt><trkpt lat="45.4335983" lon="8.82686"><ele>112.0</ele><time>2026-04-26T07:52:02.505Z</time></trkpt><trkpt lat="45.4335933" lon="8.8269867"><ele>111.8</ele><time>2026-04-26T07:52:04.506Z</time></trkpt><trkpt lat="45.4336067" lon="8.82712"><ele>111.6</ele><time>2026-04-26T07:52:06.505Z</time></trkpt><trkpt lat="45.4336233" lon="8.827245"><ele>111.39999999999999</ele><time>2026-04-26T07:52:08.504Z</time></trkpt><trkpt lat="45.43363" lon="8.8274017"><ele>111.19999999999999</ele><time>2026-04-26T07:52:10.504Z</time></trkpt><trkpt lat="45.43363" lon="8.82753"><ele>111.0</ele><time>2026-04-26T07:52:12.504Z</time></trkpt><trkpt lat="45.43358" lon="8.8276383"><ele>110.66666666666667</ele><time>2026-04-26T07:52:14.504Z</time></trkpt><trkpt lat="45.4335133" lon="8.8277217"><ele>110.33333333333334</ele><time>2026-04-26T07:52:16.505Z</time></trkpt><trkpt lat="45.4334333" lon="8.827785"><ele>110.0</ele><time>2026-04-26T07:52:18.505Z</time></trkpt><trkpt lat="45.433355" lon="8.827835"><ele>109.66666666666667</ele><time>2026-04-26T07:52:20.505Z</time></trkpt><trkpt lat="45.4332617" lon="8.8278733"><ele>109.33333333333334</ele><time>2026-04-26T07:52:22.504Z</time></trkpt><trkpt lat="45.43318" lon="8.8279083"><ele>109.0</ele><time>2026-04-26T07:52:24.504Z</time></trkpt><trkpt lat="45.4331" lon="8.8279317"><ele>109.00000000000001</ele><time>2026-04-26T07:52:26.504Z</time></trkpt><trkpt lat="45.4330233" lon="8.82795"><ele>109.0</ele><time>2026-04-26T07:52:28.505Z</time></trkpt><trkpt lat="45.4329367" lon="8.8279817"><ele>109.0</ele><time>2026-04-26T07:52:30.504Z</time></trkpt><trkpt lat="45.4328483" lon="8.8279967"><ele>109.0</ele><time>2026-04-26T07:52:32.504Z</time></trkpt><trkpt lat="45.432765" lon="8.828025"><ele>109.00000000000001</ele><time>2026-04-26T07:52:34.504Z</time></trkpt><trkpt lat="45.4326883" lon="8.8280517"><ele>109.0</ele><time>2026-04-26T07:52:36.504Z</time></trkpt><trkpt lat="45.4326" lon="8.8280883"><ele>109.14285714285714</ele><time>2026-04-26T07:52:38.504Z</time></trkpt><trkpt lat="45.4325133" lon="8.828125"><ele>109.28571428571429</ele><time>2026-04-26T07:52:40.504Z</time></trkpt><trkpt lat="45.4324333" lon="8.8281283"><ele>109.42857142857142</ele><time>2026-04-26T07:52:42.504Z</time></trkpt><trkpt lat="45.4323567" lon="8.828115"><ele>109.57142857142857</ele><time>2026-04-26T07:52:44.504Z</time></trkpt><trkpt lat="45.43229" lon="8.8280933"><ele>109.71428571428571</ele><time>2026-04-26T07:52:46.505Z</time></trkpt><trkpt lat="45.4322267" lon="8.8280783"><ele>109.85714285714285</ele><time>2026-04-26T07:52:48.504Z</time></trkpt><trkpt lat="45.432165" lon="8.828055"><ele>110.0</ele><time>2026-04-26T07:52:50.505Z</time></trkpt><trkpt lat="45.4321017" lon="8.82803"><ele>110.33333333333333</ele><time>2026-04-26T07:52:52.505Z</time></trkpt><trkpt lat="45.43202" lon="8.82805"><ele>110.66666666666666</ele><time>2026-04-26T07:52:55.505Z</time></trkpt><trkpt lat="45.4320133" lon="8.8281717"><ele>111.0</ele><time>2026-04-26T07:53:00.504Z</time></trkpt><trkpt lat="45.4320217" lon="8.8282733"><ele>111.33333333333334</ele><time>2026-04-26T07:53:02.505Z</time></trkpt><trkpt lat="45.43204" lon="8.8283717"><ele>111.66666666666667</ele><time>2026-04-26T07:53:04.505Z</time></trkpt><trkpt lat="45.432055" lon="8.8284617"><ele>112.0</ele><time>2026-04-26T07:53:06.505Z</time></trkpt><trkpt lat="45.4320533" lon="8.82857"><ele>112.00000000000001</ele><time>2026-04-26T07:53:09.504Z</time></trkpt><trkpt lat="45.4320517" lon="8.82868"><ele>112.0</ele><time>2026-04-26T07:53:12.504Z</time></trkpt><trkpt lat="45.4320667" lon="8.828805"><ele>112.0</ele><time>2026-04-26T07:53:15.504Z</time></trkpt><trkpt lat="45.43209" lon="8.828905"><ele>112.0</ele><time>2026-04-26T07:53:17.505Z</time></trkpt><trkpt lat="45.432115" lon="8.8290333"><ele>112.00000000000001</ele><time>2026-04-26T07:53:19.504Z</time></trkpt><trkpt lat="45.432135" lon="8.82916"><ele>112.0</ele><time>2026-04-26T07:53:21.505Z</time></trkpt><trkpt lat="45.43215" lon="8.8292967"><ele>112.14285714285714</ele><time>2026-04-26T07:53:23.504Z</time></trkpt><trkpt lat="45.4321767" lon="8.8294033"><ele>112.28571428571428</ele><time>2026-04-26T07:53:25.504Z</time></trkpt><trkpt lat="45.4322017" lon="8.8295067"><ele>112.42857142857143</ele><time>2026-04-26T07:53:27.504Z</time></trkpt><trkpt lat="45.4322083" lon="8.82961"><ele>112.57142857142857</ele><time>2026-04-26T07:53:29.505Z</time></trkpt><trkpt lat="45.432195" lon="8.8296983"><ele>112.71428571428571</ele><time>2026-04-26T07:53:31.505Z</time></trkpt><trkpt lat="45.4322467" lon="8.82978"><ele>112.85714285714286</ele><time>2026-04-26T07:54:35.504Z</time></trkpt><trkpt lat="45.4322883" lon="8.82985"><ele>113.0</ele><time>2026-04-26T07:54:38.505Z</time></trkpt><trkpt lat="45.4323367" lon="8.82992"><ele>113.0</ele><time>2026-04-26T07:54:40.505Z</time></trkpt><trkpt lat="45.4323767" lon="8.8299917"><ele>113.0</ele><time>2026-04-26T07:54:42.504Z</time></trkpt><trkpt lat="45.4324367" lon="8.8300483"><ele>113.0</ele><time>2026-04-26T07:54:44.505Z</time></trkpt><trkpt lat="45.432505" lon="8.8301017"><ele>113.0</ele><time>2026-04-26T07:54:46.505Z</time></trkpt><trkpt lat="45.4325683" lon="8.8301483"><ele>113.0</ele><time>2026-04-26T07:54:48.505Z</time></trkpt><trkpt lat="45.4326383" lon="8.8301933"><ele>113.0</ele><time>2026-04-26T07:54:50.504Z</time></trkpt><trkpt lat="45.4327033" lon="8.8302367"><ele>113.0</ele><time>2026-04-26T07:54:52.505Z</time></trkpt><trkpt lat="45.4327667" lon="8.830285"><ele>113.49999999999999</ele><time>2026-04-26T07:54:54.504Z</time></trkpt><trkpt lat="45.432835" lon="8.8303567"><ele>114.0</ele><time>2026-04-26T07:54:56.504Z</time></trkpt><trkpt lat="45.432885" lon="8.8304383"><ele>114.5</ele><time>2026-04-26T07:54:58.505Z</time></trkpt><trkpt lat="45.4329233" lon="8.83052"><ele>115.0</ele><time>2026-04-26T07:55:00.504Z</time></trkpt><trkpt lat="45.4329667" lon="8.830625"><ele>115.49999999999999</ele><time>2026-04-26T07:55:02.504Z</time></trkpt><trkpt lat="45.4330033" lon="8.8307067"><ele>116.0</ele><time>2026-04-26T07:55:04.505Z</time></trkpt><trkpt lat="45.43304" lon="8.8307867"><ele>116.16666666666666</ele><time>2026-04-26T07:55:06.505Z</time></trkpt><trkpt lat="45.433075" lon="8.8308617"><ele>116.33333333333333</ele><time>2026-04-26T07:55:08.505Z</time></trkpt><trkpt lat="45.43313" lon="8.8309317"><ele>116.5</ele><time>2026-04-26T07:55:10.504Z</time></trkpt><trkpt lat="45.4331817" lon="8.8309983"><ele>116.66666666666666</ele><time>2026-04-26T07:55:12.504Z</time></trkpt><trkpt lat="45.4332333" lon="8.8311333"><ele>116.83333333333333</ele><time>2026-04-26T07:55:14.505Z</time></trkpt><trkpt lat="45.433285" lon="8.8312583"><ele>117.0</ele><time>2026-04-26T07:55:16.504Z</time></trkpt><trkpt lat="45.4333367" lon="8.8313683"><ele>117.0</ele><time>2026-04-26T07:55:18.505Z</time></trkpt><trkpt lat="45.4333817" lon="8.8314817"><ele>116.99999999999999</ele><time>2026-04-26T07:55:20.505Z</time></trkpt><trkpt lat="45.433435" lon="8.8315883"><ele>116.99999999999999</ele><time>2026-04-26T07:55:22.505Z</time></trkpt><trkpt lat="45.4335" lon="8.8317117"><ele>117.0</ele><time>2026-04-26T07:55:24.505Z</time></trkpt><trkpt lat="45.4335733" lon="8.83183"><ele>117.0</ele><time>2026-04-26T07:55:26.504Z</time></trkpt><trkpt lat="45.4336317" lon="8.8319383"><ele>116.83333333333333</ele><time>2026-04-26T07:55:28.504Z</time></trkpt><trkpt lat="45.433685" lon="8.8320517"><ele>116.66666666666666</ele><time>2026-04-26T07:55:30.505Z</time></trkpt><trkpt lat="45.4337433" lon="8.832175"><ele>116.5</ele><time>2026-04-26T07:55:32.504Z</time></trkpt><trkpt lat="45.433785" lon="8.8322583"><ele>116.33333333333333</ele><time>2026-04-26T07:55:34.504Z</time></trkpt><trkpt lat="45.4338267" lon="8.83234"><ele>116.16666666666666</ele><time>2026-04-26T07:55:36.505Z</time></trkpt><trkpt lat="45.4338683" lon="8.832455"><ele>116.0</ele><time>2026-04-26T07:55:39.505Z</time></trkpt><trkpt lat="45.4338817" lon="8.8325867"><ele>114.33333333333333</ele><time>2026-04-26T07:55:42.505Z</time></trkpt><trkpt lat="45.4338967" lon="8.8326817"><ele>112.66666666666666</ele><time>2026-04-26T07:55:44.504Z</time></trkpt><trkpt lat="45.4339133" lon="8.8327833"><ele>111.0</ele><time>2026-04-26T07:55:46.504Z</time></trkpt><trkpt lat="45.4339433" lon="8.832905"><ele>109.33333333333334</ele><time>2026-04-26T07:55:48.505Z</time></trkpt><trkpt lat="45.4339667" lon="8.8330283"><ele>107.66666666666667</ele><time>2026-04-26T07:55:50.505Z</time></trkpt><trkpt lat="45.4339867" lon="8.8331367"><ele>106.0</ele><time>2026-04-26T07:55:52.505Z</time></trkpt><trkpt lat="45.4340033" lon="8.8332533"><ele>106.00000000000001</ele><time>2026-04-26T07:55:54.505Z</time></trkpt><trkpt lat="45.4340217" lon="8.83335"><ele>106.0</ele><time>2026-04-26T07:55:56.504Z</time></trkpt><trkpt lat="45.4340433" lon="8.8334783"><ele>106.0</ele><time>2026-04-26T07:55:58.505Z</time></trkpt><trkpt lat="45.4340667" lon="8.8336017"><ele>106.0</ele><time>2026-04-26T07:56:00.504Z</time></trkpt><trkpt lat="45.4340917" lon="8.83373"><ele>106.00000000000001</ele><time>2026-04-26T07:56:02.505Z</time></trkpt><trkpt lat="45.4341083" lon="8.83383"><ele>106.0</ele><time>2026-04-26T07:56:05.504Z</time></trkpt><trkpt lat="45.434145" lon="8.8339133"><ele>106.33333333333334</ele><time>2026-04-26T07:56:42.504Z</time></trkpt><trkpt lat="45.4341733" lon="8.833995"><ele>106.66666666666667</ele><time>2026-04-26T07:57:01.505Z</time></trkpt><trkpt lat="45.4342067" lon="8.8341017"><ele>107.0</ele><time>2026-04-26T07:57:05.504Z</time></trkpt><trkpt lat="45.4342167" lon="8.8341917"><ele>107.33333333333334</ele><time>2026-04-26T07:57:09.504Z</time></trkpt><trkpt lat="45.4341183" lon="8.8342467"><ele>107.66666666666667</ele><time>2026-04-26T07:57:31.505Z</time></trkpt><trkpt lat="45.4340533" lon="8.8343117"><ele>108.0</ele><time>2026-04-26T07:57:34.504Z</time></trkpt><trkpt lat="45.4339817" lon="8.8343583"><ele>108.0</ele><time>2026-04-26T07:57:36.504Z</time></trkpt><trkpt lat="45.4338933" lon="8.8343933"><ele>108.00000000000001</ele><time>2026-04-26T07:57:38.505Z</time></trkpt><trkpt lat="45.43378" lon="8.8344533"><ele>108.00000000000001</ele><time>2026-04-26T07:57:40.505Z</time></trkpt><trkpt lat="45.4336783" lon="8.83453"><ele>108.0</ele><time>2026-04-26T07:57:42.505Z</time></trkpt><trkpt lat="45.4335833" lon="8.83459"><ele>108.0</ele><time>2026-04-26T07:57:44.504Z</time></trkpt><trkpt lat="45.4335033" lon="8.8346417"><ele>108.0</ele><time>2026-04-26T07:57:46.504Z</time></trkpt><trkpt lat="45.43341" lon="8.8347083"><ele>108.00000000000001</ele><time>2026-04-26T07:57:48.504Z</time></trkpt><trkpt lat="45.4333217" lon="8.83477"><ele>108.00000000000001</ele><time>2026-04-26T07:57:50.504Z</time></trkpt><trkpt lat="45.4332383" lon="8.83482"><ele>108.0</ele><time>2026-04-26T07:57:52.504Z</time></trkpt><trkpt lat="45.43317" lon="8.834885"><ele>108.0</ele><time>2026-04-26T07:57:54.504Z</time></trkpt><trkpt lat="45.4330933" lon="8.8349633"><ele>108.0</ele><time>2026-04-26T07:57:56.505Z</time></trkpt><trkpt lat="45.433" lon="8.8350317"><ele>108.00000000000001</ele><time>2026-04-26T07:57:58.504Z</time></trkpt><trkpt lat="45.4329133" lon="8.8350967"><ele>108.00000000000001</ele><time>2026-04-26T07:58:00.504Z</time></trkpt><trkpt lat="45.432825" lon="8.8351533"><ele>108.0</ele><time>2026-04-26T07:58:02.505Z</time></trkpt><trkpt lat="45.4327517" lon="8.835215"><ele>108.0</ele><time>2026-04-26T07:58:04.505Z</time></trkpt><trkpt lat="45.4326617" lon="8.8352767"><ele>107.60000000000001</ele><time>2026-04-26T07:58:06.505Z</time></trkpt><trkpt lat="45.4325817" lon="8.83535"><ele>107.20000000000002</ele><time>2026-04-26T07:58:08.504Z</time></trkpt><trkpt lat="45.432495" lon="8.8354167"><ele>106.8</ele><time>2026-04-26T07:58:10.505Z</time></trkpt><trkpt lat="45.432405" lon="8.8354767"><ele>106.4</ele><time>2026-04-26T07:58:12.504Z</time></trkpt><trkpt lat="45.4323183" lon="8.8355433"><ele>106.0</ele><time>2026-04-26T07:58:14.505Z</time></trkpt><trkpt lat="45.4322233" lon="8.8356117"><ele>106.19999999999999</ele><time>2026-04-26T07:58:16.504Z</time></trkpt><trkpt lat="45.4321283" lon="8.8356733"><ele>106.39999999999999</ele><time>2026-04-26T07:58:18.505Z</time></trkpt><trkpt lat="45.4320367" lon="8.83573"><ele>106.6</ele><time>2026-04-26T07:58:20.504Z</time></trkpt><trkpt lat="45.43195" lon="8.8357867"><ele>106.8</ele><time>2026-04-26T07:58:22.504Z</time></trkpt><trkpt lat="45.4318683" lon="8.8358333"><ele>107.0</ele><time>2026-04-26T07:58:24.505Z</time></trkpt><trkpt lat="45.431785" lon="8.83589"><ele>106.99999999999999</ele><time>2026-04-26T07:58:26.504Z</time></trkpt><trkpt lat="45.431705" lon="8.835935"><ele>107.0</ele><time>2026-04-26T07:58:28.504Z</time></trkpt><trkpt lat="45.4316233" lon="8.8359467"><ele>107.0</ele><time>2026-04-26T07:58:30.504Z</time></trkpt><trkpt lat="45.4315517" lon="8.83588"><ele>107.0</ele><time>2026-04-26T07:58:32.504Z</time></trkpt><trkpt lat="45.431485" lon="8.8357883"><ele>106.99999999999999</ele><time>2026-04-26T07:58:34.505Z</time></trkpt><trkpt lat="45.4314267" lon="8.8356883"><ele>107.0</ele><time>2026-04-26T07:58:36.504Z</time></trkpt><trkpt lat="45.431355" lon="8.8356133"><ele>106.8</ele><time>2026-04-26T07:58:38.504Z</time></trkpt><trkpt lat="45.4312917" lon="8.8355217"><ele>106.6</ele><time>2026-04-26T07:58:40.504Z</time></trkpt><trkpt lat="45.4312267" lon="8.8354317"><ele>106.39999999999999</ele><time>2026-04-26T07:58:42.505Z</time></trkpt><trkpt lat="45.431165" lon="8.835325"><ele>106.19999999999999</ele><time>2026-04-26T07:58:44.504Z</time></trkpt><trkpt lat="45.431115" lon="8.8352267"><ele>106.0</ele><time>2026-04-26T07:58:46.504Z</time></trkpt><trkpt lat="45.431055" lon="8.8351283"><ele>106.33333333333334</ele><time>2026-04-26T07:58:48.505Z</time></trkpt><trkpt lat="45.430995" lon="8.8350383"><ele>106.66666666666667</ele><time>2026-04-26T07:58:50.504Z</time></trkpt><trkpt lat="45.43093" lon="8.8349483"><ele>107.0</ele><time>2026-04-26T07:58:52.504Z</time></trkpt><trkpt lat="45.4308733" lon="8.83486"><ele>107.33333333333334</ele><time>2026-04-26T07:58:54.504Z</time></trkpt><trkpt lat="45.4308133" lon="8.83476"><ele>107.66666666666667</ele><time>2026-04-26T07:58:56.505Z</time></trkpt><trkpt lat="45.4307467" lon="8.834665"><ele>108.0</ele><time>2026-04-26T07:58:58.505Z</time></trkpt><trkpt lat="45.4306783" lon="8.834575"><ele>108.0</ele><time>2026-04-26T07:59:00.504Z</time></trkpt><trkpt lat="45.4306083" lon="8.8344667"><ele>108.0</ele><time>2026-04-26T07:59:02.505Z</time></trkpt><trkpt lat="45.430545" lon="8.8343917"><ele>108.0</ele><time>2026-04-26T07:59:04.504Z</time></trkpt><trkpt lat="45.4304883" lon="8.8343067"><ele>108.0</ele><time>2026-04-26T07:59:06.505Z</time></trkpt><trkpt lat="45.4304367" lon="8.8342517"><ele>108.0</ele><time>2026-04-26T07:59:08.504Z</time></trkpt><trkpt lat="45.430365" lon="8.8342233"><ele>108.0</ele><time>2026-04-26T07:59:11.505Z</time></trkpt><trkpt lat="45.4302683" lon="8.8342067"><ele>108.28571428571428</ele><time>2026-04-26T07:59:14.504Z</time></trkpt><trkpt lat="45.4301967" lon="8.83422"><ele>108.57142857142857</ele><time>2026-04-26T07:59:16.504Z</time></trkpt><trkpt lat="45.430115" lon="8.834235"><ele>108.85714285714286</ele><time>2026-04-26T07:59:18.504Z</time></trkpt><trkpt lat="45.4300417" lon="8.8342567"><ele>109.14285714285714</ele><time>2026-04-26T07:59:20.504Z</time></trkpt><trkpt lat="45.4299733" lon="8.8342817"><ele>109.42857142857143</ele><time>2026-04-26T07:59:22.504Z</time></trkpt><trkpt lat="45.4299" lon="8.8343083"><ele>109.71428571428571</ele><time>2026-04-26T07:59:24.505Z</time></trkpt><trkpt lat="45.4298317" lon="8.8343283"><ele>110.0</ele><time>2026-04-26T07:59:26.504Z</time></trkpt><trkpt lat="45.429765" lon="8.83435"><ele>109.99999999999999</ele><time>2026-04-26T07:59:28.504Z</time></trkpt><trkpt lat="45.4296817" lon="8.8343567"><ele>110.0</ele><time>2026-04-26T07:59:31.504Z</time></trkpt><trkpt lat="45.4296083" lon="8.8343267"><ele>110.0</ele><time>2026-04-26T07:59:34.505Z</time></trkpt><trkpt lat="45.4295817" lon="8.8342267"><ele>110.0</ele><time>2026-04-26T07:59:37.504Z</time></trkpt><trkpt lat="45.4295483" lon="8.8341383"><ele>109.99999999999999</ele><time>2026-04-26T07:59:39.505Z</time></trkpt><trkpt lat="45.429485" lon="8.8340433"><ele>110.0</ele><time>2026-04-26T07:59:41.505Z</time></trkpt><trkpt lat="45.429445" lon="8.8339317"><ele>110.6</ele><time>2026-04-26T07:59:43.504Z</time></trkpt><trkpt lat="45.429415" lon="8.8338217"><ele>111.2</ele><time>2026-04-26T07:59:45.505Z</time></trkpt><trkpt lat="45.4293883" lon="8.8337217"><ele>111.80000000000001</ele><time>2026-04-26T07:59:47.505Z</time></trkpt><trkpt lat="45.4293567" lon="8.8335833"><ele>112.4</ele><time>2026-04-26T07:59:49.504Z</time></trkpt><trkpt lat="45.429325" lon="8.8334517"><ele>113.0</ele><time>2026-04-26T07:59:51.505Z</time></trkpt><trkpt lat="45.4293067" lon="8.8333133"><ele>112.99999999999999</ele><time>2026-04-26T07:59:53.505Z</time></trkpt><trkpt lat="45.4292867" lon="8.83319"><ele>113.0</ele><time>2026-04-26T07:59:55.504Z</time></trkpt><trkpt lat="45.42925" lon="8.83307"><ele>113.0</ele><time>2026-04-26T07:59:57.505Z</time></trkpt><trkpt lat="45.4291933" lon="8.8329683"><ele>113.0</ele><time>2026-04-26T07:59:59.504Z</time></trkpt><trkpt lat="45.4291233" lon="8.8328983"><ele>112.99999999999999</ele><time>2026-04-26T08:00:01.504Z</time></trkpt><trkpt lat="45.4290683" lon="8.8328133"><ele>113.0</ele><time>2026-04-26T08:00:03.503Z</time></trkpt><trkpt lat="45.4290333" lon="8.8327067"><ele>113.4</ele><time>2026-04-26T08:00:05.504Z</time></trkpt><trkpt lat="45.42907" lon="8.8325667"><ele>113.80000000000001</ele><time>2026-04-26T08:00:07.503Z</time></trkpt><trkpt lat="45.4291267" lon="8.8324433"><ele>114.2</ele><time>2026-04-26T08:00:09.503Z</time></trkpt><trkpt lat="45.42918" lon="8.8323933"><ele>114.6</ele><time>2026-04-26T08:00:10.503Z</time></trkpt><trkpt lat="45.4292433" lon="8.8323467"><ele>115.0</ele><time>2026-04-26T08:00:11.503Z</time></trkpt><trkpt lat="45.4293517" lon="8.832335"><ele>115.0</ele><time>2026-04-26T08:00:13.503Z</time></trkpt><trkpt lat="45.4294533" lon="8.8323283"><ele>115.0</ele><time>2026-04-26T08:00:15.503Z</time></trkpt><trkpt lat="45.4295617" lon="8.832305"><ele>115.0</ele><time>2026-04-26T08:00:17.503Z</time></trkpt><trkpt lat="45.42965" lon="8.832265"><ele>115.0</ele><time>2026-04-26T08:00:19.503Z</time></trkpt><trkpt lat="45.429725" lon="8.8321867"><ele>115.0</ele><time>2026-04-26T08:00:21.504Z</time></trkpt><trkpt lat="45.429805" lon="8.832135"><ele>114.8</ele><time>2026-04-26T08:00:23.504Z</time></trkpt><trkpt lat="45.4298817" lon="8.8320883"><ele>114.6</ele><time>2026-04-26T08:00:25.504Z</time></trkpt><trkpt lat="45.42997" lon="8.83207"><ele>114.4</ele><time>2026-04-26T08:00:27.504Z</time></trkpt><trkpt lat="45.4300583" lon="8.8320433"><ele>114.2</ele><time>2026-04-26T08:00:29.503Z</time></trkpt><trkpt lat="45.43015" lon="8.8320017"><ele>114.0</ele><time>2026-04-26T08:00:31.503Z</time></trkpt><trkpt lat="45.4302333" lon="8.8319467"><ele>114.0</ele><time>2026-04-26T08:00:33.503Z</time></trkpt><trkpt lat="45.430315" lon="8.8319067"><ele>114.0</ele><time>2026-04-26T08:00:35.503Z</time></trkpt><trkpt lat="45.430395" lon="8.83185"><ele>114.0</ele><time>2026-04-26T08:00:37.504Z</time></trkpt><trkpt lat="45.4304733" lon="8.8317917"><ele>114.0</ele><time>2026-04-26T08:00:39.503Z</time></trkpt><trkpt lat="45.4305217" lon="8.8317017"><ele>114.0</ele><time>2026-04-26T08:00:41.503Z</time></trkpt><trkpt lat="45.430575" lon="8.8316217"><ele>114.0</ele><time>2026-04-26T08:00:43.503Z</time></trkpt><trkpt lat="45.430625" lon="8.8315217"><ele>114.16666666666667</ele><time>2026-04-26T08:00:45.503Z</time></trkpt><trkpt lat="45.4306783" lon="8.831425"><ele>114.33333333333334</ele><time>2026-04-26T08:00:47.504Z</time></trkpt><trkpt lat="45.430745" lon="8.831335"><ele>114.5</ele><time>2026-04-26T08:00:49.503Z</time></trkpt><trkpt lat="45.4308233" lon="8.83127"><ele>114.66666666666667</ele><time>2026-04-26T08:00:51.503Z</time></trkpt><trkpt lat="45.4308683" lon="8.8311717"><ele>114.83333333333334</ele><time>2026-04-26T08:00:53.504Z</time></trkpt><trkpt lat="45.430915" lon="8.831075"><ele>115.0</ele><time>2026-04-26T08:00:55.503Z</time></trkpt><trkpt lat="45.4309917" lon="8.830995"><ele>115.2</ele><time>2026-04-26T08:00:57.503Z</time></trkpt><trkpt lat="45.431085" lon="8.830895"><ele>115.4</ele><time>2026-04-26T08:00:59.504Z</time></trkpt><trkpt lat="45.4311617" lon="8.8308033"><ele>115.6</ele><time>2026-04-26T08:01:01.504Z</time></trkpt><trkpt lat="45.4312433" lon="8.83078"><ele>115.8</ele><time>2026-04-26T08:01:03.504Z</time></trkpt><trkpt lat="45.4313283" lon="8.8307467"><ele>116.0</ele><time>2026-04-26T08:01:05.503Z</time></trkpt><trkpt lat="45.43142" lon="8.8307117"><ele>115.6</ele><time>2026-04-26T08:01:07.504Z</time></trkpt><trkpt lat="45.4315033" lon="8.83067"><ele>115.19999999999999</ele><time>2026-04-26T08:01:09.504Z</time></trkpt><trkpt lat="45.43158" lon="8.83063"><ele>114.80000000000001</ele><time>2026-04-26T08:01:11.503Z</time></trkpt><trkpt lat="45.431665" lon="8.83056"><ele>114.4</ele><time>2026-04-26T08:01:13.503Z</time></trkpt><trkpt lat="45.43172" lon="8.830465"><ele>114.0</ele><time>2026-04-26T08:01:15.503Z</time></trkpt><trkpt lat="45.43177" lon="8.8303467"><ele>114.0</ele><time>2026-04-26T08:01:17.503Z</time></trkpt><trkpt lat="45.43182" lon="8.8302417"><ele>114.0</ele><time>2026-04-26T08:01:19.503Z</time></trkpt><trkpt lat="45.4318617" lon="8.8301467"><ele>114.0</ele><time>2026-04-26T08:01:21.504Z</time></trkpt><trkpt lat="45.4319" lon="8.830055"><ele>114.0</ele><time>2026-04-26T08:01:23.503Z</time></trkpt><trkpt lat="45.43196" lon="8.829945"><ele>114.0</ele><time>2026-04-26T08:01:25.503Z</time></trkpt><trkpt lat="45.4319767" lon="8.8298533"><ele>114.0</ele><time>2026-04-26T08:01:27.503Z</time></trkpt><trkpt lat="45.4319233" lon="8.829775"><ele>113.83333333333333</ele><time>2026-04-26T08:01:29.504Z</time></trkpt><trkpt lat="45.4318617" lon="8.82969"><ele>113.66666666666666</ele><time>2026-04-26T08:01:31.504Z</time></trkpt><trkpt lat="45.4317917" lon="8.8296"><ele>113.5</ele><time>2026-04-26T08:01:33.504Z</time></trkpt><trkpt lat="45.431735" lon="8.8294833"><ele>113.33333333333333</ele><time>2026-04-26T08:01:35.503Z</time></trkpt><trkpt lat="45.4317167" lon="8.829395"><ele>113.16666666666666</ele><time>2026-04-26T08:01:37.503Z</time></trkpt><trkpt lat="45.4317767" lon="8.8294333"><ele>113.0</ele><time>2026-04-26T08:01:57.503Z</time></trkpt><trkpt lat="45.4318083" lon="8.82952"><ele>112.99999999999999</ele><time>2026-04-26T08:02:01.504Z</time></trkpt><trkpt lat="45.4318583" lon="8.82961"><ele>113.0</ele><time>2026-04-26T08:02:04.503Z</time></trkpt><trkpt lat="45.431915" lon="8.82969"><ele>113.0</ele><time>2026-04-26T08:02:07.503Z</time></trkpt><trkpt lat="45.431985" lon="8.8297783"><ele>113.0</ele><time>2026-04-26T08:02:10.504Z</time></trkpt><trkpt lat="45.4320567" lon="8.8297933"><ele>112.99999999999999</ele><time>2026-04-26T08:02:12.503Z</time></trkpt><trkpt lat="45.4321183" lon="8.829765"><ele>113.0</ele><time>2026-04-26T08:02:14.504Z</time></trkpt><trkpt lat="45.4321833" lon="8.8297617"><ele>112.99999999999999</ele><time>2026-04-26T08:02:16.504Z</time></trkpt><trkpt lat="45.43225" lon="8.8296833"><ele>113.0</ele><time>2026-04-26T08:02:19.503Z</time></trkpt><trkpt lat="45.4323" lon="8.8296283"><ele>113.0</ele><time>2026-04-26T08:02:21.503Z</time></trkpt><trkpt lat="45.4323783" lon="8.8295733"><ele>113.0</ele><time>2026-04-26T08:02:24.503Z</time></trkpt><trkpt lat="45.432435" lon="8.8295167"><ele>112.99999999999999</ele><time>2026-04-26T08:02:26.504Z</time></trkpt><trkpt lat="45.4325083" lon="8.829475"><ele>113.0</ele><time>2026-04-26T08:02:28.503Z</time></trkpt><trkpt lat="45.4325817" lon="8.82945"><ele>112.99999999999999</ele><time>2026-04-26T08:02:30.503Z</time></trkpt><trkpt lat="45.4326583" lon="8.82943"><ele>113.0</ele><time>2026-04-26T08:02:32.504Z</time></trkpt><trkpt lat="45.43274" lon="8.82944"><ele>113.0</ele><time>2026-04-26T08:02:34.504Z</time></trkpt><trkpt lat="45.43283" lon="8.8294633"><ele>113.0</ele><time>2026-04-26T08:02:36.503Z</time></trkpt><trkpt lat="45.4329233" lon="8.8294917"><ele>112.99999999999999</ele><time>2026-04-26T08:02:38.503Z</time></trkpt><trkpt lat="45.433005" lon="8.8294983"><ele>113.0</ele><time>2026-04-26T08:02:40.504Z</time></trkpt><trkpt lat="45.4330867" lon="8.82948"><ele>113.16666666666666</ele><time>2026-04-26T08:02:42.504Z</time></trkpt><trkpt lat="45.4331717" lon="8.8294533"><ele>113.33333333333333</ele><time>2026-04-26T08:02:44.504Z</time></trkpt><trkpt lat="45.43326" lon="8.8294117"><ele>113.5</ele><time>2026-04-26T08:02:46.504Z</time></trkpt><trkpt lat="45.433335" lon="8.8293683"><ele>113.66666666666666</ele><time>2026-04-26T08:02:48.503Z</time></trkpt><trkpt lat="45.4334133" lon="8.8293083"><ele>113.83333333333333</ele><time>2026-04-26T08:02:50.504Z</time></trkpt><trkpt lat="45.4334733" lon="8.82922"><ele>114.0</ele><time>2026-04-26T08:02:52.504Z</time></trkpt><trkpt lat="45.433545" lon="8.8291333"><ele>113.80000000000001</ele><time>2026-04-26T08:02:54.503Z</time></trkpt><trkpt lat="45.433605" lon="8.82906"><ele>113.60000000000001</ele><time>2026-04-26T08:02:56.504Z</time></trkpt><trkpt lat="45.4336667" lon="8.828985"><ele>113.4</ele><time>2026-04-26T08:02:58.503Z</time></trkpt><trkpt lat="45.4337533" lon="8.8289383"><ele>113.2</ele><time>2026-04-26T08:03:00.504Z</time></trkpt><trkpt lat="45.43385" lon="8.828935"><ele>113.0</ele><time>2026-04-26T08:03:02.503Z</time></trkpt><trkpt lat="45.433955" lon="8.8289817"><ele>113.0</ele><time>2026-04-26T08:03:04.504Z</time></trkpt><trkpt lat="45.4340417" lon="8.8290483"><ele>113.00000000000001</ele><time>2026-04-26T08:03:06.504Z</time></trkpt><trkpt lat="45.4341167" lon="8.8291217"><ele>113.00000000000001</ele><time>2026-04-26T08:03:08.504Z</time></trkpt><trkpt lat="45.43418" lon="8.829175"><ele>113.0</ele><time>2026-04-26T08:03:10.503Z</time></trkpt><trkpt lat="45.4342617" lon="8.8292717"><ele>113.0</ele><time>2026-04-26T08:03:13.504Z</time></trkpt><trkpt lat="45.4343333" lon="8.8293333"><ele>112.83333333333333</ele><time>2026-04-26T08:03:15.504Z</time></trkpt><trkpt lat="45.4343983" lon="8.8293717"><ele>112.66666666666666</ele><time>2026-04-26T08:03:17.503Z</time></trkpt><trkpt lat="45.4344667" lon="8.82939"><ele>112.5</ele><time>2026-04-26T08:03:19.504Z</time></trkpt><trkpt lat="45.4345583" lon="8.8294483"><ele>112.33333333333334</ele><time>2026-04-26T08:03:22.503Z</time></trkpt><trkpt lat="45.4346133" lon="8.8295017"><ele>112.16666666666667</ele><time>2026-04-26T08:03:24.504Z</time></trkpt><trkpt lat="45.4346533" lon="8.8295733"><ele>112.0</ele><time>2026-04-26T08:03:26.503Z</time></trkpt><trkpt lat="45.4347017" lon="8.8296667"><ele>112.00000000000001</ele><time>2026-04-26T08:03:29.504Z</time></trkpt><trkpt lat="45.4347133" lon="8.82976"><ele>112.0</ele><time>2026-04-26T08:03:32.504Z</time></trkpt><trkpt lat="45.4347233" lon="8.8298817"><ele>112.0</ele><time>2026-04-26T08:03:35.504Z</time></trkpt><trkpt lat="45.4347633" lon="8.8299967"><ele>112.0</ele><time>2026-04-26T08:03:38.504Z</time></trkpt><trkpt lat="45.4348383" lon="8.82999"><ele>112.00000000000001</ele><time>2026-04-26T08:06:00.503Z</time></trkpt><trkpt lat="45.4349033" lon="8.8300533"><ele>112.0</ele><time>2026-04-26T08:06:03.503Z</time></trkpt><trkpt lat="45.4349717" lon="8.8300767"><ele>112.00000000000001</ele><time>2026-04-26T08:06:07.503Z</time></trkpt><trkpt lat="45.4350317" lon="8.829975"><ele>112.0</ele><time>2026-04-26T08:06:11.503Z</time></trkpt><trkpt lat="45.435035" lon="8.8298483"><ele>112.0</ele><time>2026-04-26T08:06:14.503Z</time></trkpt><trkpt lat="45.4350633" lon="8.829745"><ele>112.0</ele><time>2026-04-26T08:06:17.503Z</time></trkpt><trkpt lat="45.4350983" lon="8.8296483"><ele>112.00000000000001</ele><time>2026-04-26T08:06:21.504Z</time></trkpt><trkpt lat="45.4351367" lon="8.8295567"><ele>112.0</ele><time>2026-04-26T08:06:24.503Z</time></trkpt><trkpt lat="45.4351833" lon="8.829465"><ele>112.0</ele><time>2026-04-26T08:06:27.504Z</time></trkpt><trkpt lat="45.4352333" lon="8.829355"><ele>112.0</ele><time>2026-04-26T08:06:31.504Z</time></trkpt><trkpt lat="45.4352933" lon="8.8292867"><ele>112.0</ele><time>2026-04-26T08:06:34.503Z</time></trkpt><trkpt lat="45.4353517" lon="8.8292317"><ele>112.0</ele><time>2026-04-26T08:06:36.503Z</time></trkpt><trkpt lat="45.4354" lon="8.829165"><ele>112.0</ele><time>2026-04-26T08:06:38.503Z</time></trkpt><trkpt lat="45.4354517" lon="8.8291133"><ele>112.0</ele><time>2026-04-26T08:06:40.504Z</time></trkpt><trkpt lat="45.43551" lon="8.8290767"><ele>112.0</ele><time>2026-04-26T08:06:42.503Z</time></trkpt><trkpt lat="45.4355833" lon="8.8290283"><ele>112.6</ele><time>2026-04-26T08:06:44.504Z</time></trkpt><trkpt lat="45.435645" lon="8.8289683"><ele>113.19999999999999</ele><time>2026-04-26T08:06:46.504Z</time></trkpt><trkpt lat="45.4357183" lon="8.8288933"><ele>113.8</ele><time>2026-04-26T08:06:48.504Z</time></trkpt><trkpt lat="45.43579" lon="8.8288317"><ele>114.4</ele><time>2026-04-26T08:06:50.503Z</time></trkpt><trkpt lat="45.4358817" lon="8.82877"><ele>115.0</ele><time>2026-04-26T08:06:52.503Z</time></trkpt><trkpt lat="45.4359833" lon="8.828705"><ele>115.0</ele><time>2026-04-26T08:06:54.503Z</time></trkpt><trkpt lat="45.43608" lon="8.82866"><ele>115.0</ele><time>2026-04-26T08:06:56.503Z</time></trkpt><trkpt lat="45.4361767" lon="8.8286083"><ele>115.0</ele><time>2026-04-26T08:06:58.504Z</time></trkpt><trkpt lat="45.436255" lon="8.8285367"><ele>115.0</ele><time>2026-04-26T08:07:00.504Z</time></trkpt><trkpt lat="45.4363317" lon="8.8284617"><ele>115.0</ele><time>2026-04-26T08:07:02.504Z</time></trkpt><trkpt lat="45.4363983" lon="8.82839"><ele>115.16666666666667</ele><time>2026-04-26T08:07:04.503Z</time></trkpt><trkpt lat="45.4364683" lon="8.828345"><ele>115.33333333333334</ele><time>2026-04-26T08:07:06.504Z</time></trkpt><trkpt lat="45.436545" lon="8.828285"><ele>115.5</ele><time>2026-04-26T08:07:08.503Z</time></trkpt><trkpt lat="45.4366267" lon="8.8282333"><ele>115.66666666666666</ele><time>2026-04-26T08:07:10.504Z</time></trkpt><trkpt lat="45.4366883" lon="8.828185"><ele>115.83333333333333</ele><time>2026-04-26T08:07:12.504Z</time></trkpt><trkpt lat="45.4367667" lon="8.8281117"><ele>116.0</ele><time>2026-04-26T08:07:14.503Z</time></trkpt><trkpt lat="45.4368483" lon="8.82806"><ele>115.99999999999999</ele><time>2026-04-26T08:07:16.503Z</time></trkpt><trkpt lat="45.4369133" lon="8.8280133"><ele>116.0</ele><time>2026-04-26T08:07:18.504Z</time></trkpt><trkpt lat="45.436985" lon="8.82795"><ele>116.0</ele><time>2026-04-26T08:07:20.504Z</time></trkpt><trkpt lat="45.4370683" lon="8.8278967"><ele>116.0</ele><time>2026-04-26T08:07:22.504Z</time></trkpt><trkpt lat="45.4371533" lon="8.82784"><ele>115.99999999999999</ele><time>2026-04-26T08:07:24.503Z</time></trkpt><trkpt lat="45.4372283" lon="8.8277983"><ele>116.0</ele><time>2026-04-26T08:07:26.503Z</time></trkpt><trkpt lat="45.4373067" lon="8.8277233"><ele>116.0</ele><time>2026-04-26T08:07:28.504Z</time></trkpt><trkpt lat="45.437395" lon="8.82765"><ele>116.0</ele><time>2026-04-26T08:07:30.503Z</time></trkpt><trkpt lat="45.4374783" lon="8.827585"><ele>116.0</ele><time>2026-04-26T08:07:32.502Z</time></trkpt><trkpt lat="45.437565" lon="8.8275267"><ele>116.0</ele><time>2026-04-26T08:07:34.502Z</time></trkpt><trkpt lat="45.43764" lon="8.8274733"><ele>116.0</ele><time>2026-04-26T08:07:36.502Z</time></trkpt><trkpt lat="45.4377183" lon="8.8274033"><ele>115.8</ele><time>2026-04-26T08:07:38.503Z</time></trkpt><trkpt lat="45.4378033" lon="8.8273467"><ele>115.6</ele><time>2026-04-26T08:07:40.503Z</time></trkpt><trkpt lat="45.4378783" lon="8.8272933"><ele>115.4</ele><time>2026-04-26T08:07:42.502Z</time></trkpt><trkpt lat="45.4379533" lon="8.827235"><ele>115.2</ele><time>2026-04-26T08:07:44.503Z</time></trkpt><trkpt lat="45.4380333" lon="8.8271667"><ele>115.0</ele><time>2026-04-26T08:07:46.503Z</time></trkpt><trkpt lat="45.4381183" lon="8.827105"><ele>114.8</ele><time>2026-04-26T08:07:48.503Z</time></trkpt><trkpt lat="45.43821" lon="8.8270383"><ele>114.6</ele><time>2026-04-26T08:07:50.502Z</time></trkpt><trkpt lat="45.4382867" lon="8.826975"><ele>114.4</ele><time>2026-04-26T08:07:52.502Z</time></trkpt><trkpt lat="45.4383633" lon="8.8269217"><ele>114.2</ele><time>2026-04-26T08:07:54.502Z</time></trkpt><trkpt lat="45.43844" lon="8.8268417"><ele>114.0</ele><time>2026-04-26T08:07:56.503Z</time></trkpt><trkpt lat="45.4385283" lon="8.8267767"><ele>114.0</ele><time>2026-04-26T08:07:58.502Z</time></trkpt><trkpt lat="45.4386083" lon="8.82672"><ele>114.0</ele><time>2026-04-26T08:08:00.502Z</time></trkpt><trkpt lat="45.438685" lon="8.826665"><ele>114.0</ele><time>2026-04-26T08:08:02.503Z</time></trkpt><trkpt lat="45.438765" lon="8.8266183"><ele>114.0</ele><time>2026-04-26T08:08:04.503Z</time></trkpt><trkpt lat="45.4388333" lon="8.826555"><ele>114.0</ele><time>2026-04-26T08:08:06.503Z</time></trkpt><trkpt lat="45.4389017" lon="8.8264933"><ele>114.0</ele><time>2026-04-26T08:08:08.502Z</time></trkpt><trkpt lat="45.43898" lon="8.8264083"><ele>114.4</ele><time>2026-04-26T08:08:10.502Z</time></trkpt><trkpt lat="45.439055" lon="8.8263517"><ele>114.80000000000001</ele><time>2026-04-26T08:08:12.502Z</time></trkpt><trkpt lat="45.4391467" lon="8.8262917"><ele>115.19999999999999</ele><time>2026-04-26T08:08:14.502Z</time></trkpt><trkpt lat="45.4392283" lon="8.8262317"><ele>115.6</ele><time>2026-04-26T08:08:16.503Z</time></trkpt><trkpt lat="45.43931" lon="8.8261867"><ele>116.0</ele><time>2026-04-26T08:08:18.502Z</time></trkpt><trkpt lat="45.4393967" lon="8.8261283"><ele>116.0</ele><time>2026-04-26T08:08:20.503Z</time></trkpt><trkpt lat="45.43948" lon="8.8260733"><ele>116.0</ele><time>2026-04-26T08:08:22.503Z</time></trkpt><trkpt lat="45.43956" lon="8.826015"><ele>116.0</ele><time>2026-04-26T08:08:24.502Z</time></trkpt><trkpt lat="45.4396567" lon="8.82593"><ele>116.0</ele><time>2026-04-26T08:08:26.502Z</time></trkpt><trkpt lat="45.439755" lon="8.8258483"><ele>116.0</ele><time>2026-04-26T08:08:28.502Z</time></trkpt><trkpt lat="45.439845" lon="8.825775"><ele>116.49999999999999</ele><time>2026-04-26T08:08:30.503Z</time></trkpt><trkpt lat="45.43991" lon="8.8257267"><ele>117.0</ele><time>2026-04-26T08:08:32.503Z</time></trkpt><trkpt lat="45.43998" lon="8.825665"><ele>117.5</ele><time>2026-04-26T08:08:34.503Z</time></trkpt><trkpt lat="45.4400683" lon="8.8256"><ele>118.0</ele><time>2026-04-26T08:08:37.503Z</time></trkpt><trkpt lat="45.4401483" lon="8.8255433"><ele>118.49999999999999</ele><time>2026-04-26T08:08:39.502Z</time></trkpt><trkpt lat="45.4402383" lon="8.8254817"><ele>119.0</ele><time>2026-04-26T08:08:41.502Z</time></trkpt><trkpt lat="45.4403333" lon="8.8254167"><ele>119.0</ele><time>2026-04-26T08:08:43.502Z</time></trkpt><trkpt lat="45.4404233" lon="8.825355"><ele>119.0</ele><time>2026-04-26T08:08:45.503Z</time></trkpt><trkpt lat="45.4405083" lon="8.8252883"><ele>119.0</ele><time>2026-04-26T08:08:47.503Z</time></trkpt><trkpt lat="45.440605" lon="8.8252133"><ele>119.0</ele><time>2026-04-26T08:08:49.502Z</time></trkpt><trkpt lat="45.4406867" lon="8.8251533"><ele>119.0</ele><time>2026-04-26T08:08:51.502Z</time></trkpt><trkpt lat="45.44076" lon="8.8250867"><ele>118.0</ele><time>2026-04-26T08:08:53.503Z</time></trkpt><trkpt lat="45.44083" lon="8.8250167"><ele>117.0</ele><time>2026-04-26T08:08:55.503Z</time></trkpt><trkpt lat="45.4408917" lon="8.824945"><ele>116.0</ele><time>2026-04-26T08:08:57.503Z</time></trkpt><trkpt lat="45.4409733" lon="8.8248567"><ele>115.0</ele><time>2026-04-26T08:08:59.502Z</time></trkpt><trkpt lat="45.4410733" lon="8.8247633"><ele>114.0</ele><time>2026-04-26T08:09:01.502Z</time></trkpt><trkpt lat="45.44117" lon="8.8246917"><ele>114.0</ele><time>2026-04-26T08:09:03.503Z</time></trkpt><trkpt lat="45.44127" lon="8.82464"><ele>114.0</ele><time>2026-04-26T08:09:05.503Z</time></trkpt><trkpt lat="45.4413567" lon="8.8245883"><ele>114.0</ele><time>2026-04-26T08:09:07.502Z</time></trkpt><trkpt lat="45.44144" lon="8.82454"><ele>114.0</ele><time>2026-04-26T08:09:09.502Z</time></trkpt><trkpt lat="45.44153" lon="8.8244667"><ele>114.0</ele><time>2026-04-26T08:09:11.503Z</time></trkpt><trkpt lat="45.4416117" lon="8.82441"><ele>113.0</ele><time>2026-04-26T08:09:13.502Z</time></trkpt><trkpt lat="45.4417033" lon="8.824375"><ele>112.0</ele><time>2026-04-26T08:09:15.503Z</time></trkpt><trkpt lat="45.4417933" lon="8.8243417"><ele>111.0</ele><time>2026-04-26T08:09:17.502Z</time></trkpt><trkpt lat="45.4418817" lon="8.8242883"><ele>110.0</ele><time>2026-04-26T08:09:19.503Z</time></trkpt><trkpt lat="45.4419667" lon="8.8242483"><ele>109.0</ele><time>2026-04-26T08:09:21.502Z</time></trkpt><trkpt lat="45.442055" lon="8.8242033"><ele>109.0</ele><time>2026-04-26T08:09:23.502Z</time></trkpt><trkpt lat="45.4421433" lon="8.824155"><ele>109.0</ele><time>2026-04-26T08:09:25.503Z</time></trkpt><trkpt lat="45.4422267" lon="8.8241333"><ele>109.0</ele><time>2026-04-26T08:09:27.502Z</time></trkpt><trkpt lat="45.4423267" lon="8.8240883"><ele>109.0</ele><time>2026-04-26T08:09:29.502Z</time></trkpt><trkpt lat="45.4424067" lon="8.8240517"><ele>109.0</ele><time>2026-04-26T08:09:31.503Z</time></trkpt><trkpt lat="45.4425017" lon="8.8240183"><ele>109.00000000000001</ele><time>2026-04-26T08:09:33.502Z</time></trkpt><trkpt lat="45.4425917" lon="8.823985"><ele>109.0</ele><time>2026-04-26T08:09:35.503Z</time></trkpt><trkpt lat="45.44268" lon="8.82394"><ele>109.0</ele><time>2026-04-26T08:09:37.502Z</time></trkpt><trkpt lat="45.44277" lon="8.8239033"><ele>109.0</ele><time>2026-04-26T08:09:39.503Z</time></trkpt><trkpt lat="45.44285" lon="8.8238717"><ele>109.00000000000001</ele><time>2026-04-26T08:09:41.502Z</time></trkpt><trkpt lat="45.44293" lon="8.8238633"><ele>109.0</ele><time>2026-04-26T08:09:43.503Z</time></trkpt><trkpt lat="45.4430167" lon="8.823835"><ele>109.2</ele><time>2026-04-26T08:09:45.502Z</time></trkpt><trkpt lat="45.4431033" lon="8.8238"><ele>109.4</ele><time>2026-04-26T08:09:47.502Z</time></trkpt><trkpt lat="45.443195" lon="8.82375"><ele>109.6</ele><time>2026-04-26T08:09:49.503Z</time></trkpt><trkpt lat="45.4432867" lon="8.8237183"><ele>109.8</ele><time>2026-04-26T08:09:51.502Z</time></trkpt><trkpt lat="45.4433583" lon="8.8236367"><ele>110.0</ele><time>2026-04-26T08:09:53.503Z</time></trkpt><trkpt lat="45.4434133" lon="8.82353"><ele>110.0</ele><time>2026-04-26T08:09:55.503Z</time></trkpt><trkpt lat="45.443445" lon="8.823425"><ele>110.0</ele><time>2026-04-26T08:09:57.502Z</time></trkpt><trkpt lat="45.443475" lon="8.8232967"><ele>110.0</ele><time>2026-04-26T08:09:59.502Z</time></trkpt><trkpt lat="45.4435" lon="8.823175"><ele>110.0</ele><time>2026-04-26T08:10:01.502Z</time></trkpt><trkpt lat="45.4435333" lon="8.8230533"><ele>110.0</ele><time>2026-04-26T08:10:03.503Z</time></trkpt><trkpt lat="45.4435717" lon="8.822925"><ele>110.0</ele><time>2026-04-26T08:10:05.503Z</time></trkpt><trkpt lat="45.4436017" lon="8.8228067"><ele>110.0</ele><time>2026-04-26T08:10:07.502Z</time></trkpt><trkpt lat="45.44364" lon="8.8226833"><ele>110.0</ele><time>2026-04-26T08:10:09.502Z</time></trkpt><trkpt lat="45.44368" lon="8.8225583"><ele>110.0</ele><time>2026-04-26T08:10:11.503Z</time></trkpt><trkpt lat="45.4437133" lon="8.8224217"><ele>110.0</ele><time>2026-04-26T08:10:13.502Z</time></trkpt><trkpt lat="45.443755" lon="8.8223083"><ele>109.99999999999999</ele><time>2026-04-26T08:10:15.502Z</time></trkpt><trkpt lat="45.4437917" lon="8.82219"><ele>110.0</ele><time>2026-04-26T08:10:17.502Z</time></trkpt><trkpt lat="45.4438117" lon="8.82207"><ele>110.0</ele><time>2026-04-26T08:10:19.502Z</time></trkpt><trkpt lat="45.4438333" lon="8.8219517"><ele>110.0</ele><time>2026-04-26T08:10:21.503Z</time></trkpt><trkpt lat="45.4438733" lon="8.8218467"><ele>109.99999999999999</ele><time>2026-04-26T08:10:23.502Z</time></trkpt><trkpt lat="45.4439" lon="8.82173"><ele>110.0</ele><time>2026-04-26T08:10:25.502Z</time></trkpt><trkpt lat="45.443925" lon="8.82161"><ele>110.2</ele><time>2026-04-26T08:10:27.502Z</time></trkpt><trkpt lat="45.4439567" lon="8.8214983"><ele>110.4</ele><time>2026-04-26T08:10:29.503Z</time></trkpt><trkpt lat="45.4439967" lon="8.8213783"><ele>110.6</ele><time>2026-04-26T08:10:31.503Z</time></trkpt><trkpt lat="45.4440467" lon="8.8212433"><ele>110.8</ele><time>2026-04-26T08:10:33.502Z</time></trkpt><trkpt lat="45.4441" lon="8.8211017"><ele>111.0</ele><time>2026-04-26T08:10:35.502Z</time></trkpt><trkpt lat="45.444145" lon="8.82096"><ele>111.8</ele><time>2026-04-26T08:10:37.503Z</time></trkpt><trkpt lat="45.4441967" lon="8.8208367"><ele>112.6</ele><time>2026-04-26T08:10:39.503Z</time></trkpt><trkpt lat="45.4442433" lon="8.8207"><ele>113.4</ele><time>2026-04-26T08:10:41.503Z</time></trkpt><trkpt lat="45.44429" lon="8.8205633"><ele>114.2</ele><time>2026-04-26T08:10:43.502Z</time></trkpt><trkpt lat="45.444325" lon="8.8204533"><ele>115.0</ele><time>2026-04-26T08:10:45.503Z</time></trkpt><trkpt lat="45.4443633" lon="8.820325"><ele>115.00000000000001</ele><time>2026-04-26T08:10:47.503Z</time></trkpt><trkpt lat="45.4443967" lon="8.8201883"><ele>115.0</ele><time>2026-04-26T08:10:49.502Z</time></trkpt><trkpt lat="45.44441" lon="8.8200567"><ele>115.0</ele><time>2026-04-26T08:10:51.502Z</time></trkpt><trkpt lat="45.4444283" lon="8.81996"><ele>115.0</ele><time>2026-04-26T08:10:53.503Z</time></trkpt><trkpt lat="45.4444567" lon="8.8198517"><ele>115.00000000000001</ele><time>2026-04-26T08:10:55.503Z</time></trkpt><trkpt lat="45.4445067" lon="8.8197267"><ele>115.0</ele><time>2026-04-26T08:10:57.503Z</time></trkpt><trkpt lat="45.444585" lon="8.8196117"><ele>115.0</ele><time>2026-04-26T08:10:59.503Z</time></trkpt><trkpt lat="45.4446917" lon="8.8195017"><ele>115.0</ele><time>2026-04-26T08:11:01.503Z</time></trkpt><trkpt lat="45.444785" lon="8.8194083"><ele>115.0</ele><time>2026-04-26T08:11:03.503Z</time></trkpt><trkpt lat="45.4448733" lon="8.8193333"><ele>115.0</ele><time>2026-04-26T08:11:05.503Z</time></trkpt><trkpt lat="45.4449617" lon="8.8192833"><ele>115.0</ele><time>2026-04-26T08:11:07.503Z</time></trkpt><trkpt lat="45.4450533" lon="8.81922"><ele>114.4</ele><time>2026-04-26T08:11:09.502Z</time></trkpt><trkpt lat="45.44515" lon="8.81915"><ele>113.8</ele><time>2026-04-26T08:11:11.503Z</time></trkpt><trkpt lat="45.4452367" lon="8.8190733"><ele>113.19999999999999</ele><time>2026-04-26T08:11:13.503Z</time></trkpt><trkpt lat="45.4453233" lon="8.8190067"><ele>112.6</ele><time>2026-04-26T08:11:15.503Z</time></trkpt><trkpt lat="45.445415" lon="8.818935"><ele>112.0</ele><time>2026-04-26T08:11:17.503Z</time></trkpt><trkpt lat="45.4455017" lon="8.8188733"><ele>111.19999999999999</ele><time>2026-04-26T08:11:19.502Z</time></trkpt><trkpt lat="45.445585" lon="8.8188133"><ele>110.39999999999999</ele><time>2026-04-26T08:11:21.502Z</time></trkpt><trkpt lat="45.4456633" lon="8.8187367"><ele>109.60000000000001</ele><time>2026-04-26T08:11:23.502Z</time></trkpt><trkpt lat="45.4457417" lon="8.8186733"><ele>108.80000000000001</ele><time>2026-04-26T08:11:25.502Z</time></trkpt><trkpt lat="45.445825" lon="8.8186033"><ele>108.0</ele><time>2026-04-26T08:11:27.502Z</time></trkpt><trkpt lat="45.4459033" lon="8.8185367"><ele>107.80000000000001</ele><time>2026-04-26T08:11:29.502Z</time></trkpt><trkpt lat="45.44599" lon="8.8184717"><ele>107.60000000000001</ele><time>2026-04-26T08:11:31.502Z</time></trkpt><trkpt lat="45.44606" lon="8.8184033"><ele>107.39999999999999</ele><time>2026-04-26T08:11:33.502Z</time></trkpt><trkpt lat="45.4461417" lon="8.818325"><ele>107.19999999999999</ele><time>2026-04-26T08:11:35.503Z</time></trkpt><trkpt lat="45.44622" lon="8.8182683"><ele>107.0</ele><time>2026-04-26T08:11:37.502Z</time></trkpt><trkpt lat="45.446295" lon="8.81821"><ele>107.33333333333333</ele><time>2026-04-26T08:11:39.503Z</time></trkpt><trkpt lat="45.44636" lon="8.81815"><ele>107.66666666666666</ele><time>2026-04-26T08:11:41.503Z</time></trkpt><trkpt lat="45.4464483" lon="8.818095"><ele>108.0</ele><time>2026-04-26T08:11:43.503Z</time></trkpt><trkpt lat="45.446525" lon="8.81803"><ele>108.33333333333334</ele><time>2026-04-26T08:11:45.503Z</time></trkpt><trkpt lat="45.4466017" lon="8.81797"><ele>108.66666666666667</ele><time>2026-04-26T08:11:47.503Z</time></trkpt><trkpt lat="45.446675" lon="8.81791"><ele>109.0</ele><time>2026-04-26T08:11:49.502Z</time></trkpt><trkpt lat="45.44675" lon="8.8178483"><ele>109.00000000000001</ele><time>2026-04-26T08:11:51.502Z</time></trkpt><trkpt lat="45.4468233" lon="8.81779"><ele>109.0</ele><time>2026-04-26T08:11:53.503Z</time></trkpt><trkpt lat="45.4468833" lon="8.817745"><ele>109.0</ele><time>2026-04-26T08:11:55.502Z</time></trkpt><trkpt lat="45.4469583" lon="8.8176783"><ele>109.0</ele><time>2026-04-26T08:11:57.503Z</time></trkpt><trkpt lat="45.4470467" lon="8.8176233"><ele>109.00000000000001</ele><time>2026-04-26T08:11:59.502Z</time></trkpt><trkpt lat="45.4471167" lon="8.8175767"><ele>109.0</ele><time>2026-04-26T08:12:01.503Z</time></trkpt><trkpt lat="45.447195" lon="8.81752"><ele>108.83333333333334</ele><time>2026-04-26T08:12:03.503Z</time></trkpt><trkpt lat="45.44727" lon="8.8174417"><ele>108.66666666666667</ele><time>2026-04-26T08:12:05.502Z</time></trkpt><trkpt lat="45.447335" lon="8.8173783"><ele>108.5</ele><time>2026-04-26T08:12:07.502Z</time></trkpt><trkpt lat="45.447405" lon="8.8173267"><ele>108.33333333333334</ele><time>2026-04-26T08:12:09.503Z</time></trkpt><trkpt lat="45.44748" lon="8.81727"><ele>108.16666666666667</ele><time>2026-04-26T08:12:11.502Z</time></trkpt><trkpt lat="45.4475567" lon="8.8172067"><ele>108.0</ele><time>2026-04-26T08:12:13.503Z</time></trkpt><trkpt lat="45.447635" lon="8.8171333"><ele>108.0</ele><time>2026-04-26T08:12:15.503Z</time></trkpt><trkpt lat="45.4477117" lon="8.8170833"><ele>108.0</ele><time>2026-04-26T08:12:17.503Z</time></trkpt><trkpt lat="45.447795" lon="8.8170217"><ele>108.0</ele><time>2026-04-26T08:12:19.503Z</time></trkpt><trkpt lat="45.4478667" lon="8.81695"><ele>108.0</ele><time>2026-04-26T08:12:21.502Z</time></trkpt><trkpt lat="45.4479483" lon="8.8169017"><ele>108.0</ele><time>2026-04-26T08:12:23.503Z</time></trkpt><trkpt lat="45.44802" lon="8.81684"><ele>108.0</ele><time>2026-04-26T08:12:25.502Z</time></trkpt><trkpt lat="45.4480883" lon="8.816785"><ele>108.4</ele><time>2026-04-26T08:12:27.503Z</time></trkpt><trkpt lat="45.4481667" lon="8.8167317"><ele>108.80000000000001</ele><time>2026-04-26T08:12:29.503Z</time></trkpt><trkpt lat="45.44824" lon="8.8166817"><ele>109.2</ele><time>2026-04-26T08:12:31.502Z</time></trkpt><trkpt lat="45.4483133" lon="8.8166217"><ele>109.6</ele><time>2026-04-26T08:12:33.503Z</time></trkpt><trkpt lat="45.448405" lon="8.8165483"><ele>110.0</ele><time>2026-04-26T08:12:35.502Z</time></trkpt><trkpt lat="45.4484917" lon="8.8164783"><ele>109.99999999999999</ele><time>2026-04-26T08:12:37.502Z</time></trkpt><trkpt lat="45.44856" lon="8.816425"><ele>110.0</ele><time>2026-04-26T08:12:39.502Z</time></trkpt><trkpt lat="45.4486433" lon="8.816375"><ele>110.0</ele><time>2026-04-26T08:12:41.503Z</time></trkpt><trkpt lat="45.4487233" lon="8.81632"><ele>110.0</ele><time>2026-04-26T08:12:43.502Z</time></trkpt><trkpt lat="45.4487967" lon="8.816255"><ele>109.99999999999999</ele><time>2026-04-26T08:12:45.502Z</time></trkpt><trkpt lat="45.44888" lon="8.816195"><ele>110.0</ele><time>2026-04-26T08:12:47.502Z</time></trkpt><trkpt lat="45.4489583" lon="8.8161317"><ele>110.0</ele><time>2026-04-26T08:12:49.503Z</time></trkpt><trkpt lat="45.449035" lon="8.8160767"><ele>110.0</ele><time>2026-04-26T08:12:51.503Z</time></trkpt><trkpt lat="45.4491133" lon="8.8160167"><ele>110.0</ele><time>2026-04-26T08:12:53.502Z</time></trkpt><trkpt lat="45.4491933" lon="8.81595"><ele>110.0</ele><time>2026-04-26T08:12:55.502Z</time></trkpt><trkpt lat="45.4492733" lon="8.8158867"><ele>110.0</ele><time>2026-04-26T08:12:57.502Z</time></trkpt><trkpt lat="45.4493517" lon="8.81581"><ele>110.0</ele><time>2026-04-26T08:12:59.502Z</time></trkpt><trkpt lat="45.449435" lon="8.8157417"><ele>110.0</ele><time>2026-04-26T08:13:01.502Z</time></trkpt><trkpt lat="45.4495133" lon="8.8156783"><ele>110.0</ele><time>2026-04-26T08:13:03.502Z</time></trkpt><trkpt lat="45.449605" lon="8.8156283"><ele>110.0</ele><time>2026-04-26T08:13:05.502Z</time></trkpt><trkpt lat="45.4496917" lon="8.81556"><ele>110.0</ele><time>2026-04-26T08:13:07.503Z</time></trkpt><trkpt lat="45.449765" lon="8.8154983"><ele>109.99999999999999</ele><time>2026-04-26T08:13:09.503Z</time></trkpt><trkpt lat="45.4498367" lon="8.815425"><ele>110.0</ele><time>2026-04-26T08:13:11.502Z</time></trkpt><trkpt lat="45.44991" lon="8.8153717"><ele>110.0</ele><time>2026-04-26T08:13:13.503Z</time></trkpt><trkpt lat="45.4499833" lon="8.8153083"><ele>110.0</ele><time>2026-04-26T08:13:15.503Z</time></trkpt><trkpt lat="45.4500533" lon="8.8152517"><ele>109.99999999999999</ele><time>2026-04-26T08:13:17.502Z</time></trkpt><trkpt lat="45.4501317" lon="8.8151967"><ele>110.0</ele><time>2026-04-26T08:13:19.503Z</time></trkpt><trkpt lat="45.4502133" lon="8.8151583"><ele>109.83333333333333</ele><time>2026-04-26T08:13:21.503Z</time></trkpt><trkpt lat="45.45028" lon="8.8151017"><ele>109.66666666666666</ele><time>2026-04-26T08:13:23.502Z</time></trkpt><trkpt lat="45.4503467" lon="8.815025"><ele>109.5</ele><time>2026-04-26T08:13:25.503Z</time></trkpt><trkpt lat="45.4504" lon="8.8149283"><ele>109.33333333333334</ele><time>2026-04-26T08:13:27.502Z</time></trkpt><trkpt lat="45.450415" lon="8.8148283"><ele>109.16666666666667</ele><time>2026-04-26T08:13:29.502Z</time></trkpt><trkpt lat="45.4503667" lon="8.8147217"><ele>109.0</ele><time>2026-04-26T08:13:32.502Z</time></trkpt><trkpt lat="45.450305" lon="8.8146533"><ele>109.00000000000001</ele><time>2026-04-26T08:13:34.502Z</time></trkpt><trkpt lat="45.450255" lon="8.814565"><ele>109.0</ele><time>2026-04-26T08:13:36.502Z</time></trkpt><trkpt lat="45.4502017" lon="8.814475"><ele>109.0</ele><time>2026-04-26T08:13:38.503Z</time></trkpt><trkpt lat="45.450145" lon="8.814385"><ele>109.0</ele><time>2026-04-26T08:13:40.502Z</time></trkpt><trkpt lat="45.450085" lon="8.8142883"><ele>109.00000000000001</ele><time>2026-04-26T08:13:42.503Z</time></trkpt><trkpt lat="45.4500283" lon="8.814185"><ele>109.0</ele><time>2026-04-26T08:13:44.502Z</time></trkpt><trkpt lat="45.4499717" lon="8.8141033"><ele>109.00000000000001</ele><time>2026-04-26T08:13:46.503Z</time></trkpt><trkpt lat="45.449915" lon="8.8140117"><ele>109.0</ele><time>2026-04-26T08:13:48.502Z</time></trkpt><trkpt lat="45.4498567" lon="8.8139183"><ele>109.0</ele><time>2026-04-26T08:13:50.503Z</time></trkpt><trkpt lat="45.4497967" lon="8.8138383"><ele>109.0</ele><time>2026-04-26T08:13:52.502Z</time></trkpt><trkpt lat="45.449725" lon="8.8137383"><ele>109.00000000000001</ele><time>2026-04-26T08:13:54.502Z</time></trkpt><trkpt lat="45.4496683" lon="8.8136417"><ele>109.0</ele><time>2026-04-26T08:13:56.502Z</time></trkpt><trkpt lat="45.4496167" lon="8.8135483"><ele>109.16666666666667</ele><time>2026-04-26T08:13:58.503Z</time></trkpt><trkpt lat="45.4495633" lon="8.8134633"><ele>109.33333333333334</ele><time>2026-04-26T08:14:00.503Z</time></trkpt><trkpt lat="45.4495133" lon="8.8133767"><ele>109.5</ele><time>2026-04-26T08:14:02.503Z</time></trkpt><trkpt lat="45.44945" lon="8.8132967"><ele>109.66666666666666</ele><time>2026-04-26T08:14:04.502Z</time></trkpt><trkpt lat="45.449385" lon="8.8132117"><ele>109.83333333333333</ele><time>2026-04-26T08:14:06.502Z</time></trkpt><trkpt lat="45.449325" lon="8.8131033"><ele>110.0</ele><time>2026-04-26T08:14:08.503Z</time></trkpt><trkpt lat="45.4492417" lon="8.8130117"><ele>109.99999999999999</ele><time>2026-04-26T08:14:10.502Z</time></trkpt><trkpt lat="45.4491517" lon="8.81296"><ele>110.0</ele><time>2026-04-26T08:14:12.502Z</time></trkpt><trkpt lat="45.4490733" lon="8.8129033"><ele>110.0</ele><time>2026-04-26T08:14:14.503Z</time></trkpt><trkpt lat="45.4490133" lon="8.81282"><ele>110.0</ele><time>2026-04-26T08:14:16.503Z</time></trkpt><trkpt lat="45.4489417" lon="8.81273"><ele>109.99999999999999</ele><time>2026-04-26T08:14:18.502Z</time></trkpt><trkpt lat="45.4488733" lon="8.8126583"><ele>110.0</ele><time>2026-04-26T08:14:20.503Z</time></trkpt><trkpt lat="45.44879" lon="8.8125667"><ele>109.4</ele><time>2026-04-26T08:14:22.502Z</time></trkpt><trkpt lat="45.44871" lon="8.8124817"><ele>108.8</ele><time>2026-04-26T08:14:24.503Z</time></trkpt><trkpt lat="45.448635" lon="8.8123867"><ele>108.19999999999999</ele><time>2026-04-26T08:14:26.502Z</time></trkpt><trkpt lat="45.4485617" lon="8.8123033"><ele>107.6</ele><time>2026-04-26T08:14:28.502Z</time></trkpt><trkpt lat="45.4484767" lon="8.8122233"><ele>107.0</ele><time>2026-04-26T08:14:30.503Z</time></trkpt><trkpt lat="45.448405" lon="8.8121417"><ele>106.99999999999999</ele><time>2026-04-26T08:14:32.503Z</time></trkpt><trkpt lat="45.4483467" lon="8.8120717"><ele>107.0</ele><time>2026-04-26T08:14:34.502Z</time></trkpt><trkpt lat="45.4482833" lon="8.8119767"><ele>107.0</ele><time>2026-04-26T08:14:36.502Z</time></trkpt><trkpt lat="45.44821" lon="8.811895"><ele>107.0</ele><time>2026-04-26T08:14:38.502Z</time></trkpt><trkpt lat="45.44813" lon="8.8118283"><ele>106.99999999999999</ele><time>2026-04-26T08:14:40.502Z</time></trkpt><trkpt lat="45.448055" lon="8.811755"><ele>107.0</ele><time>2026-04-26T08:14:42.502Z</time></trkpt><trkpt lat="45.4479817" lon="8.81166"><ele>107.19999999999999</ele><time>2026-04-26T08:14:44.502Z</time></trkpt><trkpt lat="45.4479083" lon="8.81157"><ele>107.39999999999999</ele><time>2026-04-26T08:14:46.503Z</time></trkpt><trkpt lat="45.44782" lon="8.8115183"><ele>107.60000000000001</ele><time>2026-04-26T08:14:48.502Z</time></trkpt><trkpt lat="45.4477417" lon="8.8114517"><ele>107.80000000000001</ele><time>2026-04-26T08:14:50.503Z</time></trkpt><trkpt lat="45.4476717" lon="8.8113817"><ele>108.0</ele><time>2026-04-26T08:14:52.502Z</time></trkpt><trkpt lat="45.447585" lon="8.8113033"><ele>108.0</ele><time>2026-04-26T08:14:54.503Z</time></trkpt><trkpt lat="45.4475083" lon="8.8112333"><ele>108.0</ele><time>2026-04-26T08:14:56.502Z</time></trkpt><trkpt lat="45.4474383" lon="8.8111567"><ele>108.0</ele><time>2026-04-26T08:14:58.502Z</time></trkpt><trkpt lat="45.4473633" lon="8.8110917"><ele>108.0</ele><time>2026-04-26T08:15:00.503Z</time></trkpt><trkpt lat="45.4473117" lon="8.811025"><ele>108.0</ele><time>2026-04-26T08:15:02.502Z</time></trkpt><trkpt lat="45.447285" lon="8.8109433"><ele>108.0</ele><time>2026-04-26T08:15:04.503Z</time></trkpt><trkpt lat="45.4472733" lon="8.810835"><ele>108.5</ele><time>2026-04-26T08:15:07.503Z</time></trkpt><trkpt lat="45.447275" lon="8.810725"><ele>109.0</ele><time>2026-04-26T08:15:10.503Z</time></trkpt><trkpt lat="45.4472667" lon="8.8106183"><ele>109.5</ele><time>2026-04-26T08:15:12.502Z</time></trkpt><trkpt lat="45.4472483" lon="8.8105067"><ele>110.0</ele><time>2026-04-26T08:15:14.503Z</time></trkpt><trkpt lat="45.44721" lon="8.8103733"><ele>110.5</ele><time>2026-04-26T08:15:16.502Z</time></trkpt><trkpt lat="45.4471983" lon="8.8102733"><ele>111.0</ele><time>2026-04-26T08:15:19.503Z</time></trkpt><trkpt lat="45.4471767" lon="8.8103733"><ele>111.0</ele><time>2026-04-26T08:16:04.501Z</time></trkpt><trkpt lat="45.44721" lon="8.810465"><ele>111.0</ele><time>2026-04-26T08:16:08.501Z</time></trkpt><trkpt lat="45.4472433" lon="8.8106083"><ele>111.0</ele><time>2026-04-26T08:16:16.501Z</time></trkpt><trkpt lat="45.4472617" lon="8.8107417"><ele>111.0</ele><time>2026-04-26T08:16:19.502Z</time></trkpt><trkpt lat="45.447275" lon="8.8108333"><ele>111.0</ele><time>2026-04-26T08:16:21.502Z</time></trkpt><trkpt lat="45.4473417" lon="8.810795"><ele>111.0</ele><time>2026-04-26T08:16:27.502Z</time></trkpt><trkpt lat="45.4473983" lon="8.8106883"><ele>111.0</ele><time>2026-04-26T08:16:30.501Z</time></trkpt><trkpt lat="45.4474267" lon="8.810605"><ele>111.0</ele><time>2026-04-26T08:16:32.501Z</time></trkpt><trkpt lat="45.4474617" lon="8.81049"><ele>111.0</ele><time>2026-04-26T08:16:35.501Z</time></trkpt><trkpt lat="45.447535" lon="8.81041"><ele>111.0</ele><time>2026-04-26T08:16:38.502Z</time></trkpt><trkpt lat="45.44762" lon="8.8103667"><ele>111.0</ele><time>2026-04-26T08:16:40.501Z</time></trkpt><trkpt lat="45.4476917" lon="8.8103567"><ele>111.0</ele><time>2026-04-26T08:16:42.501Z</time></trkpt><trkpt lat="45.4477533" lon="8.81033"><ele>111.0</ele><time>2026-04-26T08:16:44.501Z</time></trkpt><trkpt lat="45.4478333" lon="8.8102683"><ele>111.0</ele><time>2026-04-26T08:16:47.502Z</time></trkpt><trkpt lat="45.4479033" lon="8.8102117"><ele>111.0</ele><time>2026-04-26T08:16:50.502Z</time></trkpt><trkpt lat="45.4479633" lon="8.8101383"><ele>111.0</ele><time>2026-04-26T08:16:52.502Z</time></trkpt><trkpt lat="45.44804" lon="8.8101"><ele>111.0</ele><time>2026-04-26T08:16:54.501Z</time></trkpt><trkpt lat="45.4481067" lon="8.8100917"><ele>111.0</ele><time>2026-04-26T08:16:56.501Z</time></trkpt><trkpt lat="45.448125" lon="8.8099917"><ele>111.57142857142857</ele><time>2026-04-26T08:16:59.502Z</time></trkpt><trkpt lat="45.4480867" lon="8.8098867"><ele>112.14285714285714</ele><time>2026-04-26T08:17:03.501Z</time></trkpt><trkpt lat="45.4481017" lon="8.809795"><ele>112.71428571428571</ele><time>2026-04-26T08:17:05.501Z</time></trkpt><trkpt lat="45.4481317" lon="8.809715"><ele>113.28571428571428</ele><time>2026-04-26T08:17:08.501Z</time></trkpt><trkpt lat="45.448205" lon="8.809705"><ele>113.85714285714286</ele><time>2026-04-26T08:17:12.501Z</time></trkpt><trkpt lat="45.44828" lon="8.8096833"><ele>114.42857142857142</ele><time>2026-04-26T08:17:15.501Z</time></trkpt><trkpt lat="45.4483383" lon="8.8096317"><ele>114.99999999999999</ele><time>2026-04-26T08:17:17.501Z</time></trkpt><trkpt lat="45.448395" lon="8.8095483"><ele>115.00000000000001</ele><time>2026-04-26T08:17:20.501Z</time></trkpt><trkpt lat="45.4484467" lon="8.80948"><ele>115.0</ele><time>2026-04-26T08:17:23.502Z</time></trkpt><trkpt lat="45.4485333" lon="8.8094333"><ele>115.0</ele><time>2026-04-26T08:17:26.501Z</time></trkpt><trkpt lat="45.4485883" lon="8.8093767"><ele>115.0</ele><time>2026-04-26T08:17:29.502Z</time></trkpt><trkpt lat="45.4486517" lon="8.8093217"><ele>115.00000000000001</ele><time>2026-04-26T08:17:33.502Z</time></trkpt><trkpt lat="45.448755" lon="8.809195"><ele>115.0</ele><time>2026-04-26T08:17:46.502Z</time></trkpt><trkpt lat="45.4488183" lon="8.8091167"><ele>114.50000000000001</ele><time>2026-04-26T08:17:51.501Z</time></trkpt><trkpt lat="45.4487817" lon="8.8090283"><ele>114.0</ele><time>2026-04-26T08:17:56.502Z</time></trkpt><trkpt lat="45.4487733" lon="8.8089367"><ele>113.5</ele><time>2026-04-26T08:18:00.501Z</time></trkpt><trkpt lat="45.4488383" lon="8.8088117"><ele>113.0</ele><time>2026-04-26T08:18:20.501Z</time></trkpt><trkpt lat="45.4488983" lon="8.8087633"><ele>112.50000000000001</ele><time>2026-04-26T08:18:23.501Z</time></trkpt><trkpt lat="45.4489583" lon="8.80869"><ele>112.0</ele><time>2026-04-26T08:18:25.502Z</time></trkpt><trkpt lat="45.4490033" lon="8.80861"><ele>112.00000000000001</ele><time>2026-04-26T08:18:27.502Z</time></trkpt><trkpt lat="45.44905" lon="8.808535"><ele>112.0</ele><time>2026-04-26T08:18:29.501Z</time></trkpt><trkpt lat="45.4491117" lon="8.80846"><ele>112.0</ele><time>2026-04-26T08:18:31.501Z</time></trkpt><trkpt lat="45.4491667" lon="8.8083933"><ele>112.0</ele><time>2026-04-26T08:18:33.502Z</time></trkpt><trkpt lat="45.44923" lon="8.8083117"><ele>112.00000000000001</ele><time>2026-04-26T08:18:35.501Z</time></trkpt><trkpt lat="45.449285" lon="8.808235"><ele>112.0</ele><time>2026-04-26T08:18:37.502Z</time></trkpt><trkpt lat="45.44933" lon="8.8081567"><ele>111.85714285714286</ele><time>2026-04-26T08:18:39.501Z</time></trkpt><trkpt lat="45.4493733" lon="8.8080667"><ele>111.71428571428572</ele><time>2026-04-26T08:18:41.501Z</time></trkpt><trkpt lat="45.44943" lon="8.8079883"><ele>111.57142857142857</ele><time>2026-04-26T08:18:43.502Z</time></trkpt><trkpt lat="45.44948" lon="8.8079267"><ele>111.42857142857143</ele><time>2026-04-26T08:18:45.501Z</time></trkpt><trkpt lat="45.44952" lon="8.80784"><ele>111.28571428571429</ele><time>2026-04-26T08:18:47.502Z</time></trkpt><trkpt lat="45.4495717" lon="8.8077867"><ele>111.14285714285714</ele><time>2026-04-26T08:18:49.502Z</time></trkpt><trkpt lat="45.4496333" lon="8.80773"><ele>111.0</ele><time>2026-04-26T08:18:51.501Z</time></trkpt><trkpt lat="45.4496467" lon="8.80763"><ele>111.33333333333333</ele><time>2026-04-26T08:18:54.502Z</time></trkpt><trkpt lat="45.449655" lon="8.807515"><ele>111.66666666666666</ele><time>2026-04-26T08:18:57.502Z</time></trkpt><trkpt lat="45.44974" lon="8.807445"><ele>112.0</ele><time>2026-04-26T08:19:00.501Z</time></trkpt><trkpt lat="45.4498083" lon="8.8073967"><ele>112.33333333333333</ele><time>2026-04-26T08:19:02.501Z</time></trkpt><trkpt lat="45.44987" lon="8.8073633"><ele>112.66666666666666</ele><time>2026-04-26T08:19:04.502Z</time></trkpt><trkpt lat="45.4499483" lon="8.80732"><ele>113.0</ele><time>2026-04-26T08:19:06.501Z</time></trkpt><trkpt lat="45.450015" lon="8.80728"><ele>112.99999999999999</ele><time>2026-04-26T08:19:08.502Z</time></trkpt><trkpt lat="45.4500783" lon="8.8072233"><ele>113.0</ele><time>2026-04-26T08:19:10.501Z</time></trkpt><trkpt lat="45.45017" lon="8.807185"><ele>113.0</ele><time>2026-04-26T08:19:13.501Z</time></trkpt><trkpt lat="45.4502517" lon="8.80716"><ele>113.0</ele><time>2026-04-26T08:19:15.501Z</time></trkpt><trkpt lat="45.45032" lon="8.8071233"><ele>112.99999999999999</ele><time>2026-04-26T08:19:17.501Z</time></trkpt><trkpt lat="45.4503933" lon="8.8071033"><ele>113.0</ele><time>2026-04-26T08:19:19.502Z</time></trkpt><trkpt lat="45.450485" lon="8.8070533"><ele>113.33333333333333</ele><time>2026-04-26T08:19:22.501Z</time></trkpt><trkpt lat="45.4505783" lon="8.807005"><ele>113.66666666666666</ele><time>2026-04-26T08:19:24.501Z</time></trkpt><trkpt lat="45.45066" lon="8.8069683"><ele>114.0</ele><time>2026-04-26T08:19:26.501Z</time></trkpt><trkpt lat="45.450735" lon="8.806955"><ele>114.33333333333334</ele><time>2026-04-26T08:19:28.502Z</time></trkpt><trkpt lat="45.4508017" lon="8.8069433"><ele>114.66666666666667</ele><time>2026-04-26T08:19:30.502Z</time></trkpt><trkpt lat="45.4509" lon="8.8069467"><ele>115.0</ele><time>2026-04-26T08:19:32.501Z</time></trkpt><trkpt lat="45.4509583" lon="8.8069"><ele>115.00000000000001</ele><time>2026-04-26T08:19:34.501Z</time></trkpt><trkpt lat="45.4510133" lon="8.8068467"><ele>115.0</ele><time>2026-04-26T08:19:36.502Z</time></trkpt><trkpt lat="45.45108" lon="8.806885"><ele>115.0</ele><time>2026-04-26T08:19:41.501Z</time></trkpt><trkpt lat="45.4511267" lon="8.8069633"><ele>115.0</ele><time>2026-04-26T08:19:43.501Z</time></trkpt><trkpt lat="45.4511683" lon="8.8070633"><ele>115.00000000000001</ele><time>2026-04-26T08:19:45.501Z</time></trkpt><trkpt lat="45.4512167" lon="8.807165"><ele>115.0</ele><time>2026-04-26T08:19:47.501Z</time></trkpt><trkpt lat="45.4512633" lon="8.8072667"><ele>114.83333333333334</ele><time>2026-04-26T08:19:49.501Z</time></trkpt><trkpt lat="45.45132" lon="8.807375"><ele>114.66666666666667</ele><time>2026-04-26T08:19:51.502Z</time></trkpt><trkpt lat="45.4513817" lon="8.8074667"><ele>114.5</ele><time>2026-04-26T08:19:53.501Z</time></trkpt><trkpt lat="45.4514267" lon="8.807585"><ele>114.33333333333334</ele><time>2026-04-26T08:19:55.501Z</time></trkpt><trkpt lat="45.4514683" lon="8.80769"><ele>114.16666666666667</ele><time>2026-04-26T08:19:57.502Z</time></trkpt><trkpt lat="45.4515017" lon="8.8078017"><ele>114.0</ele><time>2026-04-26T08:20:00.502Z</time></trkpt><trkpt lat="45.45151" lon="8.807915"><ele>113.83333333333333</ele><time>2026-04-26T08:20:04.501Z</time></trkpt><trkpt lat="45.451575" lon="8.8079483"><ele>113.66666666666666</ele><time>2026-04-26T08:20:56.502Z</time></trkpt><trkpt lat="45.4516483" lon="8.8079183"><ele>113.5</ele><time>2026-04-26T08:20:59.501Z</time></trkpt><trkpt lat="45.4517483" lon="8.80791"><ele>113.33333333333333</ele><time>2026-04-26T08:21:02.502Z</time></trkpt><trkpt lat="45.45183" lon="8.807905"><ele>113.16666666666666</ele><time>2026-04-26T08:21:04.502Z</time></trkpt><trkpt lat="45.4518967" lon="8.80789"><ele>113.0</ele><time>2026-04-26T08:21:06.502Z</time></trkpt><trkpt lat="45.451975" lon="8.8078467"><ele>112.99999999999999</ele><time>2026-04-26T08:21:09.501Z</time></trkpt><trkpt lat="45.4520583" lon="8.8077933"><ele>113.0</ele><time>2026-04-26T08:21:12.501Z</time></trkpt><trkpt lat="45.45214" lon="8.8077267"><ele>113.0</ele><time>2026-04-26T08:21:15.502Z</time></trkpt><trkpt lat="45.4522033" lon="8.8076917"><ele>113.0</ele><time>2026-04-26T08:21:17.501Z</time></trkpt><trkpt lat="45.4522667" lon="8.80767"><ele>112.99999999999999</ele><time>2026-04-26T08:21:20.502Z</time></trkpt><trkpt lat="45.4523383" lon="8.807675"><ele>113.0</ele><time>2026-04-26T08:21:24.501Z</time></trkpt><trkpt lat="45.4524117" lon="8.8076567"><ele>112.60000000000001</ele><time>2026-04-26T08:21:29.501Z</time></trkpt><trkpt lat="45.45248" lon="8.80762"><ele>112.20000000000002</ele><time>2026-04-26T08:21:33.501Z</time></trkpt><trkpt lat="45.4525583" lon="8.8075517"><ele>111.8</ele><time>2026-04-26T08:21:37.502Z</time></trkpt><trkpt lat="45.452655" lon="8.8075217"><ele>111.4</ele><time>2026-04-26T08:21:39.501Z</time></trkpt><trkpt lat="45.452765" lon="8.8075"><ele>111.0</ele><time>2026-04-26T08:21:41.502Z</time></trkpt><trkpt lat="45.4528567" lon="8.80749"><ele>111.0</ele><time>2026-04-26T08:21:43.502Z</time></trkpt><trkpt lat="45.4529383" lon="8.8075117"><ele>111.0</ele><time>2026-04-26T08:21:45.501Z</time></trkpt><trkpt lat="45.4530133" lon="8.80753"><ele>111.0</ele><time>2026-04-26T08:21:47.501Z</time></trkpt><trkpt lat="45.453105" lon="8.8075417"><ele>111.0</ele><time>2026-04-26T08:21:49.501Z</time></trkpt><trkpt lat="45.453205" lon="8.807535"><ele>111.0</ele><time>2026-04-26T08:21:51.501Z</time></trkpt><trkpt lat="45.4532983" lon="8.8075417"><ele>111.0</ele><time>2026-04-26T08:21:53.501Z</time></trkpt><trkpt lat="45.4533833" lon="8.8075583"><ele>111.16666666666667</ele><time>2026-04-26T08:21:55.502Z</time></trkpt><trkpt lat="45.45347" lon="8.80758"><ele>111.33333333333334</ele><time>2026-04-26T08:21:57.502Z</time></trkpt><trkpt lat="45.4535517" lon="8.807595"><ele>111.5</ele><time>2026-04-26T08:21:59.501Z</time></trkpt><trkpt lat="45.4536217" lon="8.8076233"><ele>111.66666666666667</ele><time>2026-04-26T08:22:01.502Z</time></trkpt><trkpt lat="45.4536917" lon="8.807625"><ele>111.83333333333334</ele><time>2026-04-26T08:22:03.501Z</time></trkpt><trkpt lat="45.4537817" lon="8.80765"><ele>112.0</ele><time>2026-04-26T08:22:05.502Z</time></trkpt><trkpt lat="45.4538667" lon="8.80767"><ele>112.0</ele><time>2026-04-26T08:22:07.501Z</time></trkpt><trkpt lat="45.453955" lon="8.807695"><ele>111.99999999999999</ele><time>2026-04-26T08:22:09.501Z</time></trkpt><trkpt lat="45.4540467" lon="8.8077283"><ele>111.99999999999999</ele><time>2026-04-26T08:22:11.501Z</time></trkpt><trkpt lat="45.4541217" lon="8.8077617"><ele>112.0</ele><time>2026-04-26T08:22:13.502Z</time></trkpt><trkpt lat="45.4542133" lon="8.8077933"><ele>112.0</ele><time>2026-04-26T08:22:15.502Z</time></trkpt><trkpt lat="45.454305" lon="8.8078283"><ele>112.00000000000001</ele><time>2026-04-26T08:22:17.502Z</time></trkpt><trkpt lat="45.454385" lon="8.807855"><ele>112.0</ele><time>2026-04-26T08:22:19.501Z</time></trkpt><trkpt lat="45.454465" lon="8.8078867"><ele>112.0</ele><time>2026-04-26T08:22:21.501Z</time></trkpt><trkpt lat="45.4545433" lon="8.8079133"><ele>112.0</ele><time>2026-04-26T08:22:23.501Z</time></trkpt><trkpt lat="45.45463" lon="8.8079417"><ele>112.00000000000001</ele><time>2026-04-26T08:22:25.502Z</time></trkpt><trkpt lat="45.454725" lon="8.80798"><ele>112.0</ele><time>2026-04-26T08:22:27.501Z</time></trkpt><trkpt lat="45.4548133" lon="8.80803"><ele>111.50000000000001</ele><time>2026-04-26T08:22:29.501Z</time></trkpt><trkpt lat="45.4549" lon="8.808065"><ele>111.0</ele><time>2026-04-26T08:22:31.501Z</time></trkpt><trkpt lat="45.4549867" lon="8.8081033"><ele>110.5</ele><time>2026-04-26T08:22:33.502Z</time></trkpt><trkpt lat="45.455065" lon="8.808125"><ele>110.0</ele><time>2026-04-26T08:22:35.501Z</time></trkpt><trkpt lat="45.4551467" lon="8.808175"><ele>109.50000000000001</ele><time>2026-04-26T08:22:37.502Z</time></trkpt><trkpt lat="45.4552317" lon="8.808205"><ele>109.0</ele><time>2026-04-26T08:22:39.501Z</time></trkpt><trkpt lat="45.4553283" lon="8.8082583"><ele>109.0</ele><time>2026-04-26T08:22:41.501Z</time></trkpt><trkpt lat="45.45541" lon="8.8083267"><ele>109.0</ele><time>2026-04-26T08:22:43.501Z</time></trkpt><trkpt lat="45.4554867" lon="8.8083883"><ele>109.0</ele><time>2026-04-26T08:22:45.501Z</time></trkpt><trkpt lat="45.455565" lon="8.8084767"><ele>109.0</ele><time>2026-04-26T08:22:47.501Z</time></trkpt><trkpt lat="45.4556333" lon="8.8085683"><ele>109.0</ele><time>2026-04-26T08:22:49.502Z</time></trkpt><trkpt lat="45.4557083" lon="8.80866"><ele>109.4</ele><time>2026-04-26T08:22:51.501Z</time></trkpt><trkpt lat="45.45577" lon="8.8087567"><ele>109.80000000000001</ele><time>2026-04-26T08:22:53.502Z</time></trkpt><trkpt lat="45.455835" lon="8.808845"><ele>110.19999999999999</ele><time>2026-04-26T08:22:55.502Z</time></trkpt><trkpt lat="45.4558983" lon="8.808925"><ele>110.6</ele><time>2026-04-26T08:22:57.501Z</time></trkpt><trkpt lat="45.4559633" lon="8.8090167"><ele>111.0</ele><time>2026-04-26T08:22:59.5Z</time></trkpt><trkpt lat="45.4560233" lon="8.8091233"><ele>111.0</ele><time>2026-04-26T08:23:01.5Z</time></trkpt><trkpt lat="45.4560833" lon="8.809225"><ele>111.0</ele><time>2026-04-26T08:23:03.501Z</time></trkpt><trkpt lat="45.4561517" lon="8.80932"><ele>111.0</ele><time>2026-04-26T08:23:05.5Z</time></trkpt><trkpt lat="45.4562133" lon="8.8094183"><ele>111.0</ele><time>2026-04-26T08:23:07.5Z</time></trkpt><trkpt lat="45.456265" lon="8.809515"><ele>111.0</ele><time>2026-04-26T08:23:09.501Z</time></trkpt><trkpt lat="45.45632" lon="8.8096"><ele>111.0</ele><time>2026-04-26T08:23:11.501Z</time></trkpt><trkpt lat="45.4563783" lon="8.8097"><ele>111.0</ele><time>2026-04-26T08:23:13.5Z</time></trkpt><trkpt lat="45.4564367" lon="8.8098"><ele>111.0</ele><time>2026-04-26T08:23:15.501Z</time></trkpt><trkpt lat="45.4564967" lon="8.8098883"><ele>111.0</ele><time>2026-04-26T08:23:17.501Z</time></trkpt><trkpt lat="45.4565583" lon="8.8099783"><ele>111.0</ele><time>2026-04-26T08:23:19.501Z</time></trkpt><trkpt lat="45.4566217" lon="8.8100783"><ele>111.0</ele><time>2026-04-26T08:23:21.501Z</time></trkpt><trkpt lat="45.456685" lon="8.810175"><ele>111.16666666666667</ele><time>2026-04-26T08:23:23.501Z</time></trkpt><trkpt lat="45.4567483" lon="8.8102733"><ele>111.33333333333334</ele><time>2026-04-26T08:23:25.5Z</time></trkpt><trkpt lat="45.4568083" lon="8.8103767"><ele>111.5</ele><time>2026-04-26T08:23:27.5Z</time></trkpt><trkpt lat="45.4568783" lon="8.8104633"><ele>111.66666666666667</ele><time>2026-04-26T08:23:29.501Z</time></trkpt><trkpt lat="45.456965" lon="8.8105033"><ele>111.83333333333334</ele><time>2026-04-26T08:23:31.501Z</time></trkpt><trkpt lat="45.4570417" lon="8.8104967"><ele>112.0</ele><time>2026-04-26T08:23:33.501Z</time></trkpt><trkpt lat="45.4571233" lon="8.810495"><ele>112.00000000000001</ele><time>2026-04-26T08:23:35.5Z</time></trkpt><trkpt lat="45.45721" lon="8.810495"><ele>112.0</ele><time>2026-04-26T08:23:37.5Z</time></trkpt><trkpt lat="45.4572917" lon="8.8104567"><ele>112.0</ele><time>2026-04-26T08:23:39.5Z</time></trkpt><trkpt lat="45.4573717" lon="8.8104"><ele>112.0</ele><time>2026-04-26T08:23:41.501Z</time></trkpt><trkpt lat="45.4574533" lon="8.81034"><ele>112.00000000000001</ele><time>2026-04-26T08:23:43.5Z</time></trkpt><trkpt lat="45.457535" lon="8.810275"><ele>112.0</ele><time>2026-04-26T08:23:45.5Z</time></trkpt><trkpt lat="45.4576133" lon="8.8102267"><ele>112.00000000000001</ele><time>2026-04-26T08:23:47.501Z</time></trkpt><trkpt lat="45.4576967" lon="8.8101733"><ele>112.0</ele><time>2026-04-26T08:23:49.501Z</time></trkpt><trkpt lat="45.45777" lon="8.8101067"><ele>112.0</ele><time>2026-04-26T08:23:51.501Z</time></trkpt><trkpt lat="45.45784" lon="8.8100567"><ele>112.0</ele><time>2026-04-26T08:23:53.5Z</time></trkpt><trkpt lat="45.45792" lon="8.8099967"><ele>112.00000000000001</ele><time>2026-04-26T08:23:55.5Z</time></trkpt><trkpt lat="45.457995" lon="8.8099483"><ele>112.0</ele><time>2026-04-26T08:23:57.501Z</time></trkpt><trkpt lat="45.4580717" lon="8.8098933"><ele>111.83333333333334</ele><time>2026-04-26T08:23:59.501Z</time></trkpt><trkpt lat="45.4581483" lon="8.80984"><ele>111.66666666666667</ele><time>2026-04-26T08:24:01.5Z</time></trkpt><trkpt lat="45.4582283" lon="8.809785"><ele>111.5</ele><time>2026-04-26T08:24:03.5Z</time></trkpt><trkpt lat="45.4583033" lon="8.8097267"><ele>111.33333333333334</ele><time>2026-04-26T08:24:05.5Z</time></trkpt><trkpt lat="45.4583767" lon="8.8096633"><ele>111.16666666666667</ele><time>2026-04-26T08:24:07.5Z</time></trkpt><trkpt lat="45.458455" lon="8.8096083"><ele>111.0</ele><time>2026-04-26T08:24:09.501Z</time></trkpt><trkpt lat="45.4585267" lon="8.8095617"><ele>111.0</ele><time>2026-04-26T08:24:11.5Z</time></trkpt><trkpt lat="45.4585983" lon="8.8094967"><ele>111.0</ele><time>2026-04-26T08:24:13.5Z</time></trkpt><trkpt lat="45.4586733" lon="8.8094433"><ele>111.0</ele><time>2026-04-26T08:24:15.501Z</time></trkpt><trkpt lat="45.4587583" lon="8.8093817"><ele>111.0</ele><time>2026-04-26T08:24:17.501Z</time></trkpt><trkpt lat="45.458835" lon="8.80933"><ele>111.0</ele><time>2026-04-26T08:24:19.5Z</time></trkpt><trkpt lat="45.4589167" lon="8.8092667"><ele>111.0</ele><time>2026-04-26T08:24:21.5Z</time></trkpt><trkpt lat="45.4590017" lon="8.8092167"><ele>111.16666666666667</ele><time>2026-04-26T08:24:23.5Z</time></trkpt><trkpt lat="45.4590856" lon="8.8091655"><ele>111.33333333333334</ele><time>2026-04-26T08:24:25.495Z</time></trkpt><trkpt lat="45.4591605" lon="8.8091109"><ele>111.5</ele><time>2026-04-26T08:24:27.501Z</time></trkpt><trkpt lat="45.4592244" lon="8.8091296"><ele>111.66666666666667</ele><time>2026-04-26T08:24:29.522Z</time></trkpt><trkpt lat="45.459275" lon="8.8090233"><ele>111.83333333333334</ele><time>2026-04-26T08:24:30.501Z</time></trkpt><trkpt lat="45.4593483" lon="8.808965"><ele>112.0</ele><time>2026-04-26T08:24:32.5Z</time></trkpt><trkpt lat="45.45943" lon="8.808915"><ele>112.0</ele><time>2026-04-26T08:24:34.501Z</time></trkpt><trkpt lat="45.4595033" lon="8.8088767"><ele>112.0</ele><time>2026-04-26T08:24:36.5Z</time></trkpt><trkpt lat="45.4595733" lon="8.8088767"><ele>112.0</ele><time>2026-04-26T08:24:38.5Z</time></trkpt><trkpt lat="45.4596383" lon="8.8088583"><ele>112.0</ele><time>2026-04-26T08:24:40.501Z</time></trkpt><trkpt lat="45.4596817" lon="8.8087917"><ele>112.0</ele><time>2026-04-26T08:24:42.5Z</time></trkpt><trkpt lat="45.45973" lon="8.8087167"><ele>112.0</ele><time>2026-04-26T08:24:44.501Z</time></trkpt><trkpt lat="45.4597917" lon="8.808645"><ele>112.0</ele><time>2026-04-26T08:24:46.5Z</time></trkpt><trkpt lat="45.4598683" lon="8.8086017"><ele>112.16666666666667</ele><time>2026-04-26T08:24:48.501Z</time></trkpt><trkpt lat="45.459945" lon="8.808545"><ele>112.33333333333334</ele><time>2026-04-26T08:24:50.501Z</time></trkpt><trkpt lat="45.460025" lon="8.80848"><ele>112.5</ele><time>2026-04-26T08:24:52.501Z</time></trkpt><trkpt lat="45.4601067" lon="8.8084333"><ele>112.66666666666666</ele><time>2026-04-26T08:24:54.501Z</time></trkpt><trkpt lat="45.4601783" lon="8.8083733"><ele>112.83333333333333</ele><time>2026-04-26T08:24:56.5Z</time></trkpt><trkpt lat="45.4602483" lon="8.808315"><ele>113.0</ele><time>2026-04-26T08:24:58.501Z</time></trkpt><trkpt lat="45.4603233" lon="8.8082417"><ele>113.0</ele><time>2026-04-26T08:25:00.5Z</time></trkpt><trkpt lat="45.4604" lon="8.8081567"><ele>113.00000000000001</ele><time>2026-04-26T08:25:02.5Z</time></trkpt><trkpt lat="45.4604633" lon="8.8080567"><ele>113.00000000000001</ele><time>2026-04-26T08:25:04.5Z</time></trkpt><trkpt lat="45.4604983" lon="8.8079367"><ele>113.0</ele><time>2026-04-26T08:25:06.5Z</time></trkpt><trkpt lat="45.4605" lon="8.8077983"><ele>113.0</ele><time>2026-04-26T08:25:08.501Z</time></trkpt><trkpt lat="45.4604783" lon="8.8076517"><ele>112.99999999999999</ele><time>2026-04-26T08:25:10.5Z</time></trkpt><trkpt lat="45.4604717" lon="8.8075233"><ele>113.0</ele><time>2026-04-26T08:25:12.501Z</time></trkpt><trkpt lat="45.4604567" lon="8.80739"><ele>113.0</ele><time>2026-04-26T08:25:14.5Z</time></trkpt><trkpt lat="45.46044" lon="8.8072717"><ele>113.0</ele><time>2026-04-26T08:25:16.501Z</time></trkpt><trkpt lat="45.4604283" lon="8.8071517"><ele>112.99999999999999</ele><time>2026-04-26T08:25:18.5Z</time></trkpt><trkpt lat="45.4604383" lon="8.8070467"><ele>113.0</ele><time>2026-04-26T08:25:20.501Z</time></trkpt><trkpt lat="45.46046" lon="8.8069567"><ele>113.16666666666666</ele><time>2026-04-26T08:25:22.501Z</time></trkpt><trkpt lat="45.46052" lon="8.8068767"><ele>113.33333333333333</ele><time>2026-04-26T08:25:24.5Z</time></trkpt><trkpt lat="45.460595" lon="8.8068267"><ele>113.5</ele><time>2026-04-26T08:25:26.5Z</time></trkpt><trkpt lat="45.4606783" lon="8.80678"><ele>113.66666666666666</ele><time>2026-04-26T08:25:28.501Z</time></trkpt><trkpt lat="45.460755" lon="8.80677"><ele>113.83333333333333</ele><time>2026-04-26T08:25:30.5Z</time></trkpt><trkpt lat="45.460845" lon="8.806755"><ele>114.0</ele><time>2026-04-26T08:25:32.501Z</time></trkpt><trkpt lat="45.4609317" lon="8.8067633"><ele>114.0</ele><time>2026-04-26T08:25:34.501Z</time></trkpt><trkpt lat="45.461025" lon="8.80674"><ele>114.0</ele><time>2026-04-26T08:25:36.5Z</time></trkpt><trkpt lat="45.4611167" lon="8.8067217"><ele>114.0</ele><time>2026-04-26T08:25:38.501Z</time></trkpt><trkpt lat="45.4611983" lon="8.8066883"><ele>114.0</ele><time>2026-04-26T08:25:40.5Z</time></trkpt><trkpt lat="45.4612783" lon="8.8066633"><ele>114.0</ele><time>2026-04-26T08:25:42.501Z</time></trkpt><trkpt lat="45.4613467" lon="8.8066467"><ele>114.0</ele><time>2026-04-26T08:25:44.501Z</time></trkpt><trkpt lat="45.461415" lon="8.8066167"><ele>114.0</ele><time>2026-04-26T08:25:46.5Z</time></trkpt><trkpt lat="45.46149" lon="8.8065767"><ele>114.0</ele><time>2026-04-26T08:25:48.5Z</time></trkpt><trkpt lat="45.461575" lon="8.8065617"><ele>114.0</ele><time>2026-04-26T08:25:50.5Z</time></trkpt><trkpt lat="45.4616733" lon="8.80652"><ele>114.0</ele><time>2026-04-26T08:25:52.501Z</time></trkpt><trkpt lat="45.461755" lon="8.8065033"><ele>114.0</ele><time>2026-04-26T08:25:54.5Z</time></trkpt><trkpt lat="45.4618433" lon="8.80651"><ele>114.0</ele><time>2026-04-26T08:25:56.501Z</time></trkpt><trkpt lat="45.46193" lon="8.8064983"><ele>114.0</ele><time>2026-04-26T08:25:58.5Z</time></trkpt><trkpt lat="45.4620283" lon="8.806475"><ele>114.0</ele><time>2026-04-26T08:26:00.501Z</time></trkpt><trkpt lat="45.4621033" lon="8.8064583"><ele>114.0</ele><time>2026-04-26T08:26:02.501Z</time></trkpt><trkpt lat="45.462195" lon="8.8064"><ele>114.0</ele><time>2026-04-26T08:26:04.5Z</time></trkpt><trkpt lat="45.4622733" lon="8.80633"><ele>114.0</ele><time>2026-04-26T08:26:06.5Z</time></trkpt><trkpt lat="45.462345" lon="8.806235"><ele>114.0</ele><time>2026-04-26T08:26:08.501Z</time></trkpt><trkpt lat="45.462405" lon="8.80613"><ele>114.0</ele><time>2026-04-26T08:26:10.5Z</time></trkpt><trkpt lat="45.46245" lon="8.8060367"><ele>114.0</ele><time>2026-04-26T08:26:12.501Z</time></trkpt><trkpt lat="45.4624933" lon="8.8059267"><ele>114.0</ele><time>2026-04-26T08:26:14.501Z</time></trkpt><trkpt lat="45.462535" lon="8.8058167"><ele>114.0</ele><time>2026-04-26T08:26:16.5Z</time></trkpt><trkpt lat="45.4625617" lon="8.8056917"><ele>114.0</ele><time>2026-04-26T08:26:18.5Z</time></trkpt><trkpt lat="45.4625883" lon="8.80558"><ele>114.16666666666667</ele><time>2026-04-26T08:26:20.5Z</time></trkpt><trkpt lat="45.4625983" lon="8.8054567"><ele>114.33333333333334</ele><time>2026-04-26T08:26:22.5Z</time></trkpt><trkpt lat="45.4626233" lon="8.805335"><ele>114.5</ele><time>2026-04-26T08:26:24.501Z</time></trkpt><trkpt lat="45.4626467" lon="8.8052367"><ele>114.66666666666667</ele><time>2026-04-26T08:26:26.5Z</time></trkpt><trkpt lat="45.4626817" lon="8.8051267"><ele>114.83333333333334</ele><time>2026-04-26T08:26:28.5Z</time></trkpt><trkpt lat="45.4627133" lon="8.8050333"><ele>115.0</ele><time>2026-04-26T08:26:30.5Z</time></trkpt><trkpt lat="45.4627433" lon="8.8049433"><ele>115.28571428571428</ele><time>2026-04-26T08:26:32.5Z</time></trkpt><trkpt lat="45.4627767" lon="8.8048567"><ele>115.57142857142857</ele><time>2026-04-26T08:26:34.5Z</time></trkpt><trkpt lat="45.462805" lon="8.804775"><ele>115.85714285714286</ele><time>2026-04-26T08:26:36.501Z</time></trkpt><trkpt lat="45.4628467" lon="8.8046867"><ele>116.14285714285714</ele><time>2026-04-26T08:26:38.501Z</time></trkpt><trkpt lat="45.4628867" lon="8.804595"><ele>116.42857142857144</ele><time>2026-04-26T08:26:40.501Z</time></trkpt><trkpt lat="45.4629267" lon="8.8044967"><ele>116.71428571428572</ele><time>2026-04-26T08:26:42.501Z</time></trkpt><trkpt lat="45.4629683" lon="8.804395"><ele>117.0</ele><time>2026-04-26T08:26:44.501Z</time></trkpt><trkpt lat="45.4630083" lon="8.8042983"><ele>117.66666666666667</ele><time>2026-04-26T08:26:46.5Z</time></trkpt><trkpt lat="45.4630467" lon="8.8041967"><ele>118.33333333333334</ele><time>2026-04-26T08:26:48.5Z</time></trkpt><trkpt lat="45.46308" lon="8.804095"><ele>119.0</ele><time>2026-04-26T08:26:50.5Z</time></trkpt><trkpt lat="45.4631167" lon="8.8039867"><ele>119.66666666666667</ele><time>2026-04-26T08:26:52.501Z</time></trkpt><trkpt lat="45.4631517" lon="8.8038517"><ele>120.33333333333334</ele><time>2026-04-26T08:26:54.501Z</time></trkpt><trkpt lat="45.463175" lon="8.8037217"><ele>121.0</ele><time>2026-04-26T08:26:56.501Z</time></trkpt><trkpt lat="45.463185" lon="8.803585"><ele>121.19999999999999</ele><time>2026-04-26T08:26:58.501Z</time></trkpt><trkpt lat="45.46318" lon="8.8034483"><ele>121.39999999999999</ele><time>2026-04-26T08:27:00.5Z</time></trkpt><trkpt lat="45.4631583" lon="8.8033233"><ele>121.6</ele><time>2026-04-26T08:27:02.501Z</time></trkpt><trkpt lat="45.4631283" lon="8.8032"><ele>121.8</ele><time>2026-04-26T08:27:04.5Z</time></trkpt><trkpt lat="45.4630817" lon="8.8030633"><ele>122.0</ele><time>2026-04-26T08:27:06.5Z</time></trkpt><trkpt lat="45.4630567" lon="8.8029433"><ele>122.0</ele><time>2026-04-26T08:27:08.501Z</time></trkpt><trkpt lat="45.4630133" lon="8.802815"><ele>121.99999999999999</ele><time>2026-04-26T08:27:10.501Z</time></trkpt><trkpt lat="45.4629817" lon="8.802705"><ele>121.99999999999999</ele><time>2026-04-26T08:27:12.501Z</time></trkpt><trkpt lat="45.4629567" lon="8.8025867"><ele>122.0</ele><time>2026-04-26T08:27:14.5Z</time></trkpt><trkpt lat="45.4629283" lon="8.8024483"><ele>122.0</ele><time>2026-04-26T08:27:16.5Z</time></trkpt><trkpt lat="45.4628833" lon="8.8023367"><ele>121.39999999999999</ele><time>2026-04-26T08:27:18.5Z</time></trkpt><trkpt lat="45.46285" lon="8.8022133"><ele>120.79999999999998</ele><time>2026-04-26T08:27:20.5Z</time></trkpt><trkpt lat="45.462805" lon="8.8020233"><ele>120.2</ele><time>2026-04-26T08:27:23.5Z</time></trkpt><trkpt lat="45.4627767" lon="8.801895"><ele>119.6</ele><time>2026-04-26T08:27:25.5Z</time></trkpt><trkpt lat="45.4627317" lon="8.80179"><ele>119.0</ele><time>2026-04-26T08:27:27.501Z</time></trkpt><trkpt lat="45.4626633" lon="8.8017033"><ele>118.99999999999999</ele><time>2026-04-26T08:27:29.5Z</time></trkpt><trkpt lat="45.4626033" lon="8.8016417"><ele>119.0</ele><time>2026-04-26T08:27:31.501Z</time></trkpt><trkpt lat="45.4625217" lon="8.8015867"><ele>119.0</ele><time>2026-04-26T08:27:33.5Z</time></trkpt><trkpt lat="45.4624367" lon="8.8015083"><ele>119.0</ele><time>2026-04-26T08:27:35.5Z</time></trkpt><trkpt lat="45.4623567" lon="8.8014333"><ele>118.99999999999999</ele><time>2026-04-26T08:27:37.501Z</time></trkpt><trkpt lat="45.4622933" lon="8.8013667"><ele>119.0</ele><time>2026-04-26T08:27:39.5Z</time></trkpt><trkpt lat="45.462255" lon="8.8012883"><ele>118.99999999999999</ele><time>2026-04-26T08:27:41.5Z</time></trkpt><trkpt lat="45.4622167" lon="8.8011983"><ele>119.0</ele><time>2026-04-26T08:27:43.501Z</time></trkpt><trkpt lat="45.4622283" lon="8.8011"><ele>119.0</ele><time>2026-04-26T08:27:46.5Z</time></trkpt><trkpt lat="45.4622683" lon="8.8009983"><ele>119.0</ele><time>2026-04-26T08:27:50.5Z</time></trkpt><trkpt lat="45.46228" lon="8.8008833"><ele>118.99999999999999</ele><time>2026-04-26T08:27:52.501Z</time></trkpt><trkpt lat="45.462265" lon="8.80076"><ele>119.0</ele><time>2026-04-26T08:27:54.501Z</time></trkpt><trkpt lat="45.46225" lon="8.8006383"><ele>118.99999999999999</ele><time>2026-04-26T08:27:56.501Z</time></trkpt><trkpt lat="45.46225" lon="8.8005233"><ele>119.0</ele><time>2026-04-26T08:27:58.5Z</time></trkpt><trkpt lat="45.46226" lon="8.8004217"><ele>119.0</ele><time>2026-04-26T08:28:00.501Z</time></trkpt><trkpt lat="45.4622517" lon="8.80031"><ele>119.0</ele><time>2026-04-26T08:28:02.5Z</time></trkpt><trkpt lat="45.4622417" lon="8.8001933"><ele>118.99999999999999</ele><time>2026-04-26T08:28:04.501Z</time></trkpt><trkpt lat="45.46226" lon="8.8000817"><ele>119.0</ele><time>2026-04-26T08:28:06.5Z</time></trkpt><trkpt lat="45.4622617" lon="8.7999567"><ele>118.99999999999999</ele><time>2026-04-26T08:28:08.501Z</time></trkpt><trkpt lat="45.462255" lon="8.7998367"><ele>119.0</ele><time>2026-04-26T08:28:10.501Z</time></trkpt><trkpt lat="45.4622333" lon="8.7997117"><ele>119.0</ele><time>2026-04-26T08:28:12.501Z</time></trkpt><trkpt lat="45.46222" lon="8.7995967"><ele>119.0</ele><time>2026-04-26T08:28:14.501Z</time></trkpt><trkpt lat="45.4622067" lon="8.7994867"><ele>118.99999999999999</ele><time>2026-04-26T08:28:16.5Z</time></trkpt><trkpt lat="45.4622367" lon="8.799385"><ele>119.0</ele><time>2026-04-26T08:28:19.501Z</time></trkpt><trkpt lat="45.4622933" lon="8.7993367"><ele>118.49999999999999</ele><time>2026-04-26T08:28:21.5Z</time></trkpt><trkpt lat="45.4623567" lon="8.79928"><ele>118.0</ele><time>2026-04-26T08:28:23.5Z</time></trkpt><trkpt lat="45.462445" lon="8.7992183"><ele>117.5</ele><time>2026-04-26T08:28:25.5Z</time></trkpt><trkpt lat="45.462515" lon="8.79915"><ele>117.0</ele><time>2026-04-26T08:28:27.5Z</time></trkpt><trkpt lat="45.46258" lon="8.7990917"><ele>116.49999999999999</ele><time>2026-04-26T08:28:29.5Z</time></trkpt><trkpt lat="45.46264" lon="8.7990167"><ele>116.0</ele><time>2026-04-26T08:28:31.5Z</time></trkpt><trkpt lat="45.4626783" lon="8.79892"><ele>115.99999999999999</ele><time>2026-04-26T08:28:33.5Z</time></trkpt><trkpt lat="45.4627183" lon="8.7988317"><ele>116.0</ele><time>2026-04-26T08:28:35.501Z</time></trkpt><trkpt lat="45.4627786" lon="8.7987475"><ele>116.0</ele><time>2026-04-26T08:28:37.565Z</time></trkpt><trkpt lat="45.4628491" lon="8.7986761"><ele>116.0</ele><time>2026-04-26T08:28:39.565Z</time></trkpt><trkpt lat="45.4629177" lon="8.7985961"><ele>115.99999999999999</ele><time>2026-04-26T08:28:41.566Z</time></trkpt><trkpt lat="45.4629783" lon="8.798495"><ele>116.0</ele><time>2026-04-26T08:28:43.5Z</time></trkpt><trkpt lat="45.4630417" lon="8.7984133"><ele>116.83333333333333</ele><time>2026-04-26T08:28:45.501Z</time></trkpt><trkpt lat="45.46311" lon="8.79835"><ele>117.66666666666666</ele><time>2026-04-26T08:28:47.501Z</time></trkpt><trkpt lat="45.4631517" lon="8.7982717"><ele>118.5</ele><time>2026-04-26T08:28:49.5Z</time></trkpt><trkpt lat="45.4632117" lon="8.7981683"><ele>119.33333333333334</ele><time>2026-04-26T08:28:51.501Z</time></trkpt><trkpt lat="45.4632667" lon="8.79808"><ele>120.16666666666667</ele><time>2026-04-26T08:28:53.501Z</time></trkpt><trkpt lat="45.4633183" lon="8.79798"><ele>121.0</ele><time>2026-04-26T08:28:55.5Z</time></trkpt><trkpt lat="45.4633767" lon="8.797885"><ele>121.00000000000001</ele><time>2026-04-26T08:28:57.5Z</time></trkpt><trkpt lat="45.4634367" lon="8.7977967"><ele>121.0</ele><time>2026-04-26T08:28:59.501Z</time></trkpt><trkpt lat="45.4634967" lon="8.7977033"><ele>121.0</ele><time>2026-04-26T08:29:01.5Z</time></trkpt><trkpt lat="45.4635717" lon="8.7976117"><ele>121.0</ele><time>2026-04-26T08:29:03.501Z</time></trkpt><trkpt lat="45.46365" lon="8.7975517"><ele>121.00000000000001</ele><time>2026-04-26T08:29:05.5Z</time></trkpt><trkpt lat="45.4637167" lon="8.79755"><ele>121.0</ele><time>2026-04-26T08:29:07.5Z</time></trkpt><trkpt lat="45.463785" lon="8.7976433"><ele>121.16666666666667</ele><time>2026-04-26T08:29:10.501Z</time></trkpt><trkpt lat="45.4638283" lon="8.79773"><ele>121.33333333333334</ele><time>2026-04-26T08:29:12.501Z</time></trkpt><trkpt lat="45.4638683" lon="8.79782"><ele>121.5</ele><time>2026-04-26T08:29:14.5Z</time></trkpt><trkpt lat="45.463925" lon="8.7979117"><ele>121.66666666666666</ele><time>2026-04-26T08:29:16.5Z</time></trkpt><trkpt lat="45.4639967" lon="8.7980117"><ele>121.83333333333333</ele><time>2026-04-26T08:29:18.501Z</time></trkpt><trkpt lat="45.4640683" lon="8.7980683"><ele>122.0</ele><time>2026-04-26T08:29:20.5Z</time></trkpt><trkpt lat="45.4641567" lon="8.79809"><ele>121.99999999999999</ele><time>2026-04-26T08:29:22.5Z</time></trkpt><trkpt lat="45.4642383" lon="8.7980883"><ele>122.0</ele><time>2026-04-26T08:29:24.5Z</time></trkpt><trkpt lat="45.464315" lon="8.7980833"><ele>122.0</ele><time>2026-04-26T08:29:26.5Z</time></trkpt><trkpt lat="45.4643967" lon="8.7980983"><ele>122.0</ele><time>2026-04-26T08:29:28.5Z</time></trkpt><trkpt lat="45.46448" lon="8.7981017"><ele>121.99999999999999</ele><time>2026-04-26T08:29:30.501Z</time></trkpt><trkpt lat="45.46455" lon="8.7980833"><ele>122.0</ele><time>2026-04-26T08:29:32.501Z</time></trkpt><trkpt lat="45.4646083" lon="8.798035"><ele>121.83333333333333</ele><time>2026-04-26T08:29:34.5Z</time></trkpt><trkpt lat="45.464675" lon="8.79797"><ele>121.66666666666666</ele><time>2026-04-26T08:29:36.5Z</time></trkpt><trkpt lat="45.4647517" lon="8.797905"><ele>121.5</ele><time>2026-04-26T08:29:38.501Z</time></trkpt><trkpt lat="45.4648317" lon="8.79785"><ele>121.33333333333334</ele><time>2026-04-26T08:29:40.5Z</time></trkpt><trkpt lat="45.464915" lon="8.7978117"><ele>121.16666666666667</ele><time>2026-04-26T08:29:42.5Z</time></trkpt><trkpt lat="45.4649733" lon="8.7977583"><ele>121.0</ele><time>2026-04-26T08:29:44.5Z</time></trkpt><trkpt lat="45.4650867" lon="8.7976017"><ele>120.8</ele><time>2026-04-26T08:29:59.5Z</time></trkpt><trkpt lat="45.4651567" lon="8.7975217"><ele>120.6</ele><time>2026-04-26T08:30:05.501Z</time></trkpt><trkpt lat="45.4652317" lon="8.7974233"><ele>120.4</ele><time>2026-04-26T08:30:14.501Z</time></trkpt><trkpt lat="45.465295" lon="8.7973267"><ele>120.2</ele><time>2026-04-26T08:30:20.501Z</time></trkpt><trkpt lat="45.4653817" lon="8.7972183"><ele>120.0</ele><time>2026-04-26T08:30:31.5Z</time></trkpt><trkpt lat="45.465445" lon="8.7971667"><ele>120.16666666666667</ele><time>2026-04-26T08:30:34.499Z</time></trkpt><trkpt lat="45.4654983" lon="8.7971133"><ele>120.33333333333334</ele><time>2026-04-26T08:30:36.499Z</time></trkpt><trkpt lat="45.4655533" lon="8.79705"><ele>120.5</ele><time>2026-04-26T08:30:38.499Z</time></trkpt><trkpt lat="45.4655967" lon="8.796955"><ele>120.66666666666667</ele><time>2026-04-26T08:30:41.5Z</time></trkpt><trkpt lat="45.4656117" lon="8.7968617"><ele>120.83333333333334</ele><time>2026-04-26T08:30:44.499Z</time></trkpt><trkpt lat="45.4656483" lon="8.7967483"><ele>121.0</ele><time>2026-04-26T08:30:47.499Z</time></trkpt><trkpt lat="45.4656833" lon="8.79664"><ele>121.33333333333334</ele><time>2026-04-26T08:30:50.5Z</time></trkpt><trkpt lat="45.465755" lon="8.79656"><ele>121.66666666666667</ele><time>2026-04-26T08:30:53.499Z</time></trkpt><trkpt lat="45.4658267" lon="8.7964767"><ele>122.0</ele><time>2026-04-26T08:30:56.499Z</time></trkpt><trkpt lat="45.4658617" lon="8.796395"><ele>122.33333333333334</ele><time>2026-04-26T08:30:58.499Z</time></trkpt><trkpt lat="45.465905" lon="8.7963283"><ele>122.66666666666667</ele><time>2026-04-26T08:31:00.499Z</time></trkpt><trkpt lat="45.465945" lon="8.7964133"><ele>123.0</ele><time>2026-04-26T08:31:04.499Z</time></trkpt><trkpt lat="45.4660383" lon="8.796405"><ele>123.0</ele><time>2026-04-26T08:31:07.499Z</time></trkpt><trkpt lat="45.4660767" lon="8.796315"><ele>123.0</ele><time>2026-04-26T08:31:10.5Z</time></trkpt><trkpt lat="45.466085" lon="8.7962217"><ele>123.0</ele><time>2026-04-26T08:31:12.499Z</time></trkpt><trkpt lat="45.4660867" lon="8.7961033"><ele>123.0</ele><time>2026-04-26T08:31:16.5Z</time></trkpt><trkpt lat="45.4660617" lon="8.79601"><ele>123.0</ele><time>2026-04-26T08:31:19.5Z</time></trkpt><trkpt lat="45.466065" lon="8.7958883"><ele>123.0</ele><time>2026-04-26T08:31:22.499Z</time></trkpt><trkpt lat="45.4661183" lon="8.7958167"><ele>122.66666666666667</ele><time>2026-04-26T08:31:25.499Z</time></trkpt><trkpt lat="45.4662017" lon="8.7957533"><ele>122.33333333333334</ele><time>2026-04-26T08:31:28.499Z</time></trkpt><trkpt lat="45.4662583" lon="8.7956783"><ele>122.0</ele><time>2026-04-26T08:31:31.5Z</time></trkpt><trkpt lat="45.4663067" lon="8.795595"><ele>121.66666666666667</ele><time>2026-04-26T08:31:34.5Z</time></trkpt><trkpt lat="45.46629" lon="8.7954883"><ele>121.33333333333334</ele><time>2026-04-26T08:31:37.499Z</time></trkpt><trkpt lat="45.46627" lon="8.7953867"><ele>121.0</ele><time>2026-04-26T08:31:40.499Z</time></trkpt><trkpt lat="45.4663083" lon="8.7952967"><ele>121.00000000000001</ele><time>2026-04-26T08:31:43.5Z</time></trkpt><trkpt lat="45.46636" lon="8.7952067"><ele>121.0</ele><time>2026-04-26T08:31:46.5Z</time></trkpt><trkpt lat="45.4664183" lon="8.79511"><ele>121.0</ele><time>2026-04-26T08:31:49.499Z</time></trkpt><trkpt lat="45.46646" lon="8.7950367"><ele>121.0</ele><time>2026-04-26T08:31:51.499Z</time></trkpt><trkpt lat="45.466515" lon="8.7949633"><ele>121.00000000000001</ele><time>2026-04-26T08:31:53.5Z</time></trkpt><trkpt lat="45.4665683" lon="8.794895"><ele>121.0</ele><time>2026-04-26T08:31:55.499Z</time></trkpt><trkpt lat="45.4666417" lon="8.794815"><ele>120.57142857142857</ele><time>2026-04-26T08:31:57.499Z</time></trkpt><trkpt lat="45.4667133" lon="8.794795"><ele>120.14285714285714</ele><time>2026-04-26T08:31:59.5Z</time></trkpt><trkpt lat="45.4667883" lon="8.794805"><ele>119.71428571428571</ele><time>2026-04-26T08:32:01.499Z</time></trkpt><trkpt lat="45.46686" lon="8.79484"><ele>119.28571428571428</ele><time>2026-04-26T08:32:03.5Z</time></trkpt><trkpt lat="45.4669217" lon="8.7948833"><ele>118.85714285714286</ele><time>2026-04-26T08:32:05.499Z</time></trkpt><trkpt lat="45.4669867" lon="8.7948983"><ele>118.42857142857142</ele><time>2026-04-26T08:32:07.499Z</time></trkpt><trkpt lat="45.4670683" lon="8.79488"><ele>118.0</ele><time>2026-04-26T08:32:09.5Z</time></trkpt><trkpt lat="45.4671417" lon="8.7948333"><ele>117.83333333333334</ele><time>2026-04-26T08:32:11.5Z</time></trkpt><trkpt lat="45.4672183" lon="8.794815"><ele>117.66666666666667</ele><time>2026-04-26T08:32:13.499Z</time></trkpt><trkpt lat="45.4672883" lon="8.7948167"><ele>117.5</ele><time>2026-04-26T08:32:15.499Z</time></trkpt><trkpt lat="45.4673617" lon="8.794835"><ele>117.33333333333334</ele><time>2026-04-26T08:32:17.5Z</time></trkpt><trkpt lat="45.4674417" lon="8.7948533"><ele>117.16666666666667</ele><time>2026-04-26T08:32:19.499Z</time></trkpt><trkpt lat="45.4675133" lon="8.7949033"><ele>117.0</ele><time>2026-04-26T08:32:21.5Z</time></trkpt><trkpt lat="45.467565" lon="8.7949883"><ele>117.0</ele><time>2026-04-26T08:32:23.5Z</time></trkpt><trkpt lat="45.4676067" lon="8.79509"><ele>117.0</ele><time>2026-04-26T08:32:25.499Z</time></trkpt><trkpt lat="45.46767" lon="8.7951933"><ele>117.0</ele><time>2026-04-26T08:32:27.499Z</time></trkpt><trkpt lat="45.4677283" lon="8.79528"><ele>117.0</ele><time>2026-04-26T08:32:29.5Z</time></trkpt><trkpt lat="45.4677783" lon="8.7953717"><ele>117.0</ele><time>2026-04-26T08:32:31.5Z</time></trkpt><trkpt lat="45.4678317" lon="8.7954433"><ele>117.0</ele><time>2026-04-26T08:32:33.499Z</time></trkpt><trkpt lat="45.4678867" lon="8.7955283"><ele>117.0</ele><time>2026-04-26T08:32:35.499Z</time></trkpt><trkpt lat="45.467915" lon="8.7956267"><ele>117.0</ele><time>2026-04-26T08:32:37.5Z</time></trkpt><trkpt lat="45.4679267" lon="8.7957683"><ele>117.0</ele><time>2026-04-26T08:32:39.499Z</time></trkpt><trkpt lat="45.46797" lon="8.7958933"><ele>117.0</ele><time>2026-04-26T08:32:41.499Z</time></trkpt><trkpt lat="45.4680283" lon="8.7959467"><ele>117.0</ele><time>2026-04-26T08:32:43.499Z</time></trkpt><trkpt lat="45.468105" lon="8.7959383"><ele>117.0</ele><time>2026-04-26T08:32:45.5Z</time></trkpt><trkpt lat="45.4681967" lon="8.7959317"><ele>117.0</ele><time>2026-04-26T08:32:47.499Z</time></trkpt><trkpt lat="45.4682767" lon="8.79593"><ele>117.0</ele><time>2026-04-26T08:32:49.5Z</time></trkpt><trkpt lat="45.4683483" lon="8.795895"><ele>117.0</ele><time>2026-04-26T08:32:51.5Z</time></trkpt><trkpt lat="45.468415" lon="8.795835"><ele>117.0</ele><time>2026-04-26T08:32:53.499Z</time></trkpt><trkpt lat="45.4684817" lon="8.7957767"><ele>117.0</ele><time>2026-04-26T08:32:55.5Z</time></trkpt><trkpt lat="45.4685433" lon="8.7956967"><ele>117.0</ele><time>2026-04-26T08:32:57.5Z</time></trkpt><trkpt lat="45.4686017" lon="8.795625"><ele>117.0</ele><time>2026-04-26T08:32:59.5Z</time></trkpt><trkpt lat="45.4686783" lon="8.7955717"><ele>117.0</ele><time>2026-04-26T08:33:01.5Z</time></trkpt><trkpt lat="45.4687483" lon="8.7955533"><ele>117.0</ele><time>2026-04-26T08:33:03.5Z</time></trkpt><trkpt lat="45.4688317" lon="8.7955533"><ele>117.0</ele><time>2026-04-26T08:33:06.499Z</time></trkpt><trkpt lat="45.4688983" lon="8.7955383"><ele>117.0</ele><time>2026-04-26T08:33:10.5Z</time></trkpt><trkpt lat="45.4689617" lon="8.7955833"><ele>117.0</ele><time>2026-04-26T08:33:14.5Z</time></trkpt><trkpt lat="45.4690367" lon="8.7956067"><ele>117.0</ele><time>2026-04-26T08:33:18.499Z</time></trkpt><trkpt lat="45.4691167" lon="8.7955983"><ele>117.0</ele><time>2026-04-26T08:33:34.5Z</time></trkpt><trkpt lat="45.4691583" lon="8.7955"><ele>117.0</ele><time>2026-04-26T08:33:39.499Z</time></trkpt><trkpt lat="45.4692083" lon="8.795415"><ele>117.0</ele><time>2026-04-26T08:33:42.5Z</time></trkpt><trkpt lat="45.4692833" lon="8.7953817"><ele>117.0</ele><time>2026-04-26T08:33:44.499Z</time></trkpt><trkpt lat="45.4693733" lon="8.7953667"><ele>117.0</ele><time>2026-04-26T08:33:46.499Z</time></trkpt><trkpt lat="45.4694783" lon="8.7953667"><ele>117.0</ele><time>2026-04-26T08:33:48.499Z</time></trkpt><trkpt lat="45.46957" lon="8.79537"><ele>116.99999999999999</ele><time>2026-04-26T08:33:50.499Z</time></trkpt><trkpt lat="45.469655" lon="8.7953617"><ele>116.99999999999999</ele><time>2026-04-26T08:33:52.5Z</time></trkpt><trkpt lat="45.4697333" lon="8.79536"><ele>117.0</ele><time>2026-04-26T08:33:54.5Z</time></trkpt><trkpt lat="45.469835" lon="8.795345"><ele>117.0</ele><time>2026-04-26T08:33:56.5Z</time></trkpt><trkpt lat="45.46995" lon="8.7953417"><ele>117.5</ele><time>2026-04-26T08:33:58.5Z</time></trkpt><trkpt lat="45.4700133" lon="8.7953433"><ele>118.0</ele><time>2026-04-26T08:33:59.5Z</time></trkpt><trkpt lat="45.47012" lon="8.79535"><ele>118.5</ele><time>2026-04-26T08:34:01.499Z</time></trkpt><trkpt lat="45.4702033" lon="8.7953733"><ele>119.0</ele><time>2026-04-26T08:34:03.5Z</time></trkpt><trkpt lat="45.47027" lon="8.7954367"><ele>119.5</ele><time>2026-04-26T08:34:05.499Z</time></trkpt><trkpt lat="45.4703283" lon="8.7955217"><ele>120.0</ele><time>2026-04-26T08:34:07.5Z</time></trkpt><trkpt lat="45.4703983" lon="8.7956333"><ele>120.0</ele><time>2026-04-26T08:34:09.499Z</time></trkpt><trkpt lat="45.4704617" lon="8.7957483"><ele>120.0</ele><time>2026-04-26T08:34:11.5Z</time></trkpt><trkpt lat="45.4705183" lon="8.7958783"><ele>120.0</ele><time>2026-04-26T08:34:13.5Z</time></trkpt><trkpt lat="45.4705417" lon="8.79603"><ele>120.0</ele><time>2026-04-26T08:34:15.499Z</time></trkpt><trkpt lat="45.470555" lon="8.7961983"><ele>120.0</ele><time>2026-04-26T08:34:17.5Z</time></trkpt><trkpt lat="45.470575" lon="8.7963633"><ele>120.0</ele><time>2026-04-26T08:34:19.5Z</time></trkpt><trkpt lat="45.4705983" lon="8.7965217"><ele>120.0</ele><time>2026-04-26T08:34:21.499Z</time></trkpt><trkpt lat="45.470615" lon="8.7966783"><ele>120.0</ele><time>2026-04-26T08:34:23.499Z</time></trkpt><trkpt lat="45.4706317" lon="8.7968383"><ele>120.0</ele><time>2026-04-26T08:34:25.5Z</time></trkpt><trkpt lat="45.470655" lon="8.7969867"><ele>120.0</ele><time>2026-04-26T08:34:27.499Z</time></trkpt><trkpt lat="45.4706783" lon="8.7971433"><ele>120.0</ele><time>2026-04-26T08:34:29.5Z</time></trkpt><trkpt lat="45.470685" lon="8.7972967"><ele>120.0</ele><time>2026-04-26T08:34:31.499Z</time></trkpt><trkpt lat="45.4706933" lon="8.7974417"><ele>120.0</ele><time>2026-04-26T08:34:33.499Z</time></trkpt><trkpt lat="45.4707083" lon="8.7975967"><ele>120.0</ele><time>2026-04-26T08:34:35.5Z</time></trkpt><trkpt lat="45.4707217" lon="8.7977417"><ele>120.0</ele><time>2026-04-26T08:34:37.499Z</time></trkpt><trkpt lat="45.4707333" lon="8.7978933"><ele>120.0</ele><time>2026-04-26T08:34:39.5Z</time></trkpt><trkpt lat="45.47074" lon="8.7980383"><ele>120.0</ele><time>2026-04-26T08:34:41.5Z</time></trkpt><trkpt lat="45.47075" lon="8.79818"><ele>120.0</ele><time>2026-04-26T08:34:43.499Z</time></trkpt><trkpt lat="45.4707567" lon="8.798325"><ele>120.0</ele><time>2026-04-26T08:34:45.499Z</time></trkpt><trkpt lat="45.4707617" lon="8.7984633"><ele>120.0</ele><time>2026-04-26T08:34:47.499Z</time></trkpt><trkpt lat="45.4707767" lon="8.7986217"><ele>119.8</ele><time>2026-04-26T08:34:49.499Z</time></trkpt><trkpt lat="45.4708017" lon="8.7987833"><ele>119.6</ele><time>2026-04-26T08:34:51.499Z</time></trkpt><trkpt lat="45.470825" lon="8.7989183"><ele>119.4</ele><time>2026-04-26T08:34:53.5Z</time></trkpt><trkpt lat="45.4708717" lon="8.7990333"><ele>119.2</ele><time>2026-04-26T08:34:55.5Z</time></trkpt><trkpt lat="45.4709617" lon="8.79911"><ele>119.0</ele><time>2026-04-26T08:34:57.499Z</time></trkpt><trkpt lat="45.4710433" lon="8.79913"><ele>119.0</ele><time>2026-04-26T08:34:59.5Z</time></trkpt><trkpt lat="45.4711233" lon="8.7991083"><ele>119.0</ele><time>2026-04-26T08:35:02.499Z</time></trkpt><trkpt lat="45.471185" lon="8.7991317"><ele>119.0</ele><time>2026-04-26T08:35:30.5Z</time></trkpt><trkpt lat="45.4712117" lon="8.7990483"><ele>119.0</ele><time>2026-04-26T08:35:37.499Z</time></trkpt><trkpt lat="45.4711867" lon="8.7989383"><ele>119.0</ele><time>2026-04-26T08:35:40.499Z</time></trkpt><trkpt lat="45.4711817" lon="8.798845"><ele>119.0</ele><time>2026-04-26T08:35:42.499Z</time></trkpt><trkpt lat="45.471155" lon="8.798725"><ele>119.0</ele><time>2026-04-26T08:35:45.5Z</time></trkpt><trkpt lat="45.471135" lon="8.7986267"><ele>119.0</ele><time>2026-04-26T08:35:47.499Z</time></trkpt><trkpt lat="45.4711167" lon="8.79853"><ele>119.0</ele><time>2026-04-26T08:35:49.5Z</time></trkpt><trkpt lat="45.4710983" lon="8.79844"><ele>119.0</ele><time>2026-04-26T08:35:51.5Z</time></trkpt><trkpt lat="45.4710983" lon="8.7983183"><ele>119.0</ele><time>2026-04-26T08:35:53.499Z</time></trkpt><trkpt lat="45.4710783" lon="8.7982133"><ele>119.0</ele><time>2026-04-26T08:35:55.499Z</time></trkpt><trkpt lat="45.47106" lon="8.798125"><ele>119.0</ele><time>2026-04-26T08:35:57.5Z</time></trkpt><trkpt lat="45.4710567" lon="8.798005"><ele>119.0</ele><time>2026-04-26T08:35:59.5Z</time></trkpt><trkpt lat="45.4710433" lon="8.7978883"><ele>119.16666666666666</ele><time>2026-04-26T08:36:01.499Z</time></trkpt><trkpt lat="45.471025" lon="8.7977783"><ele>119.33333333333333</ele><time>2026-04-26T08:36:03.499Z</time></trkpt><trkpt lat="45.47103" lon="8.797645"><ele>119.5</ele><time>2026-04-26T08:36:05.5Z</time></trkpt><trkpt lat="45.4710233" lon="8.7975183"><ele>119.66666666666666</ele><time>2026-04-26T08:36:07.5Z</time></trkpt><trkpt lat="45.4710083" lon="8.7974117"><ele>119.83333333333333</ele><time>2026-04-26T08:36:09.499Z</time></trkpt><trkpt lat="45.4709867" lon="8.7972883"><ele>120.0</ele><time>2026-04-26T08:36:11.499Z</time></trkpt><trkpt lat="45.470975" lon="8.797155"><ele>120.0</ele><time>2026-04-26T08:36:13.5Z</time></trkpt><trkpt lat="45.4709733" lon="8.7970367"><ele>120.0</ele><time>2026-04-26T08:36:15.499Z</time></trkpt><trkpt lat="45.4709533" lon="8.796925"><ele>120.0</ele><time>2026-04-26T08:36:17.499Z</time></trkpt><trkpt lat="45.470935" lon="8.796825"><ele>120.0</ele><time>2026-04-26T08:36:19.499Z</time></trkpt><trkpt lat="45.4709233" lon="8.7966933"><ele>120.0</ele><time>2026-04-26T08:36:21.5Z</time></trkpt><trkpt lat="45.4709133" lon="8.7965617"><ele>120.0</ele><time>2026-04-26T08:36:23.499Z</time></trkpt><trkpt lat="45.4709" lon="8.7964383"><ele>120.0</ele><time>2026-04-26T08:36:25.499Z</time></trkpt><trkpt lat="45.470895" lon="8.7963117"><ele>120.0</ele><time>2026-04-26T08:36:27.5Z</time></trkpt><trkpt lat="45.4708783" lon="8.79619"><ele>120.0</ele><time>2026-04-26T08:36:29.499Z</time></trkpt><trkpt lat="45.4708633" lon="8.7960583"><ele>120.0</ele><time>2026-04-26T08:36:31.499Z</time></trkpt><trkpt lat="45.4708517" lon="8.7959333"><ele>120.0</ele><time>2026-04-26T08:36:33.499Z</time></trkpt><trkpt lat="45.4708267" lon="8.79582"><ele>120.0</ele><time>2026-04-26T08:36:35.5Z</time></trkpt><trkpt lat="45.4708183" lon="8.79568"><ele>119.8</ele><time>2026-04-26T08:36:37.499Z</time></trkpt><trkpt lat="45.4708167" lon="8.7955333"><ele>119.6</ele><time>2026-04-26T08:36:39.499Z</time></trkpt><trkpt lat="45.4708033" lon="8.7953917"><ele>119.4</ele><time>2026-04-26T08:36:41.5Z</time></trkpt><trkpt lat="45.470775" lon="8.7952583"><ele>119.2</ele><time>2026-04-26T08:36:43.499Z</time></trkpt><trkpt lat="45.47076" lon="8.795115"><ele>119.0</ele><time>2026-04-26T08:36:45.499Z</time></trkpt><trkpt lat="45.4707517" lon="8.7949683"><ele>119.0</ele><time>2026-04-26T08:36:47.499Z</time></trkpt><trkpt lat="45.470745" lon="8.7948333"><ele>119.0</ele><time>2026-04-26T08:36:49.5Z</time></trkpt><trkpt lat="45.4707333" lon="8.7947033"><ele>119.0</ele><time>2026-04-26T08:36:51.5Z</time></trkpt><trkpt lat="45.4707117" lon="8.7945667"><ele>119.0</ele><time>2026-04-26T08:36:53.5Z</time></trkpt><trkpt lat="45.470695" lon="8.7944217"><ele>119.0</ele><time>2026-04-26T08:36:55.5Z</time></trkpt><trkpt lat="45.4706767" lon="8.794285"><ele>119.2</ele><time>2026-04-26T08:36:57.499Z</time></trkpt><trkpt lat="45.4706633" lon="8.7941517"><ele>119.4</ele><time>2026-04-26T08:36:59.499Z</time></trkpt><trkpt lat="45.470655" lon="8.79402"><ele>119.6</ele><time>2026-04-26T08:37:01.5Z</time></trkpt><trkpt lat="45.4706483" lon="8.79388"><ele>119.8</ele><time>2026-04-26T08:37:03.499Z</time></trkpt><trkpt lat="45.4706333" lon="8.7937433"><ele>120.0</ele><time>2026-04-26T08:37:05.499Z</time></trkpt><trkpt lat="45.470605" lon="8.7936183"><ele>119.8</ele><time>2026-04-26T08:37:07.5Z</time></trkpt><trkpt lat="45.470595" lon="8.7934783"><ele>119.6</ele><time>2026-04-26T08:37:09.5Z</time></trkpt><trkpt lat="45.47058" lon="8.79335"><ele>119.4</ele><time>2026-04-26T08:37:11.5Z</time></trkpt><trkpt lat="45.4705633" lon="8.7932117"><ele>119.2</ele><time>2026-04-26T08:37:13.5Z</time></trkpt><trkpt lat="45.4705533" lon="8.7930733"><ele>119.0</ele><time>2026-04-26T08:37:15.5Z</time></trkpt><trkpt lat="45.4705333" lon="8.7929367"><ele>118.99999999999999</ele><time>2026-04-26T08:37:17.5Z</time></trkpt><trkpt lat="45.4705167" lon="8.7928033"><ele>119.0</ele><time>2026-04-26T08:37:19.5Z</time></trkpt><trkpt lat="45.4705033" lon="8.7926733"><ele>119.0</ele><time>2026-04-26T08:37:21.499Z</time></trkpt><trkpt lat="45.4704917" lon="8.7925583"><ele>119.0</ele><time>2026-04-26T08:37:23.499Z</time></trkpt><trkpt lat="45.4704767" lon="8.79246"><ele>118.99999999999999</ele><time>2026-04-26T08:37:25.5Z</time></trkpt><trkpt lat="45.4705067" lon="8.7923333"><ele>119.0</ele><time>2026-04-26T08:37:28.5Z</time></trkpt><trkpt lat="45.4705867" lon="8.7922917"><ele>118.66666666666666</ele><time>2026-04-26T08:37:31.5Z</time></trkpt><trkpt lat="45.4706617" lon="8.7922917"><ele>118.33333333333333</ele><time>2026-04-26T08:37:34.499Z</time></trkpt><trkpt lat="45.4707417" lon="8.7922833"><ele>118.0</ele><time>2026-04-26T08:37:37.499Z</time></trkpt><trkpt lat="45.4708333" lon="8.7922883"><ele>117.66666666666666</ele><time>2026-04-26T08:37:40.5Z</time></trkpt><trkpt lat="45.470925" lon="8.7922917"><ele>117.33333333333333</ele><time>2026-04-26T08:37:43.5Z</time></trkpt><trkpt lat="45.4709983" lon="8.7923067"><ele>117.0</ele><time>2026-04-26T08:37:45.5Z</time></trkpt><trkpt lat="45.4710833" lon="8.7923083"><ele>117.0</ele><time>2026-04-26T08:37:47.499Z</time></trkpt><trkpt lat="45.4711733" lon="8.79233"><ele>116.99999999999999</ele><time>2026-04-26T08:37:49.498Z</time></trkpt><trkpt lat="45.4712783" lon="8.7923433"><ele>116.99999999999999</ele><time>2026-04-26T08:37:51.499Z</time></trkpt><trkpt lat="45.4713883" lon="8.7923733"><ele>117.0</ele><time>2026-04-26T08:37:53.499Z</time></trkpt><trkpt lat="45.4715" lon="8.7923783"><ele>117.0</ele><time>2026-04-26T08:37:55.499Z</time></trkpt><trkpt lat="45.47159" lon="8.7923833"><ele>117.0</ele><time>2026-04-26T08:37:57.498Z</time></trkpt><trkpt lat="45.4716883" lon="8.7923983"><ele>116.99999999999999</ele><time>2026-04-26T08:37:59.499Z</time></trkpt><trkpt lat="45.4717883" lon="8.7924217"><ele>116.99999999999999</ele><time>2026-04-26T08:38:01.499Z</time></trkpt><trkpt lat="45.47187" lon="8.7924367"><ele>117.0</ele><time>2026-04-26T08:38:03.498Z</time></trkpt><trkpt lat="45.4719667" lon="8.7924533"><ele>117.0</ele><time>2026-04-26T08:38:05.499Z</time></trkpt><trkpt lat="45.4720683" lon="8.792475"><ele>117.0</ele><time>2026-04-26T08:38:07.498Z</time></trkpt><trkpt lat="45.47216" lon="8.7924767"><ele>117.0</ele><time>2026-04-26T08:38:09.498Z</time></trkpt><trkpt lat="45.47226" lon="8.7924867"><ele>117.0</ele><time>2026-04-26T08:38:11.499Z</time></trkpt><trkpt lat="45.4723733" lon="8.7925167"><ele>117.0</ele><time>2026-04-26T08:38:13.499Z</time></trkpt><trkpt lat="45.472435" lon="8.792535"><ele>117.0</ele><time>2026-04-26T08:38:14.499Z</time></trkpt><trkpt lat="45.4725" lon="8.7925417"><ele>117.0</ele><time>2026-04-26T08:38:15.499Z</time></trkpt><trkpt lat="45.47262" lon="8.7925633"><ele>117.0</ele><time>2026-04-26T08:38:17.499Z</time></trkpt><trkpt lat="45.472735" lon="8.79258"><ele>116.99999999999999</ele><time>2026-04-26T08:38:19.498Z</time></trkpt><trkpt lat="45.47285" lon="8.7926017"><ele>116.99999999999999</ele><time>2026-04-26T08:38:21.499Z</time></trkpt><trkpt lat="45.472915" lon="8.7926117"><ele>117.0</ele><time>2026-04-26T08:38:22.499Z</time></trkpt><trkpt lat="45.4730383" lon="8.7926367"><ele>117.0</ele><time>2026-04-26T08:38:24.498Z</time></trkpt><trkpt lat="45.4731617" lon="8.7926717"><ele>117.57142857142858</ele><time>2026-04-26T08:38:26.498Z</time></trkpt><trkpt lat="45.4732317" lon="8.7926817"><ele>118.14285714285715</ele><time>2026-04-26T08:38:27.499Z</time></trkpt><trkpt lat="45.4733" lon="8.79269"><ele>118.71428571428572</ele><time>2026-04-26T08:38:28.498Z</time></trkpt><trkpt lat="45.4733683" lon="8.7926967"><ele>119.28571428571428</ele><time>2026-04-26T08:38:29.498Z</time></trkpt><trkpt lat="45.4734367" lon="8.7927033"><ele>119.85714285714285</ele><time>2026-04-26T08:38:30.498Z</time></trkpt><trkpt lat="45.4735133" lon="8.79271"><ele>120.42857142857142</ele><time>2026-04-26T08:38:31.498Z</time></trkpt><trkpt lat="45.4735817" lon="8.79272"><ele>121.0</ele><time>2026-04-26T08:38:32.499Z</time></trkpt><trkpt lat="45.4736483" lon="8.7927333"><ele>121.00000000000001</ele><time>2026-04-26T08:38:33.498Z</time></trkpt><trkpt lat="45.473715" lon="8.79274"><ele>121.0</ele><time>2026-04-26T08:38:34.498Z</time></trkpt><trkpt lat="45.47378" lon="8.7927467"><ele>121.0</ele><time>2026-04-26T08:38:35.499Z</time></trkpt><trkpt lat="45.4738433" lon="8.7927533"><ele>121.0</ele><time>2026-04-26T08:38:36.499Z</time></trkpt><trkpt lat="45.4739617" lon="8.7927717"><ele>121.00000000000001</ele><time>2026-04-26T08:38:38.498Z</time></trkpt><trkpt lat="45.4740733" lon="8.7927817"><ele>121.0</ele><time>2026-04-26T08:38:40.499Z</time></trkpt><trkpt lat="45.4741383" lon="8.7927833"><ele>120.83333333333334</ele><time>2026-04-26T08:38:41.498Z</time></trkpt><trkpt lat="45.4742017" lon="8.7927867"><ele>120.66666666666667</ele><time>2026-04-26T08:38:42.498Z</time></trkpt><trkpt lat="45.4743267" lon="8.7927967"><ele>120.5</ele><time>2026-04-26T08:38:44.498Z</time></trkpt><trkpt lat="45.4744517" lon="8.7928"><ele>120.33333333333334</ele><time>2026-04-26T08:38:46.499Z</time></trkpt><trkpt lat="45.4745217" lon="8.7927983"><ele>120.16666666666667</ele><time>2026-04-26T08:38:47.499Z</time></trkpt><trkpt lat="45.4745867" lon="8.792795"><ele>120.0</ele><time>2026-04-26T08:38:48.499Z</time></trkpt><trkpt lat="45.4747033" lon="8.7928033"><ele>120.0</ele><time>2026-04-26T08:38:50.498Z</time></trkpt><trkpt lat="45.474775" lon="8.7927967"><ele>120.0</ele><time>2026-04-26T08:38:51.498Z</time></trkpt><trkpt lat="45.4748433" lon="8.7927933"><ele>120.0</ele><time>2026-04-26T08:38:52.498Z</time></trkpt><trkpt lat="45.4749067" lon="8.7927867"><ele>120.0</ele><time>2026-04-26T08:38:53.498Z</time></trkpt><trkpt lat="45.4750267" lon="8.7927733"><ele>120.0</ele><time>2026-04-26T08:38:55.499Z</time></trkpt><trkpt lat="45.4751467" lon="8.7927417"><ele>120.0</ele><time>2026-04-26T08:38:57.499Z</time></trkpt><trkpt lat="45.4752133" lon="8.7927333"><ele>120.0</ele><time>2026-04-26T08:38:58.499Z</time></trkpt><trkpt lat="45.4752783" lon="8.7927233"><ele>120.0</ele><time>2026-04-26T08:38:59.499Z</time></trkpt><trkpt lat="45.4753417" lon="8.792715"><ele>120.0</ele><time>2026-04-26T08:39:00.498Z</time></trkpt><trkpt lat="45.47546" lon="8.792685"><ele>120.0</ele><time>2026-04-26T08:39:02.499Z</time></trkpt><trkpt lat="45.4755833" lon="8.7926517"><ele>120.0</ele><time>2026-04-26T08:39:04.498Z</time></trkpt><trkpt lat="45.475695" lon="8.7926217"><ele>119.4</ele><time>2026-04-26T08:39:06.498Z</time></trkpt><trkpt lat="45.4758067" lon="8.7925933"><ele>118.8</ele><time>2026-04-26T08:39:08.499Z</time></trkpt><trkpt lat="45.4759233" lon="8.7925833"><ele>118.19999999999999</ele><time>2026-04-26T08:39:10.498Z</time></trkpt><trkpt lat="45.4760133" lon="8.792565"><ele>117.6</ele><time>2026-04-26T08:39:12.498Z</time></trkpt><trkpt lat="45.4760933" lon="8.79254"><ele>117.0</ele><time>2026-04-26T08:39:14.498Z</time></trkpt><trkpt lat="45.47617" lon="8.792515"><ele>117.0</ele><time>2026-04-26T08:39:16.498Z</time></trkpt><trkpt lat="45.476255" lon="8.7924783"><ele>116.99999999999999</ele><time>2026-04-26T08:39:18.499Z</time></trkpt><trkpt lat="45.4763533" lon="8.7924317"><ele>116.99999999999999</ele><time>2026-04-26T08:39:20.498Z</time></trkpt><trkpt lat="45.476465" lon="8.7924"><ele>117.0</ele><time>2026-04-26T08:39:22.499Z</time></trkpt><trkpt lat="45.47658" lon="8.7923817"><ele>117.0</ele><time>2026-04-26T08:39:24.499Z</time></trkpt><trkpt lat="45.4766933" lon="8.7923867"><ele>117.25</ele><time>2026-04-26T08:39:26.498Z</time></trkpt><trkpt lat="45.4768" lon="8.79242"><ele>117.5</ele><time>2026-04-26T08:39:28.498Z</time></trkpt><trkpt lat="45.4769183" lon="8.7924817"><ele>117.75</ele><time>2026-04-26T08:39:30.498Z</time></trkpt><trkpt lat="45.4770267" lon="8.79255"><ele>118.0</ele><time>2026-04-26T08:39:32.499Z</time></trkpt><trkpt lat="45.4771333" lon="8.7926317"><ele>118.60000000000001</ele><time>2026-04-26T08:39:34.498Z</time></trkpt><trkpt lat="45.47723" lon="8.7927117"><ele>119.20000000000002</ele><time>2026-04-26T08:39:36.498Z</time></trkpt><trkpt lat="45.4773117" lon="8.7927767"><ele>119.8</ele><time>2026-04-26T08:39:38.499Z</time></trkpt><trkpt lat="45.477385" lon="8.7928683"><ele>120.4</ele><time>2026-04-26T08:39:40.498Z</time></trkpt><trkpt lat="45.4774367" lon="8.7929733"><ele>121.0</ele><time>2026-04-26T08:39:42.499Z</time></trkpt><trkpt lat="45.4774883" lon="8.7930833"><ele>121.0</ele><time>2026-04-26T08:39:44.498Z</time></trkpt><trkpt lat="45.4775067" lon="8.79324"><ele>121.0</ele><time>2026-04-26T08:39:46.499Z</time></trkpt><trkpt lat="45.4775233" lon="8.7933783"><ele>121.0</ele><time>2026-04-26T08:39:48.499Z</time></trkpt><trkpt lat="45.4775283" lon="8.7935367"><ele>121.0</ele><time>2026-04-26T08:39:50.498Z</time></trkpt><trkpt lat="45.47753" lon="8.79367"><ele>121.0</ele><time>2026-04-26T08:39:52.499Z</time></trkpt><trkpt lat="45.4775383" lon="8.7938033"><ele>121.19999999999999</ele><time>2026-04-26T08:39:54.498Z</time></trkpt><trkpt lat="45.477545" lon="8.7939533"><ele>121.39999999999999</ele><time>2026-04-26T08:39:56.499Z</time></trkpt><trkpt lat="45.47754" lon="8.79409"><ele>121.6</ele><time>2026-04-26T08:39:58.499Z</time></trkpt><trkpt lat="45.477545" lon="8.7942167"><ele>121.8</ele><time>2026-04-26T08:40:00.499Z</time></trkpt><trkpt lat="45.4775717" lon="8.7943433"><ele>122.0</ele><time>2026-04-26T08:40:02.498Z</time></trkpt><trkpt lat="45.4776083" lon="8.79443"><ele>121.99999999999999</ele><time>2026-04-26T08:40:04.499Z</time></trkpt><trkpt lat="45.4776667" lon="8.7945033"><ele>122.0</ele><time>2026-04-26T08:40:06.498Z</time></trkpt><trkpt lat="45.47772" lon="8.79458"><ele>122.0</ele><time>2026-04-26T08:40:08.499Z</time></trkpt><trkpt lat="45.4777767" lon="8.79468"><ele>122.0</ele><time>2026-04-26T08:40:10.498Z</time></trkpt><trkpt lat="45.477835" lon="8.7947767"><ele>121.99999999999999</ele><time>2026-04-26T08:40:12.498Z</time></trkpt><trkpt lat="45.4778967" lon="8.794885"><ele>122.0</ele><time>2026-04-26T08:40:14.499Z</time></trkpt><trkpt lat="45.4779467" lon="8.7949783"><ele>121.99999999999999</ele><time>2026-04-26T08:40:16.499Z</time></trkpt><trkpt lat="45.4780017" lon="8.79507"><ele>122.0</ele><time>2026-04-26T08:40:18.498Z</time></trkpt><trkpt lat="45.478065" lon="8.795155"><ele>122.0</ele><time>2026-04-26T08:40:20.498Z</time></trkpt><trkpt lat="45.4781367" lon="8.7952417"><ele>122.0</ele><time>2026-04-26T08:40:22.498Z</time></trkpt><trkpt lat="45.4782067" lon="8.7953"><ele>121.99999999999999</ele><time>2026-04-26T08:40:24.499Z</time></trkpt><trkpt lat="45.4782967" lon="8.79537"><ele>122.0</ele><time>2026-04-26T08:40:26.498Z</time></trkpt><trkpt lat="45.4783833" lon="8.79544"><ele>122.16666666666666</ele><time>2026-04-26T08:40:28.498Z</time></trkpt><trkpt lat="45.47847" lon="8.7955317"><ele>122.33333333333333</ele><time>2026-04-26T08:40:30.498Z</time></trkpt><trkpt lat="45.4785467" lon="8.795615"><ele>122.5</ele><time>2026-04-26T08:40:32.499Z</time></trkpt><trkpt lat="45.4786017" lon="8.7956833"><ele>122.66666666666666</ele><time>2026-04-26T08:40:34.498Z</time></trkpt><trkpt lat="45.4786633" lon="8.7957317"><ele>122.83333333333333</ele><time>2026-04-26T08:40:36.499Z</time></trkpt><trkpt lat="45.4787233" lon="8.7957733"><ele>123.0</ele><time>2026-04-26T08:40:38.499Z</time></trkpt><trkpt lat="45.4787867" lon="8.7958217"><ele>123.2</ele><time>2026-04-26T08:40:40.499Z</time></trkpt><trkpt lat="45.47886" lon="8.79586"><ele>123.4</ele><time>2026-04-26T08:40:42.498Z</time></trkpt><trkpt lat="45.4789467" lon="8.7959067"><ele>123.60000000000001</ele><time>2026-04-26T08:40:44.498Z</time></trkpt><trkpt lat="45.47903" lon="8.795955"><ele>123.80000000000001</ele><time>2026-04-26T08:40:46.498Z</time></trkpt><trkpt lat="45.4791133" lon="8.7959883"><ele>124.0</ele><time>2026-04-26T08:40:48.498Z</time></trkpt><trkpt lat="45.4792117" lon="8.7960483"><ele>123.0</ele><time>2026-04-26T08:40:50.498Z</time></trkpt><trkpt lat="45.4792683" lon="8.79617"><ele>122.0</ele><time>2026-04-26T08:40:52.499Z</time></trkpt><trkpt lat="45.4793033" lon="8.79628"><ele>121.0</ele><time>2026-04-26T08:40:54.499Z</time></trkpt><trkpt lat="45.4793283" lon="8.7963983"><ele>120.0</ele><time>2026-04-26T08:40:56.499Z</time></trkpt><trkpt lat="45.4793633" lon="8.79652"><ele>119.0</ele><time>2026-04-26T08:40:58.499Z</time></trkpt><trkpt lat="45.4794133" lon="8.7966433"><ele>119.0</ele><time>2026-04-26T08:41:00.498Z</time></trkpt><trkpt lat="45.4794717" lon="8.79671"><ele>119.0</ele><time>2026-04-26T08:41:02.498Z</time></trkpt><trkpt lat="45.479545" lon="8.7967717"><ele>119.0</ele><time>2026-04-26T08:41:04.498Z</time></trkpt><trkpt lat="45.479625" lon="8.7968567"><ele>119.0</ele><time>2026-04-26T08:41:06.499Z</time></trkpt><trkpt lat="45.4796933" lon="8.7969733"><ele>119.0</ele><time>2026-04-26T08:41:08.499Z</time></trkpt><trkpt lat="45.4797683" lon="8.7970683"><ele>119.2</ele><time>2026-04-26T08:41:10.498Z</time></trkpt><trkpt lat="45.47984" lon="8.797175"><ele>119.4</ele><time>2026-04-26T08:41:12.499Z</time></trkpt><trkpt lat="45.4799067" lon="8.7972733"><ele>119.6</ele><time>2026-04-26T08:41:14.498Z</time></trkpt><trkpt lat="45.4799933" lon="8.7973783"><ele>119.8</ele><time>2026-04-26T08:41:16.498Z</time></trkpt><trkpt lat="45.48007" lon="8.79746"><ele>120.0</ele><time>2026-04-26T08:41:18.498Z</time></trkpt><trkpt lat="45.4801417" lon="8.797545"><ele>120.0</ele><time>2026-04-26T08:41:20.498Z</time></trkpt><trkpt lat="45.4802267" lon="8.7976283"><ele>120.0</ele><time>2026-04-26T08:41:22.499Z</time></trkpt><trkpt lat="45.48029" lon="8.7977067"><ele>120.0</ele><time>2026-04-26T08:41:24.498Z</time></trkpt><trkpt lat="45.4803717" lon="8.7977883"><ele>120.0</ele><time>2026-04-26T08:41:26.498Z</time></trkpt><trkpt lat="45.48045" lon="8.7978817"><ele>120.0</ele><time>2026-04-26T08:41:28.499Z</time></trkpt><trkpt lat="45.4805098" lon="8.7979817"><ele>120.0</ele><time>2026-04-26T08:41:30.499Z</time></trkpt><trkpt lat="45.4805492" lon="8.7980779"><ele>120.0</ele><time>2026-04-26T08:41:32.499Z</time></trkpt><trkpt lat="45.4804884" lon="8.7982282"><ele>120.0</ele><time>2026-04-26T08:41:36.589Z</time></trkpt><trkpt lat="45.4804072" lon="8.7983327"><ele>120.0</ele><time>2026-04-26T08:41:38.499Z</time></trkpt><trkpt lat="45.4803367" lon="8.7984333"><ele>120.0</ele><time>2026-04-26T08:41:40.498Z</time></trkpt><trkpt lat="45.480275" lon="8.7985383"><ele>120.4</ele><time>2026-04-26T08:41:42.498Z</time></trkpt><trkpt lat="45.4802133" lon="8.7986317"><ele>120.8</ele><time>2026-04-26T08:41:44.499Z</time></trkpt><trkpt lat="45.4801567" lon="8.79875"><ele>121.19999999999999</ele><time>2026-04-26T08:41:46.498Z</time></trkpt><trkpt lat="45.4800983" lon="8.798855"><ele>121.6</ele><time>2026-04-26T08:41:48.499Z</time></trkpt><trkpt lat="45.4800517" lon="8.7989617"><ele>122.0</ele><time>2026-04-26T08:41:50.499Z</time></trkpt><trkpt lat="45.480005" lon="8.799075"><ele>121.99999999999999</ele><time>2026-04-26T08:41:52.498Z</time></trkpt><trkpt lat="45.479965" lon="8.79918"><ele>122.0</ele><time>2026-04-26T08:41:54.498Z</time></trkpt><trkpt lat="45.4799633" lon="8.7992933"><ele>122.0</ele><time>2026-04-26T08:41:56.498Z</time></trkpt><trkpt lat="45.4800267" lon="8.7993383"><ele>122.0</ele><time>2026-04-26T08:41:58.498Z</time></trkpt><trkpt lat="45.4801133" lon="8.799265"><ele>121.99999999999999</ele><time>2026-04-26T08:42:00.499Z</time></trkpt><trkpt lat="45.4801883" lon="8.7991617"><ele>122.0</ele><time>2026-04-26T08:42:02.499Z</time></trkpt><trkpt lat="45.4802433" lon="8.7990667"><ele>122.0</ele><time>2026-04-26T08:42:04.499Z</time></trkpt><trkpt lat="45.480315" lon="8.7989833"><ele>121.99999999999999</ele><time>2026-04-26T08:42:06.498Z</time></trkpt><trkpt lat="45.4804033" lon="8.7989"><ele>121.99999999999999</ele><time>2026-04-26T08:42:08.499Z</time></trkpt><trkpt lat="45.480485" lon="8.7988567"><ele>122.0</ele><time>2026-04-26T08:42:10.498Z</time></trkpt><trkpt lat="45.4805767" lon="8.7988117"><ele>122.0</ele><time>2026-04-26T08:42:12.499Z</time></trkpt><trkpt lat="45.480665" lon="8.7987483"><ele>121.99999999999999</ele><time>2026-04-26T08:42:14.499Z</time></trkpt><trkpt lat="45.4807417" lon="8.7987083"><ele>122.0</ele><time>2026-04-26T08:42:16.498Z</time></trkpt><trkpt lat="45.4808117" lon="8.79867"><ele>122.0</ele><time>2026-04-26T08:42:18.498Z</time></trkpt><trkpt lat="45.4809017" lon="8.7986233"><ele>122.0</ele><time>2026-04-26T08:42:20.499Z</time></trkpt><trkpt lat="45.480995" lon="8.7985617"><ele>121.99999999999999</ele><time>2026-04-26T08:42:22.499Z</time></trkpt><trkpt lat="45.48108" lon="8.7985083"><ele>122.0</ele><time>2026-04-26T08:42:24.499Z</time></trkpt><trkpt lat="45.4811633" lon="8.7984633"><ele>122.0</ele><time>2026-04-26T08:42:26.499Z</time></trkpt><trkpt lat="45.4812283" lon="8.7984333"><ele>121.99999999999999</ele><time>2026-04-26T08:42:28.499Z</time></trkpt><trkpt lat="45.4813067" lon="8.798395"><ele>121.99999999999999</ele><time>2026-04-26T08:42:30.499Z</time></trkpt><trkpt lat="45.4813933" lon="8.7983467"><ele>122.0</ele><time>2026-04-26T08:42:32.498Z</time></trkpt><trkpt lat="45.4814933" lon="8.7982833"><ele>122.0</ele><time>2026-04-26T08:42:34.499Z</time></trkpt><trkpt lat="45.4815817" lon="8.7982133"><ele>122.39999999999999</ele><time>2026-04-26T08:42:36.499Z</time></trkpt><trkpt lat="45.481685" lon="8.79815"><ele>122.79999999999998</ele><time>2026-04-26T08:42:38.499Z</time></trkpt><trkpt lat="45.4817717" lon="8.7981033"><ele>123.2</ele><time>2026-04-26T08:42:40.498Z</time></trkpt><trkpt lat="45.48185" lon="8.7980433"><ele>123.6</ele><time>2026-04-26T08:42:42.499Z</time></trkpt><trkpt lat="45.4819233" lon="8.79798"><ele>124.0</ele><time>2026-04-26T08:42:44.498Z</time></trkpt><trkpt lat="45.48201" lon="8.7979033"><ele>124.0</ele><time>2026-04-26T08:42:46.499Z</time></trkpt><trkpt lat="45.4820917" lon="8.797825"><ele>124.0</ele><time>2026-04-26T08:42:48.498Z</time></trkpt><trkpt lat="45.4821783" lon="8.7977583"><ele>124.0</ele><time>2026-04-26T08:42:50.498Z</time></trkpt><trkpt lat="45.4822617" lon="8.797685"><ele>124.0</ele><time>2026-04-26T08:42:52.498Z</time></trkpt><trkpt lat="45.4823533" lon="8.7976033"><ele>124.0</ele><time>2026-04-26T08:42:54.498Z</time></trkpt><trkpt lat="45.4824567" lon="8.797525"><ele>124.0</ele><time>2026-04-26T08:42:56.498Z</time></trkpt><trkpt lat="45.4825483" lon="8.79748"><ele>124.0</ele><time>2026-04-26T08:42:58.499Z</time></trkpt><trkpt lat="45.4826367" lon="8.797445"><ele>124.0</ele><time>2026-04-26T08:43:00.498Z</time></trkpt><trkpt lat="45.4827283" lon="8.7974133"><ele>124.0</ele><time>2026-04-26T08:43:02.498Z</time></trkpt><trkpt lat="45.48282" lon="8.7973633"><ele>124.0</ele><time>2026-04-26T08:43:04.499Z</time></trkpt><trkpt lat="45.4829083" lon="8.7972917"><ele>124.4</ele><time>2026-04-26T08:43:06.499Z</time></trkpt><trkpt lat="45.482995" lon="8.797195"><ele>124.80000000000001</ele><time>2026-04-26T08:43:08.498Z</time></trkpt><trkpt lat="45.483075" lon="8.79709"><ele>125.19999999999999</ele><time>2026-04-26T08:43:10.498Z</time></trkpt><trkpt lat="45.4831667" lon="8.7970167"><ele>125.6</ele><time>2026-04-26T08:43:12.498Z</time></trkpt><trkpt lat="45.483265" lon="8.7969483"><ele>126.0</ele><time>2026-04-26T08:43:14.499Z</time></trkpt><trkpt lat="45.48335" lon="8.7968733"><ele>126.6</ele><time>2026-04-26T08:43:16.499Z</time></trkpt><trkpt lat="45.4834217" lon="8.7967867"><ele>127.19999999999999</ele><time>2026-04-26T08:43:18.498Z</time></trkpt><trkpt lat="45.4835" lon="8.7966967"><ele>127.80000000000001</ele><time>2026-04-26T08:43:20.499Z</time></trkpt><trkpt lat="45.48358" lon="8.796625"><ele>128.4</ele><time>2026-04-26T08:43:22.498Z</time></trkpt><trkpt lat="45.48366" lon="8.79657"><ele>129.0</ele><time>2026-04-26T08:43:24.498Z</time></trkpt><trkpt lat="45.4837483" lon="8.796525"><ele>130.0</ele><time>2026-04-26T08:43:26.499Z</time></trkpt><trkpt lat="45.483845" lon="8.7964717"><ele>131.0</ele><time>2026-04-26T08:43:28.498Z</time></trkpt><trkpt lat="45.48394" lon="8.7964233"><ele>132.0</ele><time>2026-04-26T08:43:30.499Z</time></trkpt><trkpt lat="45.4840317" lon="8.79637"><ele>133.0</ele><time>2026-04-26T08:43:32.499Z</time></trkpt><trkpt lat="45.4841217" lon="8.7962983"><ele>134.0</ele><time>2026-04-26T08:43:34.498Z</time></trkpt><trkpt lat="45.4842217" lon="8.7962483"><ele>134.0</ele><time>2026-04-26T08:43:36.498Z</time></trkpt><trkpt lat="45.4843183" lon="8.7962733"><ele>134.0</ele><time>2026-04-26T08:43:38.498Z</time></trkpt><trkpt lat="45.4843983" lon="8.7963317"><ele>134.0</ele><time>2026-04-26T08:43:40.498Z</time></trkpt><trkpt lat="45.4844883" lon="8.796425"><ele>134.0</ele><time>2026-04-26T08:43:42.499Z</time></trkpt><trkpt lat="45.4845717" lon="8.7965067"><ele>134.0</ele><time>2026-04-26T08:43:44.499Z</time></trkpt><trkpt lat="45.4846383" lon="8.7966017"><ele>134.0</ele><time>2026-04-26T08:43:46.499Z</time></trkpt><trkpt lat="45.484685" lon="8.796725"><ele>134.0</ele><time>2026-04-26T08:43:48.498Z</time></trkpt><trkpt lat="45.484725" lon="8.7968483"><ele>134.0</ele><time>2026-04-26T08:43:50.499Z</time></trkpt><trkpt lat="45.48477" lon="8.7969633"><ele>134.0</ele><time>2026-04-26T08:43:52.499Z</time></trkpt><trkpt lat="45.484805" lon="8.797065"><ele>134.0</ele><time>2026-04-26T08:43:54.499Z</time></trkpt><trkpt lat="45.48486" lon="8.7971617"><ele>134.0</ele><time>2026-04-26T08:43:56.499Z</time></trkpt><trkpt lat="45.4849117" lon="8.7972583"><ele>134.0</ele><time>2026-04-26T08:43:58.499Z</time></trkpt><trkpt lat="45.484965" lon="8.7973633"><ele>134.0</ele><time>2026-04-26T08:44:00.498Z</time></trkpt><trkpt lat="45.48503" lon="8.79747"><ele>134.0</ele><time>2026-04-26T08:44:02.498Z</time></trkpt><trkpt lat="45.48509" lon="8.797575"><ele>134.0</ele><time>2026-04-26T08:44:04.499Z</time></trkpt><trkpt lat="45.4851433" lon="8.797665"><ele>134.0</ele><time>2026-04-26T08:44:06.498Z</time></trkpt><trkpt lat="45.4852083" lon="8.7977567"><ele>134.0</ele><time>2026-04-26T08:44:08.499Z</time></trkpt><trkpt lat="45.4852633" lon="8.7978683"><ele>134.0</ele><time>2026-04-26T08:44:10.498Z</time></trkpt><trkpt lat="45.4853183" lon="8.7979667"><ele>134.0</ele><time>2026-04-26T08:44:12.498Z</time></trkpt><trkpt lat="45.4853788" lon="8.7980565"><ele>134.0</ele><time>2026-04-26T08:44:14.606Z</time></trkpt><trkpt lat="45.4854285" lon="8.7981214"><ele>134.0</ele><time>2026-04-26T08:44:16.523Z</time></trkpt><trkpt lat="45.4854882" lon="8.7981761"><ele>134.0</ele><time>2026-04-26T08:44:18.523Z</time></trkpt><trkpt lat="45.4855567" lon="8.79826"><ele>134.0</ele><time>2026-04-26T08:44:22.498Z</time></trkpt><trkpt lat="45.4856233" lon="8.7983083"><ele>134.0</ele><time>2026-04-26T08:44:24.499Z</time></trkpt><trkpt lat="45.4857067" lon="8.7983617"><ele>134.0</ele><time>2026-04-26T08:44:27.499Z</time></trkpt><trkpt lat="45.4857717" lon="8.7984126"><ele>134.0</ele><time>2026-04-26T08:44:30.554Z</time></trkpt><trkpt lat="45.485831" lon="8.7984527"><ele>134.0</ele><time>2026-04-26T08:44:33.553Z</time></trkpt><trkpt lat="45.4858967" lon="8.7983917"><ele>134.0</ele><time>2026-04-26T08:44:38.498Z</time></trkpt><trkpt lat="45.4859583" lon="8.7983083"><ele>134.0</ele><time>2026-04-26T08:44:42.498Z</time></trkpt><trkpt lat="45.4860083" lon="8.7981917"><ele>134.0</ele><time>2026-04-26T08:44:45.498Z</time></trkpt><trkpt lat="45.4860517" lon="8.79811"><ele>134.0</ele><time>2026-04-26T08:44:47.499Z</time></trkpt><trkpt lat="45.4861167" lon="8.7980033"><ele>134.0</ele><time>2026-04-26T08:44:49.498Z</time></trkpt><trkpt lat="45.4861733" lon="8.79791"><ele>134.0</ele><time>2026-04-26T08:44:51.498Z</time></trkpt><trkpt lat="45.4862383" lon="8.797825"><ele>134.2</ele><time>2026-04-26T08:44:53.499Z</time></trkpt><trkpt lat="45.4862983" lon="8.79775"><ele>134.4</ele><time>2026-04-26T08:44:55.499Z</time></trkpt><trkpt lat="45.486385" lon="8.79767"><ele>134.6</ele><time>2026-04-26T08:44:57.498Z</time></trkpt><trkpt lat="45.48648" lon="8.7976133"><ele>134.8</ele><time>2026-04-26T08:44:59.498Z</time></trkpt><trkpt lat="45.4865633" lon="8.7975583"><ele>135.0</ele><time>2026-04-26T08:45:01.497Z</time></trkpt><trkpt lat="45.4866817" lon="8.7975067"><ele>134.6</ele><time>2026-04-26T08:45:03.498Z</time></trkpt><trkpt lat="45.4867733" lon="8.7974767"><ele>134.2</ele><time>2026-04-26T08:45:05.497Z</time></trkpt><trkpt lat="45.4868717" lon="8.7974617"><ele>133.8</ele><time>2026-04-26T08:45:07.498Z</time></trkpt><trkpt lat="45.4869783" lon="8.79742"><ele>133.4</ele><time>2026-04-26T08:45:09.498Z</time></trkpt><trkpt lat="45.4870767" lon="8.7974033"><ele>133.0</ele><time>2026-04-26T08:45:11.498Z</time></trkpt><trkpt lat="45.4871667" lon="8.7973817"><ele>133.0</ele><time>2026-04-26T08:45:13.497Z</time></trkpt><trkpt lat="45.48725" lon="8.7973617"><ele>133.0</ele><time>2026-04-26T08:45:15.498Z</time></trkpt><trkpt lat="45.4873283" lon="8.7973617"><ele>133.0</ele><time>2026-04-26T08:45:17.497Z</time></trkpt><trkpt lat="45.48742" lon="8.797335"><ele>133.0</ele><time>2026-04-26T08:45:19.497Z</time></trkpt><trkpt lat="45.4875217" lon="8.7973167"><ele>133.0</ele><time>2026-04-26T08:45:21.498Z</time></trkpt><trkpt lat="45.4876317" lon="8.7973167"><ele>133.0</ele><time>2026-04-26T08:45:23.498Z</time></trkpt><trkpt lat="45.487745" lon="8.797315"><ele>133.0</ele><time>2026-04-26T08:45:25.497Z</time></trkpt><trkpt lat="45.4878567" lon="8.7972833"><ele>133.0</ele><time>2026-04-26T08:45:27.497Z</time></trkpt><trkpt lat="45.4879633" lon="8.79726"><ele>133.0</ele><time>2026-04-26T08:45:29.497Z</time></trkpt><trkpt lat="45.48807" lon="8.7972267"><ele>133.0</ele><time>2026-04-26T08:45:31.498Z</time></trkpt><trkpt lat="45.488175" lon="8.7972067"><ele>132.75</ele><time>2026-04-26T08:45:33.498Z</time></trkpt><trkpt lat="45.48828" lon="8.79719"><ele>132.5</ele><time>2026-04-26T08:45:35.498Z</time></trkpt><trkpt lat="45.4883867" lon="8.7971733"><ele>132.25</ele><time>2026-04-26T08:45:37.497Z</time></trkpt><trkpt lat="45.4885033" lon="8.7971667"><ele>132.0</ele><time>2026-04-26T08:45:39.498Z</time></trkpt><trkpt lat="45.4886233" lon="8.7971583"><ele>132.0</ele><time>2026-04-26T08:45:41.498Z</time></trkpt><trkpt lat="45.4887333" lon="8.7971483"><ele>132.0</ele><time>2026-04-26T08:45:43.498Z</time></trkpt><trkpt lat="45.4888383" lon="8.797145"><ele>132.0</ele><time>2026-04-26T08:45:45.497Z</time></trkpt><trkpt lat="45.48894" lon="8.7971617"><ele>132.0</ele><time>2026-04-26T08:45:47.497Z</time></trkpt><trkpt lat="45.4890533" lon="8.7971833"><ele>132.0</ele><time>2026-04-26T08:45:49.497Z</time></trkpt><trkpt lat="45.4891483" lon="8.7972083"><ele>132.2</ele><time>2026-04-26T08:45:51.498Z</time></trkpt><trkpt lat="45.48926" lon="8.7972233"><ele>132.39999999999998</ele><time>2026-04-26T08:45:53.498Z</time></trkpt><trkpt lat="45.4893783" lon="8.797245"><ele>132.60000000000002</ele><time>2026-04-26T08:45:55.497Z</time></trkpt><trkpt lat="45.4894917" lon="8.79728"><ele>132.8</ele><time>2026-04-26T08:45:57.497Z</time></trkpt><trkpt lat="45.489555" lon="8.7972967"><ele>133.0</ele><time>2026-04-26T08:45:58.497Z</time></trkpt><trkpt lat="45.48967" lon="8.7973217"><ele>133.25</ele><time>2026-04-26T08:46:00.498Z</time></trkpt><trkpt lat="45.489785" lon="8.797355"><ele>133.5</ele><time>2026-04-26T08:46:02.497Z</time></trkpt><trkpt lat="45.489895" lon="8.7974033"><ele>133.75</ele><time>2026-04-26T08:46:04.497Z</time></trkpt><trkpt lat="45.4900083" lon="8.7974583"><ele>134.0</ele><time>2026-04-26T08:46:06.498Z</time></trkpt><trkpt lat="45.490115" lon="8.7975117"><ele>134.0</ele><time>2026-04-26T08:46:08.497Z</time></trkpt><trkpt lat="45.49023" lon="8.79756"><ele>134.0</ele><time>2026-04-26T08:46:10.497Z</time></trkpt><trkpt lat="45.4903317" lon="8.79759"><ele>134.0</ele><time>2026-04-26T08:46:12.497Z</time></trkpt><trkpt lat="45.49044" lon="8.79761"><ele>134.0</ele><time>2026-04-26T08:46:14.497Z</time></trkpt><trkpt lat="45.4905583" lon="8.7976017"><ele>133.6</ele><time>2026-04-26T08:46:16.498Z</time></trkpt><trkpt lat="45.4906667" lon="8.7975567"><ele>133.2</ele><time>2026-04-26T08:46:18.498Z</time></trkpt><trkpt lat="45.4907733" lon="8.7974967"><ele>132.79999999999998</ele><time>2026-04-26T08:46:20.497Z</time></trkpt><trkpt lat="45.490865" lon="8.7974183"><ele>132.4</ele><time>2026-04-26T08:46:22.498Z</time></trkpt><trkpt lat="45.490955" lon="8.797335"><ele>132.0</ele><time>2026-04-26T08:46:24.498Z</time></trkpt><trkpt lat="45.4910333" lon="8.7972283"><ele>132.0</ele><time>2026-04-26T08:46:26.497Z</time></trkpt><trkpt lat="45.4911083" lon="8.797105"><ele>132.0</ele><time>2026-04-26T08:46:28.497Z</time></trkpt><trkpt lat="45.4911883" lon="8.7969733"><ele>132.0</ele><time>2026-04-26T08:46:30.497Z</time></trkpt><trkpt lat="45.4912533" lon="8.79685"><ele>132.0</ele><time>2026-04-26T08:46:32.498Z</time></trkpt><trkpt lat="45.4913217" lon="8.7967417"><ele>132.0</ele><time>2026-04-26T08:46:34.498Z</time></trkpt><trkpt lat="45.4913817" lon="8.7966167"><ele>132.25</ele><time>2026-04-26T08:46:36.498Z</time></trkpt><trkpt lat="45.491425" lon="8.7964683"><ele>132.5</ele><time>2026-04-26T08:46:38.497Z</time></trkpt><trkpt lat="45.4914517" lon="8.7963117"><ele>132.75</ele><time>2026-04-26T08:46:40.498Z</time></trkpt><trkpt lat="45.4914833" lon="8.7961417"><ele>133.0</ele><time>2026-04-26T08:46:42.497Z</time></trkpt><trkpt lat="45.4915117" lon="8.7959817"><ele>133.0</ele><time>2026-04-26T08:46:44.497Z</time></trkpt><trkpt lat="45.4915167" lon="8.795815"><ele>133.0</ele><time>2026-04-26T08:46:46.498Z</time></trkpt><trkpt lat="45.49152" lon="8.79572"><ele>133.0</ele><time>2026-04-26T08:46:47.498Z</time></trkpt><trkpt lat="45.491505" lon="8.79556"><ele>133.0</ele><time>2026-04-26T08:46:49.498Z</time></trkpt><trkpt lat="45.49151" lon="8.79547"><ele>133.0</ele><time>2026-04-26T08:46:50.498Z</time></trkpt><trkpt lat="45.4915117" lon="8.7952933"><ele>133.20000000000002</ele><time>2026-04-26T08:46:52.498Z</time></trkpt><trkpt lat="45.4915083" lon="8.795125"><ele>133.4</ele><time>2026-04-26T08:46:54.498Z</time></trkpt><trkpt lat="45.49149" lon="8.794975"><ele>133.60000000000002</ele><time>2026-04-26T08:46:56.498Z</time></trkpt><trkpt lat="45.4914917" lon="8.7948217"><ele>133.8</ele><time>2026-04-26T08:46:58.498Z</time></trkpt><trkpt lat="45.4914917" lon="8.7946683"><ele>134.0</ele><time>2026-04-26T08:47:00.498Z</time></trkpt><trkpt lat="45.4915017" lon="8.7945117"><ele>134.0</ele><time>2026-04-26T08:47:02.498Z</time></trkpt><trkpt lat="45.49152" lon="8.794385"><ele>134.0</ele><time>2026-04-26T08:47:04.497Z</time></trkpt><trkpt lat="45.4915333" lon="8.79425"><ele>134.0</ele><time>2026-04-26T08:47:06.498Z</time></trkpt><trkpt lat="45.4915533" lon="8.7941067"><ele>134.0</ele><time>2026-04-26T08:47:08.498Z</time></trkpt><trkpt lat="45.4915817" lon="8.7939667"><ele>134.0</ele><time>2026-04-26T08:47:10.498Z</time></trkpt><trkpt lat="45.49162" lon="8.7938483"><ele>133.6</ele><time>2026-04-26T08:47:12.498Z</time></trkpt><trkpt lat="45.4916567" lon="8.7937117"><ele>133.2</ele><time>2026-04-26T08:47:14.498Z</time></trkpt><trkpt lat="45.4916933" lon="8.7935617"><ele>132.79999999999998</ele><time>2026-04-26T08:47:16.497Z</time></trkpt><trkpt lat="45.4917267" lon="8.7934233"><ele>132.4</ele><time>2026-04-26T08:47:18.497Z</time></trkpt><trkpt lat="45.4917667" lon="8.7932933"><ele>132.0</ele><time>2026-04-26T08:47:20.497Z</time></trkpt><trkpt lat="45.4918033" lon="8.7931617"><ele>131.6</ele><time>2026-04-26T08:47:22.498Z</time></trkpt><trkpt lat="45.491845" lon="8.79304"><ele>131.2</ele><time>2026-04-26T08:47:24.498Z</time></trkpt><trkpt lat="45.4919033" lon="8.792915"><ele>130.8</ele><time>2026-04-26T08:47:26.497Z</time></trkpt><trkpt lat="45.4919633" lon="8.7928017"><ele>130.4</ele><time>2026-04-26T08:47:28.498Z</time></trkpt><trkpt lat="45.4920183" lon="8.792685"><ele>130.0</ele><time>2026-04-26T08:47:30.497Z</time></trkpt><trkpt lat="45.4920867" lon="8.7925683"><ele>130.4</ele><time>2026-04-26T08:47:32.498Z</time></trkpt><trkpt lat="45.492155" lon="8.792465"><ele>130.8</ele><time>2026-04-26T08:47:34.497Z</time></trkpt><trkpt lat="45.49223" lon="8.792355"><ele>131.2</ele><time>2026-04-26T08:47:36.497Z</time></trkpt><trkpt lat="45.49231" lon="8.7922733"><ele>131.6</ele><time>2026-04-26T08:47:38.497Z</time></trkpt><trkpt lat="45.4924017" lon="8.7921717"><ele>132.0</ele><time>2026-04-26T08:47:40.497Z</time></trkpt><trkpt lat="45.4925017" lon="8.7920933"><ele>132.0</ele><time>2026-04-26T08:47:42.497Z</time></trkpt><trkpt lat="45.49256" lon="8.792055"><ele>132.0</ele><time>2026-04-26T08:47:43.497Z</time></trkpt><trkpt lat="45.4926217" lon="8.792025"><ele>132.0</ele><time>2026-04-26T08:47:44.497Z</time></trkpt><trkpt lat="45.4927333" lon="8.7919733"><ele>132.0</ele><time>2026-04-26T08:47:46.497Z</time></trkpt><trkpt lat="45.4928517" lon="8.7919583"><ele>132.0</ele><time>2026-04-26T08:47:48.497Z</time></trkpt><trkpt lat="45.4929467" lon="8.7919667"><ele>132.6</ele><time>2026-04-26T08:47:50.497Z</time></trkpt><trkpt lat="45.493045" lon="8.7919883"><ele>133.2</ele><time>2026-04-26T08:47:52.497Z</time></trkpt><trkpt lat="45.4931483" lon="8.7920183"><ele>133.8</ele><time>2026-04-26T08:47:54.498Z</time></trkpt><trkpt lat="45.49325" lon="8.7920633"><ele>134.4</ele><time>2026-04-26T08:47:56.497Z</time></trkpt><trkpt lat="45.4933567" lon="8.7921267"><ele>135.0</ele><time>2026-04-26T08:47:58.497Z</time></trkpt><trkpt lat="45.49345" lon="8.7921833"><ele>135.0</ele><time>2026-04-26T08:48:00.497Z</time></trkpt><trkpt lat="45.49354" lon="8.7922433"><ele>135.0</ele><time>2026-04-26T08:48:02.497Z</time></trkpt><trkpt lat="45.4936317" lon="8.7922833"><ele>135.0</ele><time>2026-04-26T08:48:04.498Z</time></trkpt><trkpt lat="45.4937267" lon="8.79232"><ele>135.0</ele><time>2026-04-26T08:48:06.497Z</time></trkpt><trkpt lat="45.4938217" lon="8.7923683"><ele>135.0</ele><time>2026-04-26T08:48:08.498Z</time></trkpt><trkpt lat="45.4939133" lon="8.7923783"><ele>134.83333333333334</ele><time>2026-04-26T08:48:10.497Z</time></trkpt><trkpt lat="45.4940017" lon="8.7923983"><ele>134.66666666666666</ele><time>2026-04-26T08:48:12.497Z</time></trkpt><trkpt lat="45.49409" lon="8.7924117"><ele>134.5</ele><time>2026-04-26T08:48:14.498Z</time></trkpt><trkpt lat="45.4941583" lon="8.79243"><ele>134.33333333333331</ele><time>2026-04-26T08:48:16.498Z</time></trkpt><trkpt lat="45.4942283" lon="8.7924383"><ele>134.16666666666666</ele><time>2026-04-26T08:48:18.497Z</time></trkpt><trkpt lat="45.49429" lon="8.792415"><ele>134.0</ele><time>2026-04-26T08:48:20.497Z</time></trkpt><trkpt lat="45.4943683" lon="8.7924217"><ele>134.0</ele><time>2026-04-26T08:48:22.497Z</time></trkpt><trkpt lat="45.4944617" lon="8.792435"><ele>134.0</ele><time>2026-04-26T08:48:24.497Z</time></trkpt><trkpt lat="45.4945767" lon="8.7924467"><ele>134.0</ele><time>2026-04-26T08:48:26.497Z</time></trkpt><trkpt lat="45.494695" lon="8.79248"><ele>134.0</ele><time>2026-04-26T08:48:28.497Z</time></trkpt><trkpt lat="45.49476" lon="8.7925017"><ele>134.0</ele><time>2026-04-26T08:48:29.497Z</time></trkpt><trkpt lat="45.4948767" lon="8.7925417"><ele>133.8</ele><time>2026-04-26T08:48:31.498Z</time></trkpt><trkpt lat="45.494985" lon="8.7925683"><ele>133.60000000000002</ele><time>2026-04-26T08:48:33.498Z</time></trkpt><trkpt lat="45.495115" lon="8.7925867"><ele>133.4</ele><time>2026-04-26T08:48:35.498Z</time></trkpt><trkpt lat="45.4951817" lon="8.7925933"><ele>133.20000000000002</ele><time>2026-04-26T08:48:36.498Z</time></trkpt><trkpt lat="45.4952483" lon="8.7925983"><ele>133.0</ele><time>2026-04-26T08:48:37.498Z</time></trkpt><trkpt lat="45.49535" lon="8.792625"><ele>133.4</ele><time>2026-04-26T08:48:39.498Z</time></trkpt><trkpt lat="45.49544" lon="8.792665"><ele>133.8</ele><time>2026-04-26T08:48:41.497Z</time></trkpt><trkpt lat="45.4955367" lon="8.79267"><ele>134.2</ele><time>2026-04-26T08:48:43.498Z</time></trkpt><trkpt lat="45.49564" lon="8.792695"><ele>134.6</ele><time>2026-04-26T08:48:45.498Z</time></trkpt><trkpt lat="45.4957483" lon="8.792705"><ele>135.0</ele><time>2026-04-26T08:48:47.497Z</time></trkpt><trkpt lat="45.49586" lon="8.79269"><ele>135.0</ele><time>2026-04-26T08:48:49.497Z</time></trkpt><trkpt lat="45.4959733" lon="8.7927"><ele>135.0</ele><time>2026-04-26T08:48:51.498Z</time></trkpt><trkpt lat="45.4960867" lon="8.7927067"><ele>135.0</ele><time>2026-04-26T08:48:53.498Z</time></trkpt><trkpt lat="45.4962017" lon="8.7927183"><ele>135.0</ele><time>2026-04-26T08:48:55.497Z</time></trkpt><trkpt lat="45.496315" lon="8.7927233"><ele>135.4</ele><time>2026-04-26T08:48:57.498Z</time></trkpt><trkpt lat="45.4964317" lon="8.7927233"><ele>135.8</ele><time>2026-04-26T08:48:59.498Z</time></trkpt><trkpt lat="45.4965333" lon="8.79272"><ele>136.2</ele><time>2026-04-26T08:49:01.497Z</time></trkpt><trkpt lat="45.49664" lon="8.79272"><ele>136.6</ele><time>2026-04-26T08:49:03.498Z</time></trkpt><trkpt lat="45.496755" lon="8.7927167"><ele>137.0</ele><time>2026-04-26T08:49:05.498Z</time></trkpt><trkpt lat="45.4968683" lon="8.7927217"><ele>137.0</ele><time>2026-04-26T08:49:07.497Z</time></trkpt><trkpt lat="45.4969333" lon="8.792715"><ele>137.0</ele><time>2026-04-26T08:49:08.497Z</time></trkpt><trkpt lat="45.4970017" lon="8.7927117"><ele>137.0</ele><time>2026-04-26T08:49:09.497Z</time></trkpt><trkpt lat="45.4971183" lon="8.792695"><ele>137.0</ele><time>2026-04-26T08:49:11.498Z</time></trkpt><trkpt lat="45.49723" lon="8.7926833"><ele>137.0</ele><time>2026-04-26T08:49:13.497Z</time></trkpt><trkpt lat="45.4973517" lon="8.79265"><ele>137.2</ele><time>2026-04-26T08:49:15.497Z</time></trkpt><trkpt lat="45.4974717" lon="8.7925933"><ele>137.39999999999998</ele><time>2026-04-26T08:49:17.498Z</time></trkpt><trkpt lat="45.4975833" lon="8.792525"><ele>137.60000000000002</ele><time>2026-04-26T08:49:19.498Z</time></trkpt><trkpt lat="45.4976433" lon="8.7924967"><ele>137.8</ele><time>2026-04-26T08:49:20.497Z</time></trkpt><trkpt lat="45.4977033" lon="8.7924667"><ele>138.0</ele><time>2026-04-26T08:49:21.497Z</time></trkpt><trkpt lat="45.497815" lon="8.792405"><ele>139.0</ele><time>2026-04-26T08:49:23.498Z</time></trkpt><trkpt lat="45.4979233" lon="8.792335"><ele>140.0</ele><time>2026-04-26T08:49:25.498Z</time></trkpt><trkpt lat="45.49803" lon="8.7922533"><ele>141.0</ele><time>2026-04-26T08:49:27.498Z</time></trkpt><trkpt lat="45.498125" lon="8.792165"><ele>142.0</ele><time>2026-04-26T08:49:29.498Z</time></trkpt><trkpt lat="45.49822" lon="8.7920617"><ele>142.0</ele><time>2026-04-26T08:49:31.498Z</time></trkpt><trkpt lat="45.498275" lon="8.792005"><ele>142.0</ele><time>2026-04-26T08:49:32.497Z</time></trkpt><trkpt lat="45.4983267" lon="8.7919367"><ele>142.0</ele><time>2026-04-26T08:49:33.497Z</time></trkpt><trkpt lat="45.49841" lon="8.79181"><ele>142.0</ele><time>2026-04-26T08:49:35.498Z</time></trkpt><trkpt lat="45.4984733" lon="8.7916767"><ele>142.0</ele><time>2026-04-26T08:49:37.498Z</time></trkpt><trkpt lat="45.4985233" lon="8.7915983"><ele>142.0</ele><time>2026-04-26T08:49:38.498Z</time></trkpt><trkpt lat="45.498595" lon="8.7914667"><ele>141.0</ele><time>2026-04-26T08:49:40.498Z</time></trkpt><trkpt lat="45.4986333" lon="8.791395"><ele>140.0</ele><time>2026-04-26T08:49:41.498Z</time></trkpt><trkpt lat="45.498705" lon="8.7912583"><ele>139.0</ele><time>2026-04-26T08:49:43.498Z</time></trkpt><trkpt lat="45.4987533" lon="8.7911367"><ele>138.0</ele><time>2026-04-26T08:49:45.497Z</time></trkpt><trkpt lat="45.4988117" lon="8.790985"><ele>137.0</ele><time>2026-04-26T08:49:47.497Z</time></trkpt><trkpt lat="45.498855" lon="8.7908317"><ele>135.79999999999998</ele><time>2026-04-26T08:49:49.498Z</time></trkpt><trkpt lat="45.498875" lon="8.79069"><ele>134.6</ele><time>2026-04-26T08:49:51.498Z</time></trkpt><trkpt lat="45.4989117" lon="8.79053"><ele>133.39999999999998</ele><time>2026-04-26T08:49:53.497Z</time></trkpt><trkpt lat="45.49894" lon="8.7904433"><ele>132.2</ele><time>2026-04-26T08:49:54.498Z</time></trkpt><trkpt lat="45.498975" lon="8.7902833"><ele>131.0</ele><time>2026-04-26T08:49:56.497Z</time></trkpt><trkpt lat="45.4990183" lon="8.7901417"><ele>131.0</ele><time>2026-04-26T08:49:58.498Z</time></trkpt><trkpt lat="45.4990617" lon="8.78997"><ele>131.0</ele><time>2026-04-26T08:50:00.497Z</time></trkpt><trkpt lat="45.4990833" lon="8.7898817"><ele>131.0</ele><time>2026-04-26T08:50:01.498Z</time></trkpt><trkpt lat="45.4991117" lon="8.789795"><ele>131.0</ele><time>2026-04-26T08:50:02.497Z</time></trkpt><trkpt lat="45.4991467" lon="8.7896467"><ele>131.0</ele><time>2026-04-26T08:50:04.497Z</time></trkpt><trkpt lat="45.4991833" lon="8.7894867"><ele>131.4</ele><time>2026-04-26T08:50:06.498Z</time></trkpt><trkpt lat="45.4992183" lon="8.7893383"><ele>131.8</ele><time>2026-04-26T08:50:08.498Z</time></trkpt><trkpt lat="45.499245" lon="8.7891833"><ele>132.20000000000002</ele><time>2026-04-26T08:50:10.498Z</time></trkpt><trkpt lat="45.4992767" lon="8.7890333"><ele>132.6</ele><time>2026-04-26T08:50:12.497Z</time></trkpt><trkpt lat="45.4993267" lon="8.7888883"><ele>133.0</ele><time>2026-04-26T08:50:14.497Z</time></trkpt><trkpt lat="45.4993783" lon="8.7887583"><ele>133.0</ele><time>2026-04-26T08:50:16.498Z</time></trkpt><trkpt lat="45.4994283" lon="8.7886267"><ele>133.0</ele><time>2026-04-26T08:50:18.498Z</time></trkpt><trkpt lat="45.4994817" lon="8.7884833"><ele>133.0</ele><time>2026-04-26T08:50:20.497Z</time></trkpt><trkpt lat="45.4995517" lon="8.7883617"><ele>133.0</ele><time>2026-04-26T08:50:22.497Z</time></trkpt><trkpt lat="45.4996183" lon="8.78822"><ele>133.0</ele><time>2026-04-26T08:50:24.498Z</time></trkpt><trkpt lat="45.4996683" lon="8.7880867"><ele>133.0</ele><time>2026-04-26T08:50:26.498Z</time></trkpt><trkpt lat="45.4997167" lon="8.7879483"><ele>133.0</ele><time>2026-04-26T08:50:28.497Z</time></trkpt><trkpt lat="45.4997817" lon="8.7878167"><ele>133.0</ele><time>2026-04-26T08:50:30.497Z</time></trkpt><trkpt lat="45.4998467" lon="8.7876917"><ele>133.0</ele><time>2026-04-26T08:50:32.498Z</time></trkpt><trkpt lat="45.49991" lon="8.7875633"><ele>133.0</ele><time>2026-04-26T08:50:34.498Z</time></trkpt><trkpt lat="45.4999783" lon="8.7874183"><ele>133.0</ele><time>2026-04-26T08:50:36.497Z</time></trkpt><trkpt lat="45.5000433" lon="8.7872817"><ele>133.0</ele><time>2026-04-26T08:50:38.497Z</time></trkpt><trkpt lat="45.5001017" lon="8.7871483"><ele>133.0</ele><time>2026-04-26T08:50:40.497Z</time></trkpt><trkpt lat="45.500155" lon="8.7869933"><ele>133.0</ele><time>2026-04-26T08:50:42.497Z</time></trkpt><trkpt lat="45.5001767" lon="8.7868217"><ele>133.0</ele><time>2026-04-26T08:50:44.498Z</time></trkpt><trkpt lat="45.5001917" lon="8.7866567"><ele>133.0</ele><time>2026-04-26T08:50:46.498Z</time></trkpt><trkpt lat="45.5001833" lon="8.78649"><ele>133.0</ele><time>2026-04-26T08:50:48.497Z</time></trkpt><trkpt lat="45.500155" lon="8.7863317"><ele>133.0</ele><time>2026-04-26T08:50:50.497Z</time></trkpt><trkpt lat="45.5001283" lon="8.7861767"><ele>133.0</ele><time>2026-04-26T08:50:52.497Z</time></trkpt><trkpt lat="45.5001017" lon="8.786035"><ele>133.0</ele><time>2026-04-26T08:50:54.497Z</time></trkpt><trkpt lat="45.50008" lon="8.7858917"><ele>133.0</ele><time>2026-04-26T08:50:56.498Z</time></trkpt><trkpt lat="45.5000917" lon="8.785735"><ele>133.0</ele><time>2026-04-26T08:50:58.498Z</time></trkpt><trkpt lat="45.5000983" lon="8.78557"><ele>133.0</ele><time>2026-04-26T08:51:00.498Z</time></trkpt><trkpt lat="45.500105" lon="8.7854117"><ele>132.75</ele><time>2026-04-26T08:51:02.497Z</time></trkpt><trkpt lat="45.5001283" lon="8.785245"><ele>132.5</ele><time>2026-04-26T08:51:04.498Z</time></trkpt><trkpt lat="45.50015" lon="8.7850733"><ele>132.25</ele><time>2026-04-26T08:51:06.497Z</time></trkpt><trkpt lat="45.5001867" lon="8.7849167"><ele>132.0</ele><time>2026-04-26T08:51:08.497Z</time></trkpt><trkpt lat="45.500225" lon="8.7847617"><ele>132.0</ele><time>2026-04-26T08:51:10.498Z</time></trkpt><trkpt lat="45.50027" lon="8.78461"><ele>132.0</ele><time>2026-04-26T08:51:12.497Z</time></trkpt><trkpt lat="45.50032" lon="8.7844583"><ele>132.0</ele><time>2026-04-26T08:51:14.497Z</time></trkpt><trkpt lat="45.5003883" lon="8.7843333"><ele>132.0</ele><time>2026-04-26T08:51:16.498Z</time></trkpt><trkpt lat="45.5004767" lon="8.7842233"><ele>132.0</ele><time>2026-04-26T08:51:18.498Z</time></trkpt><trkpt lat="45.5005333" lon="8.7841817"><ele>132.0</ele><time>2026-04-26T08:51:19.497Z</time></trkpt><trkpt lat="45.5006367" lon="8.784105"><ele>132.0</ele><time>2026-04-26T08:51:21.497Z</time></trkpt><trkpt lat="45.5007367" lon="8.78404"><ele>132.0</ele><time>2026-04-26T08:51:23.498Z</time></trkpt><trkpt lat="45.5008367" lon="8.7839867"><ele>132.0</ele><time>2026-04-26T08:51:25.498Z</time></trkpt><trkpt lat="45.50095" lon="8.7839317"><ele>132.0</ele><time>2026-04-26T08:51:27.497Z</time></trkpt><trkpt lat="45.50106" lon="8.78388"><ele>132.0</ele><time>2026-04-26T08:51:29.496Z</time></trkpt><trkpt lat="45.5011733" lon="8.7838267"><ele>132.0</ele><time>2026-04-26T08:51:31.496Z</time></trkpt><trkpt lat="45.50128" lon="8.783765"><ele>132.0</ele><time>2026-04-26T08:51:33.496Z</time></trkpt><trkpt lat="45.5013967" lon="8.7837033"><ele>131.75</ele><time>2026-04-26T08:51:35.496Z</time></trkpt><trkpt lat="45.501505" lon="8.7836417"><ele>131.5</ele><time>2026-04-26T08:51:37.496Z</time></trkpt><trkpt lat="45.5016067" lon="8.783595"><ele>131.25</ele><time>2026-04-26T08:51:39.496Z</time></trkpt><trkpt lat="45.5017167" lon="8.7835083"><ele>131.0</ele><time>2026-04-26T08:51:41.497Z</time></trkpt><trkpt lat="45.5018233" lon="8.7834333"><ele>131.0</ele><time>2026-04-26T08:51:43.496Z</time></trkpt><trkpt lat="45.501925" lon="8.7833733"><ele>131.0</ele><time>2026-04-26T08:51:45.497Z</time></trkpt><trkpt lat="45.50202" lon="8.7832983"><ele>131.0</ele><time>2026-04-26T08:51:47.496Z</time></trkpt><trkpt lat="45.5021167" lon="8.78323"><ele>131.0</ele><time>2026-04-26T08:51:49.496Z</time></trkpt><trkpt lat="45.502205" lon="8.7831617"><ele>131.0</ele><time>2026-04-26T08:51:51.496Z</time></trkpt><trkpt lat="45.502305" lon="8.783095"><ele>131.6</ele><time>2026-04-26T08:51:53.497Z</time></trkpt><trkpt lat="45.502395" lon="8.7830417"><ele>132.2</ele><time>2026-04-26T08:51:55.497Z</time></trkpt><trkpt lat="45.5024817" lon="8.7829883"><ele>132.8</ele><time>2026-04-26T08:51:57.497Z</time></trkpt><trkpt lat="45.5025817" lon="8.7829483"><ele>133.4</ele><time>2026-04-26T08:51:59.497Z</time></trkpt><trkpt lat="45.5026817" lon="8.782885"><ele>134.0</ele><time>2026-04-26T08:52:01.497Z</time></trkpt><trkpt lat="45.5027883" lon="8.78283"><ele>134.0</ele><time>2026-04-26T08:52:03.496Z</time></trkpt><trkpt lat="45.5028983" lon="8.782775"><ele>134.0</ele><time>2026-04-26T08:52:05.496Z</time></trkpt><trkpt lat="45.5030083" lon="8.78273"><ele>134.0</ele><time>2026-04-26T08:52:07.496Z</time></trkpt><trkpt lat="45.5031233" lon="8.7827133"><ele>134.0</ele><time>2026-04-26T08:52:09.496Z</time></trkpt><trkpt lat="45.5032433" lon="8.782685"><ele>133.5</ele><time>2026-04-26T08:52:11.497Z</time></trkpt><trkpt lat="45.5033517" lon="8.78264"><ele>133.0</ele><time>2026-04-26T08:52:13.496Z</time></trkpt><trkpt lat="45.5034617" lon="8.7826017"><ele>132.5</ele><time>2026-04-26T08:52:15.496Z</time></trkpt><trkpt lat="45.503575" lon="8.7825283"><ele>132.0</ele><time>2026-04-26T08:52:17.496Z</time></trkpt><trkpt lat="45.5036767" lon="8.7824383"><ele>132.4</ele><time>2026-04-26T08:52:19.496Z</time></trkpt><trkpt lat="45.5037717" lon="8.7823367"><ele>132.79999999999998</ele><time>2026-04-26T08:52:21.497Z</time></trkpt><trkpt lat="45.50382" lon="8.782275"><ele>133.2</ele><time>2026-04-26T08:52:22.496Z</time></trkpt><trkpt lat="45.5039167" lon="8.7821467"><ele>133.6</ele><time>2026-04-26T08:52:24.496Z</time></trkpt><trkpt lat="45.5039567" lon="8.782075"><ele>134.0</ele><time>2026-04-26T08:52:25.497Z</time></trkpt><trkpt lat="45.5040333" lon="8.7819583"><ele>133.4</ele><time>2026-04-26T08:52:27.496Z</time></trkpt><trkpt lat="45.5041033" lon="8.78183"><ele>132.8</ele><time>2026-04-26T08:52:29.496Z</time></trkpt><trkpt lat="45.5041683" lon="8.7816967"><ele>132.2</ele><time>2026-04-26T08:52:31.496Z</time></trkpt><trkpt lat="45.504245" lon="8.781555"><ele>131.6</ele><time>2026-04-26T08:52:33.496Z</time></trkpt><trkpt lat="45.50429" lon="8.78149"><ele>131.0</ele><time>2026-04-26T08:52:34.496Z</time></trkpt><trkpt lat="45.5043567" lon="8.781365"><ele>131.0</ele><time>2026-04-26T08:52:36.496Z</time></trkpt><trkpt lat="45.5044117" lon="8.7812267"><ele>131.0</ele><time>2026-04-26T08:52:38.497Z</time></trkpt><trkpt lat="45.5044533" lon="8.781155"><ele>131.0</ele><time>2026-04-26T08:52:39.497Z</time></trkpt><trkpt lat="45.504485" lon="8.781075"><ele>131.0</ele><time>2026-04-26T08:52:40.496Z</time></trkpt><trkpt lat="45.504545" lon="8.7809367"><ele>131.0</ele><time>2026-04-26T08:52:42.497Z</time></trkpt><trkpt lat="45.504575" lon="8.780855"><ele>131.0</ele><time>2026-04-26T08:52:43.496Z</time></trkpt><trkpt lat="45.5046283" lon="8.7807117"><ele>131.0</ele><time>2026-04-26T08:52:45.496Z</time></trkpt><trkpt lat="45.50468" lon="8.7805633"><ele>131.0</ele><time>2026-04-26T08:52:47.497Z</time></trkpt><trkpt lat="45.5047267" lon="8.78043"><ele>131.0</ele><time>2026-04-26T08:52:49.496Z</time></trkpt><trkpt lat="45.5047817" lon="8.78029"><ele>131.0</ele><time>2026-04-26T08:52:51.496Z</time></trkpt><trkpt lat="45.504825" lon="8.780135"><ele>131.2</ele><time>2026-04-26T08:52:53.496Z</time></trkpt><trkpt lat="45.50487" lon="8.779995"><ele>131.39999999999998</ele><time>2026-04-26T08:52:55.496Z</time></trkpt><trkpt lat="45.5049083" lon="8.7798783"><ele>131.6</ele><time>2026-04-26T08:52:57.497Z</time></trkpt><trkpt lat="45.5049433" lon="8.7797333"><ele>131.79999999999998</ele><time>2026-04-26T08:52:59.496Z</time></trkpt><trkpt lat="45.5049883" lon="8.7795983"><ele>132.0</ele><time>2026-04-26T08:53:01.496Z</time></trkpt><trkpt lat="45.5050417" lon="8.7794567"><ele>132.6</ele><time>2026-04-26T08:53:03.497Z</time></trkpt><trkpt lat="45.5050817" lon="8.7793"><ele>133.2</ele><time>2026-04-26T08:53:05.496Z</time></trkpt><trkpt lat="45.5051217" lon="8.7791667"><ele>133.8</ele><time>2026-04-26T08:53:07.496Z</time></trkpt><trkpt lat="45.5051483" lon="8.7790183"><ele>134.4</ele><time>2026-04-26T08:53:09.497Z</time></trkpt><trkpt lat="45.5051783" lon="8.778865"><ele>135.0</ele><time>2026-04-26T08:53:11.497Z</time></trkpt><trkpt lat="45.5052067" lon="8.7787183"><ele>135.0</ele><time>2026-04-26T08:53:13.496Z</time></trkpt><trkpt lat="45.5052467" lon="8.7785867"><ele>135.0</ele><time>2026-04-26T08:53:15.496Z</time></trkpt><trkpt lat="45.505275" lon="8.778455"><ele>135.0</ele><time>2026-04-26T08:53:17.497Z</time></trkpt><trkpt lat="45.5053167" lon="8.778335"><ele>135.0</ele><time>2026-04-26T08:53:19.496Z</time></trkpt><trkpt lat="45.505355" lon="8.7781917"><ele>135.0</ele><time>2026-04-26T08:53:21.497Z</time></trkpt><trkpt lat="45.5054033" lon="8.7780333"><ele>134.66666666666666</ele><time>2026-04-26T08:53:23.496Z</time></trkpt><trkpt lat="45.50545" lon="8.77789"><ele>134.33333333333334</ele><time>2026-04-26T08:53:25.497Z</time></trkpt><trkpt lat="45.505475" lon="8.7778"><ele>134.0</ele><time>2026-04-26T08:53:26.496Z</time></trkpt><trkpt lat="45.5054933" lon="8.7777133"><ele>133.66666666666669</ele><time>2026-04-26T08:53:27.497Z</time></trkpt><trkpt lat="45.5055267" lon="8.7776233"><ele>133.33333333333334</ele><time>2026-04-26T08:53:28.496Z</time></trkpt><trkpt lat="45.505555" lon="8.7775233"><ele>133.0</ele><time>2026-04-26T08:53:29.497Z</time></trkpt><trkpt lat="45.5055833" lon="8.7774317"><ele>132.83333333333334</ele><time>2026-04-26T08:53:30.496Z</time></trkpt><trkpt lat="45.5056033" lon="8.7773417"><ele>132.66666666666669</ele><time>2026-04-26T08:53:31.497Z</time></trkpt><trkpt lat="45.5056417" lon="8.7771817"><ele>132.5</ele><time>2026-04-26T08:53:33.497Z</time></trkpt><trkpt lat="45.5056583" lon="8.77709"><ele>132.33333333333334</ele><time>2026-04-26T08:53:34.496Z</time></trkpt><trkpt lat="45.5056833" lon="8.7769233"><ele>132.16666666666666</ele><time>2026-04-26T08:53:36.496Z</time></trkpt><trkpt lat="45.50571" lon="8.7768383"><ele>132.0</ele><time>2026-04-26T08:53:37.496Z</time></trkpt><trkpt lat="45.5057283" lon="8.7767517"><ele>132.6</ele><time>2026-04-26T08:53:38.496Z</time></trkpt><trkpt lat="45.5057733" lon="8.7765883"><ele>133.2</ele><time>2026-04-26T08:53:40.496Z</time></trkpt><trkpt lat="45.505825" lon="8.7764217"><ele>133.8</ele><time>2026-04-26T08:53:42.496Z</time></trkpt><trkpt lat="45.50585" lon="8.7763383"><ele>134.4</ele><time>2026-04-26T08:53:43.496Z</time></trkpt><trkpt lat="45.505875" lon="8.776255"><ele>135.0</ele><time>2026-04-26T08:53:44.496Z</time></trkpt><trkpt lat="45.505935" lon="8.7761"><ele>135.0</ele><time>2026-04-26T08:53:46.496Z</time></trkpt><trkpt lat="45.505985" lon="8.7759433"><ele>135.0</ele><time>2026-04-26T08:53:48.496Z</time></trkpt><trkpt lat="45.5060317" lon="8.77579"><ele>135.0</ele><time>2026-04-26T08:53:50.497Z</time></trkpt><trkpt lat="45.506075" lon="8.7756333"><ele>135.0</ele><time>2026-04-26T08:53:52.496Z</time></trkpt><trkpt lat="45.5061067" lon="8.7754667"><ele>135.0</ele><time>2026-04-26T08:53:54.496Z</time></trkpt><trkpt lat="45.506135" lon="8.7753167"><ele>135.0</ele><time>2026-04-26T08:53:56.496Z</time></trkpt><trkpt lat="45.50618" lon="8.7751967"><ele>135.0</ele><time>2026-04-26T08:53:58.497Z</time></trkpt><trkpt lat="45.5062167" lon="8.7750783"><ele>135.0</ele><time>2026-04-26T08:54:00.497Z</time></trkpt><trkpt lat="45.5062433" lon="8.77499"><ele>135.0</ele><time>2026-04-26T08:54:02.496Z</time></trkpt><trkpt lat="45.5063183" lon="8.7750033"><ele>135.0</ele><time>2026-04-26T08:54:06.497Z</time></trkpt><trkpt lat="45.5064017" lon="8.77507"><ele>134.83333333333334</ele><time>2026-04-26T08:54:09.497Z</time></trkpt><trkpt lat="45.5064683" lon="8.7751217"><ele>134.66666666666666</ele><time>2026-04-26T08:54:11.496Z</time></trkpt><trkpt lat="45.5065233" lon="8.77519"><ele>134.5</ele><time>2026-04-26T08:54:13.497Z</time></trkpt><trkpt lat="45.5065567" lon="8.7753283"><ele>134.33333333333331</ele><time>2026-04-26T08:54:15.497Z</time></trkpt><trkpt lat="45.5065633" lon="8.7755117"><ele>134.16666666666666</ele><time>2026-04-26T08:54:17.496Z</time></trkpt><trkpt lat="45.5065467" lon="8.7756017"><ele>134.0</ele><time>2026-04-26T08:54:18.497Z</time></trkpt><trkpt lat="45.5065017" lon="8.7757633"><ele>133.6</ele><time>2026-04-26T08:54:20.497Z</time></trkpt><trkpt lat="45.50648" lon="8.77585"><ele>133.2</ele><time>2026-04-26T08:54:21.496Z</time></trkpt><trkpt lat="45.5064483" lon="8.7760083"><ele>132.79999999999998</ele><time>2026-04-26T08:54:23.497Z</time></trkpt><trkpt lat="45.5064667" lon="8.776145"><ele>132.4</ele><time>2026-04-26T08:54:25.497Z</time></trkpt><trkpt lat="45.5065517" lon="8.77626"><ele>132.0</ele><time>2026-04-26T08:54:27.497Z</time></trkpt><trkpt lat="45.5066533" lon="8.7763433"><ele>131.75</ele><time>2026-04-26T08:54:29.496Z</time></trkpt><trkpt lat="45.5067533" lon="8.77643"><ele>131.5</ele><time>2026-04-26T08:54:31.497Z</time></trkpt><trkpt lat="45.5068633" lon="8.7764983"><ele>131.25</ele><time>2026-04-26T08:54:33.497Z</time></trkpt><trkpt lat="45.506955" lon="8.7765833"><ele>131.0</ele><time>2026-04-26T08:54:35.496Z</time></trkpt><trkpt lat="45.5070517" lon="8.77667"><ele>131.2</ele><time>2026-04-26T08:54:37.497Z</time></trkpt><trkpt lat="45.5071367" lon="8.7767583"><ele>131.39999999999998</ele><time>2026-04-26T08:54:39.497Z</time></trkpt><trkpt lat="45.5072233" lon="8.7768467"><ele>131.6</ele><time>2026-04-26T08:54:41.497Z</time></trkpt><trkpt lat="45.50731" lon="8.7769333"><ele>131.79999999999998</ele><time>2026-04-26T08:54:43.497Z</time></trkpt><trkpt lat="45.5074017" lon="8.7770167"><ele>132.0</ele><time>2026-04-26T08:54:45.496Z</time></trkpt><trkpt lat="45.5075" lon="8.777105"><ele>132.0</ele><time>2026-04-26T08:54:47.496Z</time></trkpt><trkpt lat="45.5076117" lon="8.7771783"><ele>132.0</ele><time>2026-04-26T08:54:49.496Z</time></trkpt><trkpt lat="45.50772" lon="8.7772433"><ele>132.0</ele><time>2026-04-26T08:54:51.497Z</time></trkpt><trkpt lat="45.50782" lon="8.77731"><ele>132.0</ele><time>2026-04-26T08:54:53.496Z</time></trkpt><trkpt lat="45.507905" lon="8.7773917"><ele>132.0</ele><time>2026-04-26T08:54:55.496Z</time></trkpt><trkpt lat="45.50798" lon="8.7774683"><ele>132.0</ele><time>2026-04-26T08:54:57.497Z</time></trkpt><trkpt lat="45.5080667" lon="8.77753"><ele>132.0</ele><time>2026-04-26T08:54:59.497Z</time></trkpt><trkpt lat="45.5081467" lon="8.7776"><ele>132.0</ele><time>2026-04-26T08:55:01.497Z</time></trkpt><trkpt lat="45.5082167" lon="8.7776983"><ele>132.0</ele><time>2026-04-26T08:55:03.496Z</time></trkpt><trkpt lat="45.5082967" lon="8.77776"><ele>132.0</ele><time>2026-04-26T08:55:05.497Z</time></trkpt><trkpt lat="45.5083733" lon="8.7778267"><ele>132.0</ele><time>2026-04-26T08:55:07.496Z</time></trkpt><trkpt lat="45.5084467" lon="8.777895"><ele>132.0</ele><time>2026-04-26T08:55:09.497Z</time></trkpt><trkpt lat="45.5085267" lon="8.7779517"><ele>132.0</ele><time>2026-04-26T08:55:11.497Z</time></trkpt><trkpt lat="45.5086133" lon="8.7780033"><ele>132.0</ele><time>2026-04-26T08:55:13.497Z</time></trkpt><trkpt lat="45.5086933" lon="8.778065"><ele>132.79999999999998</ele><time>2026-04-26T08:55:15.496Z</time></trkpt><trkpt lat="45.5087867" lon="8.77812"><ele>133.6</ele><time>2026-04-26T08:55:17.497Z</time></trkpt><trkpt lat="45.5088767" lon="8.77817"><ele>134.39999999999998</ele><time>2026-04-26T08:55:19.497Z</time></trkpt><trkpt lat="45.50897" lon="8.7782133"><ele>135.2</ele><time>2026-04-26T08:55:21.496Z</time></trkpt><trkpt lat="45.509055" lon="8.7782483"><ele>136.0</ele><time>2026-04-26T08:55:23.497Z</time></trkpt><trkpt lat="45.5091433" lon="8.7782867"><ele>136.0</ele><time>2026-04-26T08:55:25.497Z</time></trkpt><trkpt lat="45.5092267" lon="8.7783117"><ele>136.0</ele><time>2026-04-26T08:55:27.496Z</time></trkpt><trkpt lat="45.5093083" lon="8.778335"><ele>136.0</ele><time>2026-04-26T08:55:29.496Z</time></trkpt><trkpt lat="45.5093783" lon="8.7783783"><ele>136.0</ele><time>2026-04-26T08:55:31.497Z</time></trkpt><trkpt lat="45.5094517" lon="8.7784183"><ele>136.0</ele><time>2026-04-26T08:55:33.497Z</time></trkpt><trkpt lat="45.509525" lon="8.7784517"><ele>136.0</ele><time>2026-04-26T08:55:35.496Z</time></trkpt><trkpt lat="45.5096" lon="8.778485"><ele>137.0</ele><time>2026-04-26T08:55:38.496Z</time></trkpt><trkpt lat="45.509685" lon="8.77852"><ele>138.0</ele><time>2026-04-26T08:55:41.496Z</time></trkpt><trkpt lat="45.5097667" lon="8.77856"><ele>139.0</ele><time>2026-04-26T08:55:44.497Z</time></trkpt><trkpt lat="45.5098367" lon="8.7785817"><ele>140.0</ele><time>2026-04-26T08:55:46.497Z</time></trkpt><trkpt lat="45.50991" lon="8.7786367"><ele>141.0</ele><time>2026-04-26T08:55:49.497Z</time></trkpt><trkpt lat="45.5099683" lon="8.7787"><ele>142.0</ele><time>2026-04-26T08:55:52.497Z</time></trkpt><trkpt lat="45.510035" lon="8.7787767"><ele>142.0</ele><time>2026-04-26T08:55:55.497Z</time></trkpt><trkpt lat="45.5100833" lon="8.77886"><ele>142.0</ele><time>2026-04-26T08:55:58.497Z</time></trkpt><trkpt lat="45.5101267" lon="8.7789433"><ele>142.0</ele><time>2026-04-26T08:56:01.497Z</time></trkpt><trkpt lat="45.51018" lon="8.7790317"><ele>142.0</ele><time>2026-04-26T08:56:04.497Z</time></trkpt><trkpt lat="45.51023" lon="8.779115"><ele>142.0</ele><time>2026-04-26T08:56:07.496Z</time></trkpt><trkpt lat="45.51028" lon="8.7791967"><ele>142.0</ele><time>2026-04-26T08:56:10.497Z</time></trkpt><trkpt lat="45.510335" lon="8.779265"><ele>142.0</ele><time>2026-04-26T08:56:13.496Z</time></trkpt><trkpt lat="45.5103833" lon="8.779335"><ele>142.0</ele><time>2026-04-26T08:56:16.497Z</time></trkpt><trkpt lat="45.510435" lon="8.7794067"><ele>142.0</ele><time>2026-04-26T08:56:19.496Z</time></trkpt><trkpt lat="45.5104867" lon="8.7794767"><ele>142.0</ele><time>2026-04-26T08:56:22.496Z</time></trkpt><trkpt lat="45.510535" lon="8.77955"><ele>142.0</ele><time>2026-04-26T08:56:25.497Z</time></trkpt><trkpt lat="45.5105817" lon="8.7796383"><ele>142.0</ele><time>2026-04-26T08:56:28.496Z</time></trkpt><trkpt lat="45.5106317" lon="8.7797183"><ele>142.0</ele><time>2026-04-26T08:56:31.497Z</time></trkpt><trkpt lat="45.5106783" lon="8.779795"><ele>143.28571428571428</ele><time>2026-04-26T08:56:34.497Z</time></trkpt><trkpt lat="45.51072" lon="8.7798767"><ele>144.57142857142856</ele><time>2026-04-26T08:56:37.496Z</time></trkpt><trkpt lat="45.51077" lon="8.779955"><ele>145.85714285714286</ele><time>2026-04-26T08:56:40.496Z</time></trkpt><trkpt lat="45.5108183" lon="8.7800283"><ele>147.14285714285714</ele><time>2026-04-26T08:56:43.496Z</time></trkpt><trkpt lat="45.510875" lon="8.7801033"><ele>148.42857142857144</ele><time>2026-04-26T08:56:46.496Z</time></trkpt><trkpt lat="45.5109167" lon="8.7801767"><ele>149.71428571428572</ele><time>2026-04-26T08:56:49.496Z</time></trkpt><trkpt lat="45.5109567" lon="8.78026"><ele>151.0</ele><time>2026-04-26T08:56:52.497Z</time></trkpt><trkpt lat="45.5109917" lon="8.7803517"><ele>151.5</ele><time>2026-04-26T08:56:55.496Z</time></trkpt><trkpt lat="45.5110533" lon="8.7804417"><ele>152.0</ele><time>2026-04-26T08:56:59.496Z</time></trkpt><trkpt lat="45.5110883" lon="8.780525"><ele>152.5</ele><time>2026-04-26T08:57:02.497Z</time></trkpt><trkpt lat="45.51111" lon="8.7806217"><ele>153.0</ele><time>2026-04-26T08:57:05.496Z</time></trkpt><trkpt lat="45.51115" lon="8.78071"><ele>153.5</ele><time>2026-04-26T08:57:08.496Z</time></trkpt><trkpt lat="45.5112" lon="8.7808183"><ele>154.0</ele><time>2026-04-26T08:57:11.496Z</time></trkpt><trkpt lat="45.5112267" lon="8.7809083"><ele>155.16666666666669</ele><time>2026-04-26T08:57:13.496Z</time></trkpt><trkpt lat="45.5112483" lon="8.781"><ele>156.33333333333334</ele><time>2026-04-26T08:57:15.497Z</time></trkpt><trkpt lat="45.5112767" lon="8.78111"><ele>157.5</ele><time>2026-04-26T08:57:17.497Z</time></trkpt><trkpt lat="45.5113033" lon="8.7812117"><ele>158.66666666666666</ele><time>2026-04-26T08:57:19.496Z</time></trkpt><trkpt lat="45.5113267" lon="8.781315"><ele>159.83333333333331</ele><time>2026-04-26T08:57:21.496Z</time></trkpt><trkpt lat="45.51136" lon="8.7814133"><ele>161.0</ele><time>2026-04-26T08:57:23.497Z</time></trkpt><trkpt lat="45.5114017" lon="8.781505"><ele>161.0</ele><time>2026-04-26T08:57:25.496Z</time></trkpt><trkpt lat="45.5114417" lon="8.7815917"><ele>161.0</ele><time>2026-04-26T08:57:27.496Z</time></trkpt><trkpt lat="45.5114717" lon="8.7817283"><ele>161.0</ele><time>2026-04-26T08:57:29.496Z</time></trkpt><trkpt lat="45.5115067" lon="8.7818467"><ele>161.0</ele><time>2026-04-26T08:57:31.497Z</time></trkpt><trkpt lat="45.5115417" lon="8.7819567"><ele>161.0</ele><time>2026-04-26T08:57:33.497Z</time></trkpt><trkpt lat="45.5115783" lon="8.78205"><ele>161.0</ele><time>2026-04-26T08:57:35.496Z</time></trkpt><trkpt lat="45.511615" lon="8.7821633"><ele>160.8</ele><time>2026-04-26T08:57:37.497Z</time></trkpt><trkpt lat="45.5116617" lon="8.7822883"><ele>160.60000000000002</ele><time>2026-04-26T08:57:39.497Z</time></trkpt><trkpt lat="45.5117183" lon="8.7823967"><ele>160.4</ele><time>2026-04-26T08:57:41.496Z</time></trkpt><trkpt lat="45.5117767" lon="8.7824917"><ele>160.2</ele><time>2026-04-26T08:57:43.497Z</time></trkpt><trkpt lat="45.51185" lon="8.7825083"><ele>160.0</ele><time>2026-04-26T08:57:45.496Z</time></trkpt><trkpt lat="45.51194" lon="8.78246"><ele>160.0</ele><time>2026-04-26T08:57:47.496Z</time></trkpt><trkpt lat="45.5120131" lon="8.7823942"><ele>160.0</ele><time>2026-04-26T08:57:49.539Z</time></trkpt><trkpt lat="45.5120965" lon="8.782331"><ele>160.0</ele><time>2026-04-26T08:57:51.538Z</time></trkpt><trkpt lat="45.512185" lon="8.7822919"><ele>160.0</ele><time>2026-04-26T08:57:53.539Z</time></trkpt><trkpt lat="45.5122433" lon="8.7822483"><ele>160.0</ele><time>2026-04-26T08:57:55.496Z</time></trkpt><trkpt lat="45.5123117" lon="8.782205"><ele>160.0</ele><time>2026-04-26T08:57:57.497Z</time></trkpt><trkpt lat="45.51238" lon="8.7821717"><ele>160.0</ele><time>2026-04-26T08:57:59.496Z</time></trkpt><trkpt lat="45.5124617" lon="8.7821283"><ele>160.0</ele><time>2026-04-26T08:58:01.496Z</time></trkpt><trkpt lat="45.5125333" lon="8.7820683"><ele>160.0</ele><time>2026-04-26T08:58:03.496Z</time></trkpt><trkpt lat="45.5126133" lon="8.7820067"><ele>160.0</ele><time>2026-04-26T08:58:05.497Z</time></trkpt><trkpt lat="45.5126983" lon="8.781945"><ele>160.0</ele><time>2026-04-26T08:58:07.496Z</time></trkpt><trkpt lat="45.5127683" lon="8.7819083"><ele>160.0</ele><time>2026-04-26T08:58:09.495Z</time></trkpt><trkpt lat="45.5128433" lon="8.7818783"><ele>160.16666666666669</ele><time>2026-04-26T08:58:11.495Z</time></trkpt><trkpt lat="45.512925" lon="8.7818367"><ele>160.33333333333334</ele><time>2026-04-26T08:58:13.495Z</time></trkpt><trkpt lat="45.51301" lon="8.7817833"><ele>160.5</ele><time>2026-04-26T08:58:15.495Z</time></trkpt><trkpt lat="45.51308" lon="8.7817383"><ele>160.66666666666666</ele><time>2026-04-26T08:58:17.496Z</time></trkpt><trkpt lat="45.5131483" lon="8.7817017"><ele>160.83333333333331</ele><time>2026-04-26T08:58:19.495Z</time></trkpt><trkpt lat="45.51322" lon="8.7816833"><ele>161.0</ele><time>2026-04-26T08:58:21.495Z</time></trkpt><trkpt lat="45.5132967" lon="8.7816267"><ele>161.0</ele><time>2026-04-26T08:58:23.496Z</time></trkpt><trkpt lat="45.51337" lon="8.781565"><ele>161.0</ele><time>2026-04-26T08:58:25.496Z</time></trkpt><trkpt lat="45.51345" lon="8.7815283"><ele>161.0</ele><time>2026-04-26T08:58:27.496Z</time></trkpt><trkpt lat="45.51352" lon="8.78145"><ele>161.0</ele><time>2026-04-26T08:58:29.495Z</time></trkpt><trkpt lat="45.5135983" lon="8.7813867"><ele>161.0</ele><time>2026-04-26T08:58:31.495Z</time></trkpt><trkpt lat="45.5136817" lon="8.78134"><ele>161.0</ele><time>2026-04-26T08:58:33.496Z</time></trkpt><trkpt lat="45.513765" lon="8.781275"><ele>160.8</ele><time>2026-04-26T08:58:35.496Z</time></trkpt><trkpt lat="45.5138567" lon="8.781235"><ele>160.60000000000002</ele><time>2026-04-26T08:58:37.495Z</time></trkpt><trkpt lat="45.5139417" lon="8.7811833"><ele>160.4</ele><time>2026-04-26T08:58:39.496Z</time></trkpt><trkpt lat="45.51403" lon="8.7811333"><ele>160.2</ele><time>2026-04-26T08:58:41.495Z</time></trkpt><trkpt lat="45.5141217" lon="8.7810817"><ele>160.0</ele><time>2026-04-26T08:58:43.496Z</time></trkpt><trkpt lat="45.5142067" lon="8.78103"><ele>160.0</ele><time>2026-04-26T08:58:45.496Z</time></trkpt><trkpt lat="45.5142967" lon="8.7809717"><ele>160.0</ele><time>2026-04-26T08:58:47.496Z</time></trkpt><trkpt lat="45.5143817" lon="8.7809367"><ele>160.0</ele><time>2026-04-26T08:58:49.496Z</time></trkpt><trkpt lat="45.5144783" lon="8.7808883"><ele>160.0</ele><time>2026-04-26T08:58:51.495Z</time></trkpt><trkpt lat="45.514585" lon="8.78085"><ele>160.0</ele><time>2026-04-26T08:58:53.495Z</time></trkpt><trkpt lat="45.51469" lon="8.78082"><ele>160.2</ele><time>2026-04-26T08:58:55.495Z</time></trkpt><trkpt lat="45.5147833" lon="8.7807933"><ele>160.4</ele><time>2026-04-26T08:58:57.495Z</time></trkpt><trkpt lat="45.5148783" lon="8.78076"><ele>160.60000000000002</ele><time>2026-04-26T08:58:59.495Z</time></trkpt><trkpt lat="45.5149783" lon="8.7807217"><ele>160.8</ele><time>2026-04-26T08:59:01.496Z</time></trkpt><trkpt lat="45.5150817" lon="8.78069"><ele>161.0</ele><time>2026-04-26T08:59:03.496Z</time></trkpt><trkpt lat="45.5151883" lon="8.7806733"><ele>161.0</ele><time>2026-04-26T08:59:05.495Z</time></trkpt><trkpt lat="45.5152867" lon="8.7806617"><ele>161.0</ele><time>2026-04-26T08:59:07.495Z</time></trkpt><trkpt lat="45.5153817" lon="8.780645"><ele>161.0</ele><time>2026-04-26T08:59:09.496Z</time></trkpt><trkpt lat="45.5154883" lon="8.7806233"><ele>161.0</ele><time>2026-04-26T08:59:11.495Z</time></trkpt><trkpt lat="45.5155867" lon="8.7806"><ele>161.0</ele><time>2026-04-26T08:59:13.496Z</time></trkpt><trkpt lat="45.5156867" lon="8.78059"><ele>161.20000000000002</ele><time>2026-04-26T08:59:15.495Z</time></trkpt><trkpt lat="45.5157933" lon="8.780555"><ele>161.4</ele><time>2026-04-26T08:59:17.495Z</time></trkpt><trkpt lat="45.515895" lon="8.7805317"><ele>161.6</ele><time>2026-04-26T08:59:19.496Z</time></trkpt><trkpt lat="45.5160067" lon="8.7805217"><ele>161.8</ele><time>2026-04-26T08:59:21.495Z</time></trkpt><trkpt lat="45.5161083" lon="8.7804967"><ele>162.0</ele><time>2026-04-26T08:59:23.496Z</time></trkpt><trkpt lat="45.5162117" lon="8.7804833"><ele>161.8</ele><time>2026-04-26T08:59:25.496Z</time></trkpt><trkpt lat="45.5163217" lon="8.7804617"><ele>161.6</ele><time>2026-04-26T08:59:27.496Z</time></trkpt><trkpt lat="45.51643" lon="8.780435"><ele>161.4</ele><time>2026-04-26T08:59:29.496Z</time></trkpt><trkpt lat="45.5165367" lon="8.7804033"><ele>161.20000000000002</ele><time>2026-04-26T08:59:31.495Z</time></trkpt><trkpt lat="45.5166333" lon="8.780385"><ele>161.0</ele><time>2026-04-26T08:59:33.495Z</time></trkpt><trkpt lat="45.5167367" lon="8.78038"><ele>161.0</ele><time>2026-04-26T08:59:35.496Z</time></trkpt><trkpt lat="45.5168267" lon="8.78037"><ele>161.0</ele><time>2026-04-26T08:59:37.495Z</time></trkpt><trkpt lat="45.51691" lon="8.7804033"><ele>161.0</ele><time>2026-04-26T08:59:39.496Z</time></trkpt><trkpt lat="45.516985" lon="8.7804667"><ele>161.0</ele><time>2026-04-26T08:59:41.496Z</time></trkpt><trkpt lat="45.5170633" lon="8.78053"><ele>161.0</ele><time>2026-04-26T08:59:43.496Z</time></trkpt><trkpt lat="45.517145" lon="8.780565"><ele>161.0</ele><time>2026-04-26T08:59:45.495Z</time></trkpt><trkpt lat="45.517245" lon="8.7805817"><ele>161.4</ele><time>2026-04-26T08:59:47.496Z</time></trkpt><trkpt lat="45.517355" lon="8.7806"><ele>161.8</ele><time>2026-04-26T08:59:49.495Z</time></trkpt><trkpt lat="45.51745" lon="8.7806133"><ele>162.20000000000002</ele><time>2026-04-26T08:59:51.496Z</time></trkpt><trkpt lat="45.5175467" lon="8.7806333"><ele>162.60000000000002</ele><time>2026-04-26T08:59:53.496Z</time></trkpt><trkpt lat="45.5176417" lon="8.7806583"><ele>163.0</ele><time>2026-04-26T08:59:55.495Z</time></trkpt><trkpt lat="45.5177267" lon="8.7806917"><ele>163.0</ele><time>2026-04-26T08:59:57.495Z</time></trkpt><trkpt lat="45.5178217" lon="8.7807283"><ele>163.0</ele><time>2026-04-26T08:59:59.495Z</time></trkpt><trkpt lat="45.517915" lon="8.780755"><ele>163.0</ele><time>2026-04-26T09:00:01.495Z</time></trkpt><trkpt lat="45.5180067" lon="8.7807767"><ele>163.0</ele><time>2026-04-26T09:00:03.496Z</time></trkpt><trkpt lat="45.5181083" lon="8.7807983"><ele>163.0</ele><time>2026-04-26T09:00:05.495Z</time></trkpt><trkpt lat="45.5182167" lon="8.78084"><ele>163.4</ele><time>2026-04-26T09:00:07.496Z</time></trkpt><trkpt lat="45.5182967" lon="8.78094"><ele>163.8</ele><time>2026-04-26T09:00:09.496Z</time></trkpt><trkpt lat="45.5183433" lon="8.7810733"><ele>164.2</ele><time>2026-04-26T09:00:11.495Z</time></trkpt><trkpt lat="45.5183833" lon="8.78121"><ele>164.6</ele><time>2026-04-26T09:00:13.496Z</time></trkpt><trkpt lat="45.5184217" lon="8.7813367"><ele>165.0</ele><time>2026-04-26T09:00:15.496Z</time></trkpt><trkpt lat="45.5184317" lon="8.7814817"><ele>165.2</ele><time>2026-04-26T09:00:17.495Z</time></trkpt><trkpt lat="45.5184817" lon="8.7816033"><ele>165.4</ele><time>2026-04-26T09:00:19.495Z</time></trkpt><trkpt lat="45.5185283" lon="8.7817267"><ele>165.60000000000002</ele><time>2026-04-26T09:00:21.495Z</time></trkpt><trkpt lat="45.518575" lon="8.7818283"><ele>165.8</ele><time>2026-04-26T09:00:23.495Z</time></trkpt><trkpt lat="45.5186033" lon="8.7819433"><ele>166.0</ele><time>2026-04-26T09:00:25.495Z</time></trkpt><trkpt lat="45.5186383" lon="8.7820733"><ele>166.0</ele><time>2026-04-26T09:00:27.495Z</time></trkpt><trkpt lat="45.5186833" lon="8.7821933"><ele>166.0</ele><time>2026-04-26T09:00:29.496Z</time></trkpt><trkpt lat="45.5187183" lon="8.782315"><ele>166.0</ele><time>2026-04-26T09:00:31.495Z</time></trkpt><trkpt lat="45.51876" lon="8.782435"><ele>166.0</ele><time>2026-04-26T09:00:33.496Z</time></trkpt><trkpt lat="45.5187917" lon="8.78254"><ele>166.0</ele><time>2026-04-26T09:00:35.496Z</time></trkpt><trkpt lat="45.518835" lon="8.7826483"><ele>166.0</ele><time>2026-04-26T09:00:37.496Z</time></trkpt><trkpt lat="45.5188733" lon="8.7827733"><ele>165.83333333333334</ele><time>2026-04-26T09:00:39.496Z</time></trkpt><trkpt lat="45.5189117" lon="8.782895"><ele>165.66666666666669</ele><time>2026-04-26T09:00:41.496Z</time></trkpt><trkpt lat="45.51895" lon="8.78301"><ele>165.5</ele><time>2026-04-26T09:00:43.496Z</time></trkpt><trkpt lat="45.5189833" lon="8.78312"><ele>165.33333333333334</ele><time>2026-04-26T09:00:45.495Z</time></trkpt><trkpt lat="45.519015" lon="8.7832167"><ele>165.16666666666666</ele><time>2026-04-26T09:00:47.496Z</time></trkpt><trkpt lat="45.519055" lon="8.7833183"><ele>165.0</ele><time>2026-04-26T09:00:49.495Z</time></trkpt><trkpt lat="45.5190967" lon="8.7834333"><ele>164.83333333333334</ele><time>2026-04-26T09:00:51.495Z</time></trkpt><trkpt lat="45.5191367" lon="8.7835483"><ele>164.66666666666666</ele><time>2026-04-26T09:00:53.496Z</time></trkpt><trkpt lat="45.51917" lon="8.7836733"><ele>164.5</ele><time>2026-04-26T09:00:55.496Z</time></trkpt><trkpt lat="45.5192067" lon="8.783785"><ele>164.33333333333331</ele><time>2026-04-26T09:00:57.495Z</time></trkpt><trkpt lat="45.519235" lon="8.7839133"><ele>164.16666666666666</ele><time>2026-04-26T09:00:59.496Z</time></trkpt><trkpt lat="45.5192583" lon="8.7840083"><ele>164.0</ele><time>2026-04-26T09:01:01.496Z</time></trkpt><trkpt lat="45.5192833" lon="8.7841133"><ele>164.0</ele><time>2026-04-26T09:01:03.496Z</time></trkpt><trkpt lat="45.519325" lon="8.7842417"><ele>164.0</ele><time>2026-04-26T09:01:05.495Z</time></trkpt><trkpt lat="45.5193683" lon="8.784345"><ele>164.0</ele><time>2026-04-26T09:01:07.495Z</time></trkpt><trkpt lat="45.5194083" lon="8.7844567"><ele>164.0</ele><time>2026-04-26T09:01:09.496Z</time></trkpt><trkpt lat="45.5194417" lon="8.7845783"><ele>164.0</ele><time>2026-04-26T09:01:11.496Z</time></trkpt><trkpt lat="45.5194783" lon="8.78468"><ele>164.0</ele><time>2026-04-26T09:01:13.496Z</time></trkpt><trkpt lat="45.5195117" lon="8.78479"><ele>163.79999999999998</ele><time>2026-04-26T09:01:15.496Z</time></trkpt><trkpt lat="45.51954" lon="8.7849167"><ele>163.6</ele><time>2026-04-26T09:01:17.495Z</time></trkpt><trkpt lat="45.5195983" lon="8.785005"><ele>163.4</ele><time>2026-04-26T09:01:19.496Z</time></trkpt><trkpt lat="45.5197033" lon="8.7850033"><ele>163.2</ele><time>2026-04-26T09:01:21.495Z</time></trkpt><trkpt lat="45.5197883" lon="8.7849283"><ele>163.0</ele><time>2026-04-26T09:01:23.496Z</time></trkpt><trkpt lat="45.51987" lon="8.7848583"><ele>163.0</ele><time>2026-04-26T09:01:25.496Z</time></trkpt><trkpt lat="45.5199467" lon="8.784805"><ele>163.0</ele><time>2026-04-26T09:01:27.495Z</time></trkpt><trkpt lat="45.52002" lon="8.784755"><ele>163.0</ele><time>2026-04-26T09:01:29.495Z</time></trkpt><trkpt lat="45.5201033" lon="8.784685"><ele>163.0</ele><time>2026-04-26T09:01:31.496Z</time></trkpt><trkpt lat="45.520185" lon="8.7846383"><ele>163.0</ele><time>2026-04-26T09:01:33.496Z</time></trkpt><trkpt lat="45.520265" lon="8.7845883"><ele>163.0</ele><time>2026-04-26T09:01:35.495Z</time></trkpt><trkpt lat="45.5203483" lon="8.7845267"><ele>163.16666666666669</ele><time>2026-04-26T09:01:37.496Z</time></trkpt><trkpt lat="45.5204367" lon="8.7844583"><ele>163.33333333333334</ele><time>2026-04-26T09:01:39.495Z</time></trkpt><trkpt lat="45.5205033" lon="8.7843933"><ele>163.5</ele><time>2026-04-26T09:01:41.496Z</time></trkpt><trkpt lat="45.5205817" lon="8.78435"><ele>163.66666666666666</ele><time>2026-04-26T09:01:43.495Z</time></trkpt><trkpt lat="45.5206617" lon="8.7842917"><ele>163.83333333333331</ele><time>2026-04-26T09:01:45.496Z</time></trkpt><trkpt lat="45.5207483" lon="8.7842417"><ele>164.0</ele><time>2026-04-26T09:01:47.496Z</time></trkpt><trkpt lat="45.5208267" lon="8.7841983"><ele>164.16666666666666</ele><time>2026-04-26T09:01:49.496Z</time></trkpt><trkpt lat="45.5209033" lon="8.7841467"><ele>164.33333333333331</ele><time>2026-04-26T09:01:51.495Z</time></trkpt><trkpt lat="45.520975" lon="8.784085"><ele>164.5</ele><time>2026-04-26T09:01:53.495Z</time></trkpt><trkpt lat="45.5210533" lon="8.7840367"><ele>164.66666666666666</ele><time>2026-04-26T09:01:55.496Z</time></trkpt><trkpt lat="45.521135" lon="8.7839917"><ele>164.83333333333334</ele><time>2026-04-26T09:01:57.495Z</time></trkpt><trkpt lat="45.5212133" lon="8.7839517"><ele>165.0</ele><time>2026-04-26T09:01:59.496Z</time></trkpt><trkpt lat="45.5212967" lon="8.7839617"><ele>165.0</ele><time>2026-04-26T09:02:01.496Z</time></trkpt><trkpt lat="45.5213867" lon="8.783965"><ele>165.0</ele><time>2026-04-26T09:02:03.495Z</time></trkpt><trkpt lat="45.521465" lon="8.7839417"><ele>165.0</ele><time>2026-04-26T09:02:05.496Z</time></trkpt><trkpt lat="45.5215417" lon="8.7839117"><ele>165.0</ele><time>2026-04-26T09:02:07.496Z</time></trkpt><trkpt lat="45.5216183" lon="8.7838817"><ele>165.0</ele><time>2026-04-26T09:02:09.496Z</time></trkpt><trkpt lat="45.5216917" lon="8.7838533"><ele>165.0</ele><time>2026-04-26T09:02:11.495Z</time></trkpt><trkpt lat="45.5217617" lon="8.7838067"><ele>165.00000000000003</ele><time>2026-04-26T09:02:13.495Z</time></trkpt><trkpt lat="45.521825" lon="8.7837767"><ele>165.0</ele><time>2026-04-26T09:02:15.495Z</time></trkpt><trkpt lat="45.5219083" lon="8.7837383"><ele>165.0</ele><time>2026-04-26T09:02:18.496Z</time></trkpt><trkpt lat="45.52198" lon="8.7836817"><ele>165.0</ele><time>2026-04-26T09:02:21.496Z</time></trkpt><trkpt lat="45.5220417" lon="8.7836317"><ele>165.0</ele><time>2026-04-26T09:02:24.495Z</time></trkpt><trkpt lat="45.5221067" lon="8.7836067"><ele>165.00000000000003</ele><time>2026-04-26T09:02:28.496Z</time></trkpt><trkpt lat="45.5221767" lon="8.7835683"><ele>165.0</ele><time>2026-04-26T09:02:33.496Z</time></trkpt><trkpt lat="45.5222483" lon="8.78356"><ele>165.0</ele><time>2026-04-26T09:02:39.495Z</time></trkpt></trkseg></trk></gpx>